<?xml version="1.0" encoding="UTF-8" standalone="no" ?>
<gpx xmlns="http://www.topografix.com/GPX/1/1" xmlns:xsi="http://www.w3.org/2001/XMLSchema-instance" xsi:schemaLocation="http://www.topografix.com/GPX/1/1 http://www.topografix.com/GPX/1/1/gpx.xsd" version="1.1" creator="VisuGPX - https://www.visugpx.com">
  <metadata>
    <name>La Bourbe Le Noirmont Le Mt Sala Le creux à la neige</name>
  </metadata>
  <trk>
    <name><![CDATA[La Bourbe Le Noirmont Le Mt Sala Le creux à la neige_1]]></name>
    <extensions>
      <line xmlns="http://www.topografix.com/GPX/gpx_style/0/2">
        <color>0000FF</color>
        <width>4</width>
      </line>
    </extensions>
    <trkseg>
      <trkpt lat="46.50343" lon="6.109">
        <ele>1120.8</ele>
        <time>2022-07-12T06:59:52Z</time>
      </trkpt>
      <trkpt lat="46.50338" lon="6.10897">
        <ele>1115.6</ele>
        <time>2022-07-12T07:00:03Z</time>
      </trkpt>
      <trkpt lat="46.50336" lon="6.10903">
        <ele>1117.4</ele>
        <time>2022-07-12T07:00:07Z</time>
      </trkpt>
      <trkpt lat="46.50339" lon="6.10907">
        <ele>1127.2</ele>
        <time>2022-07-12T07:00:17Z</time>
      </trkpt>
      <trkpt lat="46.50337" lon="6.10913">
        <ele>1131.5</ele>
        <time>2022-07-12T07:00:28Z</time>
      </trkpt>
      <trkpt lat="46.50335" lon="6.10918">
        <ele>1131.4</ele>
        <time>2022-07-12T07:00:34Z</time>
      </trkpt>
      <trkpt lat="46.50331" lon="6.10923">
        <ele>1132.8</ele>
        <time>2022-07-12T07:00:40Z</time>
      </trkpt>
      <trkpt lat="46.50327" lon="6.10929">
        <ele>1133.5</ele>
        <time>2022-07-12T07:00:46Z</time>
      </trkpt>
      <trkpt lat="46.50324" lon="6.10935">
        <ele>1133.7</ele>
        <time>2022-07-12T07:00:50Z</time>
      </trkpt>
      <trkpt lat="46.50322" lon="6.10941">
        <ele>1134.4</ele>
        <time>2022-07-12T07:00:55Z</time>
      </trkpt>
      <trkpt lat="46.50321" lon="6.10948">
        <ele>1135.6</ele>
        <time>2022-07-12T07:01:01Z</time>
      </trkpt>
      <trkpt lat="46.50321" lon="6.10956">
        <ele>1136.9</ele>
        <time>2022-07-12T07:01:07Z</time>
      </trkpt>
      <trkpt lat="46.50324" lon="6.10961">
        <ele>1137.2</ele>
        <time>2022-07-12T07:01:12Z</time>
      </trkpt>
      <trkpt lat="46.50328" lon="6.10966">
        <ele>1135.4</ele>
        <time>2022-07-12T07:01:17Z</time>
      </trkpt>
      <trkpt lat="46.50331" lon="6.10972">
        <ele>1133.6</ele>
        <time>2022-07-12T07:01:23Z</time>
      </trkpt>
      <trkpt lat="46.50334" lon="6.10977">
        <ele>1132</ele>
        <time>2022-07-12T07:01:30Z</time>
      </trkpt>
      <trkpt lat="46.50337" lon="6.10982">
        <ele>1129.7</ele>
        <time>2022-07-12T07:01:37Z</time>
      </trkpt>
      <trkpt lat="46.50343" lon="6.10985">
        <ele>1128.8</ele>
        <time>2022-07-12T07:01:43Z</time>
      </trkpt>
      <trkpt lat="46.50347" lon="6.10987">
        <ele>1128.9</ele>
        <time>2022-07-12T07:01:49Z</time>
      </trkpt>
      <trkpt lat="46.50351" lon="6.10991">
        <ele>1129.5</ele>
        <time>2022-07-12T07:01:58Z</time>
      </trkpt>
      <trkpt lat="46.50355" lon="6.10997">
        <ele>1129.8</ele>
        <time>2022-07-12T07:02:05Z</time>
      </trkpt>
      <trkpt lat="46.50356" lon="6.11003">
        <ele>1129.6</ele>
        <time>2022-07-12T07:02:12Z</time>
      </trkpt>
      <trkpt lat="46.50356" lon="6.1101">
        <ele>1130.5</ele>
        <time>2022-07-12T07:02:21Z</time>
      </trkpt>
      <trkpt lat="46.50355" lon="6.11017">
        <ele>1131.5</ele>
        <time>2022-07-12T07:02:29Z</time>
      </trkpt>
      <trkpt lat="46.50355" lon="6.11024">
        <ele>1131.7</ele>
        <time>2022-07-12T07:02:32Z</time>
      </trkpt>
      <trkpt lat="46.50356" lon="6.11031">
        <ele>1132.1</ele>
        <time>2022-07-12T07:02:40Z</time>
      </trkpt>
      <trkpt lat="46.50357" lon="6.11039">
        <ele>1132.7</ele>
        <time>2022-07-12T07:02:47Z</time>
      </trkpt>
      <trkpt lat="46.5036" lon="6.11044">
        <ele>1135</ele>
        <time>2022-07-12T07:02:58Z</time>
      </trkpt>
      <trkpt lat="46.50364" lon="6.1105">
        <ele>1135.6</ele>
        <time>2022-07-12T07:03:04Z</time>
      </trkpt>
      <trkpt lat="46.50367" lon="6.11054">
        <ele>1136.1</ele>
        <time>2022-07-12T07:03:09Z</time>
      </trkpt>
      <trkpt lat="46.50371" lon="6.11059">
        <ele>1140.7</ele>
        <time>2022-07-12T07:03:22Z</time>
      </trkpt>
      <trkpt lat="46.50375" lon="6.11064">
        <ele>1142.9</ele>
        <time>2022-07-12T07:03:29Z</time>
      </trkpt>
      <trkpt lat="46.50376" lon="6.11071">
        <ele>1145.1</ele>
        <time>2022-07-12T07:03:36Z</time>
      </trkpt>
      <trkpt lat="46.50377" lon="6.11078">
        <ele>1146.5</ele>
        <time>2022-07-12T07:03:44Z</time>
      </trkpt>
      <trkpt lat="46.50381" lon="6.11083">
        <ele>1147.8</ele>
        <time>2022-07-12T07:03:55Z</time>
      </trkpt>
      <trkpt lat="46.50385" lon="6.11087">
        <ele>1149.3</ele>
        <time>2022-07-12T07:04:04Z</time>
      </trkpt>
      <trkpt lat="46.50389" lon="6.11091">
        <ele>1150.3</ele>
        <time>2022-07-12T07:04:09Z</time>
      </trkpt>
      <trkpt lat="46.50392" lon="6.11097">
        <ele>1151.9</ele>
        <time>2022-07-12T07:04:15Z</time>
      </trkpt>
      <trkpt lat="46.50392" lon="6.11103">
        <ele>1153.5</ele>
        <time>2022-07-12T07:04:23Z</time>
      </trkpt>
      <trkpt lat="46.50395" lon="6.11109">
        <ele>1154.3</ele>
        <time>2022-07-12T07:04:29Z</time>
      </trkpt>
      <trkpt lat="46.50398" lon="6.11114">
        <ele>1156.3</ele>
        <time>2022-07-12T07:04:38Z</time>
      </trkpt>
      <trkpt lat="46.50403" lon="6.11118">
        <ele>1159.4</ele>
        <time>2022-07-12T07:04:49Z</time>
      </trkpt>
      <trkpt lat="46.50402" lon="6.11125">
        <ele>1161.3</ele>
        <time>2022-07-12T07:04:57Z</time>
      </trkpt>
      <trkpt lat="46.50402" lon="6.11132">
        <ele>1162.3</ele>
        <time>2022-07-12T07:05:03Z</time>
      </trkpt>
      <trkpt lat="46.50402" lon="6.11138">
        <ele>1163.2</ele>
        <time>2022-07-12T07:05:09Z</time>
      </trkpt>
      <trkpt lat="46.50405" lon="6.11144">
        <ele>1164.7</ele>
        <time>2022-07-12T07:05:15Z</time>
      </trkpt>
      <trkpt lat="46.50408" lon="6.1115">
        <ele>1165.3</ele>
        <time>2022-07-12T07:05:22Z</time>
      </trkpt>
      <trkpt lat="46.50409" lon="6.11157">
        <ele>1164.9</ele>
        <time>2022-07-12T07:05:29Z</time>
      </trkpt>
      <trkpt lat="46.50411" lon="6.11163">
        <ele>1164.3</ele>
        <time>2022-07-12T07:05:37Z</time>
      </trkpt>
      <trkpt lat="46.50415" lon="6.11168">
        <ele>1164.3</ele>
        <time>2022-07-12T07:05:48Z</time>
      </trkpt>
      <trkpt lat="46.50419" lon="6.11172">
        <ele>1164.4</ele>
        <time>2022-07-12T07:05:56Z</time>
      </trkpt>
      <trkpt lat="46.50422" lon="6.11177">
        <ele>1164.6</ele>
        <time>2022-07-12T07:06:01Z</time>
      </trkpt>
      <trkpt lat="46.50425" lon="6.11182">
        <ele>1164.7</ele>
        <time>2022-07-12T07:06:06Z</time>
      </trkpt>
      <trkpt lat="46.50427" lon="6.11189">
        <ele>1165.8</ele>
        <time>2022-07-12T07:06:13Z</time>
      </trkpt>
      <trkpt lat="46.50429" lon="6.11195">
        <ele>1167.5</ele>
        <time>2022-07-12T07:06:19Z</time>
      </trkpt>
      <trkpt lat="46.50427" lon="6.11201">
        <ele>1169</ele>
        <time>2022-07-12T07:06:24Z</time>
      </trkpt>
      <trkpt lat="46.50428" lon="6.11208">
        <ele>1169.7</ele>
        <time>2022-07-12T07:06:34Z</time>
      </trkpt>
      <trkpt lat="46.5043" lon="6.11215">
        <ele>1170.5</ele>
        <time>2022-07-12T07:06:42Z</time>
      </trkpt>
      <trkpt lat="46.50432" lon="6.11221">
        <ele>1172.1</ele>
        <time>2022-07-12T07:06:49Z</time>
      </trkpt>
      <trkpt lat="46.50436" lon="6.11225">
        <ele>1173.3</ele>
        <time>2022-07-12T07:06:55Z</time>
      </trkpt>
      <trkpt lat="46.50438" lon="6.11231">
        <ele>1173.7</ele>
        <time>2022-07-12T07:07:02Z</time>
      </trkpt>
      <trkpt lat="46.50439" lon="6.11237">
        <ele>1172.1</ele>
        <time>2022-07-12T07:07:12Z</time>
      </trkpt>
      <trkpt lat="46.5044" lon="6.11244">
        <ele>1169.8</ele>
        <time>2022-07-12T07:07:20Z</time>
      </trkpt>
      <trkpt lat="46.50444" lon="6.11249">
        <ele>1169.5</ele>
        <time>2022-07-12T07:07:25Z</time>
      </trkpt>
      <trkpt lat="46.5045" lon="6.11251">
        <ele>1170.3</ele>
        <time>2022-07-12T07:07:29Z</time>
      </trkpt>
      <trkpt lat="46.50455" lon="6.11254">
        <ele>1171.3</ele>
        <time>2022-07-12T07:07:33Z</time>
      </trkpt>
      <trkpt lat="46.50458" lon="6.11259">
        <ele>1173</ele>
        <time>2022-07-12T07:07:39Z</time>
      </trkpt>
      <trkpt lat="46.50463" lon="6.1126">
        <ele>1174.3</ele>
        <time>2022-07-12T07:07:45Z</time>
      </trkpt>
      <trkpt lat="46.50467" lon="6.11261">
        <ele>1175</ele>
        <time>2022-07-12T07:07:50Z</time>
      </trkpt>
      <trkpt lat="46.50469" lon="6.11268">
        <ele>1177.1</ele>
        <time>2022-07-12T07:08:02Z</time>
      </trkpt>
      <trkpt lat="46.50464" lon="6.11272">
        <ele>1178.5</ele>
        <time>2022-07-12T07:08:08Z</time>
      </trkpt>
      <trkpt lat="46.50461" lon="6.11277">
        <ele>1179.6</ele>
        <time>2022-07-12T07:08:14Z</time>
      </trkpt>
      <trkpt lat="46.50461" lon="6.11284">
        <ele>1179.7</ele>
        <time>2022-07-12T07:08:23Z</time>
      </trkpt>
      <trkpt lat="46.50456" lon="6.11285">
        <ele>1182.1</ele>
        <time>2022-07-12T07:08:37Z</time>
      </trkpt>
      <trkpt lat="46.50453" lon="6.11291">
        <ele>1185.2</ele>
        <time>2022-07-12T07:08:46Z</time>
      </trkpt>
      <trkpt lat="46.50449" lon="6.11297">
        <ele>1187.8</ele>
        <time>2022-07-12T07:08:53Z</time>
      </trkpt>
      <trkpt lat="46.50447" lon="6.11303">
        <ele>1189.9</ele>
        <time>2022-07-12T07:08:57Z</time>
      </trkpt>
      <trkpt lat="46.50443" lon="6.11307">
        <ele>1193.7</ele>
        <time>2022-07-12T07:09:04Z</time>
      </trkpt>
      <trkpt lat="46.50438" lon="6.11308">
        <ele>1197.2</ele>
        <time>2022-07-12T07:09:11Z</time>
      </trkpt>
      <trkpt lat="46.50435" lon="6.11313">
        <ele>1197.3</ele>
        <time>2022-07-12T07:09:31Z</time>
      </trkpt>
      <trkpt lat="46.50433" lon="6.11319">
        <ele>1196.3</ele>
        <time>2022-07-12T07:09:35Z</time>
      </trkpt>
      <trkpt lat="46.50429" lon="6.11325">
        <ele>1196.1</ele>
        <time>2022-07-12T07:09:41Z</time>
      </trkpt>
      <trkpt lat="46.50426" lon="6.11331">
        <ele>1195.3</ele>
        <time>2022-07-12T07:11:04Z</time>
      </trkpt>
      <trkpt lat="46.50422" lon="6.11334">
        <ele>1196.5</ele>
        <time>2022-07-12T07:11:09Z</time>
      </trkpt>
      <trkpt lat="46.50425" lon="6.11329">
        <ele>1198.8</ele>
        <time>2022-07-12T07:11:32Z</time>
      </trkpt>
      <trkpt lat="46.5043" lon="6.11328">
        <ele>1208.5</ele>
        <time>2022-07-12T07:13:17Z</time>
      </trkpt>
      <trkpt lat="46.50435" lon="6.11329">
        <ele>1209.5</ele>
        <time>2022-07-12T07:13:50Z</time>
      </trkpt>
      <trkpt lat="46.50431" lon="6.11333">
        <ele>1212.1</ele>
        <time>2022-07-12T07:14:36Z</time>
      </trkpt>
      <trkpt lat="46.50426" lon="6.11335">
        <ele>1214.7</ele>
        <time>2022-07-12T07:15:03Z</time>
      </trkpt>
      <trkpt lat="46.50421" lon="6.11335">
        <ele>1215.2</ele>
        <time>2022-07-12T07:15:07Z</time>
      </trkpt>
      <trkpt lat="46.50416" lon="6.11336">
        <ele>1215.2</ele>
        <time>2022-07-12T07:15:11Z</time>
      </trkpt>
      <trkpt lat="46.50411" lon="6.11333">
        <ele>1214.9</ele>
        <time>2022-07-12T07:15:16Z</time>
      </trkpt>
      <trkpt lat="46.50406" lon="6.11333">
        <ele>1213.5</ele>
        <time>2022-07-12T07:15:25Z</time>
      </trkpt>
      <trkpt lat="46.50401" lon="6.11335">
        <ele>1213.4</ele>
        <time>2022-07-12T07:15:31Z</time>
      </trkpt>
      <trkpt lat="46.50397" lon="6.1134">
        <ele>1213.6</ele>
        <time>2022-07-12T07:15:38Z</time>
      </trkpt>
      <trkpt lat="46.50396" lon="6.11347">
        <ele>1214.5</ele>
        <time>2022-07-12T07:15:44Z</time>
      </trkpt>
      <trkpt lat="46.50395" lon="6.11354">
        <ele>1216.4</ele>
        <time>2022-07-12T07:15:51Z</time>
      </trkpt>
      <trkpt lat="46.50392" lon="6.11358">
        <ele>1217</ele>
        <time>2022-07-12T07:16:16Z</time>
      </trkpt>
      <trkpt lat="46.50389" lon="6.11363">
        <ele>1215.3</ele>
        <time>2022-07-12T07:16:23Z</time>
      </trkpt>
      <trkpt lat="46.50385" lon="6.11369">
        <ele>1214.9</ele>
        <time>2022-07-12T07:16:29Z</time>
      </trkpt>
      <trkpt lat="46.50381" lon="6.11373">
        <ele>1215.6</ele>
        <time>2022-07-12T07:16:35Z</time>
      </trkpt>
      <trkpt lat="46.50384" lon="6.11377">
        <ele>1218.1</ele>
        <time>2022-07-12T07:16:45Z</time>
      </trkpt>
      <trkpt lat="46.50382" lon="6.11384">
        <ele>1220.2</ele>
        <time>2022-07-12T07:16:51Z</time>
      </trkpt>
      <trkpt lat="46.50379" lon="6.11389">
        <ele>1222.1</ele>
        <time>2022-07-12T07:16:55Z</time>
      </trkpt>
      <trkpt lat="46.50376" lon="6.11395">
        <ele>1224.7</ele>
        <time>2022-07-12T07:17:03Z</time>
      </trkpt>
      <trkpt lat="46.50377" lon="6.11401">
        <ele>1226.2</ele>
        <time>2022-07-12T07:17:13Z</time>
      </trkpt>
      <trkpt lat="46.50375" lon="6.11407">
        <ele>1227</ele>
        <time>2022-07-12T07:17:22Z</time>
      </trkpt>
      <trkpt lat="46.50371" lon="6.11406">
        <ele>1228.1</ele>
        <time>2022-07-12T07:17:33Z</time>
      </trkpt>
      <trkpt lat="46.50366" lon="6.11409">
        <ele>1228.1</ele>
        <time>2022-07-12T07:17:40Z</time>
      </trkpt>
      <trkpt lat="46.50362" lon="6.11411">
        <ele>1228.2</ele>
        <time>2022-07-12T07:17:46Z</time>
      </trkpt>
      <trkpt lat="46.50359" lon="6.11416">
        <ele>1228.5</ele>
        <time>2022-07-12T07:17:53Z</time>
      </trkpt>
      <trkpt lat="46.50355" lon="6.11422">
        <ele>1228</ele>
        <time>2022-07-12T07:17:58Z</time>
      </trkpt>
      <trkpt lat="46.50351" lon="6.11425">
        <ele>1226.8</ele>
        <time>2022-07-12T07:18:03Z</time>
      </trkpt>
      <trkpt lat="46.50347" lon="6.11429">
        <ele>1225.5</ele>
        <time>2022-07-12T07:18:09Z</time>
      </trkpt>
      <trkpt lat="46.50346" lon="6.11422">
        <ele>1225.4</ele>
        <time>2022-07-12T07:18:59Z</time>
      </trkpt>
      <trkpt lat="46.50342" lon="6.11419">
        <ele>1228.6</ele>
        <time>2022-07-12T07:19:11Z</time>
      </trkpt>
      <trkpt lat="46.50338" lon="6.11418">
        <ele>1231</ele>
        <time>2022-07-12T07:19:17Z</time>
      </trkpt>
      <trkpt lat="46.50334" lon="6.11415">
        <ele>1233.2</ele>
        <time>2022-07-12T07:19:23Z</time>
      </trkpt>
      <trkpt lat="46.50329" lon="6.11416">
        <ele>1235.4</ele>
        <time>2022-07-12T07:19:30Z</time>
      </trkpt>
      <trkpt lat="46.50324" lon="6.11416">
        <ele>1236.4</ele>
        <time>2022-07-12T07:19:38Z</time>
      </trkpt>
      <trkpt lat="46.50319" lon="6.11416">
        <ele>1236.3</ele>
        <time>2022-07-12T07:19:43Z</time>
      </trkpt>
      <trkpt lat="46.50314" lon="6.11417">
        <ele>1236.2</ele>
        <time>2022-07-12T07:19:48Z</time>
      </trkpt>
      <trkpt lat="46.5031" lon="6.1142">
        <ele>1235.9</ele>
        <time>2022-07-12T07:19:52Z</time>
      </trkpt>
      <trkpt lat="46.50305" lon="6.11423">
        <ele>1235.5</ele>
        <time>2022-07-12T07:19:57Z</time>
      </trkpt>
      <trkpt lat="46.503" lon="6.11425">
        <ele>1235</ele>
        <time>2022-07-12T07:20:04Z</time>
      </trkpt>
      <trkpt lat="46.50295" lon="6.11427">
        <ele>1234.6</ele>
        <time>2022-07-12T07:20:10Z</time>
      </trkpt>
      <trkpt lat="46.50291" lon="6.11429">
        <ele>1234.2</ele>
        <time>2022-07-12T07:20:15Z</time>
      </trkpt>
      <trkpt lat="46.50286" lon="6.11432">
        <ele>1233.6</ele>
        <time>2022-07-12T07:20:20Z</time>
      </trkpt>
      <trkpt lat="46.50282" lon="6.11434">
        <ele>1234.1</ele>
        <time>2022-07-12T07:20:25Z</time>
      </trkpt>
      <trkpt lat="46.50278" lon="6.11436">
        <ele>1236.4</ele>
        <time>2022-07-12T07:20:35Z</time>
      </trkpt>
      <trkpt lat="46.50273" lon="6.11439">
        <ele>1237.1</ele>
        <time>2022-07-12T07:20:42Z</time>
      </trkpt>
      <trkpt lat="46.50271" lon="6.11445">
        <ele>1237.1</ele>
        <time>2022-07-12T07:20:49Z</time>
      </trkpt>
      <trkpt lat="46.50269" lon="6.11452">
        <ele>1237.1</ele>
        <time>2022-07-12T07:20:54Z</time>
      </trkpt>
      <trkpt lat="46.50267" lon="6.11458">
        <ele>1237.1</ele>
        <time>2022-07-12T07:20:58Z</time>
      </trkpt>
      <trkpt lat="46.50263" lon="6.11463">
        <ele>1238.1</ele>
        <time>2022-07-12T07:21:05Z</time>
      </trkpt>
      <trkpt lat="46.50259" lon="6.11467">
        <ele>1241.8</ele>
        <time>2022-07-12T07:21:15Z</time>
      </trkpt>
      <trkpt lat="46.50257" lon="6.11473">
        <ele>1245.9</ele>
        <time>2022-07-12T07:21:24Z</time>
      </trkpt>
      <trkpt lat="46.50256" lon="6.11481">
        <ele>1248.2</ele>
        <time>2022-07-12T07:21:31Z</time>
      </trkpt>
      <trkpt lat="46.50251" lon="6.11486">
        <ele>1249.8</ele>
        <time>2022-07-12T07:21:41Z</time>
      </trkpt>
      <trkpt lat="46.50247" lon="6.1149">
        <ele>1249.9</ele>
        <time>2022-07-12T07:21:45Z</time>
      </trkpt>
      <trkpt lat="46.50243" lon="6.11494">
        <ele>1249.9</ele>
        <time>2022-07-12T07:21:52Z</time>
      </trkpt>
      <trkpt lat="46.5024" lon="6.11501">
        <ele>1250.3</ele>
        <time>2022-07-12T07:21:58Z</time>
      </trkpt>
      <trkpt lat="46.50237" lon="6.11507">
        <ele>1250.9</ele>
        <time>2022-07-12T07:22:03Z</time>
      </trkpt>
      <trkpt lat="46.50236" lon="6.11514">
        <ele>1251.6</ele>
        <time>2022-07-12T07:22:09Z</time>
      </trkpt>
      <trkpt lat="46.50235" lon="6.11521">
        <ele>1252.5</ele>
        <time>2022-07-12T07:22:14Z</time>
      </trkpt>
      <trkpt lat="46.50235" lon="6.11527">
        <ele>1254.5</ele>
        <time>2022-07-12T07:22:20Z</time>
      </trkpt>
      <trkpt lat="46.50233" lon="6.11534">
        <ele>1258.1</ele>
        <time>2022-07-12T07:22:36Z</time>
      </trkpt>
      <trkpt lat="46.50229" lon="6.11538">
        <ele>1258.2</ele>
        <time>2022-07-12T07:22:40Z</time>
      </trkpt>
      <trkpt lat="46.50225" lon="6.11542">
        <ele>1258.5</ele>
        <time>2022-07-12T07:22:46Z</time>
      </trkpt>
      <trkpt lat="46.50223" lon="6.11548">
        <ele>1259.3</ele>
        <time>2022-07-12T07:22:51Z</time>
      </trkpt>
      <trkpt lat="46.50221" lon="6.11554">
        <ele>1260.3</ele>
        <time>2022-07-12T07:22:56Z</time>
      </trkpt>
      <trkpt lat="46.50217" lon="6.11559">
        <ele>1261.2</ele>
        <time>2022-07-12T07:23:00Z</time>
      </trkpt>
      <trkpt lat="46.50214" lon="6.11564">
        <ele>1262.1</ele>
        <time>2022-07-12T07:23:04Z</time>
      </trkpt>
      <trkpt lat="46.5021" lon="6.11569">
        <ele>1263</ele>
        <time>2022-07-12T07:23:08Z</time>
      </trkpt>
      <trkpt lat="46.50206" lon="6.11572">
        <ele>1263.8</ele>
        <time>2022-07-12T07:23:13Z</time>
      </trkpt>
      <trkpt lat="46.50202" lon="6.11576">
        <ele>1264.5</ele>
        <time>2022-07-12T07:23:20Z</time>
      </trkpt>
      <trkpt lat="46.50206" lon="6.11578">
        <ele>1270.6</ele>
        <time>2022-07-12T07:24:35Z</time>
      </trkpt>
      <trkpt lat="46.50209" lon="6.11572">
        <ele>1268.6</ele>
        <time>2022-07-12T07:25:26Z</time>
      </trkpt>
      <trkpt lat="46.50205" lon="6.11578">
        <ele>1266.3</ele>
        <time>2022-07-12T07:26:21Z</time>
      </trkpt>
      <trkpt lat="46.50203" lon="6.11584">
        <ele>1266.5</ele>
        <time>2022-07-12T07:26:27Z</time>
      </trkpt>
      <trkpt lat="46.502" lon="6.11591">
        <ele>1266.1</ele>
        <time>2022-07-12T07:26:35Z</time>
      </trkpt>
      <trkpt lat="46.50197" lon="6.11596">
        <ele>1265.8</ele>
        <time>2022-07-12T07:26:43Z</time>
      </trkpt>
      <trkpt lat="46.50196" lon="6.11603">
        <ele>1266.6</ele>
        <time>2022-07-12T07:26:50Z</time>
      </trkpt>
      <trkpt lat="46.50195" lon="6.1161">
        <ele>1267.3</ele>
        <time>2022-07-12T07:26:57Z</time>
      </trkpt>
      <trkpt lat="46.50196" lon="6.11616">
        <ele>1268.3</ele>
        <time>2022-07-12T07:27:04Z</time>
      </trkpt>
      <trkpt lat="46.50197" lon="6.11623">
        <ele>1269.1</ele>
        <time>2022-07-12T07:27:11Z</time>
      </trkpt>
      <trkpt lat="46.50201" lon="6.11627">
        <ele>1270</ele>
        <time>2022-07-12T07:27:20Z</time>
      </trkpt>
      <trkpt lat="46.50206" lon="6.1163">
        <ele>1270.9</ele>
        <time>2022-07-12T07:27:27Z</time>
      </trkpt>
      <trkpt lat="46.50209" lon="6.11634">
        <ele>1272.6</ele>
        <time>2022-07-12T07:27:34Z</time>
      </trkpt>
      <trkpt lat="46.50206" lon="6.11642">
        <ele>1275.1</ele>
        <time>2022-07-12T07:27:46Z</time>
      </trkpt>
      <trkpt lat="46.50203" lon="6.11647">
        <ele>1275.6</ele>
        <time>2022-07-12T07:27:49Z</time>
      </trkpt>
      <trkpt lat="46.50199" lon="6.11653">
        <ele>1276.5</ele>
        <time>2022-07-12T07:27:54Z</time>
      </trkpt>
      <trkpt lat="46.50196" lon="6.11659">
        <ele>1277.7</ele>
        <time>2022-07-12T07:27:58Z</time>
      </trkpt>
      <trkpt lat="46.50195" lon="6.11666">
        <ele>1279</ele>
        <time>2022-07-12T07:28:04Z</time>
      </trkpt>
      <trkpt lat="46.50197" lon="6.11672">
        <ele>1281.6</ele>
        <time>2022-07-12T07:28:14Z</time>
      </trkpt>
      <trkpt lat="46.50197" lon="6.11679">
        <ele>1284.3</ele>
        <time>2022-07-12T07:28:27Z</time>
      </trkpt>
      <trkpt lat="46.50195" lon="6.11686">
        <ele>1285.3</ele>
        <time>2022-07-12T07:28:40Z</time>
      </trkpt>
      <trkpt lat="46.50196" lon="6.11693">
        <ele>1286.1</ele>
        <time>2022-07-12T07:28:48Z</time>
      </trkpt>
      <trkpt lat="46.50196" lon="6.117">
        <ele>1287</ele>
        <time>2022-07-12T07:28:58Z</time>
      </trkpt>
      <trkpt lat="46.50196" lon="6.11708">
        <ele>1287.5</ele>
        <time>2022-07-12T07:29:02Z</time>
      </trkpt>
      <trkpt lat="46.50195" lon="6.11715">
        <ele>1288.1</ele>
        <time>2022-07-12T07:29:07Z</time>
      </trkpt>
      <trkpt lat="46.50192" lon="6.11721">
        <ele>1288.9</ele>
        <time>2022-07-12T07:29:12Z</time>
      </trkpt>
      <trkpt lat="46.50189" lon="6.11728">
        <ele>1289.6</ele>
        <time>2022-07-12T07:29:17Z</time>
      </trkpt>
      <trkpt lat="46.50187" lon="6.11734">
        <ele>1290.2</ele>
        <time>2022-07-12T07:29:22Z</time>
      </trkpt>
      <trkpt lat="46.50186" lon="6.11741">
        <ele>1291.4</ele>
        <time>2022-07-12T07:29:28Z</time>
      </trkpt>
      <trkpt lat="46.50188" lon="6.11747">
        <ele>1293.2</ele>
        <time>2022-07-12T07:29:35Z</time>
      </trkpt>
      <trkpt lat="46.50192" lon="6.11751">
        <ele>1294.3</ele>
        <time>2022-07-12T07:29:43Z</time>
      </trkpt>
      <trkpt lat="46.50196" lon="6.11755">
        <ele>1294.7</ele>
        <time>2022-07-12T07:29:53Z</time>
      </trkpt>
      <trkpt lat="46.50199" lon="6.11762">
        <ele>1294.1</ele>
        <time>2022-07-12T07:30:05Z</time>
      </trkpt>
      <trkpt lat="46.50201" lon="6.11768">
        <ele>1293.4</ele>
        <time>2022-07-12T07:30:10Z</time>
      </trkpt>
      <trkpt lat="46.50204" lon="6.11773">
        <ele>1293.4</ele>
        <time>2022-07-12T07:30:16Z</time>
      </trkpt>
      <trkpt lat="46.50203" lon="6.1178">
        <ele>1294.1</ele>
        <time>2022-07-12T07:30:22Z</time>
      </trkpt>
      <trkpt lat="46.50204" lon="6.11787">
        <ele>1296.3</ele>
        <time>2022-07-12T07:30:30Z</time>
      </trkpt>
      <trkpt lat="46.50205" lon="6.11794">
        <ele>1299.4</ele>
        <time>2022-07-12T07:30:39Z</time>
      </trkpt>
      <trkpt lat="46.50208" lon="6.11799">
        <ele>1301</ele>
        <time>2022-07-12T07:30:46Z</time>
      </trkpt>
      <trkpt lat="46.50212" lon="6.11804">
        <ele>1302.8</ele>
        <time>2022-07-12T07:30:56Z</time>
      </trkpt>
      <trkpt lat="46.50214" lon="6.1181">
        <ele>1305.1</ele>
        <time>2022-07-12T07:31:04Z</time>
      </trkpt>
      <trkpt lat="46.50216" lon="6.11818">
        <ele>1308.5</ele>
        <time>2022-07-12T07:31:23Z</time>
      </trkpt>
      <trkpt lat="46.50218" lon="6.11824">
        <ele>1309.8</ele>
        <time>2022-07-12T07:31:28Z</time>
      </trkpt>
      <trkpt lat="46.50221" lon="6.1183">
        <ele>1311.1</ele>
        <time>2022-07-12T07:31:34Z</time>
      </trkpt>
      <trkpt lat="46.50224" lon="6.11835">
        <ele>1313.1</ele>
        <time>2022-07-12T07:31:42Z</time>
      </trkpt>
      <trkpt lat="46.50228" lon="6.11839">
        <ele>1314.5</ele>
        <time>2022-07-12T07:31:49Z</time>
      </trkpt>
      <trkpt lat="46.50228" lon="6.11846">
        <ele>1315.9</ele>
        <time>2022-07-12T07:31:59Z</time>
      </trkpt>
      <trkpt lat="46.50231" lon="6.11851">
        <ele>1317.5</ele>
        <time>2022-07-12T07:32:09Z</time>
      </trkpt>
      <trkpt lat="46.5023" lon="6.11858">
        <ele>1319.1</ele>
        <time>2022-07-12T07:32:18Z</time>
      </trkpt>
      <trkpt lat="46.50233" lon="6.11864">
        <ele>1318.9</ele>
        <time>2022-07-12T07:32:29Z</time>
      </trkpt>
      <trkpt lat="46.50237" lon="6.11868">
        <ele>1318.7</ele>
        <time>2022-07-12T07:32:38Z</time>
      </trkpt>
      <trkpt lat="46.50236" lon="6.11875">
        <ele>1321</ele>
        <time>2022-07-12T07:33:24Z</time>
      </trkpt>
      <trkpt lat="46.50231" lon="6.11877">
        <ele>1317.9</ele>
        <time>2022-07-12T07:34:08Z</time>
      </trkpt>
      <trkpt lat="46.50235" lon="6.11881">
        <ele>1321.3</ele>
        <time>2022-07-12T07:35:02Z</time>
      </trkpt>
      <trkpt lat="46.50234" lon="6.11888">
        <ele>1320</ele>
        <time>2022-07-12T07:36:14Z</time>
      </trkpt>
      <trkpt lat="46.50229" lon="6.11889">
        <ele>1319.9</ele>
        <time>2022-07-12T07:36:18Z</time>
      </trkpt>
      <trkpt lat="46.50227" lon="6.11896">
        <ele>1319.7</ele>
        <time>2022-07-12T07:36:24Z</time>
      </trkpt>
      <trkpt lat="46.50224" lon="6.11902">
        <ele>1319.4</ele>
        <time>2022-07-12T07:36:29Z</time>
      </trkpt>
      <trkpt lat="46.50221" lon="6.11909">
        <ele>1319</ele>
        <time>2022-07-12T07:36:34Z</time>
      </trkpt>
      <trkpt lat="46.5022" lon="6.11915">
        <ele>1318.3</ele>
        <time>2022-07-12T07:36:40Z</time>
      </trkpt>
      <trkpt lat="46.50217" lon="6.11921">
        <ele>1317.6</ele>
        <time>2022-07-12T07:36:46Z</time>
      </trkpt>
      <trkpt lat="46.50216" lon="6.11928">
        <ele>1316.8</ele>
        <time>2022-07-12T07:36:51Z</time>
      </trkpt>
      <trkpt lat="46.50215" lon="6.11935">
        <ele>1316.2</ele>
        <time>2022-07-12T07:36:55Z</time>
      </trkpt>
      <trkpt lat="46.50214" lon="6.11942">
        <ele>1316.3</ele>
        <time>2022-07-12T07:37:00Z</time>
      </trkpt>
      <trkpt lat="46.50212" lon="6.11949">
        <ele>1317.6</ele>
        <time>2022-07-12T07:37:06Z</time>
      </trkpt>
      <trkpt lat="46.50213" lon="6.11955">
        <ele>1319.1</ele>
        <time>2022-07-12T07:37:12Z</time>
      </trkpt>
      <trkpt lat="46.50213" lon="6.11963">
        <ele>1322.9</ele>
        <time>2022-07-12T07:37:22Z</time>
      </trkpt>
      <trkpt lat="46.50211" lon="6.1197">
        <ele>1324.5</ele>
        <time>2022-07-12T07:37:29Z</time>
      </trkpt>
      <trkpt lat="46.5021" lon="6.11976">
        <ele>1325.6</ele>
        <time>2022-07-12T07:37:35Z</time>
      </trkpt>
      <trkpt lat="46.50212" lon="6.11981">
        <ele>1327.3</ele>
        <time>2022-07-12T07:37:44Z</time>
      </trkpt>
      <trkpt lat="46.50217" lon="6.11983">
        <ele>1328.3</ele>
        <time>2022-07-12T07:37:51Z</time>
      </trkpt>
      <trkpt lat="46.50221" lon="6.11986">
        <ele>1328.9</ele>
        <time>2022-07-12T07:37:56Z</time>
      </trkpt>
      <trkpt lat="46.50223" lon="6.11993">
        <ele>1330.2</ele>
        <time>2022-07-12T07:38:03Z</time>
      </trkpt>
      <trkpt lat="46.50226" lon="6.11999">
        <ele>1332</ele>
        <time>2022-07-12T07:38:10Z</time>
      </trkpt>
      <trkpt lat="46.50228" lon="6.12005">
        <ele>1334.8</ele>
        <time>2022-07-12T07:38:20Z</time>
      </trkpt>
      <trkpt lat="46.50231" lon="6.1201">
        <ele>1337.4</ele>
        <time>2022-07-12T07:38:30Z</time>
      </trkpt>
      <trkpt lat="46.50234" lon="6.12015">
        <ele>1339.5</ele>
        <time>2022-07-12T07:38:35Z</time>
      </trkpt>
      <trkpt lat="46.50238" lon="6.12019">
        <ele>1341.9</ele>
        <time>2022-07-12T07:38:41Z</time>
      </trkpt>
      <trkpt lat="46.50242" lon="6.12023">
        <ele>1344.1</ele>
        <time>2022-07-12T07:38:48Z</time>
      </trkpt>
      <trkpt lat="46.50244" lon="6.1203">
        <ele>1347</ele>
        <time>2022-07-12T07:39:00Z</time>
      </trkpt>
      <trkpt lat="46.50247" lon="6.12035">
        <ele>1348.4</ele>
        <time>2022-07-12T07:39:07Z</time>
      </trkpt>
      <trkpt lat="46.5025" lon="6.12041">
        <ele>1349.7</ele>
        <time>2022-07-12T07:39:16Z</time>
      </trkpt>
      <trkpt lat="46.50251" lon="6.12048">
        <ele>1350.8</ele>
        <time>2022-07-12T07:39:21Z</time>
      </trkpt>
      <trkpt lat="46.50256" lon="6.12051">
        <ele>1351.5</ele>
        <time>2022-07-12T07:39:27Z</time>
      </trkpt>
      <trkpt lat="46.50257" lon="6.12057">
        <ele>1352.5</ele>
        <time>2022-07-12T07:39:35Z</time>
      </trkpt>
      <trkpt lat="46.50257" lon="6.12065">
        <ele>1354.2</ele>
        <time>2022-07-12T07:39:42Z</time>
      </trkpt>
      <trkpt lat="46.50256" lon="6.12072">
        <ele>1354.8</ele>
        <time>2022-07-12T07:39:48Z</time>
      </trkpt>
      <trkpt lat="46.50253" lon="6.12078">
        <ele>1355</ele>
        <time>2022-07-12T07:39:53Z</time>
      </trkpt>
      <trkpt lat="46.5025" lon="6.12083">
        <ele>1355.9</ele>
        <time>2022-07-12T07:39:58Z</time>
      </trkpt>
      <trkpt lat="46.50252" lon="6.1209">
        <ele>1356.4</ele>
        <time>2022-07-12T07:40:11Z</time>
      </trkpt>
      <trkpt lat="46.50255" lon="6.12087">
        <ele>1357.2</ele>
        <time>2022-07-12T07:40:45Z</time>
      </trkpt>
      <trkpt lat="46.50255" lon="6.1208">
        <ele>1356.5</ele>
        <time>2022-07-12T07:40:52Z</time>
      </trkpt>
      <trkpt lat="46.50262" lon="6.12082">
        <ele>1355.8</ele>
        <time>2022-07-12T07:41:09Z</time>
      </trkpt>
      <trkpt lat="46.50266" lon="6.12084">
        <ele>1358.4</ele>
        <time>2022-07-12T07:41:22Z</time>
      </trkpt>
      <trkpt lat="46.50261" lon="6.12086">
        <ele>1358.9</ele>
        <time>2022-07-12T07:41:34Z</time>
      </trkpt>
      <trkpt lat="46.50255" lon="6.12084">
        <ele>1361.1</ele>
        <time>2022-07-12T07:41:55Z</time>
      </trkpt>
      <trkpt lat="46.5026" lon="6.12084">
        <ele>1363.9</ele>
        <time>2022-07-12T07:43:03Z</time>
      </trkpt>
      <trkpt lat="46.50264" lon="6.12087">
        <ele>1362.2</ele>
        <time>2022-07-12T07:43:23Z</time>
      </trkpt>
      <trkpt lat="46.50259" lon="6.12087">
        <ele>1358.3</ele>
        <time>2022-07-12T07:43:59Z</time>
      </trkpt>
      <trkpt lat="46.50254" lon="6.12088">
        <ele>1355.9</ele>
        <time>2022-07-12T07:44:02Z</time>
      </trkpt>
      <trkpt lat="46.5025" lon="6.12092">
        <ele>1352.8</ele>
        <time>2022-07-12T07:44:07Z</time>
      </trkpt>
      <trkpt lat="46.50246" lon="6.12097">
        <ele>1350.6</ele>
        <time>2022-07-12T07:44:13Z</time>
      </trkpt>
      <trkpt lat="46.50241" lon="6.121">
        <ele>1349.3</ele>
        <time>2022-07-12T07:44:19Z</time>
      </trkpt>
      <trkpt lat="46.50237" lon="6.12104">
        <ele>1348.9</ele>
        <time>2022-07-12T07:44:24Z</time>
      </trkpt>
      <trkpt lat="46.50233" lon="6.12109">
        <ele>1349</ele>
        <time>2022-07-12T07:44:29Z</time>
      </trkpt>
      <trkpt lat="46.50229" lon="6.12113">
        <ele>1349.6</ele>
        <time>2022-07-12T07:44:37Z</time>
      </trkpt>
      <trkpt lat="46.50226" lon="6.12118">
        <ele>1351.8</ele>
        <time>2022-07-12T07:44:45Z</time>
      </trkpt>
      <trkpt lat="46.50223" lon="6.12124">
        <ele>1354</ele>
        <time>2022-07-12T07:44:51Z</time>
      </trkpt>
      <trkpt lat="46.50218" lon="6.12128">
        <ele>1355.8</ele>
        <time>2022-07-12T07:44:58Z</time>
      </trkpt>
      <trkpt lat="46.50217" lon="6.12135">
        <ele>1357.7</ele>
        <time>2022-07-12T07:45:06Z</time>
      </trkpt>
      <trkpt lat="46.50217" lon="6.12141">
        <ele>1360.4</ele>
        <time>2022-07-12T07:45:17Z</time>
      </trkpt>
      <trkpt lat="46.50215" lon="6.12149">
        <ele>1361.7</ele>
        <time>2022-07-12T07:45:21Z</time>
      </trkpt>
      <trkpt lat="46.50212" lon="6.12157">
        <ele>1363</ele>
        <time>2022-07-12T07:45:24Z</time>
      </trkpt>
      <trkpt lat="46.50209" lon="6.12161">
        <ele>1364.8</ele>
        <time>2022-07-12T07:45:28Z</time>
      </trkpt>
      <trkpt lat="46.50205" lon="6.12165">
        <ele>1366.2</ele>
        <time>2022-07-12T07:45:32Z</time>
      </trkpt>
      <trkpt lat="46.50203" lon="6.12172">
        <ele>1366.7</ele>
        <time>2022-07-12T07:45:42Z</time>
      </trkpt>
      <trkpt lat="46.50206" lon="6.12177">
        <ele>1366.2</ele>
        <time>2022-07-12T07:45:49Z</time>
      </trkpt>
      <trkpt lat="46.50208" lon="6.12184">
        <ele>1365.9</ele>
        <time>2022-07-12T07:45:57Z</time>
      </trkpt>
      <trkpt lat="46.50206" lon="6.1219">
        <ele>1366.3</ele>
        <time>2022-07-12T07:46:07Z</time>
      </trkpt>
      <trkpt lat="46.50205" lon="6.12197">
        <ele>1366.2</ele>
        <time>2022-07-12T07:46:15Z</time>
      </trkpt>
      <trkpt lat="46.50204" lon="6.12203">
        <ele>1366.1</ele>
        <time>2022-07-12T07:46:21Z</time>
      </trkpt>
      <trkpt lat="46.50202" lon="6.1221">
        <ele>1367.9</ele>
        <time>2022-07-12T07:46:30Z</time>
      </trkpt>
      <trkpt lat="46.50198" lon="6.12213">
        <ele>1368.7</ele>
        <time>2022-07-12T07:46:34Z</time>
      </trkpt>
      <trkpt lat="46.50193" lon="6.12214">
        <ele>1369.4</ele>
        <time>2022-07-12T07:46:40Z</time>
      </trkpt>
      <trkpt lat="46.50189" lon="6.12214">
        <ele>1369.3</ele>
        <time>2022-07-12T07:46:45Z</time>
      </trkpt>
      <trkpt lat="46.50185" lon="6.12219">
        <ele>1370.2</ele>
        <time>2022-07-12T07:46:53Z</time>
      </trkpt>
      <trkpt lat="46.50182" lon="6.12225">
        <ele>1372</ele>
        <time>2022-07-12T07:46:59Z</time>
      </trkpt>
      <trkpt lat="46.50179" lon="6.1223">
        <ele>1373.7</ele>
        <time>2022-07-12T07:47:08Z</time>
      </trkpt>
      <trkpt lat="46.50175" lon="6.12233">
        <ele>1375.4</ele>
        <time>2022-07-12T07:47:14Z</time>
      </trkpt>
      <trkpt lat="46.50173" lon="6.1224">
        <ele>1377.3</ele>
        <time>2022-07-12T07:47:23Z</time>
      </trkpt>
      <trkpt lat="46.50169" lon="6.12243">
        <ele>1381.8</ele>
        <time>2022-07-12T07:47:43Z</time>
      </trkpt>
      <trkpt lat="46.50167" lon="6.1225">
        <ele>1380.6</ele>
        <time>2022-07-12T07:48:16Z</time>
      </trkpt>
      <trkpt lat="46.50162" lon="6.12251">
        <ele>1380</ele>
        <time>2022-07-12T07:48:21Z</time>
      </trkpt>
      <trkpt lat="46.50157" lon="6.12252">
        <ele>1379.1</ele>
        <time>2022-07-12T07:48:31Z</time>
      </trkpt>
      <trkpt lat="46.50153" lon="6.12253">
        <ele>1378.7</ele>
        <time>2022-07-12T07:48:38Z</time>
      </trkpt>
      <trkpt lat="46.5015" lon="6.12258">
        <ele>1377.9</ele>
        <time>2022-07-12T07:48:50Z</time>
      </trkpt>
      <trkpt lat="46.50149" lon="6.12265">
        <ele>1377.3</ele>
        <time>2022-07-12T07:48:57Z</time>
      </trkpt>
      <trkpt lat="46.50145" lon="6.1227">
        <ele>1376.6</ele>
        <time>2022-07-12T07:49:03Z</time>
      </trkpt>
      <trkpt lat="46.5014" lon="6.1227">
        <ele>1376.5</ele>
        <time>2022-07-12T07:49:08Z</time>
      </trkpt>
      <trkpt lat="46.50135" lon="6.12271">
        <ele>1376.1</ele>
        <time>2022-07-12T07:49:13Z</time>
      </trkpt>
      <trkpt lat="46.5013" lon="6.12274">
        <ele>1376.2</ele>
        <time>2022-07-12T07:49:17Z</time>
      </trkpt>
      <trkpt lat="46.50126" lon="6.12276">
        <ele>1376.2</ele>
        <time>2022-07-12T07:49:20Z</time>
      </trkpt>
      <trkpt lat="46.5012" lon="6.12279">
        <ele>1376.6</ele>
        <time>2022-07-12T07:49:23Z</time>
      </trkpt>
      <trkpt lat="46.50116" lon="6.12283">
        <ele>1377</ele>
        <time>2022-07-12T07:49:26Z</time>
      </trkpt>
      <trkpt lat="46.50113" lon="6.12287">
        <ele>1377.5</ele>
        <time>2022-07-12T07:49:30Z</time>
      </trkpt>
      <trkpt lat="46.50109" lon="6.1229">
        <ele>1378.4</ele>
        <time>2022-07-12T07:49:36Z</time>
      </trkpt>
      <trkpt lat="46.50105" lon="6.12293">
        <ele>1379.3</ele>
        <time>2022-07-12T07:49:46Z</time>
      </trkpt>
      <trkpt lat="46.501" lon="6.12296">
        <ele>1378.7</ele>
        <time>2022-07-12T07:49:53Z</time>
      </trkpt>
      <trkpt lat="46.50094" lon="6.12297">
        <ele>1378.1</ele>
        <time>2022-07-12T07:49:58Z</time>
      </trkpt>
      <trkpt lat="46.50089" lon="6.12295">
        <ele>1377.6</ele>
        <time>2022-07-12T07:50:03Z</time>
      </trkpt>
      <trkpt lat="46.50085" lon="6.12294">
        <ele>1377.6</ele>
        <time>2022-07-12T07:50:10Z</time>
      </trkpt>
      <trkpt lat="46.50079" lon="6.12295">
        <ele>1378</ele>
        <time>2022-07-12T07:50:17Z</time>
      </trkpt>
      <trkpt lat="46.50074" lon="6.12294">
        <ele>1378.6</ele>
        <time>2022-07-12T07:50:22Z</time>
      </trkpt>
      <trkpt lat="46.5007" lon="6.12298">
        <ele>1380.8</ele>
        <time>2022-07-12T07:50:33Z</time>
      </trkpt>
      <trkpt lat="46.50075" lon="6.12295">
        <ele>1386.5</ele>
        <time>2022-07-12T07:50:58Z</time>
      </trkpt>
      <trkpt lat="46.50072" lon="6.1229">
        <ele>1388.3</ele>
        <time>2022-07-12T07:51:04Z</time>
      </trkpt>
      <trkpt lat="46.50067" lon="6.12291">
        <ele>1389.2</ele>
        <time>2022-07-12T07:51:11Z</time>
      </trkpt>
      <trkpt lat="46.50062" lon="6.12291">
        <ele>1388.7</ele>
        <time>2022-07-12T07:51:14Z</time>
      </trkpt>
      <trkpt lat="46.50057" lon="6.12292">
        <ele>1387.7</ele>
        <time>2022-07-12T07:51:17Z</time>
      </trkpt>
      <trkpt lat="46.50053" lon="6.12294">
        <ele>1386.7</ele>
        <time>2022-07-12T07:51:21Z</time>
      </trkpt>
      <trkpt lat="46.50048" lon="6.12296">
        <ele>1385.8</ele>
        <time>2022-07-12T07:51:26Z</time>
      </trkpt>
      <trkpt lat="46.50043" lon="6.12296">
        <ele>1385.2</ele>
        <time>2022-07-12T07:51:31Z</time>
      </trkpt>
      <trkpt lat="46.50038" lon="6.12293">
        <ele>1384.5</ele>
        <time>2022-07-12T07:51:36Z</time>
      </trkpt>
      <trkpt lat="46.50034" lon="6.12293">
        <ele>1383.8</ele>
        <time>2022-07-12T07:51:41Z</time>
      </trkpt>
      <trkpt lat="46.50028" lon="6.12293">
        <ele>1382.3</ele>
        <time>2022-07-12T07:51:48Z</time>
      </trkpt>
      <trkpt lat="46.50024" lon="6.12289">
        <ele>1380.8</ele>
        <time>2022-07-12T07:51:53Z</time>
      </trkpt>
      <trkpt lat="46.5002" lon="6.12285">
        <ele>1378.5</ele>
        <time>2022-07-12T07:51:59Z</time>
      </trkpt>
      <trkpt lat="46.50016" lon="6.1228">
        <ele>1377.3</ele>
        <time>2022-07-12T07:52:04Z</time>
      </trkpt>
      <trkpt lat="46.50012" lon="6.12275">
        <ele>1377</ele>
        <time>2022-07-12T07:52:08Z</time>
      </trkpt>
      <trkpt lat="46.50009" lon="6.12269">
        <ele>1377</ele>
        <time>2022-07-12T07:52:11Z</time>
      </trkpt>
      <trkpt lat="46.50005" lon="6.12264">
        <ele>1377.3</ele>
        <time>2022-07-12T07:52:14Z</time>
      </trkpt>
      <trkpt lat="46.50001" lon="6.12261">
        <ele>1377.8</ele>
        <time>2022-07-12T07:52:17Z</time>
      </trkpt>
      <trkpt lat="46.49997" lon="6.12259">
        <ele>1378.6</ele>
        <time>2022-07-12T07:52:21Z</time>
      </trkpt>
      <trkpt lat="46.49992" lon="6.12258">
        <ele>1379.4</ele>
        <time>2022-07-12T07:52:25Z</time>
      </trkpt>
      <trkpt lat="46.49987" lon="6.12258">
        <ele>1379.2</ele>
        <time>2022-07-12T07:52:32Z</time>
      </trkpt>
      <trkpt lat="46.49981" lon="6.12257">
        <ele>1378.3</ele>
        <time>2022-07-12T07:52:37Z</time>
      </trkpt>
      <trkpt lat="46.49976" lon="6.12257">
        <ele>1377.5</ele>
        <time>2022-07-12T07:52:41Z</time>
      </trkpt>
      <trkpt lat="46.49972" lon="6.1226">
        <ele>1376.2</ele>
        <time>2022-07-12T07:52:47Z</time>
      </trkpt>
      <trkpt lat="46.49972" lon="6.12267">
        <ele>1376.2</ele>
        <time>2022-07-12T07:52:59Z</time>
      </trkpt>
      <trkpt lat="46.49972" lon="6.12274">
        <ele>1377.6</ele>
        <time>2022-07-12T07:53:04Z</time>
      </trkpt>
      <trkpt lat="46.49967" lon="6.12274">
        <ele>1381.9</ele>
        <time>2022-07-12T07:53:50Z</time>
      </trkpt>
      <trkpt lat="46.49962" lon="6.12277">
        <ele>1381.8</ele>
        <time>2022-07-12T07:53:55Z</time>
      </trkpt>
      <trkpt lat="46.49958" lon="6.12274">
        <ele>1378.9</ele>
        <time>2022-07-12T07:54:07Z</time>
      </trkpt>
      <trkpt lat="46.49963" lon="6.12271">
        <ele>1376.2</ele>
        <time>2022-07-12T07:55:06Z</time>
      </trkpt>
      <trkpt lat="46.49967" lon="6.12267">
        <ele>1376.5</ele>
        <time>2022-07-12T07:55:11Z</time>
      </trkpt>
      <trkpt lat="46.49971" lon="6.12266">
        <ele>1378</ele>
        <time>2022-07-12T07:55:21Z</time>
      </trkpt>
      <trkpt lat="46.4997" lon="6.1226">
        <ele>1377.6</ele>
        <time>2022-07-12T07:56:38Z</time>
      </trkpt>
      <trkpt lat="46.49969" lon="6.12266">
        <ele>1375.6</ele>
        <time>2022-07-12T07:57:02Z</time>
      </trkpt>
      <trkpt lat="46.49964" lon="6.12266">
        <ele>1374.5</ele>
        <time>2022-07-12T07:57:18Z</time>
      </trkpt>
      <trkpt lat="46.4996" lon="6.12269">
        <ele>1374.2</ele>
        <time>2022-07-12T07:57:22Z</time>
      </trkpt>
      <trkpt lat="46.49955" lon="6.12272">
        <ele>1373.5</ele>
        <time>2022-07-12T07:57:27Z</time>
      </trkpt>
      <trkpt lat="46.49951" lon="6.12274">
        <ele>1371.6</ele>
        <time>2022-07-12T07:57:44Z</time>
      </trkpt>
      <trkpt lat="46.49945" lon="6.12277">
        <ele>1373.3</ele>
        <time>2022-07-12T07:58:03Z</time>
      </trkpt>
      <trkpt lat="46.4994" lon="6.12281">
        <ele>1372.8</ele>
        <time>2022-07-12T07:58:11Z</time>
      </trkpt>
      <trkpt lat="46.49936" lon="6.12276">
        <ele>1372.1</ele>
        <time>2022-07-12T07:58:23Z</time>
      </trkpt>
      <trkpt lat="46.49933" lon="6.12271">
        <ele>1372.5</ele>
        <time>2022-07-12T07:58:33Z</time>
      </trkpt>
      <trkpt lat="46.49929" lon="6.12266">
        <ele>1371.6</ele>
        <time>2022-07-12T07:58:44Z</time>
      </trkpt>
      <trkpt lat="46.49925" lon="6.12268">
        <ele>1371.1</ele>
        <time>2022-07-12T07:59:05Z</time>
      </trkpt>
      <trkpt lat="46.49927" lon="6.12262">
        <ele>1369.7</ele>
        <time>2022-07-12T08:00:06Z</time>
      </trkpt>
      <trkpt lat="46.49928" lon="6.12269">
        <ele>1369.1</ele>
        <time>2022-07-12T08:00:24Z</time>
      </trkpt>
      <trkpt lat="46.49931" lon="6.12273">
        <ele>1366</ele>
        <time>2022-07-12T08:01:17Z</time>
      </trkpt>
      <trkpt lat="46.49928" lon="6.12268">
        <ele>1366</ele>
        <time>2022-07-12T08:01:38Z</time>
      </trkpt>
      <trkpt lat="46.49925" lon="6.12262">
        <ele>1371</ele>
        <time>2022-07-12T08:02:00Z</time>
      </trkpt>
      <trkpt lat="46.49921" lon="6.12258">
        <ele>1371</ele>
        <time>2022-07-12T08:02:06Z</time>
      </trkpt>
      <trkpt lat="46.49917" lon="6.12252">
        <ele>1370.3</ele>
        <time>2022-07-12T08:02:13Z</time>
      </trkpt>
      <trkpt lat="46.49914" lon="6.12246">
        <ele>1369.3</ele>
        <time>2022-07-12T08:02:20Z</time>
      </trkpt>
      <trkpt lat="46.49913" lon="6.1224">
        <ele>1368.3</ele>
        <time>2022-07-12T08:02:27Z</time>
      </trkpt>
      <trkpt lat="46.49913" lon="6.12233">
        <ele>1367.9</ele>
        <time>2022-07-12T08:02:34Z</time>
      </trkpt>
      <trkpt lat="46.49915" lon="6.12226">
        <ele>1367.6</ele>
        <time>2022-07-12T08:02:40Z</time>
      </trkpt>
      <trkpt lat="46.49912" lon="6.12221">
        <ele>1366.9</ele>
        <time>2022-07-12T08:02:47Z</time>
      </trkpt>
      <trkpt lat="46.49909" lon="6.12215">
        <ele>1365.7</ele>
        <time>2022-07-12T08:02:54Z</time>
      </trkpt>
      <trkpt lat="46.49909" lon="6.12209">
        <ele>1363.9</ele>
        <time>2022-07-12T08:03:02Z</time>
      </trkpt>
      <trkpt lat="46.49906" lon="6.12204">
        <ele>1363.1</ele>
        <time>2022-07-12T08:03:08Z</time>
      </trkpt>
      <trkpt lat="46.49902" lon="6.122">
        <ele>1363.2</ele>
        <time>2022-07-12T08:03:13Z</time>
      </trkpt>
      <trkpt lat="46.49898" lon="6.12196">
        <ele>1363.7</ele>
        <time>2022-07-12T08:03:18Z</time>
      </trkpt>
      <trkpt lat="46.49893" lon="6.12192">
        <ele>1364.1</ele>
        <time>2022-07-12T08:03:23Z</time>
      </trkpt>
      <trkpt lat="46.49889" lon="6.12189">
        <ele>1364.5</ele>
        <time>2022-07-12T08:03:28Z</time>
      </trkpt>
      <trkpt lat="46.49886" lon="6.12184">
        <ele>1364.8</ele>
        <time>2022-07-12T08:03:32Z</time>
      </trkpt>
      <trkpt lat="46.49882" lon="6.12179">
        <ele>1366.3</ele>
        <time>2022-07-12T08:03:37Z</time>
      </trkpt>
      <trkpt lat="46.49877" lon="6.12181">
        <ele>1368.7</ele>
        <time>2022-07-12T08:03:47Z</time>
      </trkpt>
      <trkpt lat="46.49872" lon="6.12181">
        <ele>1369.2</ele>
        <time>2022-07-12T08:03:52Z</time>
      </trkpt>
      <trkpt lat="46.49868" lon="6.12178">
        <ele>1369.2</ele>
        <time>2022-07-12T08:03:57Z</time>
      </trkpt>
      <trkpt lat="46.49864" lon="6.12174">
        <ele>1369.4</ele>
        <time>2022-07-12T08:04:04Z</time>
      </trkpt>
      <trkpt lat="46.4986" lon="6.12172">
        <ele>1370.3</ele>
        <time>2022-07-12T08:04:09Z</time>
      </trkpt>
      <trkpt lat="46.49857" lon="6.12167">
        <ele>1370.6</ele>
        <time>2022-07-12T08:04:15Z</time>
      </trkpt>
      <trkpt lat="46.49853" lon="6.12162">
        <ele>1370.6</ele>
        <time>2022-07-12T08:04:19Z</time>
      </trkpt>
      <trkpt lat="46.49848" lon="6.12159">
        <ele>1371.1</ele>
        <time>2022-07-12T08:04:25Z</time>
      </trkpt>
      <trkpt lat="46.49844" lon="6.12156">
        <ele>1371.8</ele>
        <time>2022-07-12T08:04:36Z</time>
      </trkpt>
      <trkpt lat="46.4984" lon="6.12152">
        <ele>1371.8</ele>
        <time>2022-07-12T08:04:44Z</time>
      </trkpt>
      <trkpt lat="46.49836" lon="6.12149">
        <ele>1371.7</ele>
        <time>2022-07-12T08:04:51Z</time>
      </trkpt>
      <trkpt lat="46.49831" lon="6.12148">
        <ele>1373.9</ele>
        <time>2022-07-12T08:04:59Z</time>
      </trkpt>
      <trkpt lat="46.49826" lon="6.12145">
        <ele>1375.2</ele>
        <time>2022-07-12T08:05:08Z</time>
      </trkpt>
      <trkpt lat="46.49824" lon="6.12138">
        <ele>1374.2</ele>
        <time>2022-07-12T08:05:15Z</time>
      </trkpt>
      <trkpt lat="46.49819" lon="6.12135">
        <ele>1373.3</ele>
        <time>2022-07-12T08:05:20Z</time>
      </trkpt>
      <trkpt lat="46.49815" lon="6.12132">
        <ele>1371.9</ele>
        <time>2022-07-12T08:05:26Z</time>
      </trkpt>
      <trkpt lat="46.49811" lon="6.12128">
        <ele>1370.8</ele>
        <time>2022-07-12T08:05:33Z</time>
      </trkpt>
      <trkpt lat="46.49808" lon="6.12122">
        <ele>1371.2</ele>
        <time>2022-07-12T08:05:39Z</time>
      </trkpt>
      <trkpt lat="46.49804" lon="6.12118">
        <ele>1372.5</ele>
        <time>2022-07-12T08:05:49Z</time>
      </trkpt>
      <trkpt lat="46.498" lon="6.12116">
        <ele>1372.8</ele>
        <time>2022-07-12T08:05:53Z</time>
      </trkpt>
      <trkpt lat="46.49795" lon="6.12112">
        <ele>1373.1</ele>
        <time>2022-07-12T08:05:59Z</time>
      </trkpt>
      <trkpt lat="46.49793" lon="6.12106">
        <ele>1373.5</ele>
        <time>2022-07-12T08:06:06Z</time>
      </trkpt>
      <trkpt lat="46.49792" lon="6.12099">
        <ele>1374.7</ele>
        <time>2022-07-12T08:06:14Z</time>
      </trkpt>
      <trkpt lat="46.49788" lon="6.12097">
        <ele>1375.2</ele>
        <time>2022-07-12T08:06:33Z</time>
      </trkpt>
      <trkpt lat="46.49783" lon="6.12093">
        <ele>1375</ele>
        <time>2022-07-12T08:06:40Z</time>
      </trkpt>
      <trkpt lat="46.49778" lon="6.12089">
        <ele>1375.4</ele>
        <time>2022-07-12T08:06:47Z</time>
      </trkpt>
      <trkpt lat="46.49775" lon="6.12084">
        <ele>1375.6</ele>
        <time>2022-07-12T08:06:59Z</time>
      </trkpt>
      <trkpt lat="46.49771" lon="6.1208">
        <ele>1376.6</ele>
        <time>2022-07-12T08:07:18Z</time>
      </trkpt>
      <trkpt lat="46.49767" lon="6.12077">
        <ele>1378.3</ele>
        <time>2022-07-12T08:07:33Z</time>
      </trkpt>
      <trkpt lat="46.49765" lon="6.12072">
        <ele>1387.2</ele>
        <time>2022-07-12T08:07:58Z</time>
      </trkpt>
      <trkpt lat="46.49766" lon="6.12079">
        <ele>1382.6</ele>
        <time>2022-07-12T08:08:44Z</time>
      </trkpt>
      <trkpt lat="46.49764" lon="6.12072">
        <ele>1382</ele>
        <time>2022-07-12T08:09:01Z</time>
      </trkpt>
      <trkpt lat="46.49764" lon="6.12065">
        <ele>1383.2</ele>
        <time>2022-07-12T08:09:05Z</time>
      </trkpt>
      <trkpt lat="46.49759" lon="6.12065">
        <ele>1385.6</ele>
        <time>2022-07-12T08:09:17Z</time>
      </trkpt>
      <trkpt lat="46.49754" lon="6.12062">
        <ele>1386.7</ele>
        <time>2022-07-12T08:09:26Z</time>
      </trkpt>
      <trkpt lat="46.49749" lon="6.1206">
        <ele>1390</ele>
        <time>2022-07-12T08:09:35Z</time>
      </trkpt>
      <trkpt lat="46.49744" lon="6.12058">
        <ele>1391.8</ele>
        <time>2022-07-12T08:09:41Z</time>
      </trkpt>
      <trkpt lat="46.49739" lon="6.12056">
        <ele>1393</ele>
        <time>2022-07-12T08:09:45Z</time>
      </trkpt>
      <trkpt lat="46.49735" lon="6.1206">
        <ele>1397.9</ele>
        <time>2022-07-12T08:10:22Z</time>
      </trkpt>
      <trkpt lat="46.49731" lon="6.12056">
        <ele>1400.3</ele>
        <time>2022-07-12T08:10:39Z</time>
      </trkpt>
      <trkpt lat="46.49728" lon="6.12049">
        <ele>1399.5</ele>
        <time>2022-07-12T08:10:47Z</time>
      </trkpt>
      <trkpt lat="46.49722" lon="6.12049">
        <ele>1399.4</ele>
        <time>2022-07-12T08:10:52Z</time>
      </trkpt>
      <trkpt lat="46.49717" lon="6.12051">
        <ele>1399.4</ele>
        <time>2022-07-12T08:10:56Z</time>
      </trkpt>
      <trkpt lat="46.49712" lon="6.12052">
        <ele>1400.2</ele>
        <time>2022-07-12T08:11:00Z</time>
      </trkpt>
      <trkpt lat="46.49707" lon="6.12052">
        <ele>1401.4</ele>
        <time>2022-07-12T08:11:08Z</time>
      </trkpt>
      <trkpt lat="46.49704" lon="6.12047">
        <ele>1400.6</ele>
        <time>2022-07-12T08:11:23Z</time>
      </trkpt>
      <trkpt lat="46.497" lon="6.12043">
        <ele>1399.5</ele>
        <time>2022-07-12T08:11:37Z</time>
      </trkpt>
      <trkpt lat="46.49695" lon="6.12043">
        <ele>1399.2</ele>
        <time>2022-07-12T08:11:42Z</time>
      </trkpt>
      <trkpt lat="46.49694" lon="6.12036">
        <ele>1399.2</ele>
        <time>2022-07-12T08:11:47Z</time>
      </trkpt>
      <trkpt lat="46.49692" lon="6.12029">
        <ele>1399.6</ele>
        <time>2022-07-12T08:11:53Z</time>
      </trkpt>
      <trkpt lat="46.49689" lon="6.12034">
        <ele>1399.1</ele>
        <time>2022-07-12T08:12:06Z</time>
      </trkpt>
      <trkpt lat="46.49685" lon="6.12037">
        <ele>1399.7</ele>
        <time>2022-07-12T08:12:10Z</time>
      </trkpt>
      <trkpt lat="46.49681" lon="6.1204">
        <ele>1403.8</ele>
        <time>2022-07-12T08:12:30Z</time>
      </trkpt>
      <trkpt lat="46.49683" lon="6.12034">
        <ele>1406.4</ele>
        <time>2022-07-12T08:12:41Z</time>
      </trkpt>
      <trkpt lat="46.49678" lon="6.12032">
        <ele>1409.8</ele>
        <time>2022-07-12T08:13:01Z</time>
      </trkpt>
      <trkpt lat="46.49673" lon="6.12032">
        <ele>1409.7</ele>
        <time>2022-07-12T08:13:07Z</time>
      </trkpt>
      <trkpt lat="46.49677" lon="6.12032">
        <ele>1410.5</ele>
        <time>2022-07-12T08:13:32Z</time>
      </trkpt>
      <trkpt lat="46.49676" lon="6.12025">
        <ele>1409.4</ele>
        <time>2022-07-12T08:13:50Z</time>
      </trkpt>
      <trkpt lat="46.49672" lon="6.12023">
        <ele>1409.3</ele>
        <time>2022-07-12T08:13:54Z</time>
      </trkpt>
      <trkpt lat="46.4967" lon="6.12033">
        <ele>1408.3</ele>
        <time>2022-07-12T08:14:21Z</time>
      </trkpt>
      <trkpt lat="46.49668" lon="6.1204">
        <ele>1409.9</ele>
        <time>2022-07-12T08:14:37Z</time>
      </trkpt>
      <trkpt lat="46.49664" lon="6.12042">
        <ele>1410.2</ele>
        <time>2022-07-12T08:14:42Z</time>
      </trkpt>
      <trkpt lat="46.49659" lon="6.1204">
        <ele>1412.7</ele>
        <time>2022-07-12T08:14:59Z</time>
      </trkpt>
      <trkpt lat="46.49655" lon="6.12044">
        <ele>1414.6</ele>
        <time>2022-07-12T08:15:07Z</time>
      </trkpt>
      <trkpt lat="46.4965" lon="6.12044">
        <ele>1417.3</ele>
        <time>2022-07-12T08:15:16Z</time>
      </trkpt>
      <trkpt lat="46.49652" lon="6.12037">
        <ele>1418.4</ele>
        <time>2022-07-12T08:15:33Z</time>
      </trkpt>
      <trkpt lat="46.49655" lon="6.12032">
        <ele>1419.9</ele>
        <time>2022-07-12T08:15:38Z</time>
      </trkpt>
      <trkpt lat="46.49648" lon="6.12032">
        <ele>1424.8</ele>
        <time>2022-07-12T08:16:30Z</time>
      </trkpt>
      <trkpt lat="46.49643" lon="6.12029">
        <ele>1427.3</ele>
        <time>2022-07-12T08:16:42Z</time>
      </trkpt>
      <trkpt lat="46.49643" lon="6.12037">
        <ele>1425.2</ele>
        <time>2022-07-12T08:16:50Z</time>
      </trkpt>
      <trkpt lat="46.49642" lon="6.1203">
        <ele>1420.9</ele>
        <time>2022-07-12T08:17:13Z</time>
      </trkpt>
      <trkpt lat="46.49646" lon="6.12035">
        <ele>1422.5</ele>
        <time>2022-07-12T08:17:49Z</time>
      </trkpt>
      <trkpt lat="46.49641" lon="6.12034">
        <ele>1421.6</ele>
        <time>2022-07-12T08:19:19Z</time>
      </trkpt>
      <trkpt lat="46.49637" lon="6.12031">
        <ele>1422</ele>
        <time>2022-07-12T08:19:27Z</time>
      </trkpt>
      <trkpt lat="46.49632" lon="6.12029">
        <ele>1423.3</ele>
        <time>2022-07-12T08:19:34Z</time>
      </trkpt>
      <trkpt lat="46.49628" lon="6.12025">
        <ele>1425</ele>
        <time>2022-07-12T08:19:41Z</time>
      </trkpt>
      <trkpt lat="46.49627" lon="6.12018">
        <ele>1426.4</ele>
        <time>2022-07-12T08:19:48Z</time>
      </trkpt>
      <trkpt lat="46.49622" lon="6.12014">
        <ele>1427.1</ele>
        <time>2022-07-12T08:19:55Z</time>
      </trkpt>
      <trkpt lat="46.49618" lon="6.12013">
        <ele>1427.6</ele>
        <time>2022-07-12T08:20:03Z</time>
      </trkpt>
      <trkpt lat="46.49614" lon="6.1201">
        <ele>1428.4</ele>
        <time>2022-07-12T08:20:10Z</time>
      </trkpt>
      <trkpt lat="46.49612" lon="6.12003">
        <ele>1429.7</ele>
        <time>2022-07-12T08:20:19Z</time>
      </trkpt>
      <trkpt lat="46.49608" lon="6.12">
        <ele>1430.4</ele>
        <time>2022-07-12T08:20:26Z</time>
      </trkpt>
      <trkpt lat="46.49603" lon="6.11999">
        <ele>1430.5</ele>
        <time>2022-07-12T08:20:33Z</time>
      </trkpt>
      <trkpt lat="46.49599" lon="6.11997">
        <ele>1430.9</ele>
        <time>2022-07-12T08:20:39Z</time>
      </trkpt>
      <trkpt lat="46.49594" lon="6.11995">
        <ele>1432.4</ele>
        <time>2022-07-12T08:20:49Z</time>
      </trkpt>
      <trkpt lat="46.49589" lon="6.11992">
        <ele>1433.1</ele>
        <time>2022-07-12T08:20:55Z</time>
      </trkpt>
      <trkpt lat="46.49585" lon="6.11987">
        <ele>1433.7</ele>
        <time>2022-07-12T08:21:01Z</time>
      </trkpt>
      <trkpt lat="46.49581" lon="6.11984">
        <ele>1434.6</ele>
        <time>2022-07-12T08:21:07Z</time>
      </trkpt>
      <trkpt lat="46.49577" lon="6.1198">
        <ele>1435.5</ele>
        <time>2022-07-12T08:21:14Z</time>
      </trkpt>
      <trkpt lat="46.49572" lon="6.11981">
        <ele>1436.5</ele>
        <time>2022-07-12T08:21:21Z</time>
      </trkpt>
      <trkpt lat="46.49567" lon="6.11981">
        <ele>1437.2</ele>
        <time>2022-07-12T08:21:27Z</time>
      </trkpt>
      <trkpt lat="46.49563" lon="6.11978">
        <ele>1437.3</ele>
        <time>2022-07-12T08:21:34Z</time>
      </trkpt>
      <trkpt lat="46.49561" lon="6.11972">
        <ele>1437.2</ele>
        <time>2022-07-12T08:21:40Z</time>
      </trkpt>
      <trkpt lat="46.49559" lon="6.11966">
        <ele>1437.6</ele>
        <time>2022-07-12T08:21:49Z</time>
      </trkpt>
      <trkpt lat="46.4956" lon="6.11959">
        <ele>1438.8</ele>
        <time>2022-07-12T08:21:56Z</time>
      </trkpt>
      <trkpt lat="46.49558" lon="6.11953">
        <ele>1441</ele>
        <time>2022-07-12T08:22:04Z</time>
      </trkpt>
      <trkpt lat="46.49554" lon="6.11948">
        <ele>1443.1</ele>
        <time>2022-07-12T08:22:11Z</time>
      </trkpt>
      <trkpt lat="46.4955" lon="6.11951">
        <ele>1444.8</ele>
        <time>2022-07-12T08:22:18Z</time>
      </trkpt>
      <trkpt lat="46.49545" lon="6.11949">
        <ele>1445.6</ele>
        <time>2022-07-12T08:22:24Z</time>
      </trkpt>
      <trkpt lat="46.49541" lon="6.11946">
        <ele>1444.1</ele>
        <time>2022-07-12T08:22:32Z</time>
      </trkpt>
      <trkpt lat="46.49536" lon="6.11947">
        <ele>1443.9</ele>
        <time>2022-07-12T08:22:38Z</time>
      </trkpt>
      <trkpt lat="46.49531" lon="6.11945">
        <ele>1444.5</ele>
        <time>2022-07-12T08:22:44Z</time>
      </trkpt>
      <trkpt lat="46.49526" lon="6.11948">
        <ele>1444.6</ele>
        <time>2022-07-12T08:22:51Z</time>
      </trkpt>
      <trkpt lat="46.49522" lon="6.11946">
        <ele>1444.8</ele>
        <time>2022-07-12T08:22:58Z</time>
      </trkpt>
      <trkpt lat="46.49518" lon="6.11941">
        <ele>1445</ele>
        <time>2022-07-12T08:23:04Z</time>
      </trkpt>
      <trkpt lat="46.49513" lon="6.1194">
        <ele>1445.9</ele>
        <time>2022-07-12T08:23:11Z</time>
      </trkpt>
      <trkpt lat="46.49509" lon="6.11936">
        <ele>1451.9</ele>
        <time>2022-07-12T08:23:47Z</time>
      </trkpt>
      <trkpt lat="46.49505" lon="6.11935">
        <ele>1453.4</ele>
        <time>2022-07-12T08:23:51Z</time>
      </trkpt>
      <trkpt lat="46.495" lon="6.11933">
        <ele>1454.6</ele>
        <time>2022-07-12T08:23:57Z</time>
      </trkpt>
      <trkpt lat="46.49495" lon="6.11934">
        <ele>1454.5</ele>
        <time>2022-07-12T08:24:05Z</time>
      </trkpt>
      <trkpt lat="46.49491" lon="6.11934">
        <ele>1454.1</ele>
        <time>2022-07-12T08:24:12Z</time>
      </trkpt>
      <trkpt lat="46.49486" lon="6.11935">
        <ele>1452.6</ele>
        <time>2022-07-12T08:24:22Z</time>
      </trkpt>
      <trkpt lat="46.49483" lon="6.11928">
        <ele>1450.7</ele>
        <time>2022-07-12T08:24:34Z</time>
      </trkpt>
      <trkpt lat="46.4948" lon="6.11921">
        <ele>1450.5</ele>
        <time>2022-07-12T08:24:43Z</time>
      </trkpt>
      <trkpt lat="46.49475" lon="6.11923">
        <ele>1451.2</ele>
        <time>2022-07-12T08:24:49Z</time>
      </trkpt>
      <trkpt lat="46.4947" lon="6.1193">
        <ele>1451.8</ele>
        <time>2022-07-12T08:24:52Z</time>
      </trkpt>
      <trkpt lat="46.49465" lon="6.11931">
        <ele>1453.9</ele>
        <time>2022-07-12T08:25:00Z</time>
      </trkpt>
      <trkpt lat="46.49463" lon="6.11924">
        <ele>1455.9</ele>
        <time>2022-07-12T08:25:07Z</time>
      </trkpt>
      <trkpt lat="46.49461" lon="6.1193">
        <ele>1462.8</ele>
        <time>2022-07-12T08:25:31Z</time>
      </trkpt>
      <trkpt lat="46.49457" lon="6.11934">
        <ele>1465.5</ele>
        <time>2022-07-12T08:25:41Z</time>
      </trkpt>
      <trkpt lat="46.49453" lon="6.11936">
        <ele>1466.2</ele>
        <time>2022-07-12T08:25:52Z</time>
      </trkpt>
      <trkpt lat="46.49448" lon="6.11937">
        <ele>1465.8</ele>
        <time>2022-07-12T08:27:50Z</time>
      </trkpt>
      <trkpt lat="46.49443" lon="6.11934">
        <ele>1466.8</ele>
        <time>2022-07-12T08:29:48Z</time>
      </trkpt>
      <trkpt lat="46.49439" lon="6.11933">
        <ele>1468.7</ele>
        <time>2022-07-12T08:30:07Z</time>
      </trkpt>
      <trkpt lat="46.49434" lon="6.11933">
        <ele>1469.2</ele>
        <time>2022-07-12T08:30:15Z</time>
      </trkpt>
      <trkpt lat="46.49429" lon="6.11933">
        <ele>1469.3</ele>
        <time>2022-07-12T08:30:20Z</time>
      </trkpt>
      <trkpt lat="46.49424" lon="6.11932">
        <ele>1469.8</ele>
        <time>2022-07-12T08:30:28Z</time>
      </trkpt>
      <trkpt lat="46.49419" lon="6.1193">
        <ele>1470.1</ele>
        <time>2022-07-12T08:30:34Z</time>
      </trkpt>
      <trkpt lat="46.49415" lon="6.11928">
        <ele>1471.5</ele>
        <time>2022-07-12T08:30:44Z</time>
      </trkpt>
      <trkpt lat="46.4941" lon="6.11927">
        <ele>1472.3</ele>
        <time>2022-07-12T08:30:51Z</time>
      </trkpt>
      <trkpt lat="46.49406" lon="6.11927">
        <ele>1472.4</ele>
        <time>2022-07-12T08:31:01Z</time>
      </trkpt>
      <trkpt lat="46.494" lon="6.11928">
        <ele>1473.6</ele>
        <time>2022-07-12T08:31:08Z</time>
      </trkpt>
      <trkpt lat="46.49396" lon="6.11924">
        <ele>1476</ele>
        <time>2022-07-12T08:31:16Z</time>
      </trkpt>
      <trkpt lat="46.49392" lon="6.11921">
        <ele>1477.3</ele>
        <time>2022-07-12T08:31:26Z</time>
      </trkpt>
      <trkpt lat="46.49388" lon="6.11916">
        <ele>1480.6</ele>
        <time>2022-07-12T08:32:39Z</time>
      </trkpt>
      <trkpt lat="46.49383" lon="6.11915">
        <ele>1483.2</ele>
        <time>2022-07-12T08:32:46Z</time>
      </trkpt>
      <trkpt lat="46.49378" lon="6.11913">
        <ele>1484.9</ele>
        <time>2022-07-12T08:32:53Z</time>
      </trkpt>
      <trkpt lat="46.49373" lon="6.11913">
        <ele>1486.1</ele>
        <time>2022-07-12T08:32:59Z</time>
      </trkpt>
      <trkpt lat="46.49369" lon="6.11912">
        <ele>1487.1</ele>
        <time>2022-07-12T08:33:04Z</time>
      </trkpt>
      <trkpt lat="46.49364" lon="6.11913">
        <ele>1489</ele>
        <time>2022-07-12T08:33:12Z</time>
      </trkpt>
      <trkpt lat="46.49358" lon="6.11912">
        <ele>1489.8</ele>
        <time>2022-07-12T08:34:18Z</time>
      </trkpt>
      <trkpt lat="46.49354" lon="6.11911">
        <ele>1490.3</ele>
        <time>2022-07-12T08:34:26Z</time>
      </trkpt>
      <trkpt lat="46.49349" lon="6.11911">
        <ele>1490.7</ele>
        <time>2022-07-12T08:34:32Z</time>
      </trkpt>
      <trkpt lat="46.49344" lon="6.11908">
        <ele>1491.5</ele>
        <time>2022-07-12T08:34:40Z</time>
      </trkpt>
      <trkpt lat="46.4934" lon="6.1191">
        <ele>1492.9</ele>
        <time>2022-07-12T08:34:47Z</time>
      </trkpt>
      <trkpt lat="46.49336" lon="6.1191">
        <ele>1494.9</ele>
        <time>2022-07-12T08:34:56Z</time>
      </trkpt>
      <trkpt lat="46.49331" lon="6.11909">
        <ele>1495.9</ele>
        <time>2022-07-12T08:35:05Z</time>
      </trkpt>
      <trkpt lat="46.49327" lon="6.11904">
        <ele>1496.8</ele>
        <time>2022-07-12T08:35:16Z</time>
      </trkpt>
      <trkpt lat="46.49322" lon="6.11905">
        <ele>1498.7</ele>
        <time>2022-07-12T08:35:24Z</time>
      </trkpt>
      <trkpt lat="46.49319" lon="6.11899">
        <ele>1501.7</ele>
        <time>2022-07-12T08:35:37Z</time>
      </trkpt>
      <trkpt lat="46.49314" lon="6.11897">
        <ele>1503.8</ele>
        <time>2022-07-12T08:35:59Z</time>
      </trkpt>
      <trkpt lat="46.49309" lon="6.11897">
        <ele>1506.2</ele>
        <time>2022-07-12T08:36:06Z</time>
      </trkpt>
      <trkpt lat="46.49305" lon="6.11901">
        <ele>1513.1</ele>
        <time>2022-07-12T08:39:24Z</time>
      </trkpt>
      <trkpt lat="46.49302" lon="6.11896">
        <ele>1516.3</ele>
        <time>2022-07-12T08:42:11Z</time>
      </trkpt>
      <trkpt lat="46.49297" lon="6.11893">
        <ele>1517.6</ele>
        <time>2022-07-12T08:42:23Z</time>
      </trkpt>
      <trkpt lat="46.49292" lon="6.1189">
        <ele>1517.8</ele>
        <time>2022-07-12T08:42:31Z</time>
      </trkpt>
      <trkpt lat="46.49288" lon="6.11888">
        <ele>1517.4</ele>
        <time>2022-07-12T08:42:37Z</time>
      </trkpt>
      <trkpt lat="46.49283" lon="6.11887">
        <ele>1517</ele>
        <time>2022-07-12T08:42:48Z</time>
      </trkpt>
      <trkpt lat="46.49279" lon="6.11888">
        <ele>1516.8</ele>
        <time>2022-07-12T08:42:55Z</time>
      </trkpt>
      <trkpt lat="46.49274" lon="6.11886">
        <ele>1517</ele>
        <time>2022-07-12T08:43:01Z</time>
      </trkpt>
      <trkpt lat="46.49269" lon="6.11885">
        <ele>1518.2</ele>
        <time>2022-07-12T08:43:07Z</time>
      </trkpt>
      <trkpt lat="46.49265" lon="6.11882">
        <ele>1520.3</ele>
        <time>2022-07-12T08:43:15Z</time>
      </trkpt>
      <trkpt lat="46.4926" lon="6.11881">
        <ele>1521.4</ele>
        <time>2022-07-12T08:43:22Z</time>
      </trkpt>
      <trkpt lat="46.49255" lon="6.11878">
        <ele>1522.5</ele>
        <time>2022-07-12T08:43:29Z</time>
      </trkpt>
      <trkpt lat="46.49251" lon="6.11875">
        <ele>1522.9</ele>
        <time>2022-07-12T08:43:37Z</time>
      </trkpt>
      <trkpt lat="46.49246" lon="6.11872">
        <ele>1524.6</ele>
        <time>2022-07-12T08:43:45Z</time>
      </trkpt>
      <trkpt lat="46.49243" lon="6.11868">
        <ele>1531.1</ele>
        <time>2022-07-12T08:44:45Z</time>
      </trkpt>
      <trkpt lat="46.49238" lon="6.11866">
        <ele>1533.4</ele>
        <time>2022-07-12T08:44:56Z</time>
      </trkpt>
      <trkpt lat="46.49234" lon="6.11863">
        <ele>1532.4</ele>
        <time>2022-07-12T08:45:05Z</time>
      </trkpt>
      <trkpt lat="46.4923" lon="6.11859">
        <ele>1532.2</ele>
        <time>2022-07-12T08:45:13Z</time>
      </trkpt>
      <trkpt lat="46.49225" lon="6.11858">
        <ele>1531.8</ele>
        <time>2022-07-12T08:45:19Z</time>
      </trkpt>
      <trkpt lat="46.4922" lon="6.11856">
        <ele>1532.1</ele>
        <time>2022-07-12T08:45:26Z</time>
      </trkpt>
      <trkpt lat="46.49216" lon="6.11855">
        <ele>1532.8</ele>
        <time>2022-07-12T08:45:36Z</time>
      </trkpt>
      <trkpt lat="46.49212" lon="6.11852">
        <ele>1534.2</ele>
        <time>2022-07-12T08:45:45Z</time>
      </trkpt>
      <trkpt lat="46.49207" lon="6.11849">
        <ele>1536.3</ele>
        <time>2022-07-12T08:45:54Z</time>
      </trkpt>
      <trkpt lat="46.49202" lon="6.1185">
        <ele>1538.3</ele>
        <time>2022-07-12T08:46:01Z</time>
      </trkpt>
      <trkpt lat="46.49198" lon="6.11847">
        <ele>1541.2</ele>
        <time>2022-07-12T08:46:11Z</time>
      </trkpt>
      <trkpt lat="46.49194" lon="6.11842">
        <ele>1543.1</ele>
        <time>2022-07-12T08:46:18Z</time>
      </trkpt>
      <trkpt lat="46.49191" lon="6.11838">
        <ele>1544.7</ele>
        <time>2022-07-12T08:46:26Z</time>
      </trkpt>
      <trkpt lat="46.49186" lon="6.11836">
        <ele>1545.7</ele>
        <time>2022-07-12T08:46:35Z</time>
      </trkpt>
      <trkpt lat="46.49181" lon="6.11837">
        <ele>1545.6</ele>
        <time>2022-07-12T08:46:41Z</time>
      </trkpt>
      <trkpt lat="46.49176" lon="6.11836">
        <ele>1545</ele>
        <time>2022-07-12T08:46:47Z</time>
      </trkpt>
      <trkpt lat="46.49171" lon="6.11835">
        <ele>1544.5</ele>
        <time>2022-07-12T08:46:53Z</time>
      </trkpt>
      <trkpt lat="46.49167" lon="6.11832">
        <ele>1544.5</ele>
        <time>2022-07-12T08:46:59Z</time>
      </trkpt>
      <trkpt lat="46.49163" lon="6.11829">
        <ele>1544.2</ele>
        <time>2022-07-12T08:47:05Z</time>
      </trkpt>
      <trkpt lat="46.49159" lon="6.11825">
        <ele>1543.5</ele>
        <time>2022-07-12T08:47:54Z</time>
      </trkpt>
      <trkpt lat="46.49154" lon="6.11827">
        <ele>1543.3</ele>
        <time>2022-07-12T08:48:00Z</time>
      </trkpt>
      <trkpt lat="46.49149" lon="6.11827">
        <ele>1543.6</ele>
        <time>2022-07-12T08:48:06Z</time>
      </trkpt>
      <trkpt lat="46.49144" lon="6.11826">
        <ele>1546.5</ele>
        <time>2022-07-12T08:50:27Z</time>
      </trkpt>
      <trkpt lat="46.49139" lon="6.11825">
        <ele>1546.1</ele>
        <time>2022-07-12T08:50:32Z</time>
      </trkpt>
      <trkpt lat="46.49134" lon="6.11826">
        <ele>1545.5</ele>
        <time>2022-07-12T08:50:40Z</time>
      </trkpt>
      <trkpt lat="46.49131" lon="6.11831">
        <ele>1548</ele>
        <time>2022-07-12T08:50:57Z</time>
      </trkpt>
      <trkpt lat="46.49127" lon="6.11835">
        <ele>1547.8</ele>
        <time>2022-07-12T08:51:13Z</time>
      </trkpt>
      <trkpt lat="46.49123" lon="6.11835">
        <ele>1545.4</ele>
        <time>2022-07-12T08:51:26Z</time>
      </trkpt>
      <trkpt lat="46.49117" lon="6.11833">
        <ele>1543.7</ele>
        <time>2022-07-12T08:51:33Z</time>
      </trkpt>
      <trkpt lat="46.49113" lon="6.11831">
        <ele>1542.7</ele>
        <time>2022-07-12T08:51:42Z</time>
      </trkpt>
      <trkpt lat="46.49108" lon="6.11831">
        <ele>1542.4</ele>
        <time>2022-07-12T08:51:53Z</time>
      </trkpt>
      <trkpt lat="46.49103" lon="6.11831">
        <ele>1541.3</ele>
        <time>2022-07-12T08:51:58Z</time>
      </trkpt>
      <trkpt lat="46.49099" lon="6.11831">
        <ele>1540.2</ele>
        <time>2022-07-12T08:52:04Z</time>
      </trkpt>
      <trkpt lat="46.49094" lon="6.1183">
        <ele>1539.4</ele>
        <time>2022-07-12T08:52:10Z</time>
      </trkpt>
      <trkpt lat="46.49089" lon="6.1183">
        <ele>1539.4</ele>
        <time>2022-07-12T08:52:17Z</time>
      </trkpt>
      <trkpt lat="46.49085" lon="6.11825">
        <ele>1538.7</ele>
        <time>2022-07-12T08:52:23Z</time>
      </trkpt>
      <trkpt lat="46.49081" lon="6.1182">
        <ele>1538</ele>
        <time>2022-07-12T08:52:29Z</time>
      </trkpt>
      <trkpt lat="46.49078" lon="6.11817">
        <ele>1537</ele>
        <time>2022-07-12T08:52:36Z</time>
      </trkpt>
      <trkpt lat="46.49073" lon="6.11815">
        <ele>1537.1</ele>
        <time>2022-07-12T08:52:43Z</time>
      </trkpt>
      <trkpt lat="46.49068" lon="6.11814">
        <ele>1537.5</ele>
        <time>2022-07-12T08:52:49Z</time>
      </trkpt>
      <trkpt lat="46.49063" lon="6.11811">
        <ele>1537.9</ele>
        <time>2022-07-12T08:52:55Z</time>
      </trkpt>
      <trkpt lat="46.49059" lon="6.11808">
        <ele>1538.2</ele>
        <time>2022-07-12T08:53:00Z</time>
      </trkpt>
      <trkpt lat="46.49054" lon="6.11806">
        <ele>1537.6</ele>
        <time>2022-07-12T08:53:07Z</time>
      </trkpt>
      <trkpt lat="46.49049" lon="6.11805">
        <ele>1537</ele>
        <time>2022-07-12T08:53:11Z</time>
      </trkpt>
      <trkpt lat="46.49045" lon="6.11802">
        <ele>1536.4</ele>
        <time>2022-07-12T08:53:17Z</time>
      </trkpt>
      <trkpt lat="46.4904" lon="6.11799">
        <ele>1535.6</ele>
        <time>2022-07-12T08:53:22Z</time>
      </trkpt>
      <trkpt lat="46.49036" lon="6.11796">
        <ele>1535</ele>
        <time>2022-07-12T08:53:28Z</time>
      </trkpt>
      <trkpt lat="46.49032" lon="6.11792">
        <ele>1534</ele>
        <time>2022-07-12T08:53:36Z</time>
      </trkpt>
      <trkpt lat="46.49027" lon="6.11791">
        <ele>1533.6</ele>
        <time>2022-07-12T08:53:43Z</time>
      </trkpt>
      <trkpt lat="46.49022" lon="6.11792">
        <ele>1533.7</ele>
        <time>2022-07-12T08:53:52Z</time>
      </trkpt>
      <trkpt lat="46.49017" lon="6.11793">
        <ele>1534.7</ele>
        <time>2022-07-12T08:54:02Z</time>
      </trkpt>
      <trkpt lat="46.49013" lon="6.1179">
        <ele>1535.2</ele>
        <time>2022-07-12T08:54:08Z</time>
      </trkpt>
      <trkpt lat="46.49009" lon="6.11788">
        <ele>1535.5</ele>
        <time>2022-07-12T08:54:13Z</time>
      </trkpt>
      <trkpt lat="46.49004" lon="6.11785">
        <ele>1535.3</ele>
        <time>2022-07-12T08:54:19Z</time>
      </trkpt>
      <trkpt lat="46.49" lon="6.11783">
        <ele>1535.3</ele>
        <time>2022-07-12T08:54:24Z</time>
      </trkpt>
      <trkpt lat="46.48995" lon="6.11781">
        <ele>1535.1</ele>
        <time>2022-07-12T08:54:33Z</time>
      </trkpt>
      <trkpt lat="46.48992" lon="6.11776">
        <ele>1533.8</ele>
        <time>2022-07-12T08:54:38Z</time>
      </trkpt>
      <trkpt lat="46.48989" lon="6.1177">
        <ele>1531.9</ele>
        <time>2022-07-12T08:54:43Z</time>
      </trkpt>
      <trkpt lat="46.48985" lon="6.11764">
        <ele>1530.2</ele>
        <time>2022-07-12T08:54:48Z</time>
      </trkpt>
      <trkpt lat="46.4898" lon="6.1176">
        <ele>1529.9</ele>
        <time>2022-07-12T08:54:54Z</time>
      </trkpt>
      <trkpt lat="46.48977" lon="6.11754">
        <ele>1528.8</ele>
        <time>2022-07-12T08:55:02Z</time>
      </trkpt>
      <trkpt lat="46.48974" lon="6.11749">
        <ele>1527.2</ele>
        <time>2022-07-12T08:55:11Z</time>
      </trkpt>
      <trkpt lat="46.48971" lon="6.11743">
        <ele>1526.7</ele>
        <time>2022-07-12T08:55:18Z</time>
      </trkpt>
      <trkpt lat="46.48973" lon="6.11737">
        <ele>1524.8</ele>
        <time>2022-07-12T08:55:31Z</time>
      </trkpt>
      <trkpt lat="46.48969" lon="6.11733">
        <ele>1523.3</ele>
        <time>2022-07-12T08:55:57Z</time>
      </trkpt>
      <trkpt lat="46.48965" lon="6.11729">
        <ele>1522.6</ele>
        <time>2022-07-12T08:56:04Z</time>
      </trkpt>
      <trkpt lat="46.4896" lon="6.11724">
        <ele>1522.7</ele>
        <time>2022-07-12T08:56:09Z</time>
      </trkpt>
      <trkpt lat="46.48956" lon="6.1172">
        <ele>1522.4</ele>
        <time>2022-07-12T08:56:13Z</time>
      </trkpt>
      <trkpt lat="46.48952" lon="6.11717">
        <ele>1521.3</ele>
        <time>2022-07-12T08:56:19Z</time>
      </trkpt>
      <trkpt lat="46.48948" lon="6.11714">
        <ele>1520.6</ele>
        <time>2022-07-12T08:56:27Z</time>
      </trkpt>
      <trkpt lat="46.48943" lon="6.11709">
        <ele>1520.6</ele>
        <time>2022-07-12T08:56:32Z</time>
      </trkpt>
      <trkpt lat="46.48939" lon="6.11706">
        <ele>1520.4</ele>
        <time>2022-07-12T08:56:37Z</time>
      </trkpt>
      <trkpt lat="46.48935" lon="6.11703">
        <ele>1520</ele>
        <time>2022-07-12T08:56:43Z</time>
      </trkpt>
      <trkpt lat="46.4893" lon="6.11701">
        <ele>1520.1</ele>
        <time>2022-07-12T08:56:50Z</time>
      </trkpt>
      <trkpt lat="46.48926" lon="6.11697">
        <ele>1520.1</ele>
        <time>2022-07-12T08:56:55Z</time>
      </trkpt>
      <trkpt lat="46.48922" lon="6.11693">
        <ele>1520</ele>
        <time>2022-07-12T08:57:01Z</time>
      </trkpt>
      <trkpt lat="46.48918" lon="6.1169">
        <ele>1519.9</ele>
        <time>2022-07-12T08:57:07Z</time>
      </trkpt>
      <trkpt lat="46.48913" lon="6.11685">
        <ele>1520</ele>
        <time>2022-07-12T08:57:11Z</time>
      </trkpt>
      <trkpt lat="46.48909" lon="6.11681">
        <ele>1520.5</ele>
        <time>2022-07-12T08:57:16Z</time>
      </trkpt>
      <trkpt lat="46.48905" lon="6.11679">
        <ele>1520.6</ele>
        <time>2022-07-12T08:57:24Z</time>
      </trkpt>
      <trkpt lat="46.48909" lon="6.11675">
        <ele>1520.7</ele>
        <time>2022-07-12T08:58:30Z</time>
      </trkpt>
      <trkpt lat="46.48912" lon="6.1168">
        <ele>1520.3</ele>
        <time>2022-07-12T08:58:35Z</time>
      </trkpt>
      <trkpt lat="46.48915" lon="6.11686">
        <ele>1520.6</ele>
        <time>2022-07-12T08:58:42Z</time>
      </trkpt>
      <trkpt lat="46.48919" lon="6.1169">
        <ele>1521.2</ele>
        <time>2022-07-12T08:58:49Z</time>
      </trkpt>
      <trkpt lat="46.48923" lon="6.11695">
        <ele>1520.3</ele>
        <time>2022-07-12T08:58:56Z</time>
      </trkpt>
      <trkpt lat="46.48926" lon="6.117">
        <ele>1519.6</ele>
        <time>2022-07-12T08:59:01Z</time>
      </trkpt>
      <trkpt lat="46.4893" lon="6.11704">
        <ele>1519.3</ele>
        <time>2022-07-12T08:59:09Z</time>
      </trkpt>
      <trkpt lat="46.48935" lon="6.11706">
        <ele>1519.9</ele>
        <time>2022-07-12T08:59:15Z</time>
      </trkpt>
      <trkpt lat="46.48939" lon="6.11709">
        <ele>1520.8</ele>
        <time>2022-07-12T08:59:19Z</time>
      </trkpt>
      <trkpt lat="46.48943" lon="6.11713">
        <ele>1523.4</ele>
        <time>2022-07-12T08:59:39Z</time>
      </trkpt>
      <trkpt lat="46.48948" lon="6.11717">
        <ele>1524.2</ele>
        <time>2022-07-12T08:59:44Z</time>
      </trkpt>
      <trkpt lat="46.48952" lon="6.1172">
        <ele>1525.1</ele>
        <time>2022-07-12T08:59:51Z</time>
      </trkpt>
      <trkpt lat="46.48956" lon="6.11724">
        <ele>1525.7</ele>
        <time>2022-07-12T08:59:59Z</time>
      </trkpt>
      <trkpt lat="46.48961" lon="6.11728">
        <ele>1525.7</ele>
        <time>2022-07-12T09:00:05Z</time>
      </trkpt>
      <trkpt lat="46.48965" lon="6.11732">
        <ele>1525.8</ele>
        <time>2022-07-12T09:00:12Z</time>
      </trkpt>
      <trkpt lat="46.48969" lon="6.11735">
        <ele>1525.4</ele>
        <time>2022-07-12T09:00:22Z</time>
      </trkpt>
      <trkpt lat="46.48973" lon="6.11739">
        <ele>1524.1</ele>
        <time>2022-07-12T09:00:29Z</time>
      </trkpt>
      <trkpt lat="46.48973" lon="6.11745">
        <ele>1522.1</ele>
        <time>2022-07-12T09:00:42Z</time>
      </trkpt>
      <trkpt lat="46.48969" lon="6.11749">
        <ele>1521.2</ele>
        <time>2022-07-12T09:01:38Z</time>
      </trkpt>
      <trkpt lat="46.48965" lon="6.11753">
        <ele>1520.2</ele>
        <time>2022-07-12T09:02:09Z</time>
      </trkpt>
      <trkpt lat="46.48963" lon="6.1176">
        <ele>1520.9</ele>
        <time>2022-07-12T09:02:35Z</time>
      </trkpt>
      <trkpt lat="46.48961" lon="6.11767">
        <ele>1521.3</ele>
        <time>2022-07-12T09:02:52Z</time>
      </trkpt>
      <trkpt lat="46.4896" lon="6.11773">
        <ele>1521.7</ele>
        <time>2022-07-12T09:02:57Z</time>
      </trkpt>
      <trkpt lat="46.48959" lon="6.1178">
        <ele>1522.3</ele>
        <time>2022-07-12T09:03:03Z</time>
      </trkpt>
      <trkpt lat="46.48957" lon="6.11787">
        <ele>1522.9</ele>
        <time>2022-07-12T09:03:11Z</time>
      </trkpt>
      <trkpt lat="46.48956" lon="6.11793">
        <ele>1522.6</ele>
        <time>2022-07-12T09:03:20Z</time>
      </trkpt>
      <trkpt lat="46.48954" lon="6.11799">
        <ele>1521.1</ele>
        <time>2022-07-12T09:03:29Z</time>
      </trkpt>
      <trkpt lat="46.48952" lon="6.11806">
        <ele>1520</ele>
        <time>2022-07-12T09:03:42Z</time>
      </trkpt>
      <trkpt lat="46.4895" lon="6.11813">
        <ele>1519.1</ele>
        <time>2022-07-12T09:03:50Z</time>
      </trkpt>
      <trkpt lat="46.4895" lon="6.1182">
        <ele>1517.8</ele>
        <time>2022-07-12T09:03:56Z</time>
      </trkpt>
      <trkpt lat="46.4895" lon="6.11827">
        <ele>1515.7</ele>
        <time>2022-07-12T09:04:08Z</time>
      </trkpt>
      <trkpt lat="46.4895" lon="6.11834">
        <ele>1515.6</ele>
        <time>2022-07-12T09:04:15Z</time>
      </trkpt>
      <trkpt lat="46.48949" lon="6.11841">
        <ele>1515.2</ele>
        <time>2022-07-12T09:04:20Z</time>
      </trkpt>
      <trkpt lat="46.48949" lon="6.11848">
        <ele>1513.2</ele>
        <time>2022-07-12T09:04:29Z</time>
      </trkpt>
      <trkpt lat="46.48949" lon="6.11856">
        <ele>1511.9</ele>
        <time>2022-07-12T09:04:36Z</time>
      </trkpt>
      <trkpt lat="46.4895" lon="6.11864">
        <ele>1511.5</ele>
        <time>2022-07-12T09:05:18Z</time>
      </trkpt>
      <trkpt lat="46.48952" lon="6.1187">
        <ele>1509.4</ele>
        <time>2022-07-12T09:05:26Z</time>
      </trkpt>
      <trkpt lat="46.48955" lon="6.11876">
        <ele>1507.1</ele>
        <time>2022-07-12T09:05:33Z</time>
      </trkpt>
      <trkpt lat="46.48959" lon="6.1188">
        <ele>1506.3</ele>
        <time>2022-07-12T09:05:38Z</time>
      </trkpt>
      <trkpt lat="46.48963" lon="6.11884">
        <ele>1506.7</ele>
        <time>2022-07-12T09:05:44Z</time>
      </trkpt>
      <trkpt lat="46.48968" lon="6.11886">
        <ele>1507.9</ele>
        <time>2022-07-12T09:05:51Z</time>
      </trkpt>
      <trkpt lat="46.48973" lon="6.11889">
        <ele>1509.4</ele>
        <time>2022-07-12T09:05:57Z</time>
      </trkpt>
      <trkpt lat="46.48978" lon="6.11891">
        <ele>1511.2</ele>
        <time>2022-07-12T09:06:03Z</time>
      </trkpt>
      <trkpt lat="46.48982" lon="6.11896">
        <ele>1512.8</ele>
        <time>2022-07-12T09:06:09Z</time>
      </trkpt>
      <trkpt lat="46.48986" lon="6.11899">
        <ele>1513.8</ele>
        <time>2022-07-12T09:06:14Z</time>
      </trkpt>
      <trkpt lat="46.48991" lon="6.119">
        <ele>1514.5</ele>
        <time>2022-07-12T09:06:18Z</time>
      </trkpt>
      <trkpt lat="46.48994" lon="6.11905">
        <ele>1515.6</ele>
        <time>2022-07-12T09:06:24Z</time>
      </trkpt>
      <trkpt lat="46.48998" lon="6.1191">
        <ele>1516</ele>
        <time>2022-07-12T09:06:31Z</time>
      </trkpt>
      <trkpt lat="46.49002" lon="6.11914">
        <ele>1516.1</ele>
        <time>2022-07-12T09:06:37Z</time>
      </trkpt>
      <trkpt lat="46.49006" lon="6.11918">
        <ele>1516.2</ele>
        <time>2022-07-12T09:06:42Z</time>
      </trkpt>
      <trkpt lat="46.4901" lon="6.11922">
        <ele>1516.7</ele>
        <time>2022-07-12T09:06:49Z</time>
      </trkpt>
      <trkpt lat="46.49015" lon="6.11924">
        <ele>1516.9</ele>
        <time>2022-07-12T09:06:55Z</time>
      </trkpt>
      <trkpt lat="46.4902" lon="6.11927">
        <ele>1517.3</ele>
        <time>2022-07-12T09:07:00Z</time>
      </trkpt>
      <trkpt lat="46.49024" lon="6.1193">
        <ele>1518.1</ele>
        <time>2022-07-12T09:07:04Z</time>
      </trkpt>
      <trkpt lat="46.49029" lon="6.11933">
        <ele>1519</ele>
        <time>2022-07-12T09:07:08Z</time>
      </trkpt>
      <trkpt lat="46.49033" lon="6.11935">
        <ele>1519.9</ele>
        <time>2022-07-12T09:07:13Z</time>
      </trkpt>
      <trkpt lat="46.49038" lon="6.11939">
        <ele>1521</ele>
        <time>2022-07-12T09:07:19Z</time>
      </trkpt>
      <trkpt lat="46.49043" lon="6.11943">
        <ele>1522.1</ele>
        <time>2022-07-12T09:07:24Z</time>
      </trkpt>
      <trkpt lat="46.49047" lon="6.11947">
        <ele>1522.9</ele>
        <time>2022-07-12T09:07:28Z</time>
      </trkpt>
      <trkpt lat="46.49051" lon="6.11951">
        <ele>1522.6</ele>
        <time>2022-07-12T09:07:36Z</time>
      </trkpt>
      <trkpt lat="46.49055" lon="6.11953">
        <ele>1521.7</ele>
        <time>2022-07-12T09:07:41Z</time>
      </trkpt>
      <trkpt lat="46.4906" lon="6.11955">
        <ele>1521.3</ele>
        <time>2022-07-12T09:07:45Z</time>
      </trkpt>
      <trkpt lat="46.49065" lon="6.11956">
        <ele>1520</ele>
        <time>2022-07-12T09:07:54Z</time>
      </trkpt>
      <trkpt lat="46.4907" lon="6.11957">
        <ele>1518.6</ele>
        <time>2022-07-12T09:08:00Z</time>
      </trkpt>
      <trkpt lat="46.49074" lon="6.11953">
        <ele>1517.6</ele>
        <time>2022-07-12T09:08:06Z</time>
      </trkpt>
      <trkpt lat="46.49078" lon="6.11957">
        <ele>1514.8</ele>
        <time>2022-07-12T09:08:24Z</time>
      </trkpt>
      <trkpt lat="46.49083" lon="6.11958">
        <ele>1515.6</ele>
        <time>2022-07-12T09:08:30Z</time>
      </trkpt>
      <trkpt lat="46.49088" lon="6.11958">
        <ele>1516.6</ele>
        <time>2022-07-12T09:08:35Z</time>
      </trkpt>
      <trkpt lat="46.49093" lon="6.11957">
        <ele>1517.5</ele>
        <time>2022-07-12T09:08:40Z</time>
      </trkpt>
      <trkpt lat="46.49097" lon="6.11961">
        <ele>1518</ele>
        <time>2022-07-12T09:08:47Z</time>
      </trkpt>
      <trkpt lat="46.49102" lon="6.1196">
        <ele>1518.4</ele>
        <time>2022-07-12T09:08:53Z</time>
      </trkpt>
      <trkpt lat="46.49107" lon="6.1196">
        <ele>1517.7</ele>
        <time>2022-07-12T09:08:58Z</time>
      </trkpt>
      <trkpt lat="46.49111" lon="6.1196">
        <ele>1517.3</ele>
        <time>2022-07-12T09:09:02Z</time>
      </trkpt>
      <trkpt lat="46.49117" lon="6.11961">
        <ele>1517.2</ele>
        <time>2022-07-12T09:09:08Z</time>
      </trkpt>
      <trkpt lat="46.49122" lon="6.11962">
        <ele>1517</ele>
        <time>2022-07-12T09:09:14Z</time>
      </trkpt>
      <trkpt lat="46.49127" lon="6.11963">
        <ele>1517.1</ele>
        <time>2022-07-12T09:09:20Z</time>
      </trkpt>
      <trkpt lat="46.49132" lon="6.11963">
        <ele>1516.9</ele>
        <time>2022-07-12T09:09:26Z</time>
      </trkpt>
      <trkpt lat="46.49136" lon="6.1196">
        <ele>1515.7</ele>
        <time>2022-07-12T09:09:45Z</time>
      </trkpt>
      <trkpt lat="46.49141" lon="6.11956">
        <ele>1514.9</ele>
        <time>2022-07-12T09:10:43Z</time>
      </trkpt>
      <trkpt lat="46.49145" lon="6.11955">
        <ele>1511.3</ele>
        <time>2022-07-12T09:10:56Z</time>
      </trkpt>
      <trkpt lat="46.49148" lon="6.11949">
        <ele>1507.9</ele>
        <time>2022-07-12T09:11:31Z</time>
      </trkpt>
      <trkpt lat="46.49153" lon="6.11946">
        <ele>1506</ele>
        <time>2022-07-12T09:12:21Z</time>
      </trkpt>
      <trkpt lat="46.49157" lon="6.11942">
        <ele>1504.5</ele>
        <time>2022-07-12T09:12:26Z</time>
      </trkpt>
      <trkpt lat="46.49162" lon="6.11944">
        <ele>1499.4</ele>
        <time>2022-07-12T09:13:10Z</time>
      </trkpt>
      <trkpt lat="46.49166" lon="6.1194">
        <ele>1494.6</ele>
        <time>2022-07-12T09:13:29Z</time>
      </trkpt>
      <trkpt lat="46.49169" lon="6.11936">
        <ele>1492.6</ele>
        <time>2022-07-12T09:13:40Z</time>
      </trkpt>
      <trkpt lat="46.49174" lon="6.11938">
        <ele>1493</ele>
        <time>2022-07-12T09:13:58Z</time>
      </trkpt>
      <trkpt lat="46.49178" lon="6.11941">
        <ele>1493</ele>
        <time>2022-07-12T09:14:31Z</time>
      </trkpt>
      <trkpt lat="46.49175" lon="6.11946">
        <ele>1489.5</ele>
        <time>2022-07-12T09:14:57Z</time>
      </trkpt>
      <trkpt lat="46.49171" lon="6.11949">
        <ele>1482.2</ele>
        <time>2022-07-12T09:16:19Z</time>
      </trkpt>
      <trkpt lat="46.49175" lon="6.11953">
        <ele>1476.9</ele>
        <time>2022-07-12T09:17:21Z</time>
      </trkpt>
      <trkpt lat="46.4918" lon="6.11954">
        <ele>1477.7</ele>
        <time>2022-07-12T09:17:30Z</time>
      </trkpt>
      <trkpt lat="46.4918" lon="6.11961">
        <ele>1475.8</ele>
        <time>2022-07-12T09:18:04Z</time>
      </trkpt>
      <trkpt lat="46.49179" lon="6.11968">
        <ele>1473.6</ele>
        <time>2022-07-12T09:18:09Z</time>
      </trkpt>
      <trkpt lat="46.49178" lon="6.11978">
        <ele>1470.4</ele>
        <time>2022-07-12T09:18:43Z</time>
      </trkpt>
      <trkpt lat="46.49175" lon="6.11985">
        <ele>1469.5</ele>
        <time>2022-07-12T09:18:46Z</time>
      </trkpt>
      <trkpt lat="46.49172" lon="6.1199">
        <ele>1469.2</ele>
        <time>2022-07-12T09:18:58Z</time>
      </trkpt>
      <trkpt lat="46.49172" lon="6.11997">
        <ele>1470.8</ele>
        <time>2022-07-12T09:19:12Z</time>
      </trkpt>
      <trkpt lat="46.49173" lon="6.12003">
        <ele>1472.4</ele>
        <time>2022-07-12T09:19:33Z</time>
      </trkpt>
      <trkpt lat="46.49172" lon="6.1201">
        <ele>1472.9</ele>
        <time>2022-07-12T09:19:45Z</time>
      </trkpt>
      <trkpt lat="46.4917" lon="6.12017">
        <ele>1472.7</ele>
        <time>2022-07-12T09:19:53Z</time>
      </trkpt>
      <trkpt lat="46.49172" lon="6.12024">
        <ele>1472</ele>
        <time>2022-07-12T09:20:09Z</time>
      </trkpt>
      <trkpt lat="46.49172" lon="6.12031">
        <ele>1470.6</ele>
        <time>2022-07-12T09:20:23Z</time>
      </trkpt>
      <trkpt lat="46.49174" lon="6.12037">
        <ele>1468.4</ele>
        <time>2022-07-12T09:20:33Z</time>
      </trkpt>
      <trkpt lat="46.49175" lon="6.12044">
        <ele>1466.7</ele>
        <time>2022-07-12T09:20:44Z</time>
      </trkpt>
      <trkpt lat="46.49178" lon="6.12049">
        <ele>1465.7</ele>
        <time>2022-07-12T09:20:51Z</time>
      </trkpt>
      <trkpt lat="46.49179" lon="6.12058">
        <ele>1463.1</ele>
        <time>2022-07-12T09:21:13Z</time>
      </trkpt>
      <trkpt lat="46.49182" lon="6.12063">
        <ele>1462.3</ele>
        <time>2022-07-12T09:21:17Z</time>
      </trkpt>
      <trkpt lat="46.49186" lon="6.12067">
        <ele>1461.5</ele>
        <time>2022-07-12T09:21:21Z</time>
      </trkpt>
      <trkpt lat="46.49186" lon="6.12073">
        <ele>1459.9</ele>
        <time>2022-07-12T09:21:30Z</time>
      </trkpt>
      <trkpt lat="46.49189" lon="6.12077">
        <ele>1458.5</ele>
        <time>2022-07-12T09:21:46Z</time>
      </trkpt>
      <trkpt lat="46.49191" lon="6.12084">
        <ele>1456.4</ele>
        <time>2022-07-12T09:21:57Z</time>
      </trkpt>
      <trkpt lat="46.49193" lon="6.12091">
        <ele>1454.4</ele>
        <time>2022-07-12T09:22:04Z</time>
      </trkpt>
      <trkpt lat="46.49197" lon="6.12095">
        <ele>1450.2</ele>
        <time>2022-07-12T09:22:18Z</time>
      </trkpt>
      <trkpt lat="46.49198" lon="6.12101">
        <ele>1448.5</ele>
        <time>2022-07-12T09:22:26Z</time>
      </trkpt>
      <trkpt lat="46.49202" lon="6.12096">
        <ele>1442</ele>
        <time>2022-07-12T09:23:02Z</time>
      </trkpt>
      <trkpt lat="46.49202" lon="6.12088">
        <ele>1440.7</ele>
        <time>2022-07-12T09:23:06Z</time>
      </trkpt>
      <trkpt lat="46.49205" lon="6.12082">
        <ele>1439.8</ele>
        <time>2022-07-12T09:23:13Z</time>
      </trkpt>
      <trkpt lat="46.4921" lon="6.12081">
        <ele>1439.7</ele>
        <time>2022-07-12T09:23:18Z</time>
      </trkpt>
      <trkpt lat="46.49214" lon="6.12079">
        <ele>1438.2</ele>
        <time>2022-07-12T09:23:33Z</time>
      </trkpt>
      <trkpt lat="46.49219" lon="6.12078">
        <ele>1436.5</ele>
        <time>2022-07-12T09:23:41Z</time>
      </trkpt>
      <trkpt lat="46.49224" lon="6.12077">
        <ele>1434.5</ele>
        <time>2022-07-12T09:23:48Z</time>
      </trkpt>
      <trkpt lat="46.49228" lon="6.12077">
        <ele>1433.5</ele>
        <time>2022-07-12T09:23:54Z</time>
      </trkpt>
      <trkpt lat="46.4923" lon="6.12083">
        <ele>1432.6</ele>
        <time>2022-07-12T09:24:04Z</time>
      </trkpt>
      <trkpt lat="46.49231" lon="6.1209">
        <ele>1431.3</ele>
        <time>2022-07-12T09:24:12Z</time>
      </trkpt>
      <trkpt lat="46.49235" lon="6.12094">
        <ele>1430.4</ele>
        <time>2022-07-12T09:24:29Z</time>
      </trkpt>
      <trkpt lat="46.4924" lon="6.12095">
        <ele>1429.5</ele>
        <time>2022-07-12T09:24:35Z</time>
      </trkpt>
      <trkpt lat="46.49245" lon="6.12092">
        <ele>1426.8</ele>
        <time>2022-07-12T09:24:45Z</time>
      </trkpt>
      <trkpt lat="46.49249" lon="6.12094">
        <ele>1425.1</ele>
        <time>2022-07-12T09:24:51Z</time>
      </trkpt>
      <trkpt lat="46.49254" lon="6.12095">
        <ele>1422.9</ele>
        <time>2022-07-12T09:24:58Z</time>
      </trkpt>
      <trkpt lat="46.49259" lon="6.12097">
        <ele>1420.9</ele>
        <time>2022-07-12T09:25:05Z</time>
      </trkpt>
      <trkpt lat="46.49263" lon="6.121">
        <ele>1419.6</ele>
        <time>2022-07-12T09:25:13Z</time>
      </trkpt>
      <trkpt lat="46.49267" lon="6.12104">
        <ele>1418.5</ele>
        <time>2022-07-12T09:25:21Z</time>
      </trkpt>
      <trkpt lat="46.49272" lon="6.12106">
        <ele>1417.3</ele>
        <time>2022-07-12T09:25:29Z</time>
      </trkpt>
      <trkpt lat="46.49276" lon="6.12108">
        <ele>1414.2</ele>
        <time>2022-07-12T09:25:39Z</time>
      </trkpt>
      <trkpt lat="46.49281" lon="6.12109">
        <ele>1411.6</ele>
        <time>2022-07-12T09:25:48Z</time>
      </trkpt>
      <trkpt lat="46.49286" lon="6.12111">
        <ele>1410.1</ele>
        <time>2022-07-12T09:25:55Z</time>
      </trkpt>
      <trkpt lat="46.4929" lon="6.12114">
        <ele>1408.9</ele>
        <time>2022-07-12T09:26:01Z</time>
      </trkpt>
      <trkpt lat="46.49294" lon="6.12116">
        <ele>1407.4</ele>
        <time>2022-07-12T09:26:08Z</time>
      </trkpt>
      <trkpt lat="46.49299" lon="6.12117">
        <ele>1404.9</ele>
        <time>2022-07-12T09:26:18Z</time>
      </trkpt>
      <trkpt lat="46.49304" lon="6.12117">
        <ele>1403.1</ele>
        <time>2022-07-12T09:26:24Z</time>
      </trkpt>
      <trkpt lat="46.49309" lon="6.12117">
        <ele>1401</ele>
        <time>2022-07-12T09:26:32Z</time>
      </trkpt>
      <trkpt lat="46.49314" lon="6.12116">
        <ele>1399.2</ele>
        <time>2022-07-12T09:26:40Z</time>
      </trkpt>
      <trkpt lat="46.49319" lon="6.12116">
        <ele>1398.9</ele>
        <time>2022-07-12T09:26:45Z</time>
      </trkpt>
      <trkpt lat="46.49324" lon="6.12119">
        <ele>1398.6</ele>
        <time>2022-07-12T09:26:50Z</time>
      </trkpt>
      <trkpt lat="46.49329" lon="6.12117">
        <ele>1397.6</ele>
        <time>2022-07-12T09:27:09Z</time>
      </trkpt>
      <trkpt lat="46.49334" lon="6.12116">
        <ele>1397.3</ele>
        <time>2022-07-12T09:27:12Z</time>
      </trkpt>
      <trkpt lat="46.49339" lon="6.12116">
        <ele>1396.6</ele>
        <time>2022-07-12T09:27:16Z</time>
      </trkpt>
      <trkpt lat="46.49344" lon="6.12117">
        <ele>1394.5</ele>
        <time>2022-07-12T09:27:21Z</time>
      </trkpt>
      <trkpt lat="46.49348" lon="6.12119">
        <ele>1392.1</ele>
        <time>2022-07-12T09:27:26Z</time>
      </trkpt>
      <trkpt lat="46.49352" lon="6.12122">
        <ele>1389</ele>
        <time>2022-07-12T09:27:31Z</time>
      </trkpt>
      <trkpt lat="46.49356" lon="6.12125">
        <ele>1386.3</ele>
        <time>2022-07-12T09:27:36Z</time>
      </trkpt>
      <trkpt lat="46.4936" lon="6.1213">
        <ele>1384.9</ele>
        <time>2022-07-12T09:27:41Z</time>
      </trkpt>
      <trkpt lat="46.49365" lon="6.12132">
        <ele>1383.9</ele>
        <time>2022-07-12T09:27:46Z</time>
      </trkpt>
      <trkpt lat="46.49369" lon="6.12133">
        <ele>1383.2</ele>
        <time>2022-07-12T09:27:51Z</time>
      </trkpt>
      <trkpt lat="46.49374" lon="6.12133">
        <ele>1382.2</ele>
        <time>2022-07-12T09:27:56Z</time>
      </trkpt>
      <trkpt lat="46.49379" lon="6.12135">
        <ele>1381.3</ele>
        <time>2022-07-12T09:28:00Z</time>
      </trkpt>
      <trkpt lat="46.49383" lon="6.12136">
        <ele>1379.9</ele>
        <time>2022-07-12T09:28:05Z</time>
      </trkpt>
      <trkpt lat="46.49388" lon="6.12139">
        <ele>1379</ele>
        <time>2022-07-12T09:28:10Z</time>
      </trkpt>
      <trkpt lat="46.49392" lon="6.12141">
        <ele>1378.4</ele>
        <time>2022-07-12T09:28:14Z</time>
      </trkpt>
      <trkpt lat="46.49397" lon="6.12144">
        <ele>1377.8</ele>
        <time>2022-07-12T09:28:18Z</time>
      </trkpt>
      <trkpt lat="46.49402" lon="6.12146">
        <ele>1377.4</ele>
        <time>2022-07-12T09:28:22Z</time>
      </trkpt>
      <trkpt lat="46.49406" lon="6.12148">
        <ele>1375.3</ele>
        <time>2022-07-12T09:28:29Z</time>
      </trkpt>
      <trkpt lat="46.49411" lon="6.12146">
        <ele>1374.2</ele>
        <time>2022-07-12T09:28:36Z</time>
      </trkpt>
      <trkpt lat="46.49416" lon="6.12148">
        <ele>1374.6</ele>
        <time>2022-07-12T09:29:10Z</time>
      </trkpt>
      <trkpt lat="46.49421" lon="6.12149">
        <ele>1372.5</ele>
        <time>2022-07-12T09:29:17Z</time>
      </trkpt>
      <trkpt lat="46.49425" lon="6.12152">
        <ele>1370.2</ele>
        <time>2022-07-12T09:29:26Z</time>
      </trkpt>
      <trkpt lat="46.4943" lon="6.12153">
        <ele>1369.3</ele>
        <time>2022-07-12T09:29:33Z</time>
      </trkpt>
      <trkpt lat="46.49435" lon="6.12155">
        <ele>1368.7</ele>
        <time>2022-07-12T09:29:39Z</time>
      </trkpt>
      <trkpt lat="46.4944" lon="6.12156">
        <ele>1368.5</ele>
        <time>2022-07-12T09:29:44Z</time>
      </trkpt>
      <trkpt lat="46.49445" lon="6.12157">
        <ele>1368.5</ele>
        <time>2022-07-12T09:29:51Z</time>
      </trkpt>
      <trkpt lat="46.4945" lon="6.12158">
        <ele>1368.5</ele>
        <time>2022-07-12T09:29:57Z</time>
      </trkpt>
      <trkpt lat="46.49455" lon="6.12159">
        <ele>1368.3</ele>
        <time>2022-07-12T09:30:03Z</time>
      </trkpt>
      <trkpt lat="46.4946" lon="6.12158">
        <ele>1367.6</ele>
        <time>2022-07-12T09:30:09Z</time>
      </trkpt>
      <trkpt lat="46.49465" lon="6.12158">
        <ele>1366.2</ele>
        <time>2022-07-12T09:30:15Z</time>
      </trkpt>
      <trkpt lat="46.4947" lon="6.12159">
        <ele>1365.5</ele>
        <time>2022-07-12T09:30:20Z</time>
      </trkpt>
      <trkpt lat="46.49475" lon="6.12159">
        <ele>1365.5</ele>
        <time>2022-07-12T09:30:25Z</time>
      </trkpt>
      <trkpt lat="46.4948" lon="6.1216">
        <ele>1366.2</ele>
        <time>2022-07-12T09:30:30Z</time>
      </trkpt>
      <trkpt lat="46.49484" lon="6.12162">
        <ele>1366.6</ele>
        <time>2022-07-12T09:30:35Z</time>
      </trkpt>
      <trkpt lat="46.4949" lon="6.12164">
        <ele>1366.9</ele>
        <time>2022-07-12T09:30:40Z</time>
      </trkpt>
      <trkpt lat="46.49494" lon="6.12166">
        <ele>1366.5</ele>
        <time>2022-07-12T09:30:48Z</time>
      </trkpt>
      <trkpt lat="46.49499" lon="6.12168">
        <ele>1364.9</ele>
        <time>2022-07-12T09:30:54Z</time>
      </trkpt>
      <trkpt lat="46.49504" lon="6.1217">
        <ele>1362.9</ele>
        <time>2022-07-12T09:30:59Z</time>
      </trkpt>
      <trkpt lat="46.49508" lon="6.12174">
        <ele>1360.9</ele>
        <time>2022-07-12T09:31:03Z</time>
      </trkpt>
      <trkpt lat="46.49512" lon="6.12178">
        <ele>1358.1</ele>
        <time>2022-07-12T09:31:09Z</time>
      </trkpt>
      <trkpt lat="46.49516" lon="6.12182">
        <ele>1355.1</ele>
        <time>2022-07-12T09:31:18Z</time>
      </trkpt>
      <trkpt lat="46.4952" lon="6.12182">
        <ele>1353.9</ele>
        <time>2022-07-12T09:31:24Z</time>
      </trkpt>
      <trkpt lat="46.49526" lon="6.12183">
        <ele>1353.3</ele>
        <time>2022-07-12T09:31:32Z</time>
      </trkpt>
      <trkpt lat="46.4953" lon="6.12186">
        <ele>1353</ele>
        <time>2022-07-12T09:31:36Z</time>
      </trkpt>
      <trkpt lat="46.49535" lon="6.12188">
        <ele>1353.1</ele>
        <time>2022-07-12T09:31:40Z</time>
      </trkpt>
      <trkpt lat="46.4954" lon="6.12191">
        <ele>1354.3</ele>
        <time>2022-07-12T09:31:46Z</time>
      </trkpt>
      <trkpt lat="46.49545" lon="6.12191">
        <ele>1357.9</ele>
        <time>2022-07-12T09:32:23Z</time>
      </trkpt>
      <trkpt lat="46.49549" lon="6.12194">
        <ele>1358.5</ele>
        <time>2022-07-12T09:32:30Z</time>
      </trkpt>
      <trkpt lat="46.49552" lon="6.12189">
        <ele>1359.9</ele>
        <time>2022-07-12T09:32:47Z</time>
      </trkpt>
      <trkpt lat="46.49556" lon="6.12188">
        <ele>1359.6</ele>
        <time>2022-07-12T09:33:00Z</time>
      </trkpt>
      <trkpt lat="46.49561" lon="6.12188">
        <ele>1358.8</ele>
        <time>2022-07-12T09:33:07Z</time>
      </trkpt>
      <trkpt lat="46.49564" lon="6.12182">
        <ele>1357.9</ele>
        <time>2022-07-12T09:33:13Z</time>
      </trkpt>
      <trkpt lat="46.49569" lon="6.12179">
        <ele>1358.1</ele>
        <time>2022-07-12T09:33:21Z</time>
      </trkpt>
      <trkpt lat="46.49574" lon="6.12177">
        <ele>1357.8</ele>
        <time>2022-07-12T09:33:29Z</time>
      </trkpt>
      <trkpt lat="46.49579" lon="6.12176">
        <ele>1357.4</ele>
        <time>2022-07-12T09:33:35Z</time>
      </trkpt>
      <trkpt lat="46.49584" lon="6.12176">
        <ele>1358.5</ele>
        <time>2022-07-12T09:33:49Z</time>
      </trkpt>
      <trkpt lat="46.49589" lon="6.12178">
        <ele>1362.1</ele>
        <time>2022-07-12T09:34:00Z</time>
      </trkpt>
      <trkpt lat="46.49594" lon="6.12177">
        <ele>1362.4</ele>
        <time>2022-07-12T09:34:05Z</time>
      </trkpt>
      <trkpt lat="46.49599" lon="6.12176">
        <ele>1364.6</ele>
        <time>2022-07-12T09:34:35Z</time>
      </trkpt>
      <trkpt lat="46.49603" lon="6.12175">
        <ele>1364.1</ele>
        <time>2022-07-12T09:34:41Z</time>
      </trkpt>
      <trkpt lat="46.49608" lon="6.12179">
        <ele>1364.3</ele>
        <time>2022-07-12T09:34:48Z</time>
      </trkpt>
      <trkpt lat="46.49612" lon="6.12179">
        <ele>1363.9</ele>
        <time>2022-07-12T09:34:55Z</time>
      </trkpt>
      <trkpt lat="46.49616" lon="6.12183">
        <ele>1362.7</ele>
        <time>2022-07-12T09:35:02Z</time>
      </trkpt>
      <trkpt lat="46.49621" lon="6.12185">
        <ele>1361</ele>
        <time>2022-07-12T09:35:13Z</time>
      </trkpt>
      <trkpt lat="46.49626" lon="6.12185">
        <ele>1359.6</ele>
        <time>2022-07-12T09:35:19Z</time>
      </trkpt>
      <trkpt lat="46.49631" lon="6.12187">
        <ele>1359.4</ele>
        <time>2022-07-12T09:35:24Z</time>
      </trkpt>
      <trkpt lat="46.49636" lon="6.12188">
        <ele>1359.6</ele>
        <time>2022-07-12T09:35:28Z</time>
      </trkpt>
      <trkpt lat="46.49641" lon="6.12191">
        <ele>1359.8</ele>
        <time>2022-07-12T09:35:32Z</time>
      </trkpt>
      <trkpt lat="46.49646" lon="6.12192">
        <ele>1360.1</ele>
        <time>2022-07-12T09:35:36Z</time>
      </trkpt>
      <trkpt lat="46.49651" lon="6.12192">
        <ele>1360.2</ele>
        <time>2022-07-12T09:35:41Z</time>
      </trkpt>
      <trkpt lat="46.49655" lon="6.12194">
        <ele>1357.8</ele>
        <time>2022-07-12T09:35:48Z</time>
      </trkpt>
      <trkpt lat="46.4966" lon="6.12196">
        <ele>1355.7</ele>
        <time>2022-07-12T09:35:55Z</time>
      </trkpt>
      <trkpt lat="46.49664" lon="6.12196">
        <ele>1355.1</ele>
        <time>2022-07-12T09:35:59Z</time>
      </trkpt>
      <trkpt lat="46.49669" lon="6.12196">
        <ele>1355.2</ele>
        <time>2022-07-12T09:36:02Z</time>
      </trkpt>
      <trkpt lat="46.49675" lon="6.12195">
        <ele>1355.8</ele>
        <time>2022-07-12T09:36:06Z</time>
      </trkpt>
      <trkpt lat="46.4968" lon="6.12194">
        <ele>1356.1</ele>
        <time>2022-07-12T09:36:12Z</time>
      </trkpt>
      <trkpt lat="46.49684" lon="6.12193">
        <ele>1356.1</ele>
        <time>2022-07-12T09:36:17Z</time>
      </trkpt>
      <trkpt lat="46.49689" lon="6.12193">
        <ele>1356.2</ele>
        <time>2022-07-12T09:36:22Z</time>
      </trkpt>
      <trkpt lat="46.49694" lon="6.12194">
        <ele>1356.7</ele>
        <time>2022-07-12T09:36:27Z</time>
      </trkpt>
      <trkpt lat="46.49699" lon="6.12196">
        <ele>1357</ele>
        <time>2022-07-12T09:36:31Z</time>
      </trkpt>
      <trkpt lat="46.49704" lon="6.12195">
        <ele>1357.3</ele>
        <time>2022-07-12T09:36:35Z</time>
      </trkpt>
      <trkpt lat="46.49708" lon="6.12193">
        <ele>1358.2</ele>
        <time>2022-07-12T09:36:39Z</time>
      </trkpt>
      <trkpt lat="46.49712" lon="6.1219">
        <ele>1359.5</ele>
        <time>2022-07-12T09:36:44Z</time>
      </trkpt>
      <trkpt lat="46.49717" lon="6.12186">
        <ele>1360.4</ele>
        <time>2022-07-12T09:36:49Z</time>
      </trkpt>
      <trkpt lat="46.49721" lon="6.12182">
        <ele>1360.6</ele>
        <time>2022-07-12T09:36:53Z</time>
      </trkpt>
      <trkpt lat="46.49725" lon="6.12178">
        <ele>1360.5</ele>
        <time>2022-07-12T09:36:58Z</time>
      </trkpt>
      <trkpt lat="46.4973" lon="6.12174">
        <ele>1359.6</ele>
        <time>2022-07-12T09:37:04Z</time>
      </trkpt>
      <trkpt lat="46.49735" lon="6.12172">
        <ele>1358.8</ele>
        <time>2022-07-12T09:37:08Z</time>
      </trkpt>
      <trkpt lat="46.49741" lon="6.12173">
        <ele>1358.1</ele>
        <time>2022-07-12T09:37:12Z</time>
      </trkpt>
      <trkpt lat="46.49746" lon="6.12173">
        <ele>1356</ele>
        <time>2022-07-12T09:37:23Z</time>
      </trkpt>
      <trkpt lat="46.49751" lon="6.1217">
        <ele>1352.2</ele>
        <time>2022-07-12T09:37:31Z</time>
      </trkpt>
      <trkpt lat="46.49756" lon="6.12169">
        <ele>1349.7</ele>
        <time>2022-07-12T09:37:36Z</time>
      </trkpt>
      <trkpt lat="46.4976" lon="6.12174">
        <ele>1346.8</ele>
        <time>2022-07-12T09:37:43Z</time>
      </trkpt>
      <trkpt lat="46.49764" lon="6.12177">
        <ele>1345.9</ele>
        <time>2022-07-12T09:37:46Z</time>
      </trkpt>
      <trkpt lat="46.49768" lon="6.12181">
        <ele>1345.2</ele>
        <time>2022-07-12T09:37:50Z</time>
      </trkpt>
      <trkpt lat="46.49773" lon="6.12185">
        <ele>1344.7</ele>
        <time>2022-07-12T09:37:55Z</time>
      </trkpt>
      <trkpt lat="46.49778" lon="6.12186">
        <ele>1345.2</ele>
        <time>2022-07-12T09:38:00Z</time>
      </trkpt>
      <trkpt lat="46.49783" lon="6.12186">
        <ele>1346.7</ele>
        <time>2022-07-12T09:38:05Z</time>
      </trkpt>
      <trkpt lat="46.49788" lon="6.12186">
        <ele>1347.5</ele>
        <time>2022-07-12T09:38:08Z</time>
      </trkpt>
      <trkpt lat="46.49794" lon="6.12187">
        <ele>1348.6</ele>
        <time>2022-07-12T09:38:12Z</time>
      </trkpt>
      <trkpt lat="46.49799" lon="6.12189">
        <ele>1349.1</ele>
        <time>2022-07-12T09:38:20Z</time>
      </trkpt>
      <trkpt lat="46.49801" lon="6.12196">
        <ele>1347.6</ele>
        <time>2022-07-12T09:38:30Z</time>
      </trkpt>
      <trkpt lat="46.49805" lon="6.12201">
        <ele>1346.9</ele>
        <time>2022-07-12T09:38:35Z</time>
      </trkpt>
      <trkpt lat="46.49808" lon="6.12205">
        <ele>1346.5</ele>
        <time>2022-07-12T09:38:39Z</time>
      </trkpt>
      <trkpt lat="46.49812" lon="6.12209">
        <ele>1347.1</ele>
        <time>2022-07-12T09:38:43Z</time>
      </trkpt>
      <trkpt lat="46.49817" lon="6.12213">
        <ele>1347.8</ele>
        <time>2022-07-12T09:38:48Z</time>
      </trkpt>
      <trkpt lat="46.49822" lon="6.12212">
        <ele>1348.7</ele>
        <time>2022-07-12T09:38:57Z</time>
      </trkpt>
      <trkpt lat="46.49825" lon="6.12218">
        <ele>1347.4</ele>
        <time>2022-07-12T09:39:05Z</time>
      </trkpt>
      <trkpt lat="46.49829" lon="6.12223">
        <ele>1346.1</ele>
        <time>2022-07-12T09:39:10Z</time>
      </trkpt>
      <trkpt lat="46.49832" lon="6.1223">
        <ele>1345.5</ele>
        <time>2022-07-12T09:39:13Z</time>
      </trkpt>
      <trkpt lat="46.49832" lon="6.12237">
        <ele>1345.7</ele>
        <time>2022-07-12T09:39:16Z</time>
      </trkpt>
      <trkpt lat="46.49836" lon="6.12241">
        <ele>1346</ele>
        <time>2022-07-12T09:39:22Z</time>
      </trkpt>
      <trkpt lat="46.49838" lon="6.12248">
        <ele>1347</ele>
        <time>2022-07-12T09:39:27Z</time>
      </trkpt>
      <trkpt lat="46.4984" lon="6.12255">
        <ele>1345.8</ele>
        <time>2022-07-12T09:39:37Z</time>
      </trkpt>
      <trkpt lat="46.49843" lon="6.12262">
        <ele>1344.7</ele>
        <time>2022-07-12T09:39:43Z</time>
      </trkpt>
      <trkpt lat="46.49847" lon="6.12266">
        <ele>1344.7</ele>
        <time>2022-07-12T09:39:47Z</time>
      </trkpt>
      <trkpt lat="46.49851" lon="6.1227">
        <ele>1345.5</ele>
        <time>2022-07-12T09:39:51Z</time>
      </trkpt>
      <trkpt lat="46.49854" lon="6.12277">
        <ele>1347.6</ele>
        <time>2022-07-12T09:39:57Z</time>
      </trkpt>
      <trkpt lat="46.49855" lon="6.12283">
        <ele>1351.2</ele>
        <time>2022-07-12T09:40:22Z</time>
      </trkpt>
      <trkpt lat="46.49852" lon="6.12289">
        <ele>1357.8</ele>
        <time>2022-07-12T09:40:58Z</time>
      </trkpt>
      <trkpt lat="46.49856" lon="6.12284">
        <ele>1357.9</ele>
        <time>2022-07-12T09:41:51Z</time>
      </trkpt>
      <trkpt lat="46.49852" lon="6.12288">
        <ele>1360.1</ele>
        <time>2022-07-12T09:42:38Z</time>
      </trkpt>
      <trkpt lat="46.49856" lon="6.12287">
        <ele>1356.5</ele>
        <time>2022-07-12T09:43:13Z</time>
      </trkpt>
      <trkpt lat="46.49863" lon="6.12289">
        <ele>1357.8</ele>
        <time>2022-07-12T09:43:47Z</time>
      </trkpt>
      <trkpt lat="46.49867" lon="6.12293">
        <ele>1357.4</ele>
        <time>2022-07-12T09:43:51Z</time>
      </trkpt>
      <trkpt lat="46.49872" lon="6.12294">
        <ele>1357.8</ele>
        <time>2022-07-12T09:43:55Z</time>
      </trkpt>
      <trkpt lat="46.49876" lon="6.12296">
        <ele>1359</ele>
        <time>2022-07-12T09:44:00Z</time>
      </trkpt>
      <trkpt lat="46.4988" lon="6.12301">
        <ele>1359.8</ele>
        <time>2022-07-12T09:44:07Z</time>
      </trkpt>
      <trkpt lat="46.49884" lon="6.12305">
        <ele>1359.6</ele>
        <time>2022-07-12T09:44:13Z</time>
      </trkpt>
      <trkpt lat="46.49889" lon="6.12309">
        <ele>1360.1</ele>
        <time>2022-07-12T09:44:20Z</time>
      </trkpt>
      <trkpt lat="46.49894" lon="6.12311">
        <ele>1361.2</ele>
        <time>2022-07-12T09:44:26Z</time>
      </trkpt>
      <trkpt lat="46.49898" lon="6.12313">
        <ele>1362.1</ele>
        <time>2022-07-12T09:44:31Z</time>
      </trkpt>
      <trkpt lat="46.49903" lon="6.12314">
        <ele>1363.1</ele>
        <time>2022-07-12T09:44:35Z</time>
      </trkpt>
      <trkpt lat="46.49907" lon="6.12317">
        <ele>1364.2</ele>
        <time>2022-07-12T09:44:40Z</time>
      </trkpt>
      <trkpt lat="46.49912" lon="6.12316">
        <ele>1364.9</ele>
        <time>2022-07-12T09:44:46Z</time>
      </trkpt>
      <trkpt lat="46.49913" lon="6.12309">
        <ele>1365.8</ele>
        <time>2022-07-12T09:44:53Z</time>
      </trkpt>
      <trkpt lat="46.49911" lon="6.12303">
        <ele>1366.5</ele>
        <time>2022-07-12T09:45:00Z</time>
      </trkpt>
      <trkpt lat="46.4991" lon="6.12296">
        <ele>1367.8</ele>
        <time>2022-07-12T09:45:08Z</time>
      </trkpt>
      <trkpt lat="46.49907" lon="6.12289">
        <ele>1368.9</ele>
        <time>2022-07-12T09:45:15Z</time>
      </trkpt>
      <trkpt lat="46.49905" lon="6.12282">
        <ele>1369.9</ele>
        <time>2022-07-12T09:45:20Z</time>
      </trkpt>
      <trkpt lat="46.49903" lon="6.12276">
        <ele>1370.6</ele>
        <time>2022-07-12T09:45:24Z</time>
      </trkpt>
      <trkpt lat="46.49901" lon="6.12269">
        <ele>1371.9</ele>
        <time>2022-07-12T09:45:29Z</time>
      </trkpt>
      <trkpt lat="46.49901" lon="6.12262">
        <ele>1373.9</ele>
        <time>2022-07-12T09:45:36Z</time>
      </trkpt>
      <trkpt lat="46.49899" lon="6.12255">
        <ele>1375.4</ele>
        <time>2022-07-12T09:45:42Z</time>
      </trkpt>
      <trkpt lat="46.49903" lon="6.1225">
        <ele>1376.9</ele>
        <time>2022-07-12T09:45:49Z</time>
      </trkpt>
      <trkpt lat="46.49908" lon="6.12252">
        <ele>1376.7</ele>
        <time>2022-07-12T09:45:53Z</time>
      </trkpt>
      <trkpt lat="46.49912" lon="6.12256">
        <ele>1376.9</ele>
        <time>2022-07-12T09:45:58Z</time>
      </trkpt>
      <trkpt lat="46.49916" lon="6.1226">
        <ele>1377.6</ele>
        <time>2022-07-12T09:46:04Z</time>
      </trkpt>
      <trkpt lat="46.4992" lon="6.12265">
        <ele>1378.2</ele>
        <time>2022-07-12T09:46:09Z</time>
      </trkpt>
      <trkpt lat="46.49923" lon="6.12271">
        <ele>1378.2</ele>
        <time>2022-07-12T09:46:18Z</time>
      </trkpt>
      <trkpt lat="46.49926" lon="6.12276">
        <ele>1378</ele>
        <time>2022-07-12T09:46:24Z</time>
      </trkpt>
      <trkpt lat="46.49927" lon="6.12283">
        <ele>1377.3</ele>
        <time>2022-07-12T09:46:39Z</time>
      </trkpt>
      <trkpt lat="46.49931" lon="6.12289">
        <ele>1377.2</ele>
        <time>2022-07-12T09:46:46Z</time>
      </trkpt>
      <trkpt lat="46.49931" lon="6.12296">
        <ele>1376.3</ele>
        <time>2022-07-12T09:46:54Z</time>
      </trkpt>
      <trkpt lat="46.49931" lon="6.12303">
        <ele>1375.5</ele>
        <time>2022-07-12T09:47:01Z</time>
      </trkpt>
      <trkpt lat="46.49932" lon="6.12311">
        <ele>1373.9</ele>
        <time>2022-07-12T09:47:09Z</time>
      </trkpt>
      <trkpt lat="46.49933" lon="6.12317">
        <ele>1372.8</ele>
        <time>2022-07-12T09:47:14Z</time>
      </trkpt>
      <trkpt lat="46.49936" lon="6.12324">
        <ele>1371</ele>
        <time>2022-07-12T09:47:20Z</time>
      </trkpt>
      <trkpt lat="46.49938" lon="6.12331">
        <ele>1369.2</ele>
        <time>2022-07-12T09:47:25Z</time>
      </trkpt>
      <trkpt lat="46.49939" lon="6.12337">
        <ele>1368</ele>
        <time>2022-07-12T09:47:29Z</time>
      </trkpt>
      <trkpt lat="46.49938" lon="6.12344">
        <ele>1367.3</ele>
        <time>2022-07-12T09:47:33Z</time>
      </trkpt>
      <trkpt lat="46.49939" lon="6.12351">
        <ele>1366.5</ele>
        <time>2022-07-12T09:47:39Z</time>
      </trkpt>
      <trkpt lat="46.49942" lon="6.12358">
        <ele>1365.6</ele>
        <time>2022-07-12T09:47:45Z</time>
      </trkpt>
      <trkpt lat="46.49944" lon="6.12363">
        <ele>1364.5</ele>
        <time>2022-07-12T09:47:50Z</time>
      </trkpt>
      <trkpt lat="46.49945" lon="6.1237">
        <ele>1362.8</ele>
        <time>2022-07-12T09:47:55Z</time>
      </trkpt>
      <trkpt lat="46.49946" lon="6.12378">
        <ele>1361.1</ele>
        <time>2022-07-12T09:48:00Z</time>
      </trkpt>
      <trkpt lat="46.49947" lon="6.12385">
        <ele>1360.6</ele>
        <time>2022-07-12T09:48:06Z</time>
      </trkpt>
      <trkpt lat="46.49947" lon="6.12391">
        <ele>1360.5</ele>
        <time>2022-07-12T09:48:11Z</time>
      </trkpt>
      <trkpt lat="46.49948" lon="6.12399">
        <ele>1360.4</ele>
        <time>2022-07-12T09:48:20Z</time>
      </trkpt>
      <trkpt lat="46.49951" lon="6.12405">
        <ele>1360</ele>
        <time>2022-07-12T09:48:24Z</time>
      </trkpt>
      <trkpt lat="46.49951" lon="6.12412">
        <ele>1360</ele>
        <time>2022-07-12T09:48:29Z</time>
      </trkpt>
      <trkpt lat="46.49953" lon="6.12419">
        <ele>1361</ele>
        <time>2022-07-12T09:48:39Z</time>
      </trkpt>
      <trkpt lat="46.49951" lon="6.12425">
        <ele>1363.5</ele>
        <time>2022-07-12T09:49:48Z</time>
      </trkpt>
      <trkpt lat="46.49952" lon="6.12431">
        <ele>1363.2</ele>
        <time>2022-07-12T09:49:53Z</time>
      </trkpt>
      <trkpt lat="46.49952" lon="6.12438">
        <ele>1363.1</ele>
        <time>2022-07-12T09:49:57Z</time>
      </trkpt>
      <trkpt lat="46.49953" lon="6.12445">
        <ele>1363.9</ele>
        <time>2022-07-12T09:50:03Z</time>
      </trkpt>
      <trkpt lat="46.49952" lon="6.12453">
        <ele>1365.2</ele>
        <time>2022-07-12T09:50:09Z</time>
      </trkpt>
      <trkpt lat="46.49953" lon="6.12459">
        <ele>1365.2</ele>
        <time>2022-07-12T09:50:18Z</time>
      </trkpt>
      <trkpt lat="46.49954" lon="6.12468">
        <ele>1365.8</ele>
        <time>2022-07-12T09:50:24Z</time>
      </trkpt>
      <trkpt lat="46.49954" lon="6.12474">
        <ele>1366.8</ele>
        <time>2022-07-12T09:50:28Z</time>
      </trkpt>
      <trkpt lat="46.49956" lon="6.12481">
        <ele>1368.3</ele>
        <time>2022-07-12T09:50:34Z</time>
      </trkpt>
      <trkpt lat="46.49957" lon="6.12487">
        <ele>1369.7</ele>
        <time>2022-07-12T09:50:40Z</time>
      </trkpt>
      <trkpt lat="46.49957" lon="6.12494">
        <ele>1371</ele>
        <time>2022-07-12T09:50:44Z</time>
      </trkpt>
      <trkpt lat="46.49957" lon="6.12501">
        <ele>1372.4</ele>
        <time>2022-07-12T09:50:48Z</time>
      </trkpt>
      <trkpt lat="46.49957" lon="6.12509">
        <ele>1374.8</ele>
        <time>2022-07-12T09:50:54Z</time>
      </trkpt>
      <trkpt lat="46.49959" lon="6.12516">
        <ele>1376.1</ele>
        <time>2022-07-12T09:51:00Z</time>
      </trkpt>
      <trkpt lat="46.49959" lon="6.12523">
        <ele>1376.2</ele>
        <time>2022-07-12T09:51:05Z</time>
      </trkpt>
      <trkpt lat="46.49959" lon="6.12529">
        <ele>1376.8</ele>
        <time>2022-07-12T09:51:09Z</time>
      </trkpt>
      <trkpt lat="46.49961" lon="6.12536">
        <ele>1377.1</ele>
        <time>2022-07-12T09:51:16Z</time>
      </trkpt>
      <trkpt lat="46.4996" lon="6.12543">
        <ele>1376.7</ele>
        <time>2022-07-12T09:51:21Z</time>
      </trkpt>
      <trkpt lat="46.4996" lon="6.12551">
        <ele>1376.7</ele>
        <time>2022-07-12T09:51:26Z</time>
      </trkpt>
      <trkpt lat="46.49961" lon="6.12558">
        <ele>1377.2</ele>
        <time>2022-07-12T09:51:30Z</time>
      </trkpt>
      <trkpt lat="46.49962" lon="6.12565">
        <ele>1377.8</ele>
        <time>2022-07-12T09:51:35Z</time>
      </trkpt>
      <trkpt lat="46.49964" lon="6.12572">
        <ele>1379.2</ele>
        <time>2022-07-12T09:51:41Z</time>
      </trkpt>
      <trkpt lat="46.49966" lon="6.12578">
        <ele>1380.7</ele>
        <time>2022-07-12T09:51:47Z</time>
      </trkpt>
      <trkpt lat="46.49967" lon="6.12585">
        <ele>1380.8</ele>
        <time>2022-07-12T09:51:55Z</time>
      </trkpt>
      <trkpt lat="46.49968" lon="6.12591">
        <ele>1380.4</ele>
        <time>2022-07-12T09:52:00Z</time>
      </trkpt>
      <trkpt lat="46.49967" lon="6.12599">
        <ele>1380.4</ele>
        <time>2022-07-12T09:52:04Z</time>
      </trkpt>
      <trkpt lat="46.49966" lon="6.12606">
        <ele>1381.9</ele>
        <time>2022-07-12T09:52:10Z</time>
      </trkpt>
      <trkpt lat="46.49966" lon="6.12613">
        <ele>1382.9</ele>
        <time>2022-07-12T09:52:14Z</time>
      </trkpt>
      <trkpt lat="46.49964" lon="6.12621">
        <ele>1383.7</ele>
        <time>2022-07-12T09:52:20Z</time>
      </trkpt>
      <trkpt lat="46.49963" lon="6.12627">
        <ele>1384.8</ele>
        <time>2022-07-12T09:52:26Z</time>
      </trkpt>
      <trkpt lat="46.49959" lon="6.12629">
        <ele>1389</ele>
        <time>2022-07-12T09:52:46Z</time>
      </trkpt>
      <trkpt lat="46.49956" lon="6.12635">
        <ele>1391.6</ele>
        <time>2022-07-12T09:52:52Z</time>
      </trkpt>
      <trkpt lat="46.49955" lon="6.12642">
        <ele>1393.2</ele>
        <time>2022-07-12T09:52:58Z</time>
      </trkpt>
      <trkpt lat="46.49954" lon="6.12648">
        <ele>1393.4</ele>
        <time>2022-07-12T09:53:03Z</time>
      </trkpt>
      <trkpt lat="46.49953" lon="6.12656">
        <ele>1392.6</ele>
        <time>2022-07-12T09:53:09Z</time>
      </trkpt>
      <trkpt lat="46.49952" lon="6.12663">
        <ele>1391.8</ele>
        <time>2022-07-12T09:53:14Z</time>
      </trkpt>
      <trkpt lat="46.49949" lon="6.12669">
        <ele>1390.5</ele>
        <time>2022-07-12T09:53:21Z</time>
      </trkpt>
      <trkpt lat="46.49948" lon="6.12675">
        <ele>1389.2</ele>
        <time>2022-07-12T09:53:27Z</time>
      </trkpt>
      <trkpt lat="46.49946" lon="6.12682">
        <ele>1387.8</ele>
        <time>2022-07-12T09:53:33Z</time>
      </trkpt>
      <trkpt lat="46.49943" lon="6.12688">
        <ele>1386.7</ele>
        <time>2022-07-12T09:53:38Z</time>
      </trkpt>
      <trkpt lat="46.49941" lon="6.12694">
        <ele>1386.4</ele>
        <time>2022-07-12T09:53:42Z</time>
      </trkpt>
      <trkpt lat="46.4994" lon="6.127">
        <ele>1385.5</ele>
        <time>2022-07-12T09:53:46Z</time>
      </trkpt>
      <trkpt lat="46.49939" lon="6.12707">
        <ele>1384.3</ele>
        <time>2022-07-12T09:53:50Z</time>
      </trkpt>
      <trkpt lat="46.49938" lon="6.12713">
        <ele>1383.3</ele>
        <time>2022-07-12T09:53:56Z</time>
      </trkpt>
      <trkpt lat="46.49934" lon="6.12718">
        <ele>1383.4</ele>
        <time>2022-07-12T09:54:07Z</time>
      </trkpt>
      <trkpt lat="46.49933" lon="6.12725">
        <ele>1385.9</ele>
        <time>2022-07-12T09:54:14Z</time>
      </trkpt>
      <trkpt lat="46.49929" lon="6.12731">
        <ele>1387.3</ele>
        <time>2022-07-12T09:54:18Z</time>
      </trkpt>
      <trkpt lat="46.49925" lon="6.12736">
        <ele>1387.9</ele>
        <time>2022-07-12T09:54:22Z</time>
      </trkpt>
      <trkpt lat="46.49921" lon="6.12741">
        <ele>1389.3</ele>
        <time>2022-07-12T09:54:28Z</time>
      </trkpt>
      <trkpt lat="46.4992" lon="6.12748">
        <ele>1392.2</ele>
        <time>2022-07-12T09:54:38Z</time>
      </trkpt>
      <trkpt lat="46.49915" lon="6.12752">
        <ele>1393.4</ele>
        <time>2022-07-12T09:54:43Z</time>
      </trkpt>
      <trkpt lat="46.49911" lon="6.12753">
        <ele>1395.7</ele>
        <time>2022-07-12T09:54:53Z</time>
      </trkpt>
      <trkpt lat="46.4991" lon="6.1276">
        <ele>1397.3</ele>
        <time>2022-07-12T09:55:00Z</time>
      </trkpt>
      <trkpt lat="46.49905" lon="6.1276">
        <ele>1400</ele>
        <time>2022-07-12T09:55:17Z</time>
      </trkpt>
      <trkpt lat="46.4991" lon="6.12759">
        <ele>1401.1</ele>
        <time>2022-07-12T09:55:25Z</time>
      </trkpt>
      <trkpt lat="46.49913" lon="6.12754">
        <ele>1404</ele>
        <time>2022-07-12T09:56:10Z</time>
      </trkpt>
      <trkpt lat="46.49912" lon="6.12761">
        <ele>1405.5</ele>
        <time>2022-07-12T09:56:21Z</time>
      </trkpt>
      <trkpt lat="46.49915" lon="6.12767">
        <ele>1406.5</ele>
        <time>2022-07-12T09:56:31Z</time>
      </trkpt>
      <trkpt lat="46.49918" lon="6.12763">
        <ele>1405.4</ele>
        <time>2022-07-12T09:56:44Z</time>
      </trkpt>
      <trkpt lat="46.49914" lon="6.12763">
        <ele>1405.3</ele>
        <time>2022-07-12T09:57:12Z</time>
      </trkpt>
      <trkpt lat="46.49909" lon="6.12768">
        <ele>1408.6</ele>
        <time>2022-07-12T09:57:34Z</time>
      </trkpt>
      <trkpt lat="46.49907" lon="6.12775">
        <ele>1408.9</ele>
        <time>2022-07-12T09:57:42Z</time>
      </trkpt>
      <trkpt lat="46.49908" lon="6.12782">
        <ele>1409.1</ele>
        <time>2022-07-12T09:57:51Z</time>
      </trkpt>
      <trkpt lat="46.49903" lon="6.12783">
        <ele>1409.2</ele>
        <time>2022-07-12T09:57:57Z</time>
      </trkpt>
      <trkpt lat="46.49899" lon="6.12789">
        <ele>1408.5</ele>
        <time>2022-07-12T09:58:03Z</time>
      </trkpt>
      <trkpt lat="46.49895" lon="6.12792">
        <ele>1407.5</ele>
        <time>2022-07-12T09:58:09Z</time>
      </trkpt>
      <trkpt lat="46.49891" lon="6.12796">
        <ele>1406.8</ele>
        <time>2022-07-12T09:58:17Z</time>
      </trkpt>
      <trkpt lat="46.49888" lon="6.12802">
        <ele>1407</ele>
        <time>2022-07-12T09:58:22Z</time>
      </trkpt>
      <trkpt lat="46.49884" lon="6.12806">
        <ele>1407.8</ele>
        <time>2022-07-12T09:58:27Z</time>
      </trkpt>
      <trkpt lat="46.49879" lon="6.12807">
        <ele>1409</ele>
        <time>2022-07-12T09:58:32Z</time>
      </trkpt>
      <trkpt lat="46.49874" lon="6.1281">
        <ele>1410.2</ele>
        <time>2022-07-12T09:58:37Z</time>
      </trkpt>
      <trkpt lat="46.49871" lon="6.12815">
        <ele>1410.8</ele>
        <time>2022-07-12T09:58:42Z</time>
      </trkpt>
      <trkpt lat="46.49867" lon="6.12819">
        <ele>1410.6</ele>
        <time>2022-07-12T09:58:53Z</time>
      </trkpt>
      <trkpt lat="46.49863" lon="6.12823">
        <ele>1410.3</ele>
        <time>2022-07-12T09:59:01Z</time>
      </trkpt>
      <trkpt lat="46.49859" lon="6.12828">
        <ele>1410.5</ele>
        <time>2022-07-12T09:59:06Z</time>
      </trkpt>
      <trkpt lat="46.49858" lon="6.12835">
        <ele>1409.9</ele>
        <time>2022-07-12T09:59:11Z</time>
      </trkpt>
      <trkpt lat="46.49855" lon="6.1284">
        <ele>1409.3</ele>
        <time>2022-07-12T09:59:16Z</time>
      </trkpt>
      <trkpt lat="46.49852" lon="6.12845">
        <ele>1409.4</ele>
        <time>2022-07-12T09:59:22Z</time>
      </trkpt>
      <trkpt lat="46.49847" lon="6.12847">
        <ele>1410.3</ele>
        <time>2022-07-12T09:59:29Z</time>
      </trkpt>
      <trkpt lat="46.49842" lon="6.12849">
        <ele>1411.5</ele>
        <time>2022-07-12T09:59:34Z</time>
      </trkpt>
      <trkpt lat="46.49839" lon="6.12854">
        <ele>1413.8</ele>
        <time>2022-07-12T09:59:43Z</time>
      </trkpt>
      <trkpt lat="46.49835" lon="6.12858">
        <ele>1414.9</ele>
        <time>2022-07-12T09:59:47Z</time>
      </trkpt>
      <trkpt lat="46.4983" lon="6.12861">
        <ele>1415.6</ele>
        <time>2022-07-12T09:59:50Z</time>
      </trkpt>
      <trkpt lat="46.49826" lon="6.12863">
        <ele>1417.5</ele>
        <time>2022-07-12T09:59:56Z</time>
      </trkpt>
      <trkpt lat="46.49821" lon="6.12864">
        <ele>1419.3</ele>
        <time>2022-07-12T10:00:05Z</time>
      </trkpt>
      <trkpt lat="46.49816" lon="6.12863">
        <ele>1420.4</ele>
        <time>2022-07-12T10:00:18Z</time>
      </trkpt>
      <trkpt lat="46.49813" lon="6.12868">
        <ele>1420.4</ele>
        <time>2022-07-12T10:00:22Z</time>
      </trkpt>
      <trkpt lat="46.49809" lon="6.12871">
        <ele>1420.5</ele>
        <time>2022-07-12T10:00:26Z</time>
      </trkpt>
      <trkpt lat="46.49805" lon="6.12876">
        <ele>1420.7</ele>
        <time>2022-07-12T10:00:30Z</time>
      </trkpt>
      <trkpt lat="46.498" lon="6.12877">
        <ele>1421.4</ele>
        <time>2022-07-12T10:00:34Z</time>
      </trkpt>
      <trkpt lat="46.49803" lon="6.12883">
        <ele>1424.3</ele>
        <time>2022-07-12T10:00:49Z</time>
      </trkpt>
      <trkpt lat="46.49799" lon="6.12888">
        <ele>1424</ele>
        <time>2022-07-12T10:00:53Z</time>
      </trkpt>
      <trkpt lat="46.49796" lon="6.12893">
        <ele>1424.8</ele>
        <time>2022-07-12T10:01:02Z</time>
      </trkpt>
      <trkpt lat="46.49792" lon="6.12896">
        <ele>1425.5</ele>
        <time>2022-07-12T10:01:12Z</time>
      </trkpt>
      <trkpt lat="46.4979" lon="6.12903">
        <ele>1426.1</ele>
        <time>2022-07-12T10:02:08Z</time>
      </trkpt>
      <trkpt lat="46.49787" lon="6.12909">
        <ele>1427.2</ele>
        <time>2022-07-12T10:02:14Z</time>
      </trkpt>
      <trkpt lat="46.49783" lon="6.12914">
        <ele>1428.9</ele>
        <time>2022-07-12T10:02:20Z</time>
      </trkpt>
      <trkpt lat="46.49779" lon="6.12918">
        <ele>1430.2</ele>
        <time>2022-07-12T10:02:24Z</time>
      </trkpt>
      <trkpt lat="46.49776" lon="6.12923">
        <ele>1430.9</ele>
        <time>2022-07-12T10:02:29Z</time>
      </trkpt>
      <trkpt lat="46.49773" lon="6.12929">
        <ele>1431.5</ele>
        <time>2022-07-12T10:02:34Z</time>
      </trkpt>
      <trkpt lat="46.49771" lon="6.12937">
        <ele>1432.4</ele>
        <time>2022-07-12T10:02:38Z</time>
      </trkpt>
      <trkpt lat="46.49768" lon="6.12943">
        <ele>1432.7</ele>
        <time>2022-07-12T10:02:43Z</time>
      </trkpt>
      <trkpt lat="46.49765" lon="6.12948">
        <ele>1432.3</ele>
        <time>2022-07-12T10:02:48Z</time>
      </trkpt>
      <trkpt lat="46.49762" lon="6.12954">
        <ele>1431.2</ele>
        <time>2022-07-12T10:02:55Z</time>
      </trkpt>
      <trkpt lat="46.49762" lon="6.12961">
        <ele>1429.9</ele>
        <time>2022-07-12T10:03:02Z</time>
      </trkpt>
      <trkpt lat="46.49759" lon="6.12966">
        <ele>1428.6</ele>
        <time>2022-07-12T10:03:08Z</time>
      </trkpt>
      <trkpt lat="46.49757" lon="6.12972">
        <ele>1426.6</ele>
        <time>2022-07-12T10:03:17Z</time>
      </trkpt>
      <trkpt lat="46.49755" lon="6.12966">
        <ele>1427</ele>
        <time>2022-07-12T10:03:27Z</time>
      </trkpt>
      <trkpt lat="46.49759" lon="6.1297">
        <ele>1430.8</ele>
        <time>2022-07-12T10:04:05Z</time>
      </trkpt>
      <trkpt lat="46.49763" lon="6.12976">
        <ele>1431.5</ele>
        <time>2022-07-12T10:04:12Z</time>
      </trkpt>
      <trkpt lat="46.49766" lon="6.12981">
        <ele>1431.4</ele>
        <time>2022-07-12T10:04:17Z</time>
      </trkpt>
      <trkpt lat="46.49764" lon="6.12987">
        <ele>1431.5</ele>
        <time>2022-07-12T10:04:22Z</time>
      </trkpt>
      <trkpt lat="46.49761" lon="6.12994">
        <ele>1431.8</ele>
        <time>2022-07-12T10:04:27Z</time>
      </trkpt>
      <trkpt lat="46.49759" lon="6.13">
        <ele>1432.1</ele>
        <time>2022-07-12T10:04:34Z</time>
      </trkpt>
      <trkpt lat="46.49754" lon="6.13002">
        <ele>1431.9</ele>
        <time>2022-07-12T10:04:40Z</time>
      </trkpt>
      <trkpt lat="46.49749" lon="6.13004">
        <ele>1431.9</ele>
        <time>2022-07-12T10:04:45Z</time>
      </trkpt>
      <trkpt lat="46.49748" lon="6.13011">
        <ele>1433.1</ele>
        <time>2022-07-12T10:04:53Z</time>
      </trkpt>
      <trkpt lat="46.49748" lon="6.13019">
        <ele>1431.7</ele>
        <time>2022-07-12T10:05:00Z</time>
      </trkpt>
      <trkpt lat="46.49747" lon="6.13025">
        <ele>1430.8</ele>
        <time>2022-07-12T10:05:04Z</time>
      </trkpt>
      <trkpt lat="46.49742" lon="6.13025">
        <ele>1430.3</ele>
        <time>2022-07-12T10:05:11Z</time>
      </trkpt>
      <trkpt lat="46.49738" lon="6.13027">
        <ele>1429.4</ele>
        <time>2022-07-12T10:05:17Z</time>
      </trkpt>
      <trkpt lat="46.49735" lon="6.13033">
        <ele>1428.8</ele>
        <time>2022-07-12T10:05:20Z</time>
      </trkpt>
      <trkpt lat="46.49731" lon="6.1304">
        <ele>1427.7</ele>
        <time>2022-07-12T10:05:24Z</time>
      </trkpt>
      <trkpt lat="46.49728" lon="6.13045">
        <ele>1426.8</ele>
        <time>2022-07-12T10:05:28Z</time>
      </trkpt>
      <trkpt lat="46.49726" lon="6.13051">
        <ele>1425.8</ele>
        <time>2022-07-12T10:05:33Z</time>
      </trkpt>
      <trkpt lat="46.49723" lon="6.13056">
        <ele>1424.8</ele>
        <time>2022-07-12T10:05:37Z</time>
      </trkpt>
      <trkpt lat="46.49722" lon="6.13063">
        <ele>1423.5</ele>
        <time>2022-07-12T10:05:42Z</time>
      </trkpt>
      <trkpt lat="46.49723" lon="6.13071">
        <ele>1423.3</ele>
        <time>2022-07-12T10:05:47Z</time>
      </trkpt>
      <trkpt lat="46.49724" lon="6.13078">
        <ele>1423.8</ele>
        <time>2022-07-12T10:05:51Z</time>
      </trkpt>
      <trkpt lat="46.49723" lon="6.13085">
        <ele>1424.3</ele>
        <time>2022-07-12T10:05:55Z</time>
      </trkpt>
      <trkpt lat="46.49722" lon="6.13093">
        <ele>1424.8</ele>
        <time>2022-07-12T10:06:00Z</time>
      </trkpt>
      <trkpt lat="46.49723" lon="6.131">
        <ele>1424.3</ele>
        <time>2022-07-12T10:06:10Z</time>
      </trkpt>
      <trkpt lat="46.49726" lon="6.13105">
        <ele>1421.9</ele>
        <time>2022-07-12T10:06:43Z</time>
      </trkpt>
      <trkpt lat="46.49729" lon="6.1311">
        <ele>1421.3</ele>
        <time>2022-07-12T10:06:49Z</time>
      </trkpt>
      <trkpt lat="46.4973" lon="6.13117">
        <ele>1421.2</ele>
        <time>2022-07-12T10:06:58Z</time>
      </trkpt>
      <trkpt lat="46.49733" lon="6.13122">
        <ele>1422.8</ele>
        <time>2022-07-12T10:07:05Z</time>
      </trkpt>
      <trkpt lat="46.49736" lon="6.13127">
        <ele>1423.4</ele>
        <time>2022-07-12T10:07:13Z</time>
      </trkpt>
      <trkpt lat="46.4974" lon="6.13132">
        <ele>1423.7</ele>
        <time>2022-07-12T10:07:19Z</time>
      </trkpt>
      <trkpt lat="46.49743" lon="6.13138">
        <ele>1424.8</ele>
        <time>2022-07-12T10:07:26Z</time>
      </trkpt>
      <trkpt lat="46.49747" lon="6.13139">
        <ele>1426</ele>
        <time>2022-07-12T10:07:30Z</time>
      </trkpt>
      <trkpt lat="46.49752" lon="6.1314">
        <ele>1428</ele>
        <time>2022-07-12T10:07:34Z</time>
      </trkpt>
      <trkpt lat="46.49757" lon="6.1314">
        <ele>1430.1</ele>
        <time>2022-07-12T10:07:38Z</time>
      </trkpt>
      <trkpt lat="46.49762" lon="6.13139">
        <ele>1431.8</ele>
        <time>2022-07-12T10:07:42Z</time>
      </trkpt>
      <trkpt lat="46.49768" lon="6.13138">
        <ele>1433.2</ele>
        <time>2022-07-12T10:07:46Z</time>
      </trkpt>
      <trkpt lat="46.49772" lon="6.13137">
        <ele>1436.7</ele>
        <time>2022-07-12T10:07:57Z</time>
      </trkpt>
      <trkpt lat="46.49777" lon="6.13136">
        <ele>1440.1</ele>
        <time>2022-07-12T10:08:09Z</time>
      </trkpt>
      <trkpt lat="46.49778" lon="6.13142">
        <ele>1443.4</ele>
        <time>2022-07-12T10:08:19Z</time>
      </trkpt>
      <trkpt lat="46.49774" lon="6.13145">
        <ele>1445</ele>
        <time>2022-07-12T10:08:45Z</time>
      </trkpt>
      <trkpt lat="46.49778" lon="6.13147">
        <ele>1443.3</ele>
        <time>2022-07-12T10:09:05Z</time>
      </trkpt>
      <trkpt lat="46.49781" lon="6.13153">
        <ele>1443.5</ele>
        <time>2022-07-12T10:10:37Z</time>
      </trkpt>
      <trkpt lat="46.49785" lon="6.13155">
        <ele>1443.7</ele>
        <time>2022-07-12T10:10:45Z</time>
      </trkpt>
      <trkpt lat="46.49788" lon="6.1316">
        <ele>1446</ele>
        <time>2022-07-12T10:10:52Z</time>
      </trkpt>
      <trkpt lat="46.49791" lon="6.13165">
        <ele>1447.7</ele>
        <time>2022-07-12T10:11:04Z</time>
      </trkpt>
      <trkpt lat="46.49794" lon="6.13172">
        <ele>1448.8</ele>
        <time>2022-07-12T10:11:10Z</time>
      </trkpt>
      <trkpt lat="46.49798" lon="6.13176">
        <ele>1450.7</ele>
        <time>2022-07-12T10:11:16Z</time>
      </trkpt>
      <trkpt lat="46.498" lon="6.13182">
        <ele>1453.3</ele>
        <time>2022-07-12T10:11:23Z</time>
      </trkpt>
      <trkpt lat="46.49804" lon="6.13187">
        <ele>1455</ele>
        <time>2022-07-12T10:11:31Z</time>
      </trkpt>
      <trkpt lat="46.49808" lon="6.13192">
        <ele>1455.6</ele>
        <time>2022-07-12T10:11:37Z</time>
      </trkpt>
      <trkpt lat="46.49812" lon="6.13194">
        <ele>1456.5</ele>
        <time>2022-07-12T10:11:44Z</time>
      </trkpt>
      <trkpt lat="46.49814" lon="6.132">
        <ele>1454</ele>
        <time>2022-07-12T10:13:38Z</time>
      </trkpt>
      <trkpt lat="46.49818" lon="6.13205">
        <ele>1454.3</ele>
        <time>2022-07-12T10:13:44Z</time>
      </trkpt>
      <trkpt lat="46.49821" lon="6.13209">
        <ele>1455.1</ele>
        <time>2022-07-12T10:13:49Z</time>
      </trkpt>
      <trkpt lat="46.49824" lon="6.13215">
        <ele>1456.3</ele>
        <time>2022-07-12T10:13:55Z</time>
      </trkpt>
      <trkpt lat="46.49826" lon="6.13221">
        <ele>1457.4</ele>
        <time>2022-07-12T10:14:01Z</time>
      </trkpt>
      <trkpt lat="46.49828" lon="6.13228">
        <ele>1458.8</ele>
        <time>2022-07-12T10:14:09Z</time>
      </trkpt>
      <trkpt lat="46.4983" lon="6.13234">
        <ele>1460.1</ele>
        <time>2022-07-12T10:14:16Z</time>
      </trkpt>
      <trkpt lat="46.49832" lon="6.13241">
        <ele>1461.8</ele>
        <time>2022-07-12T10:14:21Z</time>
      </trkpt>
      <trkpt lat="46.49835" lon="6.13247">
        <ele>1463.4</ele>
        <time>2022-07-12T10:14:26Z</time>
      </trkpt>
      <trkpt lat="46.49837" lon="6.13253">
        <ele>1464.4</ele>
        <time>2022-07-12T10:14:33Z</time>
      </trkpt>
      <trkpt lat="46.49838" lon="6.1326">
        <ele>1464.6</ele>
        <time>2022-07-12T10:14:37Z</time>
      </trkpt>
      <trkpt lat="46.49838" lon="6.13267">
        <ele>1465</ele>
        <time>2022-07-12T10:14:41Z</time>
      </trkpt>
      <trkpt lat="46.49839" lon="6.13274">
        <ele>1465.3</ele>
        <time>2022-07-12T10:14:46Z</time>
      </trkpt>
      <trkpt lat="46.4984" lon="6.13281">
        <ele>1465.5</ele>
        <time>2022-07-12T10:14:51Z</time>
      </trkpt>
      <trkpt lat="46.49844" lon="6.13286">
        <ele>1466.3</ele>
        <time>2022-07-12T10:14:58Z</time>
      </trkpt>
      <trkpt lat="46.49841" lon="6.13293">
        <ele>1464.6</ele>
        <time>2022-07-12T10:15:30Z</time>
      </trkpt>
      <trkpt lat="46.49842" lon="6.13301">
        <ele>1465.6</ele>
        <time>2022-07-12T10:15:35Z</time>
      </trkpt>
      <trkpt lat="46.49843" lon="6.13308">
        <ele>1466.1</ele>
        <time>2022-07-12T10:15:44Z</time>
      </trkpt>
      <trkpt lat="46.49842" lon="6.13317">
        <ele>1466.7</ele>
        <time>2022-07-12T10:15:48Z</time>
      </trkpt>
      <trkpt lat="46.49843" lon="6.13323">
        <ele>1466.9</ele>
        <time>2022-07-12T10:15:52Z</time>
      </trkpt>
      <trkpt lat="46.49843" lon="6.1333">
        <ele>1467.2</ele>
        <time>2022-07-12T10:15:58Z</time>
      </trkpt>
      <trkpt lat="46.49842" lon="6.13338">
        <ele>1467.6</ele>
        <time>2022-07-12T10:16:04Z</time>
      </trkpt>
      <trkpt lat="46.49841" lon="6.13345">
        <ele>1467.1</ele>
        <time>2022-07-12T10:16:10Z</time>
      </trkpt>
      <trkpt lat="46.49838" lon="6.13354">
        <ele>1466.4</ele>
        <time>2022-07-12T10:16:14Z</time>
      </trkpt>
      <trkpt lat="46.49835" lon="6.1336">
        <ele>1466.1</ele>
        <time>2022-07-12T10:16:17Z</time>
      </trkpt>
      <trkpt lat="46.49832" lon="6.13366">
        <ele>1465.2</ele>
        <time>2022-07-12T10:16:21Z</time>
      </trkpt>
      <trkpt lat="46.49829" lon="6.13371">
        <ele>1461</ele>
        <time>2022-07-12T10:16:46Z</time>
      </trkpt>
      <trkpt lat="46.49825" lon="6.13376">
        <ele>1461.1</ele>
        <time>2022-07-12T10:16:51Z</time>
      </trkpt>
      <trkpt lat="46.49821" lon="6.13381">
        <ele>1460.8</ele>
        <time>2022-07-12T10:16:55Z</time>
      </trkpt>
      <trkpt lat="46.49818" lon="6.13386">
        <ele>1460.8</ele>
        <time>2022-07-12T10:16:59Z</time>
      </trkpt>
      <trkpt lat="46.49814" lon="6.13389">
        <ele>1460.4</ele>
        <time>2022-07-12T10:17:05Z</time>
      </trkpt>
      <trkpt lat="46.4981" lon="6.13393">
        <ele>1460.2</ele>
        <time>2022-07-12T10:17:11Z</time>
      </trkpt>
      <trkpt lat="46.49805" lon="6.13395">
        <ele>1460.9</ele>
        <time>2022-07-12T10:17:16Z</time>
      </trkpt>
      <trkpt lat="46.498" lon="6.13396">
        <ele>1461.7</ele>
        <time>2022-07-12T10:17:20Z</time>
      </trkpt>
      <trkpt lat="46.49795" lon="6.13396">
        <ele>1463</ele>
        <time>2022-07-12T10:17:25Z</time>
      </trkpt>
      <trkpt lat="46.4979" lon="6.13398">
        <ele>1463.8</ele>
        <time>2022-07-12T10:17:32Z</time>
      </trkpt>
      <trkpt lat="46.49788" lon="6.13392">
        <ele>1476.9</ele>
        <time>2022-07-12T10:21:59Z</time>
      </trkpt>
      <trkpt lat="46.4979" lon="6.13398">
        <ele>1476</ele>
        <time>2022-07-12T10:22:51Z</time>
      </trkpt>
      <trkpt lat="46.49786" lon="6.13394">
        <ele>1476.3</ele>
        <time>2022-07-12T10:25:23Z</time>
      </trkpt>
      <trkpt lat="46.49782" lon="6.13396">
        <ele>1473.6</ele>
        <time>2022-07-12T10:25:57Z</time>
      </trkpt>
      <trkpt lat="46.49778" lon="6.13399">
        <ele>1472.2</ele>
        <time>2022-07-12T10:26:01Z</time>
      </trkpt>
      <trkpt lat="46.49772" lon="6.134">
        <ele>1471.1</ele>
        <time>2022-07-12T10:26:05Z</time>
      </trkpt>
      <trkpt lat="46.49767" lon="6.13399">
        <ele>1470.6</ele>
        <time>2022-07-12T10:26:09Z</time>
      </trkpt>
      <trkpt lat="46.49762" lon="6.13399">
        <ele>1470.1</ele>
        <time>2022-07-12T10:26:14Z</time>
      </trkpt>
      <trkpt lat="46.49757" lon="6.13398">
        <ele>1468.7</ele>
        <time>2022-07-12T10:26:20Z</time>
      </trkpt>
      <trkpt lat="46.49752" lon="6.13399">
        <ele>1467.3</ele>
        <time>2022-07-12T10:26:25Z</time>
      </trkpt>
      <trkpt lat="46.49747" lon="6.13401">
        <ele>1466.3</ele>
        <time>2022-07-12T10:26:30Z</time>
      </trkpt>
      <trkpt lat="46.49743" lon="6.13401">
        <ele>1465.7</ele>
        <time>2022-07-12T10:26:35Z</time>
      </trkpt>
      <trkpt lat="46.49745" lon="6.13395">
        <ele>1465.5</ele>
        <time>2022-07-12T10:26:49Z</time>
      </trkpt>
      <trkpt lat="46.49751" lon="6.13396">
        <ele>1466.2</ele>
        <time>2022-07-12T10:26:53Z</time>
      </trkpt>
      <trkpt lat="46.49756" lon="6.13399">
        <ele>1467.9</ele>
        <time>2022-07-12T10:26:56Z</time>
      </trkpt>
      <trkpt lat="46.49759" lon="6.13404">
        <ele>1473.7</ele>
        <time>2022-07-12T10:27:05Z</time>
      </trkpt>
      <trkpt lat="46.49763" lon="6.13408">
        <ele>1476.1</ele>
        <time>2022-07-12T10:27:10Z</time>
      </trkpt>
      <trkpt lat="46.49768" lon="6.13409">
        <ele>1477.2</ele>
        <time>2022-07-12T10:27:14Z</time>
      </trkpt>
      <trkpt lat="46.49773" lon="6.13412">
        <ele>1477.9</ele>
        <time>2022-07-12T10:27:19Z</time>
      </trkpt>
      <trkpt lat="46.49777" lon="6.13416">
        <ele>1478.5</ele>
        <time>2022-07-12T10:27:25Z</time>
      </trkpt>
      <trkpt lat="46.49783" lon="6.13417">
        <ele>1479.2</ele>
        <time>2022-07-12T10:27:30Z</time>
      </trkpt>
      <trkpt lat="46.49787" lon="6.13417">
        <ele>1479.7</ele>
        <time>2022-07-12T10:27:34Z</time>
      </trkpt>
      <trkpt lat="46.49791" lon="6.13421">
        <ele>1480</ele>
        <time>2022-07-12T10:27:38Z</time>
      </trkpt>
      <trkpt lat="46.49796" lon="6.13425">
        <ele>1480.4</ele>
        <time>2022-07-12T10:27:42Z</time>
      </trkpt>
      <trkpt lat="46.49801" lon="6.1343">
        <ele>1481.1</ele>
        <time>2022-07-12T10:27:46Z</time>
      </trkpt>
      <trkpt lat="46.49806" lon="6.13433">
        <ele>1481.7</ele>
        <time>2022-07-12T10:27:51Z</time>
      </trkpt>
      <trkpt lat="46.49809" lon="6.13438">
        <ele>1481.2</ele>
        <time>2022-07-12T10:28:06Z</time>
      </trkpt>
      <trkpt lat="46.49813" lon="6.13442">
        <ele>1483.2</ele>
        <time>2022-07-12T10:28:44Z</time>
      </trkpt>
      <trkpt lat="46.49816" lon="6.13446">
        <ele>1483</ele>
        <time>2022-07-12T10:28:52Z</time>
      </trkpt>
      <trkpt lat="46.49821" lon="6.13449">
        <ele>1482.8</ele>
        <time>2022-07-12T10:28:58Z</time>
      </trkpt>
      <trkpt lat="46.49826" lon="6.13451">
        <ele>1483</ele>
        <time>2022-07-12T10:29:02Z</time>
      </trkpt>
      <trkpt lat="46.4983" lon="6.13454">
        <ele>1482.6</ele>
        <time>2022-07-12T10:29:07Z</time>
      </trkpt>
      <trkpt lat="46.49835" lon="6.13458">
        <ele>1482.1</ele>
        <time>2022-07-12T10:29:12Z</time>
      </trkpt>
      <trkpt lat="46.49839" lon="6.13463">
        <ele>1481.9</ele>
        <time>2022-07-12T10:29:18Z</time>
      </trkpt>
      <trkpt lat="46.49843" lon="6.13467">
        <ele>1481.8</ele>
        <time>2022-07-12T10:29:23Z</time>
      </trkpt>
      <trkpt lat="46.49848" lon="6.13467">
        <ele>1481.8</ele>
        <time>2022-07-12T10:29:26Z</time>
      </trkpt>
      <trkpt lat="46.49852" lon="6.13469">
        <ele>1481.3</ele>
        <time>2022-07-12T10:29:29Z</time>
      </trkpt>
      <trkpt lat="46.49855" lon="6.13475">
        <ele>1480.5</ele>
        <time>2022-07-12T10:29:32Z</time>
      </trkpt>
      <trkpt lat="46.49857" lon="6.13482">
        <ele>1479.8</ele>
        <time>2022-07-12T10:29:36Z</time>
      </trkpt>
      <trkpt lat="46.49858" lon="6.13489">
        <ele>1479.2</ele>
        <time>2022-07-12T10:29:41Z</time>
      </trkpt>
      <trkpt lat="46.49862" lon="6.13494">
        <ele>1479.1</ele>
        <time>2022-07-12T10:29:47Z</time>
      </trkpt>
      <trkpt lat="46.49867" lon="6.13497">
        <ele>1479.7</ele>
        <time>2022-07-12T10:29:51Z</time>
      </trkpt>
      <trkpt lat="46.4987" lon="6.13502">
        <ele>1482</ele>
        <time>2022-07-12T10:29:56Z</time>
      </trkpt>
      <trkpt lat="46.49874" lon="6.13507">
        <ele>1484</ele>
        <time>2022-07-12T10:30:00Z</time>
      </trkpt>
      <trkpt lat="46.49878" lon="6.1351">
        <ele>1485.9</ele>
        <time>2022-07-12T10:30:03Z</time>
      </trkpt>
      <trkpt lat="46.49883" lon="6.13511">
        <ele>1487.9</ele>
        <time>2022-07-12T10:30:07Z</time>
      </trkpt>
      <trkpt lat="46.49885" lon="6.13517">
        <ele>1489.7</ele>
        <time>2022-07-12T10:30:15Z</time>
      </trkpt>
      <trkpt lat="46.49883" lon="6.13524">
        <ele>1490.6</ele>
        <time>2022-07-12T10:30:19Z</time>
      </trkpt>
      <trkpt lat="46.49884" lon="6.13531">
        <ele>1492.9</ele>
        <time>2022-07-12T10:30:27Z</time>
      </trkpt>
      <trkpt lat="46.49887" lon="6.13535">
        <ele>1493.8</ele>
        <time>2022-07-12T10:30:33Z</time>
      </trkpt>
      <trkpt lat="46.49892" lon="6.13538">
        <ele>1494.3</ele>
        <time>2022-07-12T10:30:39Z</time>
      </trkpt>
      <trkpt lat="46.49894" lon="6.13545">
        <ele>1495.3</ele>
        <time>2022-07-12T10:30:43Z</time>
      </trkpt>
      <trkpt lat="46.49896" lon="6.13552">
        <ele>1496.7</ele>
        <time>2022-07-12T10:30:46Z</time>
      </trkpt>
      <trkpt lat="46.49896" lon="6.13561">
        <ele>1498.7</ele>
        <time>2022-07-12T10:30:49Z</time>
      </trkpt>
      <trkpt lat="46.49895" lon="6.13568">
        <ele>1501.9</ele>
        <time>2022-07-12T10:30:54Z</time>
      </trkpt>
      <trkpt lat="46.49899" lon="6.13572">
        <ele>1504.7</ele>
        <time>2022-07-12T10:30:59Z</time>
      </trkpt>
      <trkpt lat="46.49903" lon="6.13576">
        <ele>1507.5</ele>
        <time>2022-07-12T10:31:04Z</time>
      </trkpt>
      <trkpt lat="46.49906" lon="6.13583">
        <ele>1508.9</ele>
        <time>2022-07-12T10:31:09Z</time>
      </trkpt>
      <trkpt lat="46.49908" lon="6.13588">
        <ele>1509.8</ele>
        <time>2022-07-12T10:31:13Z</time>
      </trkpt>
      <trkpt lat="46.49911" lon="6.13593">
        <ele>1511</ele>
        <time>2022-07-12T10:31:22Z</time>
      </trkpt>
      <trkpt lat="46.49911" lon="6.136">
        <ele>1511.2</ele>
        <time>2022-07-12T10:31:27Z</time>
      </trkpt>
      <trkpt lat="46.49913" lon="6.13606">
        <ele>1511.5</ele>
        <time>2022-07-12T10:31:31Z</time>
      </trkpt>
      <trkpt lat="46.49915" lon="6.13613">
        <ele>1511.6</ele>
        <time>2022-07-12T10:31:35Z</time>
      </trkpt>
      <trkpt lat="46.49917" lon="6.1362">
        <ele>1512</ele>
        <time>2022-07-12T10:31:39Z</time>
      </trkpt>
      <trkpt lat="46.4992" lon="6.13625">
        <ele>1512.3</ele>
        <time>2022-07-12T10:31:42Z</time>
      </trkpt>
      <trkpt lat="46.49923" lon="6.13632">
        <ele>1512</ele>
        <time>2022-07-12T10:31:47Z</time>
      </trkpt>
      <trkpt lat="46.49923" lon="6.13639">
        <ele>1512</ele>
        <time>2022-07-12T10:31:51Z</time>
      </trkpt>
      <trkpt lat="46.49924" lon="6.13646">
        <ele>1512.8</ele>
        <time>2022-07-12T10:31:58Z</time>
      </trkpt>
      <trkpt lat="46.49925" lon="6.13653">
        <ele>1512.6</ele>
        <time>2022-07-12T10:32:05Z</time>
      </trkpt>
      <trkpt lat="46.49929" lon="6.13657">
        <ele>1512.3</ele>
        <time>2022-07-12T10:32:11Z</time>
      </trkpt>
      <trkpt lat="46.49933" lon="6.13662">
        <ele>1511.2</ele>
        <time>2022-07-12T10:32:16Z</time>
      </trkpt>
      <trkpt lat="46.49935" lon="6.1367">
        <ele>1510.1</ele>
        <time>2022-07-12T10:32:21Z</time>
      </trkpt>
      <trkpt lat="46.49936" lon="6.13676">
        <ele>1509.7</ele>
        <time>2022-07-12T10:32:24Z</time>
      </trkpt>
      <trkpt lat="46.49938" lon="6.13682">
        <ele>1509.6</ele>
        <time>2022-07-12T10:32:29Z</time>
      </trkpt>
      <trkpt lat="46.49941" lon="6.13688">
        <ele>1509.3</ele>
        <time>2022-07-12T10:32:37Z</time>
      </trkpt>
      <trkpt lat="46.49944" lon="6.13695">
        <ele>1507.6</ele>
        <time>2022-07-12T10:32:43Z</time>
      </trkpt>
      <trkpt lat="46.49946" lon="6.13701">
        <ele>1505.9</ele>
        <time>2022-07-12T10:32:47Z</time>
      </trkpt>
      <trkpt lat="46.49949" lon="6.13707">
        <ele>1504.4</ele>
        <time>2022-07-12T10:32:52Z</time>
      </trkpt>
      <trkpt lat="46.49953" lon="6.13712">
        <ele>1504.6</ele>
        <time>2022-07-12T10:32:57Z</time>
      </trkpt>
      <trkpt lat="46.49957" lon="6.13716">
        <ele>1505.6</ele>
        <time>2022-07-12T10:33:04Z</time>
      </trkpt>
      <trkpt lat="46.49962" lon="6.13719">
        <ele>1506</ele>
        <time>2022-07-12T10:33:11Z</time>
      </trkpt>
      <trkpt lat="46.49967" lon="6.13722">
        <ele>1506.3</ele>
        <time>2022-07-12T10:33:15Z</time>
      </trkpt>
      <trkpt lat="46.49973" lon="6.13724">
        <ele>1506</ele>
        <time>2022-07-12T10:33:20Z</time>
      </trkpt>
      <trkpt lat="46.49978" lon="6.13723">
        <ele>1505.6</ele>
        <time>2022-07-12T10:33:25Z</time>
      </trkpt>
      <trkpt lat="46.49983" lon="6.13723">
        <ele>1505.6</ele>
        <time>2022-07-12T10:33:29Z</time>
      </trkpt>
      <trkpt lat="46.49987" lon="6.13726">
        <ele>1504.7</ele>
        <time>2022-07-12T10:33:34Z</time>
      </trkpt>
      <trkpt lat="46.49992" lon="6.13728">
        <ele>1503.8</ele>
        <time>2022-07-12T10:33:39Z</time>
      </trkpt>
      <trkpt lat="46.49996" lon="6.13732">
        <ele>1502.5</ele>
        <time>2022-07-12T10:33:45Z</time>
      </trkpt>
      <trkpt lat="46.49996" lon="6.13739">
        <ele>1501.2</ele>
        <time>2022-07-12T10:33:52Z</time>
      </trkpt>
      <trkpt lat="46.49997" lon="6.13745">
        <ele>1500.1</ele>
        <time>2022-07-12T10:33:59Z</time>
      </trkpt>
      <trkpt lat="46.5" lon="6.13752">
        <ele>1499</ele>
        <time>2022-07-12T10:34:04Z</time>
      </trkpt>
      <trkpt lat="46.50001" lon="6.13759">
        <ele>1498.1</ele>
        <time>2022-07-12T10:34:09Z</time>
      </trkpt>
      <trkpt lat="46.50003" lon="6.13767">
        <ele>1497.2</ele>
        <time>2022-07-12T10:34:14Z</time>
      </trkpt>
      <trkpt lat="46.50004" lon="6.13774">
        <ele>1496.8</ele>
        <time>2022-07-12T10:34:18Z</time>
      </trkpt>
      <trkpt lat="46.50006" lon="6.1378">
        <ele>1496.5</ele>
        <time>2022-07-12T10:34:22Z</time>
      </trkpt>
      <trkpt lat="46.50004" lon="6.13787">
        <ele>1495.5</ele>
        <time>2022-07-12T10:34:29Z</time>
      </trkpt>
      <trkpt lat="46.50007" lon="6.13792">
        <ele>1494.8</ele>
        <time>2022-07-12T10:34:33Z</time>
      </trkpt>
      <trkpt lat="46.50011" lon="6.13796">
        <ele>1494.5</ele>
        <time>2022-07-12T10:34:36Z</time>
      </trkpt>
      <trkpt lat="46.50015" lon="6.138">
        <ele>1494.3</ele>
        <time>2022-07-12T10:34:39Z</time>
      </trkpt>
      <trkpt lat="46.50018" lon="6.13805">
        <ele>1494.7</ele>
        <time>2022-07-12T10:34:43Z</time>
      </trkpt>
      <trkpt lat="46.50021" lon="6.13812">
        <ele>1495.8</ele>
        <time>2022-07-12T10:34:47Z</time>
      </trkpt>
      <trkpt lat="46.50024" lon="6.13817">
        <ele>1497.9</ele>
        <time>2022-07-12T10:34:52Z</time>
      </trkpt>
      <trkpt lat="46.50028" lon="6.13823">
        <ele>1500.4</ele>
        <time>2022-07-12T10:34:59Z</time>
      </trkpt>
      <trkpt lat="46.50032" lon="6.13828">
        <ele>1501.7</ele>
        <time>2022-07-12T10:35:02Z</time>
      </trkpt>
      <trkpt lat="46.50035" lon="6.13833">
        <ele>1503.8</ele>
        <time>2022-07-12T10:35:07Z</time>
      </trkpt>
      <trkpt lat="46.50039" lon="6.13839">
        <ele>1505.5</ele>
        <time>2022-07-12T10:35:11Z</time>
      </trkpt>
      <trkpt lat="46.50042" lon="6.13845">
        <ele>1507.8</ele>
        <time>2022-07-12T10:35:15Z</time>
      </trkpt>
      <trkpt lat="46.50044" lon="6.13852">
        <ele>1510.8</ele>
        <time>2022-07-12T10:35:20Z</time>
      </trkpt>
      <trkpt lat="46.50045" lon="6.13858">
        <ele>1513</ele>
        <time>2022-07-12T10:35:25Z</time>
      </trkpt>
      <trkpt lat="46.50046" lon="6.13865">
        <ele>1513.5</ele>
        <time>2022-07-12T10:35:28Z</time>
      </trkpt>
      <trkpt lat="46.50047" lon="6.13872">
        <ele>1513.4</ele>
        <time>2022-07-12T10:35:34Z</time>
      </trkpt>
      <trkpt lat="46.50049" lon="6.13879">
        <ele>1513.5</ele>
        <time>2022-07-12T10:35:38Z</time>
      </trkpt>
      <trkpt lat="46.50052" lon="6.13885">
        <ele>1513.5</ele>
        <time>2022-07-12T10:35:44Z</time>
      </trkpt>
      <trkpt lat="46.50055" lon="6.13891">
        <ele>1512.9</ele>
        <time>2022-07-12T10:35:50Z</time>
      </trkpt>
      <trkpt lat="46.50055" lon="6.13898">
        <ele>1512</ele>
        <time>2022-07-12T10:35:55Z</time>
      </trkpt>
      <trkpt lat="46.50055" lon="6.13905">
        <ele>1511.4</ele>
        <time>2022-07-12T10:36:01Z</time>
      </trkpt>
      <trkpt lat="46.50058" lon="6.13912">
        <ele>1511.3</ele>
        <time>2022-07-12T10:36:05Z</time>
      </trkpt>
      <trkpt lat="46.50061" lon="6.13919">
        <ele>1511.1</ele>
        <time>2022-07-12T10:36:09Z</time>
      </trkpt>
      <trkpt lat="46.50061" lon="6.13925">
        <ele>1510.5</ele>
        <time>2022-07-12T10:36:13Z</time>
      </trkpt>
      <trkpt lat="46.50066" lon="6.13931">
        <ele>1509.4</ele>
        <time>2022-07-12T10:36:20Z</time>
      </trkpt>
      <trkpt lat="46.50068" lon="6.13939">
        <ele>1509.3</ele>
        <time>2022-07-12T10:36:23Z</time>
      </trkpt>
      <trkpt lat="46.50069" lon="6.13947">
        <ele>1509.4</ele>
        <time>2022-07-12T10:36:26Z</time>
      </trkpt>
      <trkpt lat="46.50071" lon="6.13956">
        <ele>1510.2</ele>
        <time>2022-07-12T10:36:30Z</time>
      </trkpt>
      <trkpt lat="46.50071" lon="6.13963">
        <ele>1511.3</ele>
        <time>2022-07-12T10:36:34Z</time>
      </trkpt>
      <trkpt lat="46.50074" lon="6.13969">
        <ele>1512.4</ele>
        <time>2022-07-12T10:36:37Z</time>
      </trkpt>
      <trkpt lat="46.50077" lon="6.13975">
        <ele>1513.6</ele>
        <time>2022-07-12T10:36:40Z</time>
      </trkpt>
      <trkpt lat="46.5008" lon="6.13981">
        <ele>1515.2</ele>
        <time>2022-07-12T10:36:43Z</time>
      </trkpt>
      <trkpt lat="46.50083" lon="6.13987">
        <ele>1517</ele>
        <time>2022-07-12T10:36:47Z</time>
      </trkpt>
      <trkpt lat="46.50087" lon="6.13992">
        <ele>1518.5</ele>
        <time>2022-07-12T10:36:53Z</time>
      </trkpt>
      <trkpt lat="46.50087" lon="6.14">
        <ele>1519</ele>
        <time>2022-07-12T10:37:00Z</time>
      </trkpt>
      <trkpt lat="46.50087" lon="6.14007">
        <ele>1519</ele>
        <time>2022-07-12T10:37:06Z</time>
      </trkpt>
      <trkpt lat="46.50089" lon="6.14014">
        <ele>1519.5</ele>
        <time>2022-07-12T10:37:11Z</time>
      </trkpt>
      <trkpt lat="46.50091" lon="6.14021">
        <ele>1520.5</ele>
        <time>2022-07-12T10:37:17Z</time>
      </trkpt>
      <trkpt lat="46.50092" lon="6.14028">
        <ele>1520.6</ele>
        <time>2022-07-12T10:37:23Z</time>
      </trkpt>
      <trkpt lat="46.50092" lon="6.14035">
        <ele>1520.6</ele>
        <time>2022-07-12T10:37:28Z</time>
      </trkpt>
      <trkpt lat="46.50091" lon="6.14041">
        <ele>1520</ele>
        <time>2022-07-12T10:37:36Z</time>
      </trkpt>
      <trkpt lat="46.50091" lon="6.14048">
        <ele>1519.1</ele>
        <time>2022-07-12T10:37:42Z</time>
      </trkpt>
      <trkpt lat="46.50091" lon="6.14055">
        <ele>1518.4</ele>
        <time>2022-07-12T10:37:48Z</time>
      </trkpt>
      <trkpt lat="46.50088" lon="6.14062">
        <ele>1517.9</ele>
        <time>2022-07-12T10:37:53Z</time>
      </trkpt>
      <trkpt lat="46.50088" lon="6.1407">
        <ele>1517.6</ele>
        <time>2022-07-12T10:37:57Z</time>
      </trkpt>
      <trkpt lat="46.5009" lon="6.14076">
        <ele>1516.9</ele>
        <time>2022-07-12T10:38:01Z</time>
      </trkpt>
      <trkpt lat="46.50091" lon="6.14083">
        <ele>1516.2</ele>
        <time>2022-07-12T10:38:05Z</time>
      </trkpt>
      <trkpt lat="46.50091" lon="6.14091">
        <ele>1515.7</ele>
        <time>2022-07-12T10:38:10Z</time>
      </trkpt>
      <trkpt lat="46.50092" lon="6.14098">
        <ele>1515.4</ele>
        <time>2022-07-12T10:38:20Z</time>
      </trkpt>
      <trkpt lat="46.50094" lon="6.14107">
        <ele>1515.3</ele>
        <time>2022-07-12T10:38:24Z</time>
      </trkpt>
      <trkpt lat="46.50095" lon="6.14115">
        <ele>1515.2</ele>
        <time>2022-07-12T10:38:27Z</time>
      </trkpt>
      <trkpt lat="46.50097" lon="6.14121">
        <ele>1515.2</ele>
        <time>2022-07-12T10:38:30Z</time>
      </trkpt>
      <trkpt lat="46.50099" lon="6.14129">
        <ele>1514.6</ele>
        <time>2022-07-12T10:38:35Z</time>
      </trkpt>
      <trkpt lat="46.501" lon="6.14135">
        <ele>1513.5</ele>
        <time>2022-07-12T10:38:39Z</time>
      </trkpt>
      <trkpt lat="46.50102" lon="6.14141">
        <ele>1512.7</ele>
        <time>2022-07-12T10:38:43Z</time>
      </trkpt>
      <trkpt lat="46.50104" lon="6.14148">
        <ele>1512.9</ele>
        <time>2022-07-12T10:38:47Z</time>
      </trkpt>
      <trkpt lat="46.50107" lon="6.14152">
        <ele>1513.6</ele>
        <time>2022-07-12T10:38:51Z</time>
      </trkpt>
      <trkpt lat="46.50112" lon="6.14157">
        <ele>1514.6</ele>
        <time>2022-07-12T10:38:55Z</time>
      </trkpt>
      <trkpt lat="46.50115" lon="6.14161">
        <ele>1516.2</ele>
        <time>2022-07-12T10:38:59Z</time>
      </trkpt>
      <trkpt lat="46.5012" lon="6.14161">
        <ele>1519</ele>
        <time>2022-07-12T10:39:05Z</time>
      </trkpt>
      <trkpt lat="46.50124" lon="6.14164">
        <ele>1521.2</ele>
        <time>2022-07-12T10:39:10Z</time>
      </trkpt>
      <trkpt lat="46.50127" lon="6.14169">
        <ele>1523.1</ele>
        <time>2022-07-12T10:39:16Z</time>
      </trkpt>
      <trkpt lat="46.50129" lon="6.14177">
        <ele>1524.4</ele>
        <time>2022-07-12T10:39:22Z</time>
      </trkpt>
      <trkpt lat="46.5013" lon="6.14184">
        <ele>1525.3</ele>
        <time>2022-07-12T10:39:28Z</time>
      </trkpt>
      <trkpt lat="46.50128" lon="6.1419">
        <ele>1525.1</ele>
        <time>2022-07-12T10:39:36Z</time>
      </trkpt>
      <trkpt lat="46.50133" lon="6.14193">
        <ele>1524.7</ele>
        <time>2022-07-12T10:39:44Z</time>
      </trkpt>
      <trkpt lat="46.50136" lon="6.14198">
        <ele>1524.7</ele>
        <time>2022-07-12T10:39:50Z</time>
      </trkpt>
      <trkpt lat="46.50136" lon="6.14205">
        <ele>1525.4</ele>
        <time>2022-07-12T10:39:55Z</time>
      </trkpt>
      <trkpt lat="46.50132" lon="6.14202">
        <ele>1525.1</ele>
        <time>2022-07-12T10:40:08Z</time>
      </trkpt>
      <trkpt lat="46.50136" lon="6.14206">
        <ele>1522.9</ele>
        <time>2022-07-12T10:40:14Z</time>
      </trkpt>
      <trkpt lat="46.50139" lon="6.14211">
        <ele>1519.9</ele>
        <time>2022-07-12T10:40:22Z</time>
      </trkpt>
      <trkpt lat="46.50141" lon="6.14218">
        <ele>1518.6</ele>
        <time>2022-07-12T10:40:27Z</time>
      </trkpt>
      <trkpt lat="46.5014" lon="6.14224">
        <ele>1518.1</ele>
        <time>2022-07-12T10:40:31Z</time>
      </trkpt>
      <trkpt lat="46.50138" lon="6.14231">
        <ele>1517.7</ele>
        <time>2022-07-12T10:40:36Z</time>
      </trkpt>
      <trkpt lat="46.50135" lon="6.14237">
        <ele>1517.3</ele>
        <time>2022-07-12T10:40:42Z</time>
      </trkpt>
      <trkpt lat="46.50135" lon="6.14244">
        <ele>1516.3</ele>
        <time>2022-07-12T10:40:49Z</time>
      </trkpt>
      <trkpt lat="46.50138" lon="6.14249">
        <ele>1515.7</ele>
        <time>2022-07-12T10:40:54Z</time>
      </trkpt>
      <trkpt lat="46.50142" lon="6.14256">
        <ele>1515.4</ele>
        <time>2022-07-12T10:40:59Z</time>
      </trkpt>
      <trkpt lat="46.50143" lon="6.14263">
        <ele>1515.2</ele>
        <time>2022-07-12T10:41:04Z</time>
      </trkpt>
      <trkpt lat="46.5014" lon="6.14269">
        <ele>1516.1</ele>
        <time>2022-07-12T10:41:10Z</time>
      </trkpt>
      <trkpt lat="46.50143" lon="6.14274">
        <ele>1519.3</ele>
        <time>2022-07-12T10:41:20Z</time>
      </trkpt>
      <trkpt lat="46.50146" lon="6.1428">
        <ele>1516.5</ele>
        <time>2022-07-12T10:41:29Z</time>
      </trkpt>
      <trkpt lat="46.5014" lon="6.1428">
        <ele>1512.9</ele>
        <time>2022-07-12T10:41:34Z</time>
      </trkpt>
      <trkpt lat="46.50141" lon="6.14289">
        <ele>1512.2</ele>
        <time>2022-07-12T10:41:39Z</time>
      </trkpt>
      <trkpt lat="46.50144" lon="6.14295">
        <ele>1514.2</ele>
        <time>2022-07-12T10:41:42Z</time>
      </trkpt>
      <trkpt lat="46.50146" lon="6.14305">
        <ele>1516.7</ele>
        <time>2022-07-12T10:41:45Z</time>
      </trkpt>
      <trkpt lat="46.50148" lon="6.14312">
        <ele>1519.5</ele>
        <time>2022-07-12T10:41:48Z</time>
      </trkpt>
      <trkpt lat="46.50151" lon="6.14318">
        <ele>1523.4</ele>
        <time>2022-07-12T10:41:52Z</time>
      </trkpt>
      <trkpt lat="46.50157" lon="6.1432">
        <ele>1527.5</ele>
        <time>2022-07-12T10:41:57Z</time>
      </trkpt>
      <trkpt lat="46.50162" lon="6.14319">
        <ele>1529.5</ele>
        <time>2022-07-12T10:42:02Z</time>
      </trkpt>
      <trkpt lat="46.50166" lon="6.14319">
        <ele>1530.1</ele>
        <time>2022-07-12T10:42:06Z</time>
      </trkpt>
      <trkpt lat="46.50171" lon="6.14318">
        <ele>1530.5</ele>
        <time>2022-07-12T10:42:11Z</time>
      </trkpt>
      <trkpt lat="46.50177" lon="6.14318">
        <ele>1530.5</ele>
        <time>2022-07-12T10:42:22Z</time>
      </trkpt>
      <trkpt lat="46.50181" lon="6.14315">
        <ele>1530.7</ele>
        <time>2022-07-12T10:42:27Z</time>
      </trkpt>
      <trkpt lat="46.50189" lon="6.14317">
        <ele>1530.8</ele>
        <time>2022-07-12T10:42:30Z</time>
      </trkpt>
      <trkpt lat="46.50193" lon="6.14318">
        <ele>1530.2</ele>
        <time>2022-07-12T10:42:33Z</time>
      </trkpt>
      <trkpt lat="46.50198" lon="6.14319">
        <ele>1529.4</ele>
        <time>2022-07-12T10:42:37Z</time>
      </trkpt>
      <trkpt lat="46.50203" lon="6.1432">
        <ele>1529</ele>
        <time>2022-07-12T10:42:42Z</time>
      </trkpt>
      <trkpt lat="46.50208" lon="6.14319">
        <ele>1529.7</ele>
        <time>2022-07-12T10:42:46Z</time>
      </trkpt>
      <trkpt lat="46.50205" lon="6.14315">
        <ele>1530.9</ele>
        <time>2022-07-12T10:42:56Z</time>
      </trkpt>
      <trkpt lat="46.502" lon="6.14313">
        <ele>1529</ele>
        <time>2022-07-12T10:43:01Z</time>
      </trkpt>
      <trkpt lat="46.50205" lon="6.14311">
        <ele>1525.7</ele>
        <time>2022-07-12T10:43:13Z</time>
      </trkpt>
      <trkpt lat="46.50209" lon="6.1431">
        <ele>1525.7</ele>
        <time>2022-07-12T10:43:17Z</time>
      </trkpt>
      <trkpt lat="46.50216" lon="6.1431">
        <ele>1526.2</ele>
        <time>2022-07-12T10:43:20Z</time>
      </trkpt>
      <trkpt lat="46.50221" lon="6.1431">
        <ele>1526.8</ele>
        <time>2022-07-12T10:43:23Z</time>
      </trkpt>
      <trkpt lat="46.50224" lon="6.14317">
        <ele>1523.2</ele>
        <time>2022-07-12T10:43:56Z</time>
      </trkpt>
      <trkpt lat="46.50228" lon="6.14322">
        <ele>1521.9</ele>
        <time>2022-07-12T10:44:01Z</time>
      </trkpt>
      <trkpt lat="46.50233" lon="6.14324">
        <ele>1521.7</ele>
        <time>2022-07-12T10:44:05Z</time>
      </trkpt>
      <trkpt lat="46.50238" lon="6.14323">
        <ele>1522.8</ele>
        <time>2022-07-12T10:44:10Z</time>
      </trkpt>
      <trkpt lat="46.50243" lon="6.14322">
        <ele>1523.9</ele>
        <time>2022-07-12T10:44:14Z</time>
      </trkpt>
      <trkpt lat="46.50248" lon="6.14321">
        <ele>1525</ele>
        <time>2022-07-12T10:44:19Z</time>
      </trkpt>
      <trkpt lat="46.50253" lon="6.14322">
        <ele>1525</ele>
        <time>2022-07-12T10:44:27Z</time>
      </trkpt>
      <trkpt lat="46.50257" lon="6.14321">
        <ele>1524.9</ele>
        <time>2022-07-12T10:44:30Z</time>
      </trkpt>
      <trkpt lat="46.50262" lon="6.14319">
        <ele>1525</ele>
        <time>2022-07-12T10:44:33Z</time>
      </trkpt>
      <trkpt lat="46.50267" lon="6.14317">
        <ele>1524.6</ele>
        <time>2022-07-12T10:44:37Z</time>
      </trkpt>
      <trkpt lat="46.50271" lon="6.14311">
        <ele>1523.5</ele>
        <time>2022-07-12T10:44:42Z</time>
      </trkpt>
      <trkpt lat="46.50275" lon="6.1431">
        <ele>1521.5</ele>
        <time>2022-07-12T10:44:49Z</time>
      </trkpt>
      <trkpt lat="46.5028" lon="6.14311">
        <ele>1520.2</ele>
        <time>2022-07-12T10:44:55Z</time>
      </trkpt>
      <trkpt lat="46.50285" lon="6.14313">
        <ele>1520.8</ele>
        <time>2022-07-12T10:44:59Z</time>
      </trkpt>
      <trkpt lat="46.50289" lon="6.14314">
        <ele>1522</ele>
        <time>2022-07-12T10:45:03Z</time>
      </trkpt>
      <trkpt lat="46.50294" lon="6.14316">
        <ele>1523.3</ele>
        <time>2022-07-12T10:45:08Z</time>
      </trkpt>
      <trkpt lat="46.50299" lon="6.14317">
        <ele>1524</ele>
        <time>2022-07-12T10:45:12Z</time>
      </trkpt>
      <trkpt lat="46.50304" lon="6.14314">
        <ele>1524</ele>
        <time>2022-07-12T10:45:15Z</time>
      </trkpt>
      <trkpt lat="46.50308" lon="6.1431">
        <ele>1523.6</ele>
        <time>2022-07-12T10:45:18Z</time>
      </trkpt>
      <trkpt lat="46.50313" lon="6.14308">
        <ele>1523.2</ele>
        <time>2022-07-12T10:45:22Z</time>
      </trkpt>
      <trkpt lat="46.50318" lon="6.14306">
        <ele>1522.7</ele>
        <time>2022-07-12T10:45:27Z</time>
      </trkpt>
      <trkpt lat="46.50323" lon="6.14304">
        <ele>1521.6</ele>
        <time>2022-07-12T10:45:34Z</time>
      </trkpt>
      <trkpt lat="46.50325" lon="6.14298">
        <ele>1518.2</ele>
        <time>2022-07-12T10:45:41Z</time>
      </trkpt>
      <trkpt lat="46.5033" lon="6.14299">
        <ele>1514.7</ele>
        <time>2022-07-12T10:45:49Z</time>
      </trkpt>
      <trkpt lat="46.50333" lon="6.14304">
        <ele>1513.1</ele>
        <time>2022-07-12T10:45:57Z</time>
      </trkpt>
      <trkpt lat="46.50329" lon="6.14307">
        <ele>1506.9</ele>
        <time>2022-07-12T10:46:25Z</time>
      </trkpt>
      <trkpt lat="46.50326" lon="6.14312">
        <ele>1504.9</ele>
        <time>2022-07-12T10:46:29Z</time>
      </trkpt>
      <trkpt lat="46.50329" lon="6.1432">
        <ele>1501.7</ele>
        <time>2022-07-12T10:46:39Z</time>
      </trkpt>
      <trkpt lat="46.50332" lon="6.14328">
        <ele>1501.3</ele>
        <time>2022-07-12T10:46:42Z</time>
      </trkpt>
      <trkpt lat="46.50337" lon="6.14326">
        <ele>1500.8</ele>
        <time>2022-07-12T10:46:47Z</time>
      </trkpt>
      <trkpt lat="46.50342" lon="6.14323">
        <ele>1501.2</ele>
        <time>2022-07-12T10:46:53Z</time>
      </trkpt>
      <trkpt lat="46.50347" lon="6.14322">
        <ele>1501.5</ele>
        <time>2022-07-12T10:46:59Z</time>
      </trkpt>
      <trkpt lat="46.50352" lon="6.14322">
        <ele>1501.3</ele>
        <time>2022-07-12T10:47:03Z</time>
      </trkpt>
      <trkpt lat="46.50358" lon="6.14324">
        <ele>1501.8</ele>
        <time>2022-07-12T10:47:09Z</time>
      </trkpt>
      <trkpt lat="46.50361" lon="6.14329">
        <ele>1503.2</ele>
        <time>2022-07-12T10:47:14Z</time>
      </trkpt>
      <trkpt lat="46.50358" lon="6.14335">
        <ele>1505.4</ele>
        <time>2022-07-12T10:47:20Z</time>
      </trkpt>
      <trkpt lat="46.50355" lon="6.14341">
        <ele>1507.9</ele>
        <time>2022-07-12T10:47:28Z</time>
      </trkpt>
      <trkpt lat="46.50351" lon="6.14346">
        <ele>1508.9</ele>
        <time>2022-07-12T10:47:33Z</time>
      </trkpt>
      <trkpt lat="46.5035" lon="6.14353">
        <ele>1509.7</ele>
        <time>2022-07-12T10:47:38Z</time>
      </trkpt>
      <trkpt lat="46.50352" lon="6.1436">
        <ele>1509.5</ele>
        <time>2022-07-12T10:47:43Z</time>
      </trkpt>
      <trkpt lat="46.50352" lon="6.14367">
        <ele>1509.2</ele>
        <time>2022-07-12T10:47:47Z</time>
      </trkpt>
      <trkpt lat="46.50351" lon="6.14374">
        <ele>1509.5</ele>
        <time>2022-07-12T10:47:51Z</time>
      </trkpt>
      <trkpt lat="46.50349" lon="6.14381">
        <ele>1509.7</ele>
        <time>2022-07-12T10:47:59Z</time>
      </trkpt>
      <trkpt lat="46.50348" lon="6.14387">
        <ele>1509.3</ele>
        <time>2022-07-12T10:48:05Z</time>
      </trkpt>
      <trkpt lat="46.50346" lon="6.14393">
        <ele>1509</ele>
        <time>2022-07-12T10:48:09Z</time>
      </trkpt>
      <trkpt lat="46.50345" lon="6.144">
        <ele>1509</ele>
        <time>2022-07-12T10:48:13Z</time>
      </trkpt>
      <trkpt lat="46.50344" lon="6.14407">
        <ele>1508.3</ele>
        <time>2022-07-12T10:48:19Z</time>
      </trkpt>
      <trkpt lat="46.50343" lon="6.14414">
        <ele>1507.2</ele>
        <time>2022-07-12T10:48:24Z</time>
      </trkpt>
      <trkpt lat="46.50343" lon="6.14423">
        <ele>1506.4</ele>
        <time>2022-07-12T10:48:28Z</time>
      </trkpt>
      <trkpt lat="46.50343" lon="6.14431">
        <ele>1506.3</ele>
        <time>2022-07-12T10:48:32Z</time>
      </trkpt>
      <trkpt lat="46.50344" lon="6.14438">
        <ele>1505.7</ele>
        <time>2022-07-12T10:48:40Z</time>
      </trkpt>
      <trkpt lat="46.50343" lon="6.14445">
        <ele>1504.8</ele>
        <time>2022-07-12T10:48:46Z</time>
      </trkpt>
      <trkpt lat="46.50343" lon="6.14452">
        <ele>1504.3</ele>
        <time>2022-07-12T10:48:52Z</time>
      </trkpt>
      <trkpt lat="46.50344" lon="6.14459">
        <ele>1504.6</ele>
        <time>2022-07-12T10:48:56Z</time>
      </trkpt>
      <trkpt lat="46.50345" lon="6.14466">
        <ele>1505.9</ele>
        <time>2022-07-12T10:49:03Z</time>
      </trkpt>
      <trkpt lat="46.50347" lon="6.14474">
        <ele>1507.9</ele>
        <time>2022-07-12T10:49:12Z</time>
      </trkpt>
      <trkpt lat="46.50346" lon="6.1448">
        <ele>1508.7</ele>
        <time>2022-07-12T10:49:17Z</time>
      </trkpt>
      <trkpt lat="46.50344" lon="6.14487">
        <ele>1509.4</ele>
        <time>2022-07-12T10:49:23Z</time>
      </trkpt>
      <trkpt lat="46.5034" lon="6.14492">
        <ele>1509.8</ele>
        <time>2022-07-12T10:49:29Z</time>
      </trkpt>
      <trkpt lat="46.50338" lon="6.14498">
        <ele>1510.1</ele>
        <time>2022-07-12T10:49:35Z</time>
      </trkpt>
      <trkpt lat="46.50335" lon="6.14503">
        <ele>1511</ele>
        <time>2022-07-12T10:49:44Z</time>
      </trkpt>
      <trkpt lat="46.50333" lon="6.1451">
        <ele>1510.5</ele>
        <time>2022-07-12T10:49:49Z</time>
      </trkpt>
      <trkpt lat="46.50334" lon="6.14518">
        <ele>1508.2</ele>
        <time>2022-07-12T10:49:54Z</time>
      </trkpt>
      <trkpt lat="46.50337" lon="6.14525">
        <ele>1505.9</ele>
        <time>2022-07-12T10:49:59Z</time>
      </trkpt>
      <trkpt lat="46.50339" lon="6.14533">
        <ele>1505.1</ele>
        <time>2022-07-12T10:50:03Z</time>
      </trkpt>
      <trkpt lat="46.50338" lon="6.14541">
        <ele>1505.5</ele>
        <time>2022-07-12T10:50:08Z</time>
      </trkpt>
      <trkpt lat="46.50336" lon="6.14548">
        <ele>1506</ele>
        <time>2022-07-12T10:50:13Z</time>
      </trkpt>
      <trkpt lat="46.50334" lon="6.14555">
        <ele>1506.4</ele>
        <time>2022-07-12T10:50:17Z</time>
      </trkpt>
      <trkpt lat="46.50332" lon="6.14562">
        <ele>1506.5</ele>
        <time>2022-07-12T10:50:21Z</time>
      </trkpt>
      <trkpt lat="46.50332" lon="6.14568">
        <ele>1506</ele>
        <time>2022-07-12T10:50:28Z</time>
      </trkpt>
      <trkpt lat="46.50335" lon="6.14579">
        <ele>1505.7</ele>
        <time>2022-07-12T10:50:44Z</time>
      </trkpt>
      <trkpt lat="46.50337" lon="6.14585">
        <ele>1505.5</ele>
        <time>2022-07-12T10:50:47Z</time>
      </trkpt>
      <trkpt lat="46.50337" lon="6.14593">
        <ele>1504.2</ele>
        <time>2022-07-12T10:50:53Z</time>
      </trkpt>
      <trkpt lat="46.50336" lon="6.14601">
        <ele>1502.8</ele>
        <time>2022-07-12T10:50:58Z</time>
      </trkpt>
      <trkpt lat="46.50334" lon="6.14607">
        <ele>1501.2</ele>
        <time>2022-07-12T10:51:04Z</time>
      </trkpt>
      <trkpt lat="46.50333" lon="6.14614">
        <ele>1499.2</ele>
        <time>2022-07-12T10:51:11Z</time>
      </trkpt>
      <trkpt lat="46.50335" lon="6.14621">
        <ele>1497.7</ele>
        <time>2022-07-12T10:51:15Z</time>
      </trkpt>
      <trkpt lat="46.50333" lon="6.14628">
        <ele>1496.2</ele>
        <time>2022-07-12T10:51:19Z</time>
      </trkpt>
      <trkpt lat="46.50331" lon="6.14634">
        <ele>1495.3</ele>
        <time>2022-07-12T10:51:23Z</time>
      </trkpt>
      <trkpt lat="46.50328" lon="6.14641">
        <ele>1494.6</ele>
        <time>2022-07-12T10:51:29Z</time>
      </trkpt>
      <trkpt lat="46.50325" lon="6.14646">
        <ele>1493.8</ele>
        <time>2022-07-12T10:51:35Z</time>
      </trkpt>
      <trkpt lat="46.50324" lon="6.14653">
        <ele>1492.7</ele>
        <time>2022-07-12T10:51:40Z</time>
      </trkpt>
      <trkpt lat="46.50326" lon="6.1466">
        <ele>1492.1</ele>
        <time>2022-07-12T10:51:44Z</time>
      </trkpt>
      <trkpt lat="46.50326" lon="6.14667">
        <ele>1492</ele>
        <time>2022-07-12T10:51:51Z</time>
      </trkpt>
      <trkpt lat="46.50326" lon="6.14674">
        <ele>1492.5</ele>
        <time>2022-07-12T10:51:56Z</time>
      </trkpt>
      <trkpt lat="46.50322" lon="6.1468">
        <ele>1493.3</ele>
        <time>2022-07-12T10:52:00Z</time>
      </trkpt>
      <trkpt lat="46.5032" lon="6.14687">
        <ele>1494</ele>
        <time>2022-07-12T10:52:05Z</time>
      </trkpt>
      <trkpt lat="46.50318" lon="6.14693">
        <ele>1493.9</ele>
        <time>2022-07-12T10:52:10Z</time>
      </trkpt>
      <trkpt lat="46.50316" lon="6.14699">
        <ele>1493.6</ele>
        <time>2022-07-12T10:52:14Z</time>
      </trkpt>
      <trkpt lat="46.50314" lon="6.14705">
        <ele>1493.9</ele>
        <time>2022-07-12T10:52:18Z</time>
      </trkpt>
      <trkpt lat="46.5031" lon="6.14709">
        <ele>1495.4</ele>
        <time>2022-07-12T10:52:24Z</time>
      </trkpt>
      <trkpt lat="46.50307" lon="6.14714">
        <ele>1495.3</ele>
        <time>2022-07-12T10:52:29Z</time>
      </trkpt>
      <trkpt lat="46.50307" lon="6.14721">
        <ele>1494.2</ele>
        <time>2022-07-12T10:52:35Z</time>
      </trkpt>
      <trkpt lat="46.50309" lon="6.14728">
        <ele>1494.2</ele>
        <time>2022-07-12T10:52:39Z</time>
      </trkpt>
      <trkpt lat="46.50309" lon="6.14737">
        <ele>1494.6</ele>
        <time>2022-07-12T10:52:43Z</time>
      </trkpt>
      <trkpt lat="46.50309" lon="6.14745">
        <ele>1494.6</ele>
        <time>2022-07-12T10:52:46Z</time>
      </trkpt>
      <trkpt lat="46.50308" lon="6.14752">
        <ele>1495</ele>
        <time>2022-07-12T10:52:49Z</time>
      </trkpt>
      <trkpt lat="46.50306" lon="6.14758">
        <ele>1495.6</ele>
        <time>2022-07-12T10:52:53Z</time>
      </trkpt>
      <trkpt lat="46.50307" lon="6.14765">
        <ele>1495.1</ele>
        <time>2022-07-12T10:52:58Z</time>
      </trkpt>
      <trkpt lat="46.50305" lon="6.14772">
        <ele>1495</ele>
        <time>2022-07-12T10:53:03Z</time>
      </trkpt>
      <trkpt lat="46.50303" lon="6.14779">
        <ele>1495</ele>
        <time>2022-07-12T10:53:07Z</time>
      </trkpt>
      <trkpt lat="46.50302" lon="6.14787">
        <ele>1494.9</ele>
        <time>2022-07-12T10:53:11Z</time>
      </trkpt>
      <trkpt lat="46.50303" lon="6.14794">
        <ele>1494.2</ele>
        <time>2022-07-12T10:53:15Z</time>
      </trkpt>
      <trkpt lat="46.50302" lon="6.148">
        <ele>1493.5</ele>
        <time>2022-07-12T10:53:20Z</time>
      </trkpt>
      <trkpt lat="46.503" lon="6.14807">
        <ele>1492.4</ele>
        <time>2022-07-12T10:53:28Z</time>
      </trkpt>
      <trkpt lat="46.50296" lon="6.14808">
        <ele>1491.2</ele>
        <time>2022-07-12T10:53:37Z</time>
      </trkpt>
      <trkpt lat="46.50293" lon="6.14815">
        <ele>1490</ele>
        <time>2022-07-12T10:53:42Z</time>
      </trkpt>
      <trkpt lat="46.5029" lon="6.14821">
        <ele>1488.9</ele>
        <time>2022-07-12T10:53:47Z</time>
      </trkpt>
      <trkpt lat="46.50288" lon="6.14828">
        <ele>1488.3</ele>
        <time>2022-07-12T10:53:52Z</time>
      </trkpt>
      <trkpt lat="46.50287" lon="6.14836">
        <ele>1487.6</ele>
        <time>2022-07-12T10:53:58Z</time>
      </trkpt>
      <trkpt lat="46.50288" lon="6.14842">
        <ele>1486.6</ele>
        <time>2022-07-12T10:54:04Z</time>
      </trkpt>
      <trkpt lat="46.5029" lon="6.14849">
        <ele>1486.5</ele>
        <time>2022-07-12T10:54:10Z</time>
      </trkpt>
      <trkpt lat="46.50289" lon="6.14856">
        <ele>1486.1</ele>
        <time>2022-07-12T10:54:17Z</time>
      </trkpt>
      <trkpt lat="46.50288" lon="6.14863">
        <ele>1485</ele>
        <time>2022-07-12T10:54:23Z</time>
      </trkpt>
      <trkpt lat="46.50287" lon="6.1487">
        <ele>1484.3</ele>
        <time>2022-07-12T10:54:28Z</time>
      </trkpt>
      <trkpt lat="46.50284" lon="6.14875">
        <ele>1483.7</ele>
        <time>2022-07-12T10:54:33Z</time>
      </trkpt>
      <trkpt lat="46.50282" lon="6.14881">
        <ele>1483</ele>
        <time>2022-07-12T10:54:38Z</time>
      </trkpt>
      <trkpt lat="46.50279" lon="6.14888">
        <ele>1482.5</ele>
        <time>2022-07-12T10:54:42Z</time>
      </trkpt>
      <trkpt lat="46.50278" lon="6.14895">
        <ele>1482</ele>
        <time>2022-07-12T10:54:47Z</time>
      </trkpt>
      <trkpt lat="46.50275" lon="6.14901">
        <ele>1481.5</ele>
        <time>2022-07-12T10:54:53Z</time>
      </trkpt>
      <trkpt lat="46.50273" lon="6.14906">
        <ele>1481.2</ele>
        <time>2022-07-12T10:54:58Z</time>
      </trkpt>
      <trkpt lat="46.5027" lon="6.14914">
        <ele>1480.3</ele>
        <time>2022-07-12T10:55:03Z</time>
      </trkpt>
      <trkpt lat="46.50266" lon="6.14916">
        <ele>1481.5</ele>
        <time>2022-07-12T10:55:13Z</time>
      </trkpt>
      <trkpt lat="46.50268" lon="6.14924">
        <ele>1479.6</ele>
        <time>2022-07-12T10:55:28Z</time>
      </trkpt>
      <trkpt lat="46.50266" lon="6.14932">
        <ele>1479.1</ele>
        <time>2022-07-12T10:55:32Z</time>
      </trkpt>
      <trkpt lat="46.50265" lon="6.14938">
        <ele>1478.8</ele>
        <time>2022-07-12T10:55:35Z</time>
      </trkpt>
      <trkpt lat="46.50265" lon="6.14946">
        <ele>1477.8</ele>
        <time>2022-07-12T10:55:41Z</time>
      </trkpt>
      <trkpt lat="46.50264" lon="6.14953">
        <ele>1477.1</ele>
        <time>2022-07-12T10:55:46Z</time>
      </trkpt>
      <trkpt lat="46.50262" lon="6.1496">
        <ele>1477.3</ele>
        <time>2022-07-12T10:55:52Z</time>
      </trkpt>
      <trkpt lat="46.50259" lon="6.14966">
        <ele>1477.9</ele>
        <time>2022-07-12T10:55:56Z</time>
      </trkpt>
      <trkpt lat="46.50255" lon="6.14972">
        <ele>1479</ele>
        <time>2022-07-12T10:56:00Z</time>
      </trkpt>
      <trkpt lat="46.50254" lon="6.14979">
        <ele>1479.8</ele>
        <time>2022-07-12T10:56:03Z</time>
      </trkpt>
      <trkpt lat="46.50254" lon="6.14986">
        <ele>1480.6</ele>
        <time>2022-07-12T10:56:06Z</time>
      </trkpt>
      <trkpt lat="46.50254" lon="6.14994">
        <ele>1481.6</ele>
        <time>2022-07-12T10:56:10Z</time>
      </trkpt>
      <trkpt lat="46.50257" lon="6.15">
        <ele>1481.9</ele>
        <time>2022-07-12T10:56:15Z</time>
      </trkpt>
      <trkpt lat="46.50261" lon="6.15005">
        <ele>1481.4</ele>
        <time>2022-07-12T10:56:19Z</time>
      </trkpt>
      <trkpt lat="46.50261" lon="6.15014">
        <ele>1481</ele>
        <time>2022-07-12T10:56:23Z</time>
      </trkpt>
      <trkpt lat="46.50263" lon="6.1502">
        <ele>1480.1</ele>
        <time>2022-07-12T10:56:29Z</time>
      </trkpt>
      <trkpt lat="46.50261" lon="6.15025">
        <ele>1477.3</ele>
        <time>2022-07-12T10:56:39Z</time>
      </trkpt>
      <trkpt lat="46.50261" lon="6.15032">
        <ele>1471.7</ele>
        <time>2022-07-12T10:56:49Z</time>
      </trkpt>
      <trkpt lat="46.5026" lon="6.15038">
        <ele>1469.8</ele>
        <time>2022-07-12T10:56:54Z</time>
      </trkpt>
      <trkpt lat="46.5026" lon="6.15045">
        <ele>1469.3</ele>
        <time>2022-07-12T10:56:57Z</time>
      </trkpt>
      <trkpt lat="46.50261" lon="6.15053">
        <ele>1470.6</ele>
        <time>2022-07-12T10:57:02Z</time>
      </trkpt>
      <trkpt lat="46.50264" lon="6.1506">
        <ele>1472.6</ele>
        <time>2022-07-12T10:57:06Z</time>
      </trkpt>
      <trkpt lat="46.50267" lon="6.15066">
        <ele>1474.2</ele>
        <time>2022-07-12T10:57:10Z</time>
      </trkpt>
      <trkpt lat="46.50269" lon="6.15074">
        <ele>1476.1</ele>
        <time>2022-07-12T10:57:14Z</time>
      </trkpt>
      <trkpt lat="46.50274" lon="6.15075">
        <ele>1478.1</ele>
        <time>2022-07-12T10:57:20Z</time>
      </trkpt>
      <trkpt lat="46.50279" lon="6.15076">
        <ele>1478.1</ele>
        <time>2022-07-12T10:57:28Z</time>
      </trkpt>
      <trkpt lat="46.50283" lon="6.15079">
        <ele>1477.3</ele>
        <time>2022-07-12T10:57:35Z</time>
      </trkpt>
      <trkpt lat="46.50287" lon="6.15082">
        <ele>1476.9</ele>
        <time>2022-07-12T10:57:40Z</time>
      </trkpt>
      <trkpt lat="46.50291" lon="6.15086">
        <ele>1476.9</ele>
        <time>2022-07-12T10:57:44Z</time>
      </trkpt>
      <trkpt lat="46.50295" lon="6.15091">
        <ele>1475.7</ele>
        <time>2022-07-12T10:57:50Z</time>
      </trkpt>
      <trkpt lat="46.50297" lon="6.15099">
        <ele>1474.8</ele>
        <time>2022-07-12T10:57:55Z</time>
      </trkpt>
      <trkpt lat="46.50298" lon="6.15105">
        <ele>1474.1</ele>
        <time>2022-07-12T10:57:59Z</time>
      </trkpt>
      <trkpt lat="46.50301" lon="6.15111">
        <ele>1473.6</ele>
        <time>2022-07-12T10:58:03Z</time>
      </trkpt>
      <trkpt lat="46.50304" lon="6.15117">
        <ele>1472.2</ele>
        <time>2022-07-12T10:58:09Z</time>
      </trkpt>
      <trkpt lat="46.50307" lon="6.15122">
        <ele>1471.3</ele>
        <time>2022-07-12T10:58:14Z</time>
      </trkpt>
      <trkpt lat="46.5031" lon="6.15127">
        <ele>1470.5</ele>
        <time>2022-07-12T10:58:19Z</time>
      </trkpt>
      <trkpt lat="46.50312" lon="6.15134">
        <ele>1469.8</ele>
        <time>2022-07-12T10:58:24Z</time>
      </trkpt>
      <trkpt lat="46.50314" lon="6.15141">
        <ele>1468.7</ele>
        <time>2022-07-12T10:58:30Z</time>
      </trkpt>
      <trkpt lat="46.50314" lon="6.15148">
        <ele>1465.8</ele>
        <time>2022-07-12T10:58:37Z</time>
      </trkpt>
      <trkpt lat="46.50315" lon="6.15155">
        <ele>1462.5</ele>
        <time>2022-07-12T10:58:42Z</time>
      </trkpt>
      <trkpt lat="46.50318" lon="6.15161">
        <ele>1460.4</ele>
        <time>2022-07-12T10:58:47Z</time>
      </trkpt>
      <trkpt lat="46.5032" lon="6.15168">
        <ele>1459</ele>
        <time>2022-07-12T10:58:53Z</time>
      </trkpt>
      <trkpt lat="46.50324" lon="6.15172">
        <ele>1459.5</ele>
        <time>2022-07-12T10:58:57Z</time>
      </trkpt>
      <trkpt lat="46.50327" lon="6.15179">
        <ele>1460.9</ele>
        <time>2022-07-12T10:59:02Z</time>
      </trkpt>
      <trkpt lat="46.50331" lon="6.15184">
        <ele>1463.6</ele>
        <time>2022-07-12T10:59:07Z</time>
      </trkpt>
      <trkpt lat="46.50336" lon="6.15188">
        <ele>1466.5</ele>
        <time>2022-07-12T10:59:12Z</time>
      </trkpt>
      <trkpt lat="46.5034" lon="6.15192">
        <ele>1468.5</ele>
        <time>2022-07-12T10:59:16Z</time>
      </trkpt>
      <trkpt lat="46.50344" lon="6.15195">
        <ele>1470.3</ele>
        <time>2022-07-12T10:59:20Z</time>
      </trkpt>
      <trkpt lat="46.50348" lon="6.152">
        <ele>1472.2</ele>
        <time>2022-07-12T10:59:25Z</time>
      </trkpt>
      <trkpt lat="46.50351" lon="6.15205">
        <ele>1474</ele>
        <time>2022-07-12T10:59:30Z</time>
      </trkpt>
      <trkpt lat="46.50355" lon="6.1521">
        <ele>1475.4</ele>
        <time>2022-07-12T10:59:36Z</time>
      </trkpt>
      <trkpt lat="46.50358" lon="6.15216">
        <ele>1476.2</ele>
        <time>2022-07-12T10:59:41Z</time>
      </trkpt>
      <trkpt lat="46.50361" lon="6.15222">
        <ele>1477.3</ele>
        <time>2022-07-12T10:59:45Z</time>
      </trkpt>
      <trkpt lat="46.50363" lon="6.15228">
        <ele>1477.5</ele>
        <time>2022-07-12T10:59:55Z</time>
      </trkpt>
      <trkpt lat="46.50366" lon="6.15234">
        <ele>1477.2</ele>
        <time>2022-07-12T10:59:59Z</time>
      </trkpt>
      <trkpt lat="46.5037" lon="6.15238">
        <ele>1476.9</ele>
        <time>2022-07-12T11:00:03Z</time>
      </trkpt>
      <trkpt lat="46.50373" lon="6.15245">
        <ele>1476.8</ele>
        <time>2022-07-12T11:00:07Z</time>
      </trkpt>
      <trkpt lat="46.50376" lon="6.15251">
        <ele>1475.8</ele>
        <time>2022-07-12T11:00:13Z</time>
      </trkpt>
      <trkpt lat="46.50379" lon="6.15258">
        <ele>1474</ele>
        <time>2022-07-12T11:00:21Z</time>
      </trkpt>
      <trkpt lat="46.5038" lon="6.15264">
        <ele>1473.6</ele>
        <time>2022-07-12T11:00:26Z</time>
      </trkpt>
      <trkpt lat="46.50383" lon="6.15271">
        <ele>1473.9</ele>
        <time>2022-07-12T11:00:31Z</time>
      </trkpt>
      <trkpt lat="46.50388" lon="6.15275">
        <ele>1475</ele>
        <time>2022-07-12T11:00:36Z</time>
      </trkpt>
      <trkpt lat="46.50393" lon="6.15276">
        <ele>1475.5</ele>
        <time>2022-07-12T11:00:39Z</time>
      </trkpt>
      <trkpt lat="46.50398" lon="6.15277">
        <ele>1476</ele>
        <time>2022-07-12T11:00:42Z</time>
      </trkpt>
      <trkpt lat="46.50403" lon="6.15276">
        <ele>1476.8</ele>
        <time>2022-07-12T11:00:47Z</time>
      </trkpt>
      <trkpt lat="46.50408" lon="6.15272">
        <ele>1477.3</ele>
        <time>2022-07-12T11:00:52Z</time>
      </trkpt>
      <trkpt lat="46.50413" lon="6.15271">
        <ele>1477</ele>
        <time>2022-07-12T11:00:57Z</time>
      </trkpt>
      <trkpt lat="46.50411" lon="6.15277">
        <ele>1474.6</ele>
        <time>2022-07-12T11:01:11Z</time>
      </trkpt>
      <trkpt lat="46.50408" lon="6.15272">
        <ele>1473</ele>
        <time>2022-07-12T11:01:38Z</time>
      </trkpt>
      <trkpt lat="46.50406" lon="6.15278">
        <ele>1472.2</ele>
        <time>2022-07-12T11:01:45Z</time>
      </trkpt>
      <trkpt lat="46.50405" lon="6.15285">
        <ele>1471.3</ele>
        <time>2022-07-12T11:01:50Z</time>
      </trkpt>
      <trkpt lat="46.50401" lon="6.15288">
        <ele>1469.4</ele>
        <time>2022-07-12T11:02:02Z</time>
      </trkpt>
      <trkpt lat="46.50398" lon="6.15295">
        <ele>1468.8</ele>
        <time>2022-07-12T11:02:09Z</time>
      </trkpt>
      <trkpt lat="46.50396" lon="6.15301">
        <ele>1468.7</ele>
        <time>2022-07-12T11:02:15Z</time>
      </trkpt>
      <trkpt lat="46.50392" lon="6.15306">
        <ele>1468.3</ele>
        <time>2022-07-12T11:02:20Z</time>
      </trkpt>
      <trkpt lat="46.50392" lon="6.15314">
        <ele>1466.2</ele>
        <time>2022-07-12T11:02:28Z</time>
      </trkpt>
      <trkpt lat="46.50391" lon="6.15321">
        <ele>1465</ele>
        <time>2022-07-12T11:02:33Z</time>
      </trkpt>
      <trkpt lat="46.50392" lon="6.15328">
        <ele>1463.8</ele>
        <time>2022-07-12T11:02:39Z</time>
      </trkpt>
      <trkpt lat="46.50397" lon="6.15331">
        <ele>1464.8</ele>
        <time>2022-07-12T11:02:54Z</time>
      </trkpt>
      <trkpt lat="46.50397" lon="6.15338">
        <ele>1465</ele>
        <time>2022-07-12T11:02:59Z</time>
      </trkpt>
      <trkpt lat="46.50397" lon="6.15345">
        <ele>1465</ele>
        <time>2022-07-12T11:03:03Z</time>
      </trkpt>
      <trkpt lat="46.50398" lon="6.15353">
        <ele>1464.9</ele>
        <time>2022-07-12T11:03:08Z</time>
      </trkpt>
      <trkpt lat="46.50399" lon="6.1536">
        <ele>1464.6</ele>
        <time>2022-07-12T11:03:14Z</time>
      </trkpt>
      <trkpt lat="46.50399" lon="6.15367">
        <ele>1463.6</ele>
        <time>2022-07-12T11:03:20Z</time>
      </trkpt>
      <trkpt lat="46.50399" lon="6.15374">
        <ele>1463.1</ele>
        <time>2022-07-12T11:03:28Z</time>
      </trkpt>
      <trkpt lat="46.50397" lon="6.15381">
        <ele>1463.5</ele>
        <time>2022-07-12T11:03:35Z</time>
      </trkpt>
      <trkpt lat="46.50397" lon="6.15388">
        <ele>1464</ele>
        <time>2022-07-12T11:03:42Z</time>
      </trkpt>
      <trkpt lat="46.504" lon="6.15394">
        <ele>1464.5</ele>
        <time>2022-07-12T11:03:48Z</time>
      </trkpt>
      <trkpt lat="46.504" lon="6.15401">
        <ele>1465</ele>
        <time>2022-07-12T11:03:56Z</time>
      </trkpt>
      <trkpt lat="46.50403" lon="6.15407">
        <ele>1465.4</ele>
        <time>2022-07-12T11:04:02Z</time>
      </trkpt>
      <trkpt lat="46.50406" lon="6.15413">
        <ele>1465.9</ele>
        <time>2022-07-12T11:04:07Z</time>
      </trkpt>
      <trkpt lat="46.50407" lon="6.15419">
        <ele>1465.9</ele>
        <time>2022-07-12T11:04:12Z</time>
      </trkpt>
      <trkpt lat="46.5041" lon="6.15425">
        <ele>1465.7</ele>
        <time>2022-07-12T11:04:18Z</time>
      </trkpt>
      <trkpt lat="46.5041" lon="6.15433">
        <ele>1465.4</ele>
        <time>2022-07-12T11:04:25Z</time>
      </trkpt>
      <trkpt lat="46.50411" lon="6.1544">
        <ele>1465.3</ele>
        <time>2022-07-12T11:04:33Z</time>
      </trkpt>
      <trkpt lat="46.50413" lon="6.15446">
        <ele>1465.5</ele>
        <time>2022-07-12T11:04:37Z</time>
      </trkpt>
      <trkpt lat="46.50414" lon="6.15453">
        <ele>1465.9</ele>
        <time>2022-07-12T11:04:42Z</time>
      </trkpt>
      <trkpt lat="46.50413" lon="6.15461">
        <ele>1467</ele>
        <time>2022-07-12T11:04:49Z</time>
      </trkpt>
      <trkpt lat="46.50413" lon="6.15468">
        <ele>1469.2</ele>
        <time>2022-07-12T11:04:56Z</time>
      </trkpt>
      <trkpt lat="46.50411" lon="6.15475">
        <ele>1471.6</ele>
        <time>2022-07-12T11:05:04Z</time>
      </trkpt>
      <trkpt lat="46.5041" lon="6.15481">
        <ele>1472.4</ele>
        <time>2022-07-12T11:05:12Z</time>
      </trkpt>
      <trkpt lat="46.50408" lon="6.15487">
        <ele>1472.7</ele>
        <time>2022-07-12T11:05:20Z</time>
      </trkpt>
      <trkpt lat="46.50405" lon="6.15493">
        <ele>1474.1</ele>
        <time>2022-07-12T11:05:30Z</time>
      </trkpt>
      <trkpt lat="46.50404" lon="6.155">
        <ele>1475.3</ele>
        <time>2022-07-12T11:05:35Z</time>
      </trkpt>
      <trkpt lat="46.50403" lon="6.15507">
        <ele>1477.4</ele>
        <time>2022-07-12T11:05:41Z</time>
      </trkpt>
      <trkpt lat="46.50402" lon="6.15514">
        <ele>1484.3</ele>
        <time>2022-07-12T11:06:05Z</time>
      </trkpt>
      <trkpt lat="46.504" lon="6.1552">
        <ele>1486.7</ele>
        <time>2022-07-12T11:06:10Z</time>
      </trkpt>
      <trkpt lat="46.50397" lon="6.15525">
        <ele>1487.6</ele>
        <time>2022-07-12T11:06:14Z</time>
      </trkpt>
      <trkpt lat="46.50392" lon="6.15526">
        <ele>1487.7</ele>
        <time>2022-07-12T11:06:19Z</time>
      </trkpt>
      <trkpt lat="46.50388" lon="6.15528">
        <ele>1487.7</ele>
        <time>2022-07-12T11:06:23Z</time>
      </trkpt>
      <trkpt lat="46.50384" lon="6.15531">
        <ele>1487.7</ele>
        <time>2022-07-12T11:06:28Z</time>
      </trkpt>
      <trkpt lat="46.50379" lon="6.15534">
        <ele>1487.8</ele>
        <time>2022-07-12T11:06:33Z</time>
      </trkpt>
      <trkpt lat="46.50375" lon="6.15535">
        <ele>1487.6</ele>
        <time>2022-07-12T11:06:38Z</time>
      </trkpt>
      <trkpt lat="46.5037" lon="6.15535">
        <ele>1487.6</ele>
        <time>2022-07-12T11:06:43Z</time>
      </trkpt>
      <trkpt lat="46.50365" lon="6.15538">
        <ele>1487.9</ele>
        <time>2022-07-12T11:06:46Z</time>
      </trkpt>
      <trkpt lat="46.5036" lon="6.1554">
        <ele>1488.1</ele>
        <time>2022-07-12T11:06:49Z</time>
      </trkpt>
      <trkpt lat="46.50355" lon="6.15537">
        <ele>1488.3</ele>
        <time>2022-07-12T11:06:57Z</time>
      </trkpt>
      <trkpt lat="46.50356" lon="6.15544">
        <ele>1486.3</ele>
        <time>2022-07-12T11:07:04Z</time>
      </trkpt>
      <trkpt lat="46.50359" lon="6.1555">
        <ele>1483.9</ele>
        <time>2022-07-12T11:07:11Z</time>
      </trkpt>
      <trkpt lat="46.50361" lon="6.15555">
        <ele>1483</ele>
        <time>2022-07-12T11:07:15Z</time>
      </trkpt>
      <trkpt lat="46.5036" lon="6.15563">
        <ele>1482.9</ele>
        <time>2022-07-12T11:07:20Z</time>
      </trkpt>
      <trkpt lat="46.50358" lon="6.15569">
        <ele>1482.7</ele>
        <time>2022-07-12T11:07:24Z</time>
      </trkpt>
      <trkpt lat="46.50354" lon="6.15574">
        <ele>1483.9</ele>
        <time>2022-07-12T11:07:33Z</time>
      </trkpt>
      <trkpt lat="46.50354" lon="6.15581">
        <ele>1485.1</ele>
        <time>2022-07-12T11:07:40Z</time>
      </trkpt>
      <trkpt lat="46.50351" lon="6.15587">
        <ele>1486.3</ele>
        <time>2022-07-12T11:07:46Z</time>
      </trkpt>
      <trkpt lat="46.50348" lon="6.15593">
        <ele>1487.7</ele>
        <time>2022-07-12T11:07:53Z</time>
      </trkpt>
      <trkpt lat="46.50345" lon="6.15598">
        <ele>1488.3</ele>
        <time>2022-07-12T11:07:59Z</time>
      </trkpt>
      <trkpt lat="46.50342" lon="6.15603">
        <ele>1488.5</ele>
        <time>2022-07-12T11:08:04Z</time>
      </trkpt>
      <trkpt lat="46.50338" lon="6.15606">
        <ele>1488.7</ele>
        <time>2022-07-12T11:08:11Z</time>
      </trkpt>
      <trkpt lat="46.50333" lon="6.15608">
        <ele>1488.7</ele>
        <time>2022-07-12T11:08:17Z</time>
      </trkpt>
      <trkpt lat="46.50334" lon="6.15615">
        <ele>1488.5</ele>
        <time>2022-07-12T11:08:23Z</time>
      </trkpt>
      <trkpt lat="46.50336" lon="6.15622">
        <ele>1488.8</ele>
        <time>2022-07-12T11:08:29Z</time>
      </trkpt>
      <trkpt lat="46.50338" lon="6.15628">
        <ele>1489</ele>
        <time>2022-07-12T11:08:35Z</time>
      </trkpt>
      <trkpt lat="46.5034" lon="6.15634">
        <ele>1488.9</ele>
        <time>2022-07-12T11:08:43Z</time>
      </trkpt>
      <trkpt lat="46.50337" lon="6.15639">
        <ele>1490.2</ele>
        <time>2022-07-12T11:08:52Z</time>
      </trkpt>
      <trkpt lat="46.50333" lon="6.15637">
        <ele>1493.5</ele>
        <time>2022-07-12T11:09:05Z</time>
      </trkpt>
      <trkpt lat="46.50329" lon="6.15641">
        <ele>1495.4</ele>
        <time>2022-07-12T11:09:13Z</time>
      </trkpt>
      <trkpt lat="46.50324" lon="6.15642">
        <ele>1496.4</ele>
        <time>2022-07-12T11:09:20Z</time>
      </trkpt>
      <trkpt lat="46.5032" lon="6.15641">
        <ele>1496.6</ele>
        <time>2022-07-12T11:09:26Z</time>
      </trkpt>
      <trkpt lat="46.50314" lon="6.15641">
        <ele>1497.1</ele>
        <time>2022-07-12T11:09:33Z</time>
      </trkpt>
      <trkpt lat="46.50309" lon="6.15643">
        <ele>1498.2</ele>
        <time>2022-07-12T11:09:39Z</time>
      </trkpt>
      <trkpt lat="46.50304" lon="6.15644">
        <ele>1500.9</ele>
        <time>2022-07-12T11:09:56Z</time>
      </trkpt>
      <trkpt lat="46.50299" lon="6.15645">
        <ele>1501.5</ele>
        <time>2022-07-12T11:10:01Z</time>
      </trkpt>
      <trkpt lat="46.50294" lon="6.15643">
        <ele>1501.8</ele>
        <time>2022-07-12T11:10:06Z</time>
      </trkpt>
      <trkpt lat="46.5029" lon="6.15646">
        <ele>1502.6</ele>
        <time>2022-07-12T11:10:14Z</time>
      </trkpt>
      <trkpt lat="46.50285" lon="6.15646">
        <ele>1503.6</ele>
        <time>2022-07-12T11:10:23Z</time>
      </trkpt>
      <trkpt lat="46.50281" lon="6.15644">
        <ele>1504.3</ele>
        <time>2022-07-12T11:10:30Z</time>
      </trkpt>
      <trkpt lat="46.50276" lon="6.15642">
        <ele>1506.5</ele>
        <time>2022-07-12T11:11:38Z</time>
      </trkpt>
      <trkpt lat="46.50277" lon="6.15649">
        <ele>1507</ele>
        <time>2022-07-12T11:12:01Z</time>
      </trkpt>
      <trkpt lat="46.50275" lon="6.15655">
        <ele>1507.5</ele>
        <time>2022-07-12T11:12:13Z</time>
      </trkpt>
      <trkpt lat="46.50279" lon="6.15652">
        <ele>1507.6</ele>
        <time>2022-07-12T11:13:20Z</time>
      </trkpt>
      <trkpt lat="46.50282" lon="6.15646">
        <ele>1508.8</ele>
        <time>2022-07-12T11:13:46Z</time>
      </trkpt>
      <trkpt lat="46.50288" lon="6.15646">
        <ele>1509.4</ele>
        <time>2022-07-12T11:13:51Z</time>
      </trkpt>
      <trkpt lat="46.50293" lon="6.15645">
        <ele>1509.3</ele>
        <time>2022-07-12T11:13:56Z</time>
      </trkpt>
      <trkpt lat="46.50297" lon="6.15643">
        <ele>1508.2</ele>
        <time>2022-07-12T11:14:02Z</time>
      </trkpt>
      <trkpt lat="46.50302" lon="6.15644">
        <ele>1506.1</ele>
        <time>2022-07-12T11:14:22Z</time>
      </trkpt>
      <trkpt lat="46.50306" lon="6.15642">
        <ele>1506.2</ele>
        <time>2022-07-12T11:14:27Z</time>
      </trkpt>
      <trkpt lat="46.50312" lon="6.15641">
        <ele>1506.2</ele>
        <time>2022-07-12T11:14:32Z</time>
      </trkpt>
      <trkpt lat="46.50317" lon="6.15642">
        <ele>1506.3</ele>
        <time>2022-07-12T11:14:37Z</time>
      </trkpt>
      <trkpt lat="46.50317" lon="6.15648">
        <ele>1505.8</ele>
        <time>2022-07-12T11:14:44Z</time>
      </trkpt>
      <trkpt lat="46.5032" lon="6.15653">
        <ele>1504.6</ele>
        <time>2022-07-12T11:14:56Z</time>
      </trkpt>
      <trkpt lat="46.50326" lon="6.15645">
        <ele>1503.1</ele>
        <time>2022-07-12T11:18:11Z</time>
      </trkpt>
      <trkpt lat="46.5033" lon="6.15644">
        <ele>1507.5</ele>
        <time>2022-07-12T11:18:20Z</time>
      </trkpt>
      <trkpt lat="46.50325" lon="6.15644">
        <ele>1508.3</ele>
        <time>2022-07-12T11:19:05Z</time>
      </trkpt>
      <trkpt lat="46.50321" lon="6.15647">
        <ele>1506.8</ele>
        <time>2022-07-12T11:23:10Z</time>
      </trkpt>
      <trkpt lat="46.50326" lon="6.15645">
        <ele>1506.5</ele>
        <time>2022-07-12T11:26:02Z</time>
      </trkpt>
      <trkpt lat="46.5033" lon="6.15642">
        <ele>1508.6</ele>
        <time>2022-07-12T11:34:45Z</time>
      </trkpt>
      <trkpt lat="46.50326" lon="6.15646">
        <ele>1505.6</ele>
        <time>2022-07-12T11:36:58Z</time>
      </trkpt>
      <trkpt lat="46.50322" lon="6.15643">
        <ele>1501.1</ele>
        <time>2022-07-12T11:49:14Z</time>
      </trkpt>
      <trkpt lat="46.50328" lon="6.15646">
        <ele>1504.7</ele>
        <time>2022-07-12T11:50:35Z</time>
      </trkpt>
      <trkpt lat="46.50324" lon="6.15643">
        <ele>1504.4</ele>
        <time>2022-07-12T11:51:08Z</time>
      </trkpt>
      <trkpt lat="46.50319" lon="6.15641">
        <ele>1500</ele>
        <time>2022-07-12T11:52:15Z</time>
      </trkpt>
      <trkpt lat="46.50314" lon="6.15645">
        <ele>1498</ele>
        <time>2022-07-12T11:52:20Z</time>
      </trkpt>
      <trkpt lat="46.50311" lon="6.15651">
        <ele>1495.9</ele>
        <time>2022-07-12T11:52:25Z</time>
      </trkpt>
      <trkpt lat="46.50309" lon="6.15657">
        <ele>1493.8</ele>
        <time>2022-07-12T11:52:32Z</time>
      </trkpt>
      <trkpt lat="46.50305" lon="6.15654">
        <ele>1493</ele>
        <time>2022-07-12T11:52:38Z</time>
      </trkpt>
      <trkpt lat="46.50302" lon="6.15649">
        <ele>1493.1</ele>
        <time>2022-07-12T11:52:44Z</time>
      </trkpt>
      <trkpt lat="46.50297" lon="6.15651">
        <ele>1495.3</ele>
        <time>2022-07-12T11:53:04Z</time>
      </trkpt>
      <trkpt lat="46.50293" lon="6.1565">
        <ele>1496.1</ele>
        <time>2022-07-12T11:53:11Z</time>
      </trkpt>
      <trkpt lat="46.50289" lon="6.15645">
        <ele>1497.3</ele>
        <time>2022-07-12T11:53:21Z</time>
      </trkpt>
      <trkpt lat="46.50285" lon="6.15645">
        <ele>1498.8</ele>
        <time>2022-07-12T11:53:31Z</time>
      </trkpt>
      <trkpt lat="46.50281" lon="6.15648">
        <ele>1500.8</ele>
        <time>2022-07-12T11:53:50Z</time>
      </trkpt>
      <trkpt lat="46.5028" lon="6.15641">
        <ele>1505.3</ele>
        <time>2022-07-12T11:54:57Z</time>
      </trkpt>
      <trkpt lat="46.50284" lon="6.15641">
        <ele>1506.4</ele>
        <time>2022-07-12T11:56:34Z</time>
      </trkpt>
      <trkpt lat="46.50289" lon="6.15642">
        <ele>1502.3</ele>
        <time>2022-07-12T11:59:11Z</time>
      </trkpt>
      <trkpt lat="46.50293" lon="6.15641">
        <ele>1502.6</ele>
        <time>2022-07-12T11:59:19Z</time>
      </trkpt>
      <trkpt lat="46.50298" lon="6.15641">
        <ele>1502.8</ele>
        <time>2022-07-12T11:59:27Z</time>
      </trkpt>
      <trkpt lat="46.50303" lon="6.15641">
        <ele>1503.1</ele>
        <time>2022-07-12T11:59:34Z</time>
      </trkpt>
      <trkpt lat="46.50307" lon="6.15638">
        <ele>1503.1</ele>
        <time>2022-07-12T11:59:48Z</time>
      </trkpt>
      <trkpt lat="46.50312" lon="6.15638">
        <ele>1502.4</ele>
        <time>2022-07-12T11:59:54Z</time>
      </trkpt>
      <trkpt lat="46.50317" lon="6.15636">
        <ele>1502.3</ele>
        <time>2022-07-12T12:00:00Z</time>
      </trkpt>
      <trkpt lat="46.50322" lon="6.15634">
        <ele>1502.5</ele>
        <time>2022-07-12T12:00:07Z</time>
      </trkpt>
      <trkpt lat="46.50327" lon="6.15635">
        <ele>1502.2</ele>
        <time>2022-07-12T12:00:14Z</time>
      </trkpt>
      <trkpt lat="46.50332" lon="6.15636">
        <ele>1501.7</ele>
        <time>2022-07-12T12:00:20Z</time>
      </trkpt>
      <trkpt lat="46.50336" lon="6.15635">
        <ele>1502.6</ele>
        <time>2022-07-12T12:00:41Z</time>
      </trkpt>
      <trkpt lat="46.50339" lon="6.1563">
        <ele>1501.6</ele>
        <time>2022-07-12T12:01:07Z</time>
      </trkpt>
      <trkpt lat="46.50338" lon="6.15621">
        <ele>1500.4</ele>
        <time>2022-07-12T12:01:20Z</time>
      </trkpt>
      <trkpt lat="46.50334" lon="6.15616">
        <ele>1500.7</ele>
        <time>2022-07-12T12:01:24Z</time>
      </trkpt>
      <trkpt lat="46.50334" lon="6.15608">
        <ele>1500.4</ele>
        <time>2022-07-12T12:01:33Z</time>
      </trkpt>
      <trkpt lat="46.50333" lon="6.15602">
        <ele>1500.2</ele>
        <time>2022-07-12T12:01:38Z</time>
      </trkpt>
      <trkpt lat="46.50338" lon="6.15601">
        <ele>1499.5</ele>
        <time>2022-07-12T12:01:44Z</time>
      </trkpt>
      <trkpt lat="46.50343" lon="6.156">
        <ele>1499</ele>
        <time>2022-07-12T12:01:48Z</time>
      </trkpt>
      <trkpt lat="46.50346" lon="6.15595">
        <ele>1498.2</ele>
        <time>2022-07-12T12:01:53Z</time>
      </trkpt>
      <trkpt lat="46.50351" lon="6.15593">
        <ele>1497.7</ele>
        <time>2022-07-12T12:01:58Z</time>
      </trkpt>
      <trkpt lat="46.5035" lon="6.15586">
        <ele>1497.2</ele>
        <time>2022-07-12T12:02:08Z</time>
      </trkpt>
      <trkpt lat="46.50354" lon="6.15581">
        <ele>1496.5</ele>
        <time>2022-07-12T12:02:20Z</time>
      </trkpt>
      <trkpt lat="46.50353" lon="6.15574">
        <ele>1496</ele>
        <time>2022-07-12T12:02:24Z</time>
      </trkpt>
      <trkpt lat="46.5035" lon="6.15568">
        <ele>1495.4</ele>
        <time>2022-07-12T12:02:27Z</time>
      </trkpt>
      <trkpt lat="46.50351" lon="6.15562">
        <ele>1495.2</ele>
        <time>2022-07-12T12:02:32Z</time>
      </trkpt>
      <trkpt lat="46.50351" lon="6.15555">
        <ele>1495.1</ele>
        <time>2022-07-12T12:02:37Z</time>
      </trkpt>
      <trkpt lat="46.50347" lon="6.15552">
        <ele>1491.6</ele>
        <time>2022-07-12T12:02:46Z</time>
      </trkpt>
      <trkpt lat="46.5035" lon="6.15546">
        <ele>1485.1</ele>
        <time>2022-07-12T12:03:03Z</time>
      </trkpt>
      <trkpt lat="46.50353" lon="6.15541">
        <ele>1484.5</ele>
        <time>2022-07-12T12:03:09Z</time>
      </trkpt>
      <trkpt lat="46.50356" lon="6.15535">
        <ele>1485.2</ele>
        <time>2022-07-12T12:03:16Z</time>
      </trkpt>
      <trkpt lat="46.5036" lon="6.15532">
        <ele>1485.9</ele>
        <time>2022-07-12T12:03:21Z</time>
      </trkpt>
      <trkpt lat="46.50365" lon="6.1553">
        <ele>1486.1</ele>
        <time>2022-07-12T12:03:28Z</time>
      </trkpt>
      <trkpt lat="46.5037" lon="6.15528">
        <ele>1485</ele>
        <time>2022-07-12T12:03:33Z</time>
      </trkpt>
      <trkpt lat="46.50374" lon="6.15523">
        <ele>1482.8</ele>
        <time>2022-07-12T12:03:41Z</time>
      </trkpt>
      <trkpt lat="46.50378" lon="6.1552">
        <ele>1482.6</ele>
        <time>2022-07-12T12:03:47Z</time>
      </trkpt>
      <trkpt lat="46.50383" lon="6.1552">
        <ele>1483.4</ele>
        <time>2022-07-12T12:03:51Z</time>
      </trkpt>
      <trkpt lat="46.50388" lon="6.15519">
        <ele>1484</ele>
        <time>2022-07-12T12:03:54Z</time>
      </trkpt>
      <trkpt lat="46.50392" lon="6.15517">
        <ele>1485.1</ele>
        <time>2022-07-12T12:03:57Z</time>
      </trkpt>
      <trkpt lat="46.50396" lon="6.15513">
        <ele>1486.5</ele>
        <time>2022-07-12T12:04:01Z</time>
      </trkpt>
      <trkpt lat="46.50401" lon="6.1551">
        <ele>1488.6</ele>
        <time>2022-07-12T12:04:11Z</time>
      </trkpt>
      <trkpt lat="46.504" lon="6.15503">
        <ele>1490.5</ele>
        <time>2022-07-12T12:04:29Z</time>
      </trkpt>
      <trkpt lat="46.50402" lon="6.15496">
        <ele>1490.3</ele>
        <time>2022-07-12T12:04:35Z</time>
      </trkpt>
      <trkpt lat="46.50406" lon="6.15492">
        <ele>1490.3</ele>
        <time>2022-07-12T12:04:39Z</time>
      </trkpt>
      <trkpt lat="46.50408" lon="6.15486">
        <ele>1490.6</ele>
        <time>2022-07-12T12:04:44Z</time>
      </trkpt>
      <trkpt lat="46.5041" lon="6.15479">
        <ele>1491.6</ele>
        <time>2022-07-12T12:04:51Z</time>
      </trkpt>
      <trkpt lat="46.50412" lon="6.15473">
        <ele>1494</ele>
        <time>2022-07-12T12:05:05Z</time>
      </trkpt>
      <trkpt lat="46.50408" lon="6.15468">
        <ele>1493.9</ele>
        <time>2022-07-12T12:05:12Z</time>
      </trkpt>
      <trkpt lat="46.50411" lon="6.15462">
        <ele>1490.7</ele>
        <time>2022-07-12T12:05:23Z</time>
      </trkpt>
      <trkpt lat="46.50414" lon="6.15457">
        <ele>1488.7</ele>
        <time>2022-07-12T12:05:29Z</time>
      </trkpt>
      <trkpt lat="46.50417" lon="6.1545">
        <ele>1487.5</ele>
        <time>2022-07-12T12:05:34Z</time>
      </trkpt>
      <trkpt lat="46.50419" lon="6.15444">
        <ele>1486.8</ele>
        <time>2022-07-12T12:05:42Z</time>
      </trkpt>
      <trkpt lat="46.50421" lon="6.15438">
        <ele>1486.1</ele>
        <time>2022-07-12T12:05:50Z</time>
      </trkpt>
      <trkpt lat="46.50419" lon="6.15432">
        <ele>1486.1</ele>
        <time>2022-07-12T12:05:58Z</time>
      </trkpt>
      <trkpt lat="46.50418" lon="6.15424">
        <ele>1486</ele>
        <time>2022-07-12T12:06:04Z</time>
      </trkpt>
      <trkpt lat="46.50418" lon="6.15417">
        <ele>1485.6</ele>
        <time>2022-07-12T12:06:12Z</time>
      </trkpt>
      <trkpt lat="46.50415" lon="6.15412">
        <ele>1485.2</ele>
        <time>2022-07-12T12:06:18Z</time>
      </trkpt>
      <trkpt lat="46.50415" lon="6.15405">
        <ele>1483.6</ele>
        <time>2022-07-12T12:06:33Z</time>
      </trkpt>
      <trkpt lat="46.50411" lon="6.15399">
        <ele>1483.2</ele>
        <time>2022-07-12T12:06:38Z</time>
      </trkpt>
      <trkpt lat="46.50409" lon="6.15393">
        <ele>1482.6</ele>
        <time>2022-07-12T12:06:43Z</time>
      </trkpt>
      <trkpt lat="46.50408" lon="6.15386">
        <ele>1481.9</ele>
        <time>2022-07-12T12:06:50Z</time>
      </trkpt>
      <trkpt lat="46.50405" lon="6.15381">
        <ele>1481.1</ele>
        <time>2022-07-12T12:06:57Z</time>
      </trkpt>
      <trkpt lat="46.50406" lon="6.15373">
        <ele>1477.5</ele>
        <time>2022-07-12T12:07:09Z</time>
      </trkpt>
      <trkpt lat="46.50405" lon="6.15367">
        <ele>1475.6</ele>
        <time>2022-07-12T12:07:13Z</time>
      </trkpt>
      <trkpt lat="46.50404" lon="6.1536">
        <ele>1474.5</ele>
        <time>2022-07-12T12:07:17Z</time>
      </trkpt>
      <trkpt lat="46.50406" lon="6.15354">
        <ele>1473.7</ele>
        <time>2022-07-12T12:07:20Z</time>
      </trkpt>
      <trkpt lat="46.50406" lon="6.15347">
        <ele>1472.9</ele>
        <time>2022-07-12T12:07:24Z</time>
      </trkpt>
      <trkpt lat="46.50406" lon="6.1534">
        <ele>1472</ele>
        <time>2022-07-12T12:07:30Z</time>
      </trkpt>
      <trkpt lat="46.50407" lon="6.15334">
        <ele>1471.5</ele>
        <time>2022-07-12T12:07:34Z</time>
      </trkpt>
      <trkpt lat="46.5041" lon="6.15327">
        <ele>1471.2</ele>
        <time>2022-07-12T12:07:39Z</time>
      </trkpt>
      <trkpt lat="46.50411" lon="6.1532">
        <ele>1470.2</ele>
        <time>2022-07-12T12:07:45Z</time>
      </trkpt>
      <trkpt lat="46.50414" lon="6.15314">
        <ele>1468.6</ele>
        <time>2022-07-12T12:07:53Z</time>
      </trkpt>
      <trkpt lat="46.50417" lon="6.15309">
        <ele>1467.2</ele>
        <time>2022-07-12T12:08:00Z</time>
      </trkpt>
      <trkpt lat="46.50418" lon="6.15302">
        <ele>1465.7</ele>
        <time>2022-07-12T12:08:29Z</time>
      </trkpt>
      <trkpt lat="46.5042" lon="6.15295">
        <ele>1465.3</ele>
        <time>2022-07-12T12:08:34Z</time>
      </trkpt>
      <trkpt lat="46.50423" lon="6.15288">
        <ele>1464.9</ele>
        <time>2022-07-12T12:08:38Z</time>
      </trkpt>
      <trkpt lat="46.50423" lon="6.15282">
        <ele>1464.1</ele>
        <time>2022-07-12T12:08:43Z</time>
      </trkpt>
      <trkpt lat="46.50425" lon="6.15275">
        <ele>1463.9</ele>
        <time>2022-07-12T12:08:47Z</time>
      </trkpt>
      <trkpt lat="46.50429" lon="6.15272">
        <ele>1463.8</ele>
        <time>2022-07-12T12:08:52Z</time>
      </trkpt>
      <trkpt lat="46.50433" lon="6.15266">
        <ele>1464.4</ele>
        <time>2022-07-12T12:08:57Z</time>
      </trkpt>
      <trkpt lat="46.50438" lon="6.15263">
        <ele>1465.8</ele>
        <time>2022-07-12T12:09:09Z</time>
      </trkpt>
      <trkpt lat="46.50442" lon="6.1526">
        <ele>1465.2</ele>
        <time>2022-07-12T12:09:13Z</time>
      </trkpt>
      <trkpt lat="46.50447" lon="6.15258">
        <ele>1464.5</ele>
        <time>2022-07-12T12:09:17Z</time>
      </trkpt>
      <trkpt lat="46.50451" lon="6.15257">
        <ele>1463.7</ele>
        <time>2022-07-12T12:09:21Z</time>
      </trkpt>
      <trkpt lat="46.50457" lon="6.15257">
        <ele>1463.3</ele>
        <time>2022-07-12T12:09:25Z</time>
      </trkpt>
      <trkpt lat="46.50463" lon="6.15259">
        <ele>1463.9</ele>
        <time>2022-07-12T12:09:29Z</time>
      </trkpt>
      <trkpt lat="46.50469" lon="6.15261">
        <ele>1464.9</ele>
        <time>2022-07-12T12:09:33Z</time>
      </trkpt>
      <trkpt lat="46.50473" lon="6.15264">
        <ele>1465.8</ele>
        <time>2022-07-12T12:09:37Z</time>
      </trkpt>
      <trkpt lat="46.50478" lon="6.15266">
        <ele>1467</ele>
        <time>2022-07-12T12:09:42Z</time>
      </trkpt>
      <trkpt lat="46.50483" lon="6.15266">
        <ele>1468.1</ele>
        <time>2022-07-12T12:09:47Z</time>
      </trkpt>
      <trkpt lat="46.50487" lon="6.1527">
        <ele>1468.5</ele>
        <time>2022-07-12T12:09:52Z</time>
      </trkpt>
      <trkpt lat="46.5049" lon="6.15275">
        <ele>1468.6</ele>
        <time>2022-07-12T12:09:57Z</time>
      </trkpt>
      <trkpt lat="46.50493" lon="6.15281">
        <ele>1468.6</ele>
        <time>2022-07-12T12:10:02Z</time>
      </trkpt>
      <trkpt lat="46.50497" lon="6.15286">
        <ele>1468.7</ele>
        <time>2022-07-12T12:10:07Z</time>
      </trkpt>
      <trkpt lat="46.50499" lon="6.15292">
        <ele>1468.9</ele>
        <time>2022-07-12T12:10:11Z</time>
      </trkpt>
      <trkpt lat="46.50502" lon="6.15298">
        <ele>1469</ele>
        <time>2022-07-12T12:10:15Z</time>
      </trkpt>
      <trkpt lat="46.50504" lon="6.15303">
        <ele>1468.9</ele>
        <time>2022-07-12T12:10:19Z</time>
      </trkpt>
      <trkpt lat="46.50508" lon="6.15309">
        <ele>1468.5</ele>
        <time>2022-07-12T12:10:24Z</time>
      </trkpt>
      <trkpt lat="46.50512" lon="6.15313">
        <ele>1467.5</ele>
        <time>2022-07-12T12:10:30Z</time>
      </trkpt>
      <trkpt lat="46.50516" lon="6.15317">
        <ele>1466.3</ele>
        <time>2022-07-12T12:10:36Z</time>
      </trkpt>
      <trkpt lat="46.5052" lon="6.1532">
        <ele>1464</ele>
        <time>2022-07-12T12:10:42Z</time>
      </trkpt>
      <trkpt lat="46.50525" lon="6.15323">
        <ele>1462.6</ele>
        <time>2022-07-12T12:10:47Z</time>
      </trkpt>
      <trkpt lat="46.50529" lon="6.15327">
        <ele>1462.4</ele>
        <time>2022-07-12T12:10:52Z</time>
      </trkpt>
      <trkpt lat="46.50534" lon="6.15327">
        <ele>1462.5</ele>
        <time>2022-07-12T12:10:56Z</time>
      </trkpt>
      <trkpt lat="46.50539" lon="6.15328">
        <ele>1462.7</ele>
        <time>2022-07-12T12:11:00Z</time>
      </trkpt>
      <trkpt lat="46.50544" lon="6.15326">
        <ele>1463.1</ele>
        <time>2022-07-12T12:11:05Z</time>
      </trkpt>
      <trkpt lat="46.50549" lon="6.15322">
        <ele>1464.2</ele>
        <time>2022-07-12T12:11:10Z</time>
      </trkpt>
      <trkpt lat="46.50554" lon="6.15321">
        <ele>1464.9</ele>
        <time>2022-07-12T12:11:13Z</time>
      </trkpt>
      <trkpt lat="46.50558" lon="6.15318">
        <ele>1465.7</ele>
        <time>2022-07-12T12:11:17Z</time>
      </trkpt>
      <trkpt lat="46.50563" lon="6.15314">
        <ele>1466.5</ele>
        <time>2022-07-12T12:11:22Z</time>
      </trkpt>
      <trkpt lat="46.50568" lon="6.15313">
        <ele>1466.6</ele>
        <time>2022-07-12T12:11:27Z</time>
      </trkpt>
      <trkpt lat="46.50572" lon="6.1531">
        <ele>1466.4</ele>
        <time>2022-07-12T12:11:33Z</time>
      </trkpt>
      <trkpt lat="46.50576" lon="6.15305">
        <ele>1466.3</ele>
        <time>2022-07-12T12:11:39Z</time>
      </trkpt>
      <trkpt lat="46.5058" lon="6.15301">
        <ele>1467</ele>
        <time>2022-07-12T12:11:44Z</time>
      </trkpt>
      <trkpt lat="46.50584" lon="6.15298">
        <ele>1467.8</ele>
        <time>2022-07-12T12:11:49Z</time>
      </trkpt>
      <trkpt lat="46.50589" lon="6.15295">
        <ele>1468.1</ele>
        <time>2022-07-12T12:11:54Z</time>
      </trkpt>
      <trkpt lat="46.50594" lon="6.15293">
        <ele>1468.3</ele>
        <time>2022-07-12T12:11:59Z</time>
      </trkpt>
      <trkpt lat="46.506" lon="6.15293">
        <ele>1468.3</ele>
        <time>2022-07-12T12:12:04Z</time>
      </trkpt>
      <trkpt lat="46.50604" lon="6.15296">
        <ele>1468.5</ele>
        <time>2022-07-12T12:12:08Z</time>
      </trkpt>
      <trkpt lat="46.50609" lon="6.15296">
        <ele>1468.2</ele>
        <time>2022-07-12T12:12:12Z</time>
      </trkpt>
      <trkpt lat="46.50614" lon="6.15294">
        <ele>1467.5</ele>
        <time>2022-07-12T12:12:17Z</time>
      </trkpt>
      <trkpt lat="46.50619" lon="6.15292">
        <ele>1466.6</ele>
        <time>2022-07-12T12:12:22Z</time>
      </trkpt>
      <trkpt lat="46.50623" lon="6.15288">
        <ele>1465.3</ele>
        <time>2022-07-12T12:12:26Z</time>
      </trkpt>
      <trkpt lat="46.50628" lon="6.15286">
        <ele>1464</ele>
        <time>2022-07-12T12:12:31Z</time>
      </trkpt>
      <trkpt lat="46.50631" lon="6.15281">
        <ele>1465.7</ele>
        <time>2022-07-12T12:12:42Z</time>
      </trkpt>
      <trkpt lat="46.50637" lon="6.15279">
        <ele>1465.8</ele>
        <time>2022-07-12T12:12:47Z</time>
      </trkpt>
      <trkpt lat="46.50641" lon="6.15274">
        <ele>1464.8</ele>
        <time>2022-07-12T12:12:51Z</time>
      </trkpt>
      <trkpt lat="46.50644" lon="6.15269">
        <ele>1462.8</ele>
        <time>2022-07-12T12:12:55Z</time>
      </trkpt>
      <trkpt lat="46.50647" lon="6.15264">
        <ele>1460.9</ele>
        <time>2022-07-12T12:12:58Z</time>
      </trkpt>
      <trkpt lat="46.50651" lon="6.15259">
        <ele>1458.6</ele>
        <time>2022-07-12T12:13:02Z</time>
      </trkpt>
      <trkpt lat="46.50656" lon="6.15255">
        <ele>1456.4</ele>
        <time>2022-07-12T12:13:07Z</time>
      </trkpt>
      <trkpt lat="46.50661" lon="6.15254">
        <ele>1454.6</ele>
        <time>2022-07-12T12:13:12Z</time>
      </trkpt>
      <trkpt lat="46.50666" lon="6.15253">
        <ele>1453</ele>
        <time>2022-07-12T12:13:17Z</time>
      </trkpt>
      <trkpt lat="46.50669" lon="6.15258">
        <ele>1449.2</ele>
        <time>2022-07-12T12:14:22Z</time>
      </trkpt>
      <trkpt lat="46.50673" lon="6.15262">
        <ele>1451.7</ele>
        <time>2022-07-12T12:14:27Z</time>
      </trkpt>
      <trkpt lat="46.50678" lon="6.15266">
        <ele>1453.7</ele>
        <time>2022-07-12T12:14:32Z</time>
      </trkpt>
      <trkpt lat="46.50683" lon="6.1527">
        <ele>1455</ele>
        <time>2022-07-12T12:14:35Z</time>
      </trkpt>
      <trkpt lat="46.50686" lon="6.15275">
        <ele>1456.1</ele>
        <time>2022-07-12T12:14:38Z</time>
      </trkpt>
      <trkpt lat="46.5069" lon="6.15281">
        <ele>1457</ele>
        <time>2022-07-12T12:14:42Z</time>
      </trkpt>
      <trkpt lat="46.50693" lon="6.15286">
        <ele>1457.5</ele>
        <time>2022-07-12T12:14:46Z</time>
      </trkpt>
      <trkpt lat="46.50697" lon="6.15291">
        <ele>1457.7</ele>
        <time>2022-07-12T12:14:51Z</time>
      </trkpt>
      <trkpt lat="46.50703" lon="6.15292">
        <ele>1457.6</ele>
        <time>2022-07-12T12:14:55Z</time>
      </trkpt>
      <trkpt lat="46.50707" lon="6.15292">
        <ele>1457.5</ele>
        <time>2022-07-12T12:14:59Z</time>
      </trkpt>
      <trkpt lat="46.50713" lon="6.15291">
        <ele>1457.1</ele>
        <time>2022-07-12T12:15:03Z</time>
      </trkpt>
      <trkpt lat="46.50719" lon="6.15291">
        <ele>1456.5</ele>
        <time>2022-07-12T12:15:06Z</time>
      </trkpt>
      <trkpt lat="46.50725" lon="6.15289">
        <ele>1455.9</ele>
        <time>2022-07-12T12:15:09Z</time>
      </trkpt>
      <trkpt lat="46.50729" lon="6.15289">
        <ele>1455.4</ele>
        <time>2022-07-12T12:15:12Z</time>
      </trkpt>
      <trkpt lat="46.50734" lon="6.15288">
        <ele>1455</ele>
        <time>2022-07-12T12:15:16Z</time>
      </trkpt>
      <trkpt lat="46.50739" lon="6.15288">
        <ele>1455.3</ele>
        <time>2022-07-12T12:15:19Z</time>
      </trkpt>
      <trkpt lat="46.50745" lon="6.15287">
        <ele>1456</ele>
        <time>2022-07-12T12:15:22Z</time>
      </trkpt>
      <trkpt lat="46.5075" lon="6.15284">
        <ele>1456.2</ele>
        <time>2022-07-12T12:15:26Z</time>
      </trkpt>
      <trkpt lat="46.50754" lon="6.15279">
        <ele>1456.3</ele>
        <time>2022-07-12T12:15:31Z</time>
      </trkpt>
      <trkpt lat="46.50758" lon="6.15276">
        <ele>1455.8</ele>
        <time>2022-07-12T12:15:35Z</time>
      </trkpt>
      <trkpt lat="46.50762" lon="6.15274">
        <ele>1455.4</ele>
        <time>2022-07-12T12:15:38Z</time>
      </trkpt>
      <trkpt lat="46.50767" lon="6.15272">
        <ele>1455.3</ele>
        <time>2022-07-12T12:15:41Z</time>
      </trkpt>
      <trkpt lat="46.50771" lon="6.15269">
        <ele>1455.5</ele>
        <time>2022-07-12T12:15:45Z</time>
      </trkpt>
      <trkpt lat="46.50776" lon="6.15269">
        <ele>1456.8</ele>
        <time>2022-07-12T12:15:52Z</time>
      </trkpt>
      <trkpt lat="46.5078" lon="6.15267">
        <ele>1457.3</ele>
        <time>2022-07-12T12:15:57Z</time>
      </trkpt>
      <trkpt lat="46.50784" lon="6.15262">
        <ele>1457.4</ele>
        <time>2022-07-12T12:16:01Z</time>
      </trkpt>
      <trkpt lat="46.50788" lon="6.15258">
        <ele>1457</ele>
        <time>2022-07-12T12:16:05Z</time>
      </trkpt>
      <trkpt lat="46.50791" lon="6.15254">
        <ele>1456.2</ele>
        <time>2022-07-12T12:16:10Z</time>
      </trkpt>
      <trkpt lat="46.50796" lon="6.15251">
        <ele>1455.6</ele>
        <time>2022-07-12T12:16:14Z</time>
      </trkpt>
      <trkpt lat="46.508" lon="6.15246">
        <ele>1455.1</ele>
        <time>2022-07-12T12:16:18Z</time>
      </trkpt>
      <trkpt lat="46.50804" lon="6.15242">
        <ele>1454.5</ele>
        <time>2022-07-12T12:16:22Z</time>
      </trkpt>
      <trkpt lat="46.50807" lon="6.15237">
        <ele>1453.7</ele>
        <time>2022-07-12T12:16:26Z</time>
      </trkpt>
      <trkpt lat="46.5081" lon="6.15231">
        <ele>1452.4</ele>
        <time>2022-07-12T12:16:31Z</time>
      </trkpt>
      <trkpt lat="46.50814" lon="6.15225">
        <ele>1450.9</ele>
        <time>2022-07-12T12:16:35Z</time>
      </trkpt>
      <trkpt lat="46.50817" lon="6.1522">
        <ele>1449</ele>
        <time>2022-07-12T12:16:40Z</time>
      </trkpt>
      <trkpt lat="46.50821" lon="6.15215">
        <ele>1448.3</ele>
        <time>2022-07-12T12:16:45Z</time>
      </trkpt>
      <trkpt lat="46.50825" lon="6.1521">
        <ele>1448.1</ele>
        <time>2022-07-12T12:16:51Z</time>
      </trkpt>
      <trkpt lat="46.5083" lon="6.15206">
        <ele>1447.8</ele>
        <time>2022-07-12T12:16:55Z</time>
      </trkpt>
      <trkpt lat="46.50833" lon="6.152">
        <ele>1447.6</ele>
        <time>2022-07-12T12:16:59Z</time>
      </trkpt>
      <trkpt lat="46.50836" lon="6.15194">
        <ele>1447.4</ele>
        <time>2022-07-12T12:17:04Z</time>
      </trkpt>
      <trkpt lat="46.5084" lon="6.15187">
        <ele>1447.5</ele>
        <time>2022-07-12T12:17:08Z</time>
      </trkpt>
      <trkpt lat="46.50844" lon="6.15183">
        <ele>1447.5</ele>
        <time>2022-07-12T12:17:11Z</time>
      </trkpt>
      <trkpt lat="46.50847" lon="6.15178">
        <ele>1447.7</ele>
        <time>2022-07-12T12:17:15Z</time>
      </trkpt>
      <trkpt lat="46.5085" lon="6.15173">
        <ele>1448.5</ele>
        <time>2022-07-12T12:17:22Z</time>
      </trkpt>
      <trkpt lat="46.50854" lon="6.15168">
        <ele>1448.9</ele>
        <time>2022-07-12T12:17:29Z</time>
      </trkpt>
      <trkpt lat="46.50858" lon="6.15164">
        <ele>1448.5</ele>
        <time>2022-07-12T12:17:35Z</time>
      </trkpt>
      <trkpt lat="46.50863" lon="6.15161">
        <ele>1447.9</ele>
        <time>2022-07-12T12:17:41Z</time>
      </trkpt>
      <trkpt lat="46.50868" lon="6.15156">
        <ele>1447.8</ele>
        <time>2022-07-12T12:17:47Z</time>
      </trkpt>
      <trkpt lat="46.50872" lon="6.15153">
        <ele>1447.7</ele>
        <time>2022-07-12T12:17:51Z</time>
      </trkpt>
      <trkpt lat="46.50877" lon="6.15151">
        <ele>1447.9</ele>
        <time>2022-07-12T12:17:55Z</time>
      </trkpt>
      <trkpt lat="46.50882" lon="6.15149">
        <ele>1448.5</ele>
        <time>2022-07-12T12:18:00Z</time>
      </trkpt>
      <trkpt lat="46.50887" lon="6.15147">
        <ele>1449</ele>
        <time>2022-07-12T12:18:05Z</time>
      </trkpt>
      <trkpt lat="46.50892" lon="6.15144">
        <ele>1449.2</ele>
        <time>2022-07-12T12:18:10Z</time>
      </trkpt>
      <trkpt lat="46.50896" lon="6.15139">
        <ele>1448.8</ele>
        <time>2022-07-12T12:18:15Z</time>
      </trkpt>
      <trkpt lat="46.50899" lon="6.15134">
        <ele>1448.9</ele>
        <time>2022-07-12T12:18:20Z</time>
      </trkpt>
      <trkpt lat="46.50903" lon="6.1513">
        <ele>1448.8</ele>
        <time>2022-07-12T12:18:26Z</time>
      </trkpt>
      <trkpt lat="46.50908" lon="6.15129">
        <ele>1448.3</ele>
        <time>2022-07-12T12:18:31Z</time>
      </trkpt>
      <trkpt lat="46.50913" lon="6.15125">
        <ele>1448.1</ele>
        <time>2022-07-12T12:18:36Z</time>
      </trkpt>
      <trkpt lat="46.50917" lon="6.15121">
        <ele>1447.7</ele>
        <time>2022-07-12T12:18:40Z</time>
      </trkpt>
      <trkpt lat="46.5092" lon="6.15116">
        <ele>1447.1</ele>
        <time>2022-07-12T12:18:46Z</time>
      </trkpt>
      <trkpt lat="46.50924" lon="6.15112">
        <ele>1445.1</ele>
        <time>2022-07-12T12:18:56Z</time>
      </trkpt>
      <trkpt lat="46.50929" lon="6.1511">
        <ele>1444.2</ele>
        <time>2022-07-12T12:19:00Z</time>
      </trkpt>
      <trkpt lat="46.50935" lon="6.15108">
        <ele>1443.4</ele>
        <time>2022-07-12T12:19:04Z</time>
      </trkpt>
      <trkpt lat="46.50939" lon="6.15105">
        <ele>1442.6</ele>
        <time>2022-07-12T12:19:09Z</time>
      </trkpt>
      <trkpt lat="46.50943" lon="6.15102">
        <ele>1441.4</ele>
        <time>2022-07-12T12:19:14Z</time>
      </trkpt>
      <trkpt lat="46.50947" lon="6.15099">
        <ele>1440.3</ele>
        <time>2022-07-12T12:19:21Z</time>
      </trkpt>
      <trkpt lat="46.50952" lon="6.15096">
        <ele>1439.9</ele>
        <time>2022-07-12T12:19:27Z</time>
      </trkpt>
      <trkpt lat="46.50956" lon="6.15094">
        <ele>1439.5</ele>
        <time>2022-07-12T12:19:30Z</time>
      </trkpt>
      <trkpt lat="46.50961" lon="6.1509">
        <ele>1438.9</ele>
        <time>2022-07-12T12:19:34Z</time>
      </trkpt>
      <trkpt lat="46.50964" lon="6.15084">
        <ele>1438.5</ele>
        <time>2022-07-12T12:19:38Z</time>
      </trkpt>
      <trkpt lat="46.50968" lon="6.15079">
        <ele>1438.9</ele>
        <time>2022-07-12T12:19:45Z</time>
      </trkpt>
      <trkpt lat="46.50972" lon="6.15075">
        <ele>1439.6</ele>
        <time>2022-07-12T12:19:49Z</time>
      </trkpt>
      <trkpt lat="46.50977" lon="6.15071">
        <ele>1440.3</ele>
        <time>2022-07-12T12:19:53Z</time>
      </trkpt>
      <trkpt lat="46.50981" lon="6.15067">
        <ele>1440.6</ele>
        <time>2022-07-12T12:19:57Z</time>
      </trkpt>
      <trkpt lat="46.50984" lon="6.15061">
        <ele>1441.6</ele>
        <time>2022-07-12T12:20:02Z</time>
      </trkpt>
      <trkpt lat="46.50983" lon="6.15053">
        <ele>1442.5</ele>
        <time>2022-07-12T12:20:07Z</time>
      </trkpt>
      <trkpt lat="46.50979" lon="6.15047">
        <ele>1442.9</ele>
        <time>2022-07-12T12:20:11Z</time>
      </trkpt>
      <trkpt lat="46.50978" lon="6.15039">
        <ele>1443.2</ele>
        <time>2022-07-12T12:20:15Z</time>
      </trkpt>
      <trkpt lat="46.50978" lon="6.15032">
        <ele>1443.8</ele>
        <time>2022-07-12T12:20:20Z</time>
      </trkpt>
      <trkpt lat="46.50979" lon="6.15025">
        <ele>1445</ele>
        <time>2022-07-12T12:20:27Z</time>
      </trkpt>
      <trkpt lat="46.50982" lon="6.1502">
        <ele>1445.8</ele>
        <time>2022-07-12T12:20:34Z</time>
      </trkpt>
      <trkpt lat="46.50984" lon="6.15013">
        <ele>1445.2</ele>
        <time>2022-07-12T12:20:41Z</time>
      </trkpt>
      <trkpt lat="46.50987" lon="6.15008">
        <ele>1443.5</ele>
        <time>2022-07-12T12:20:45Z</time>
      </trkpt>
      <trkpt lat="46.5099" lon="6.15002">
        <ele>1440.3</ele>
        <time>2022-07-12T12:20:50Z</time>
      </trkpt>
      <trkpt lat="46.50988" lon="6.14995">
        <ele>1437.4</ele>
        <time>2022-07-12T12:20:55Z</time>
      </trkpt>
      <trkpt lat="46.50989" lon="6.14988">
        <ele>1435.2</ele>
        <time>2022-07-12T12:21:00Z</time>
      </trkpt>
      <trkpt lat="46.50991" lon="6.14982">
        <ele>1433.8</ele>
        <time>2022-07-12T12:21:07Z</time>
      </trkpt>
      <trkpt lat="46.50995" lon="6.1498">
        <ele>1433.2</ele>
        <time>2022-07-12T12:21:14Z</time>
      </trkpt>
      <trkpt lat="46.50998" lon="6.14974">
        <ele>1433</ele>
        <time>2022-07-12T12:21:18Z</time>
      </trkpt>
      <trkpt lat="46.51001" lon="6.14968">
        <ele>1433.4</ele>
        <time>2022-07-12T12:21:22Z</time>
      </trkpt>
      <trkpt lat="46.51004" lon="6.14962">
        <ele>1434.6</ele>
        <time>2022-07-12T12:21:26Z</time>
      </trkpt>
      <trkpt lat="46.51006" lon="6.14956">
        <ele>1445.8</ele>
        <time>2022-07-12T12:21:45Z</time>
      </trkpt>
      <trkpt lat="46.51009" lon="6.1495">
        <ele>1447.4</ele>
        <time>2022-07-12T12:23:11Z</time>
      </trkpt>
      <trkpt lat="46.51014" lon="6.14949">
        <ele>1446.2</ele>
        <time>2022-07-12T12:23:17Z</time>
      </trkpt>
      <trkpt lat="46.51022" lon="6.14956">
        <ele>1445.1</ele>
        <time>2022-07-12T12:23:20Z</time>
      </trkpt>
      <trkpt lat="46.51028" lon="6.14957">
        <ele>1443.6</ele>
        <time>2022-07-12T12:23:23Z</time>
      </trkpt>
      <trkpt lat="46.51033" lon="6.14956">
        <ele>1441.4</ele>
        <time>2022-07-12T12:23:27Z</time>
      </trkpt>
      <trkpt lat="46.51037" lon="6.14958">
        <ele>1439</ele>
        <time>2022-07-12T12:23:33Z</time>
      </trkpt>
      <trkpt lat="46.51041" lon="6.14961">
        <ele>1438.3</ele>
        <time>2022-07-12T12:23:36Z</time>
      </trkpt>
      <trkpt lat="46.51047" lon="6.14964">
        <ele>1437.1</ele>
        <time>2022-07-12T12:23:41Z</time>
      </trkpt>
      <trkpt lat="46.51051" lon="6.14963">
        <ele>1436</ele>
        <time>2022-07-12T12:23:45Z</time>
      </trkpt>
      <trkpt lat="46.51056" lon="6.1496">
        <ele>1434.9</ele>
        <time>2022-07-12T12:23:49Z</time>
      </trkpt>
      <trkpt lat="46.51058" lon="6.14954">
        <ele>1434.1</ele>
        <time>2022-07-12T12:23:53Z</time>
      </trkpt>
      <trkpt lat="46.5106" lon="6.14948">
        <ele>1433.2</ele>
        <time>2022-07-12T12:23:57Z</time>
      </trkpt>
      <trkpt lat="46.51058" lon="6.14941">
        <ele>1432.4</ele>
        <time>2022-07-12T12:24:03Z</time>
      </trkpt>
      <trkpt lat="46.51061" lon="6.14936">
        <ele>1433.2</ele>
        <time>2022-07-12T12:24:26Z</time>
      </trkpt>
      <trkpt lat="46.51062" lon="6.14929">
        <ele>1432.7</ele>
        <time>2022-07-12T12:24:32Z</time>
      </trkpt>
      <trkpt lat="46.51064" lon="6.14922">
        <ele>1432.9</ele>
        <time>2022-07-12T12:24:38Z</time>
      </trkpt>
      <trkpt lat="46.51066" lon="6.14916">
        <ele>1432.9</ele>
        <time>2022-07-12T12:24:43Z</time>
      </trkpt>
      <trkpt lat="46.5107" lon="6.14912">
        <ele>1433.4</ele>
        <time>2022-07-12T12:24:48Z</time>
      </trkpt>
      <trkpt lat="46.51076" lon="6.14912">
        <ele>1434.3</ele>
        <time>2022-07-12T12:24:53Z</time>
      </trkpt>
      <trkpt lat="46.51079" lon="6.14907">
        <ele>1435</ele>
        <time>2022-07-12T12:24:59Z</time>
      </trkpt>
      <trkpt lat="46.51079" lon="6.149">
        <ele>1436.3</ele>
        <time>2022-07-12T12:25:05Z</time>
      </trkpt>
      <trkpt lat="46.51082" lon="6.14894">
        <ele>1437.7</ele>
        <time>2022-07-12T12:25:15Z</time>
      </trkpt>
      <trkpt lat="46.51086" lon="6.1489">
        <ele>1438.6</ele>
        <time>2022-07-12T12:25:22Z</time>
      </trkpt>
      <trkpt lat="46.51088" lon="6.14884">
        <ele>1439.1</ele>
        <time>2022-07-12T12:25:29Z</time>
      </trkpt>
      <trkpt lat="46.51093" lon="6.14882">
        <ele>1439.1</ele>
        <time>2022-07-12T12:25:37Z</time>
      </trkpt>
      <trkpt lat="46.51098" lon="6.1488">
        <ele>1438.5</ele>
        <time>2022-07-12T12:25:40Z</time>
      </trkpt>
      <trkpt lat="46.51103" lon="6.1488">
        <ele>1435.5</ele>
        <time>2022-07-12T12:25:46Z</time>
      </trkpt>
      <trkpt lat="46.51104" lon="6.14871">
        <ele>1433.6</ele>
        <time>2022-07-12T12:25:51Z</time>
      </trkpt>
      <trkpt lat="46.51105" lon="6.14863">
        <ele>1434.3</ele>
        <time>2022-07-12T12:25:55Z</time>
      </trkpt>
      <trkpt lat="46.51107" lon="6.14857">
        <ele>1435.7</ele>
        <time>2022-07-12T12:25:58Z</time>
      </trkpt>
      <trkpt lat="46.5111" lon="6.14849">
        <ele>1438.4</ele>
        <time>2022-07-12T12:26:03Z</time>
      </trkpt>
      <trkpt lat="46.51112" lon="6.14843">
        <ele>1440.4</ele>
        <time>2022-07-12T12:26:07Z</time>
      </trkpt>
      <trkpt lat="46.51116" lon="6.14838">
        <ele>1441.9</ele>
        <time>2022-07-12T12:26:12Z</time>
      </trkpt>
      <trkpt lat="46.51121" lon="6.14836">
        <ele>1441.5</ele>
        <time>2022-07-12T12:26:17Z</time>
      </trkpt>
      <trkpt lat="46.51125" lon="6.14833">
        <ele>1437.9</ele>
        <time>2022-07-12T12:26:25Z</time>
      </trkpt>
      <trkpt lat="46.51127" lon="6.14827">
        <ele>1438.6</ele>
        <time>2022-07-12T12:26:33Z</time>
      </trkpt>
      <trkpt lat="46.51131" lon="6.14824">
        <ele>1438.5</ele>
        <time>2022-07-12T12:26:40Z</time>
      </trkpt>
      <trkpt lat="46.51135" lon="6.14819">
        <ele>1436.6</ele>
        <time>2022-07-12T12:26:49Z</time>
      </trkpt>
      <trkpt lat="46.51139" lon="6.14815">
        <ele>1435</ele>
        <time>2022-07-12T12:26:54Z</time>
      </trkpt>
      <trkpt lat="46.51142" lon="6.14809">
        <ele>1433.9</ele>
        <time>2022-07-12T12:26:59Z</time>
      </trkpt>
      <trkpt lat="46.51142" lon="6.14803">
        <ele>1432.4</ele>
        <time>2022-07-12T12:27:05Z</time>
      </trkpt>
      <trkpt lat="46.5114" lon="6.14796">
        <ele>1431.8</ele>
        <time>2022-07-12T12:27:09Z</time>
      </trkpt>
      <trkpt lat="46.51138" lon="6.1479">
        <ele>1431.5</ele>
        <time>2022-07-12T12:27:13Z</time>
      </trkpt>
      <trkpt lat="46.5114" lon="6.14784">
        <ele>1431.1</ele>
        <time>2022-07-12T12:27:20Z</time>
      </trkpt>
      <trkpt lat="46.51141" lon="6.14777">
        <ele>1430.8</ele>
        <time>2022-07-12T12:27:25Z</time>
      </trkpt>
      <trkpt lat="46.51144" lon="6.1477">
        <ele>1430.5</ele>
        <time>2022-07-12T12:27:30Z</time>
      </trkpt>
      <trkpt lat="46.51149" lon="6.14767">
        <ele>1430.2</ele>
        <time>2022-07-12T12:27:35Z</time>
      </trkpt>
      <trkpt lat="46.51154" lon="6.14763">
        <ele>1430.6</ele>
        <time>2022-07-12T12:27:40Z</time>
      </trkpt>
      <trkpt lat="46.51158" lon="6.1476">
        <ele>1431.1</ele>
        <time>2022-07-12T12:27:45Z</time>
      </trkpt>
      <trkpt lat="46.51163" lon="6.14757">
        <ele>1431.3</ele>
        <time>2022-07-12T12:27:50Z</time>
      </trkpt>
      <trkpt lat="46.51165" lon="6.14751">
        <ele>1430.3</ele>
        <time>2022-07-12T12:27:58Z</time>
      </trkpt>
      <trkpt lat="46.51168" lon="6.14745">
        <ele>1432.4</ele>
        <time>2022-07-12T12:28:06Z</time>
      </trkpt>
      <trkpt lat="46.51172" lon="6.1474">
        <ele>1433.5</ele>
        <time>2022-07-12T12:28:12Z</time>
      </trkpt>
      <trkpt lat="46.51177" lon="6.14737">
        <ele>1433.9</ele>
        <time>2022-07-12T12:28:17Z</time>
      </trkpt>
      <trkpt lat="46.51183" lon="6.14735">
        <ele>1437.9</ele>
        <time>2022-07-12T12:28:29Z</time>
      </trkpt>
      <trkpt lat="46.51187" lon="6.14736">
        <ele>1438</ele>
        <time>2022-07-12T12:28:34Z</time>
      </trkpt>
      <trkpt lat="46.51191" lon="6.14733">
        <ele>1437.3</ele>
        <time>2022-07-12T12:28:39Z</time>
      </trkpt>
      <trkpt lat="46.51191" lon="6.14726">
        <ele>1435.3</ele>
        <time>2022-07-12T12:28:49Z</time>
      </trkpt>
      <trkpt lat="46.51189" lon="6.14719">
        <ele>1433.5</ele>
        <time>2022-07-12T12:28:55Z</time>
      </trkpt>
      <trkpt lat="46.51191" lon="6.14713">
        <ele>1432.6</ele>
        <time>2022-07-12T12:29:01Z</time>
      </trkpt>
      <trkpt lat="46.51194" lon="6.14708">
        <ele>1432.2</ele>
        <time>2022-07-12T12:29:07Z</time>
      </trkpt>
      <trkpt lat="46.51199" lon="6.14703">
        <ele>1431.6</ele>
        <time>2022-07-12T12:29:13Z</time>
      </trkpt>
      <trkpt lat="46.51203" lon="6.14698">
        <ele>1431.6</ele>
        <time>2022-07-12T12:29:18Z</time>
      </trkpt>
      <trkpt lat="46.51208" lon="6.1469">
        <ele>1431.4</ele>
        <time>2022-07-12T12:29:39Z</time>
      </trkpt>
      <trkpt lat="46.51211" lon="6.14686">
        <ele>1430.9</ele>
        <time>2022-07-12T12:29:42Z</time>
      </trkpt>
      <trkpt lat="46.51216" lon="6.14684">
        <ele>1430.1</ele>
        <time>2022-07-12T12:29:46Z</time>
      </trkpt>
      <trkpt lat="46.51221" lon="6.14683">
        <ele>1429</ele>
        <time>2022-07-12T12:29:53Z</time>
      </trkpt>
      <trkpt lat="46.51225" lon="6.14681">
        <ele>1428.6</ele>
        <time>2022-07-12T12:29:58Z</time>
      </trkpt>
      <trkpt lat="46.5123" lon="6.14683">
        <ele>1428.2</ele>
        <time>2022-07-12T12:30:05Z</time>
      </trkpt>
      <trkpt lat="46.51231" lon="6.14676">
        <ele>1426.7</ele>
        <time>2022-07-12T12:30:17Z</time>
      </trkpt>
      <trkpt lat="46.51229" lon="6.1467">
        <ele>1425.9</ele>
        <time>2022-07-12T12:30:24Z</time>
      </trkpt>
      <trkpt lat="46.5123" lon="6.14663">
        <ele>1424.5</ele>
        <time>2022-07-12T12:30:43Z</time>
      </trkpt>
      <trkpt lat="46.51233" lon="6.14657">
        <ele>1424</ele>
        <time>2022-07-12T12:30:47Z</time>
      </trkpt>
      <trkpt lat="46.51237" lon="6.14655">
        <ele>1422.8</ele>
        <time>2022-07-12T12:30:54Z</time>
      </trkpt>
      <trkpt lat="46.51243" lon="6.14652">
        <ele>1422</ele>
        <time>2022-07-12T12:30:59Z</time>
      </trkpt>
      <trkpt lat="46.51248" lon="6.14652">
        <ele>1421.4</ele>
        <time>2022-07-12T12:31:03Z</time>
      </trkpt>
      <trkpt lat="46.5125" lon="6.14646">
        <ele>1421.6</ele>
        <time>2022-07-12T12:31:09Z</time>
      </trkpt>
      <trkpt lat="46.51252" lon="6.14639">
        <ele>1421.6</ele>
        <time>2022-07-12T12:31:17Z</time>
      </trkpt>
      <trkpt lat="46.51256" lon="6.14635">
        <ele>1421.8</ele>
        <time>2022-07-12T12:31:22Z</time>
      </trkpt>
      <trkpt lat="46.51261" lon="6.14637">
        <ele>1421.8</ele>
        <time>2022-07-12T12:31:28Z</time>
      </trkpt>
      <trkpt lat="46.51266" lon="6.14638">
        <ele>1421.6</ele>
        <time>2022-07-12T12:31:33Z</time>
      </trkpt>
      <trkpt lat="46.5127" lon="6.1464">
        <ele>1421</ele>
        <time>2022-07-12T12:31:38Z</time>
      </trkpt>
      <trkpt lat="46.51271" lon="6.14633">
        <ele>1420.1</ele>
        <time>2022-07-12T12:31:48Z</time>
      </trkpt>
      <trkpt lat="46.51267" lon="6.14629">
        <ele>1419.6</ele>
        <time>2022-07-12T12:31:53Z</time>
      </trkpt>
      <trkpt lat="46.51268" lon="6.14619">
        <ele>1418.4</ele>
        <time>2022-07-12T12:32:21Z</time>
      </trkpt>
      <trkpt lat="46.5127" lon="6.14613">
        <ele>1418.1</ele>
        <time>2022-07-12T12:32:24Z</time>
      </trkpt>
      <trkpt lat="46.51268" lon="6.1462">
        <ele>1417.2</ele>
        <time>2022-07-12T12:32:39Z</time>
      </trkpt>
      <trkpt lat="46.51266" lon="6.14626">
        <ele>1416.6</ele>
        <time>2022-07-12T12:32:49Z</time>
      </trkpt>
      <trkpt lat="46.5127" lon="6.14628">
        <ele>1414.1</ele>
        <time>2022-07-12T12:33:29Z</time>
      </trkpt>
      <trkpt lat="46.51266" lon="6.14625">
        <ele>1415.7</ele>
        <time>2022-07-12T12:34:02Z</time>
      </trkpt>
      <trkpt lat="46.51269" lon="6.14621">
        <ele>1414.5</ele>
        <time>2022-07-12T12:34:07Z</time>
      </trkpt>
      <trkpt lat="46.51274" lon="6.14622">
        <ele>1414.2</ele>
        <time>2022-07-12T12:34:11Z</time>
      </trkpt>
      <trkpt lat="46.5127" lon="6.14617">
        <ele>1413.4</ele>
        <time>2022-07-12T12:34:21Z</time>
      </trkpt>
      <trkpt lat="46.51269" lon="6.14609">
        <ele>1412.5</ele>
        <time>2022-07-12T12:34:25Z</time>
      </trkpt>
      <trkpt lat="46.51274" lon="6.14605">
        <ele>1411.7</ele>
        <time>2022-07-12T12:34:29Z</time>
      </trkpt>
      <trkpt lat="46.51276" lon="6.14599">
        <ele>1410.9</ele>
        <time>2022-07-12T12:34:37Z</time>
      </trkpt>
      <trkpt lat="46.51278" lon="6.14593">
        <ele>1410.8</ele>
        <time>2022-07-12T12:34:42Z</time>
      </trkpt>
      <trkpt lat="46.51281" lon="6.14587">
        <ele>1410.6</ele>
        <time>2022-07-12T12:34:47Z</time>
      </trkpt>
      <trkpt lat="46.51286" lon="6.14585">
        <ele>1410.7</ele>
        <time>2022-07-12T12:34:52Z</time>
      </trkpt>
      <trkpt lat="46.51291" lon="6.14583">
        <ele>1410.9</ele>
        <time>2022-07-12T12:34:55Z</time>
      </trkpt>
      <trkpt lat="46.51295" lon="6.14582">
        <ele>1411</ele>
        <time>2022-07-12T12:35:02Z</time>
      </trkpt>
      <trkpt lat="46.51298" lon="6.14577">
        <ele>1408.8</ele>
        <time>2022-07-12T12:35:14Z</time>
      </trkpt>
      <trkpt lat="46.51304" lon="6.14578">
        <ele>1408.2</ele>
        <time>2022-07-12T12:35:20Z</time>
      </trkpt>
      <trkpt lat="46.51309" lon="6.14578">
        <ele>1408.3</ele>
        <time>2022-07-12T12:35:24Z</time>
      </trkpt>
      <trkpt lat="46.51313" lon="6.14578">
        <ele>1408.7</ele>
        <time>2022-07-12T12:35:28Z</time>
      </trkpt>
      <trkpt lat="46.51318" lon="6.14577">
        <ele>1408.7</ele>
        <time>2022-07-12T12:35:33Z</time>
      </trkpt>
      <trkpt lat="46.51322" lon="6.14575">
        <ele>1407.1</ele>
        <time>2022-07-12T12:35:42Z</time>
      </trkpt>
      <trkpt lat="46.51326" lon="6.1457">
        <ele>1406</ele>
        <time>2022-07-12T12:35:48Z</time>
      </trkpt>
      <trkpt lat="46.5133" lon="6.14568">
        <ele>1405.4</ele>
        <time>2022-07-12T12:35:55Z</time>
      </trkpt>
      <trkpt lat="46.51335" lon="6.14563">
        <ele>1404.8</ele>
        <time>2022-07-12T12:36:00Z</time>
      </trkpt>
      <trkpt lat="46.51339" lon="6.14561">
        <ele>1404.7</ele>
        <time>2022-07-12T12:36:04Z</time>
      </trkpt>
      <trkpt lat="46.51345" lon="6.14558">
        <ele>1404.7</ele>
        <time>2022-07-12T12:36:08Z</time>
      </trkpt>
      <trkpt lat="46.51347" lon="6.14552">
        <ele>1405</ele>
        <time>2022-07-12T12:36:13Z</time>
      </trkpt>
      <trkpt lat="46.51349" lon="6.14546">
        <ele>1406.1</ele>
        <time>2022-07-12T12:36:23Z</time>
      </trkpt>
      <trkpt lat="46.51354" lon="6.14542">
        <ele>1406.4</ele>
        <time>2022-07-12T12:36:28Z</time>
      </trkpt>
      <trkpt lat="46.51359" lon="6.14538">
        <ele>1406.5</ele>
        <time>2022-07-12T12:36:32Z</time>
      </trkpt>
      <trkpt lat="46.51362" lon="6.14533">
        <ele>1406.6</ele>
        <time>2022-07-12T12:36:36Z</time>
      </trkpt>
      <trkpt lat="46.51367" lon="6.14529">
        <ele>1406.4</ele>
        <time>2022-07-12T12:36:40Z</time>
      </trkpt>
      <trkpt lat="46.51372" lon="6.14529">
        <ele>1406.3</ele>
        <time>2022-07-12T12:36:43Z</time>
      </trkpt>
      <trkpt lat="46.51377" lon="6.14528">
        <ele>1406.4</ele>
        <time>2022-07-12T12:36:48Z</time>
      </trkpt>
      <trkpt lat="46.51381" lon="6.14527">
        <ele>1406.6</ele>
        <time>2022-07-12T12:36:53Z</time>
      </trkpt>
      <trkpt lat="46.51386" lon="6.14528">
        <ele>1406.7</ele>
        <time>2022-07-12T12:36:57Z</time>
      </trkpt>
      <trkpt lat="46.51391" lon="6.14525">
        <ele>1406.6</ele>
        <time>2022-07-12T12:37:03Z</time>
      </trkpt>
      <trkpt lat="46.51396" lon="6.14521">
        <ele>1406.4</ele>
        <time>2022-07-12T12:37:07Z</time>
      </trkpt>
      <trkpt lat="46.51401" lon="6.14521">
        <ele>1406.2</ele>
        <time>2022-07-12T12:37:11Z</time>
      </trkpt>
      <trkpt lat="46.51405" lon="6.14516">
        <ele>1405.3</ele>
        <time>2022-07-12T12:37:18Z</time>
      </trkpt>
      <trkpt lat="46.51405" lon="6.1451">
        <ele>1404</ele>
        <time>2022-07-12T12:37:23Z</time>
      </trkpt>
      <trkpt lat="46.51408" lon="6.14505">
        <ele>1401.7</ele>
        <time>2022-07-12T12:37:30Z</time>
      </trkpt>
      <trkpt lat="46.51411" lon="6.14499">
        <ele>1398.2</ele>
        <time>2022-07-12T12:37:37Z</time>
      </trkpt>
      <trkpt lat="46.51412" lon="6.14491">
        <ele>1396.3</ele>
        <time>2022-07-12T12:37:44Z</time>
      </trkpt>
      <trkpt lat="46.51412" lon="6.14485">
        <ele>1395.7</ele>
        <time>2022-07-12T12:37:48Z</time>
      </trkpt>
      <trkpt lat="46.51414" lon="6.14479">
        <ele>1395.6</ele>
        <time>2022-07-12T12:37:52Z</time>
      </trkpt>
      <trkpt lat="46.51414" lon="6.14471">
        <ele>1395.3</ele>
        <time>2022-07-12T12:37:57Z</time>
      </trkpt>
      <trkpt lat="46.51413" lon="6.14464">
        <ele>1395.1</ele>
        <time>2022-07-12T12:38:01Z</time>
      </trkpt>
      <trkpt lat="46.51412" lon="6.14457">
        <ele>1394.4</ele>
        <time>2022-07-12T12:38:11Z</time>
      </trkpt>
      <trkpt lat="46.51414" lon="6.14451">
        <ele>1394.6</ele>
        <time>2022-07-12T12:38:17Z</time>
      </trkpt>
      <trkpt lat="46.51414" lon="6.14444">
        <ele>1394.2</ele>
        <time>2022-07-12T12:38:23Z</time>
      </trkpt>
      <trkpt lat="46.51412" lon="6.14438">
        <ele>1393.7</ele>
        <time>2022-07-12T12:38:30Z</time>
      </trkpt>
      <trkpt lat="46.51411" lon="6.14431">
        <ele>1393.3</ele>
        <time>2022-07-12T12:38:35Z</time>
      </trkpt>
      <trkpt lat="46.51411" lon="6.14424">
        <ele>1392.9</ele>
        <time>2022-07-12T12:38:40Z</time>
      </trkpt>
      <trkpt lat="46.51412" lon="6.14417">
        <ele>1393.2</ele>
        <time>2022-07-12T12:38:44Z</time>
      </trkpt>
      <trkpt lat="46.51413" lon="6.1441">
        <ele>1393.5</ele>
        <time>2022-07-12T12:38:50Z</time>
      </trkpt>
      <trkpt lat="46.51415" lon="6.14404">
        <ele>1393.3</ele>
        <time>2022-07-12T12:38:57Z</time>
      </trkpt>
      <trkpt lat="46.51419" lon="6.14404">
        <ele>1393.3</ele>
        <time>2022-07-12T12:39:06Z</time>
      </trkpt>
      <trkpt lat="46.51424" lon="6.14404">
        <ele>1392.5</ele>
        <time>2022-07-12T12:39:12Z</time>
      </trkpt>
      <trkpt lat="46.51429" lon="6.14402">
        <ele>1391.2</ele>
        <time>2022-07-12T12:39:16Z</time>
      </trkpt>
      <trkpt lat="46.51434" lon="6.14398">
        <ele>1388.9</ele>
        <time>2022-07-12T12:39:21Z</time>
      </trkpt>
      <trkpt lat="46.51437" lon="6.14392">
        <ele>1386.1</ele>
        <time>2022-07-12T12:39:26Z</time>
      </trkpt>
      <trkpt lat="46.51438" lon="6.14386">
        <ele>1383.2</ele>
        <time>2022-07-12T12:39:32Z</time>
      </trkpt>
      <trkpt lat="46.5144" lon="6.14378">
        <ele>1381.6</ele>
        <time>2022-07-12T12:39:38Z</time>
      </trkpt>
      <trkpt lat="46.51442" lon="6.14371">
        <ele>1381.1</ele>
        <time>2022-07-12T12:39:43Z</time>
      </trkpt>
      <trkpt lat="46.51445" lon="6.14365">
        <ele>1381.5</ele>
        <time>2022-07-12T12:39:48Z</time>
      </trkpt>
      <trkpt lat="46.5145" lon="6.14361">
        <ele>1381.9</ele>
        <time>2022-07-12T12:39:52Z</time>
      </trkpt>
      <trkpt lat="46.51454" lon="6.14357">
        <ele>1382.2</ele>
        <time>2022-07-12T12:39:57Z</time>
      </trkpt>
      <trkpt lat="46.51456" lon="6.14351">
        <ele>1382.7</ele>
        <time>2022-07-12T12:40:04Z</time>
      </trkpt>
      <trkpt lat="46.51456" lon="6.14344">
        <ele>1383</ele>
        <time>2022-07-12T12:40:11Z</time>
      </trkpt>
      <trkpt lat="46.5146" lon="6.1434">
        <ele>1381.2</ele>
        <time>2022-07-12T12:40:17Z</time>
      </trkpt>
      <trkpt lat="46.51465" lon="6.14339">
        <ele>1379.4</ele>
        <time>2022-07-12T12:40:22Z</time>
      </trkpt>
      <trkpt lat="46.51469" lon="6.14334">
        <ele>1377.6</ele>
        <time>2022-07-12T12:40:27Z</time>
      </trkpt>
      <trkpt lat="46.51474" lon="6.14329">
        <ele>1375.5</ele>
        <time>2022-07-12T12:40:32Z</time>
      </trkpt>
      <trkpt lat="46.51478" lon="6.14326">
        <ele>1372.9</ele>
        <time>2022-07-12T12:40:37Z</time>
      </trkpt>
      <trkpt lat="46.5148" lon="6.1432">
        <ele>1371.2</ele>
        <time>2022-07-12T12:40:46Z</time>
      </trkpt>
      <trkpt lat="46.5148" lon="6.14312">
        <ele>1371.7</ele>
        <time>2022-07-12T12:40:52Z</time>
      </trkpt>
      <trkpt lat="46.5148" lon="6.14305">
        <ele>1372.5</ele>
        <time>2022-07-12T12:40:59Z</time>
      </trkpt>
      <trkpt lat="46.51485" lon="6.14304">
        <ele>1373.1</ele>
        <time>2022-07-12T12:41:07Z</time>
      </trkpt>
      <trkpt lat="46.5149" lon="6.14304">
        <ele>1373.3</ele>
        <time>2022-07-12T12:41:11Z</time>
      </trkpt>
      <trkpt lat="46.51494" lon="6.14305">
        <ele>1373.6</ele>
        <time>2022-07-12T12:41:14Z</time>
      </trkpt>
      <trkpt lat="46.515" lon="6.14306">
        <ele>1374.2</ele>
        <time>2022-07-12T12:41:18Z</time>
      </trkpt>
      <trkpt lat="46.51506" lon="6.14307">
        <ele>1375.1</ele>
        <time>2022-07-12T12:41:23Z</time>
      </trkpt>
      <trkpt lat="46.5151" lon="6.14309">
        <ele>1375.7</ele>
        <time>2022-07-12T12:41:41Z</time>
      </trkpt>
      <trkpt lat="46.51514" lon="6.14314">
        <ele>1375.3</ele>
        <time>2022-07-12T12:41:45Z</time>
      </trkpt>
      <trkpt lat="46.51517" lon="6.14321">
        <ele>1375.3</ele>
        <time>2022-07-12T12:41:49Z</time>
      </trkpt>
      <trkpt lat="46.51521" lon="6.14325">
        <ele>1375.2</ele>
        <time>2022-07-12T12:41:53Z</time>
      </trkpt>
      <trkpt lat="46.51526" lon="6.14328">
        <ele>1374.4</ele>
        <time>2022-07-12T12:41:57Z</time>
      </trkpt>
      <trkpt lat="46.51531" lon="6.1433">
        <ele>1373.4</ele>
        <time>2022-07-12T12:42:01Z</time>
      </trkpt>
      <trkpt lat="46.51536" lon="6.14329">
        <ele>1372.6</ele>
        <time>2022-07-12T12:42:06Z</time>
      </trkpt>
      <trkpt lat="46.5154" lon="6.14327">
        <ele>1373.1</ele>
        <time>2022-07-12T12:42:11Z</time>
      </trkpt>
      <trkpt lat="46.51545" lon="6.14324">
        <ele>1373.7</ele>
        <time>2022-07-12T12:42:17Z</time>
      </trkpt>
      <trkpt lat="46.51549" lon="6.14324">
        <ele>1374.2</ele>
        <time>2022-07-12T12:42:21Z</time>
      </trkpt>
      <trkpt lat="46.51554" lon="6.14321">
        <ele>1375</ele>
        <time>2022-07-12T12:42:26Z</time>
      </trkpt>
      <trkpt lat="46.51552" lon="6.14315">
        <ele>1373.9</ele>
        <time>2022-07-12T12:42:34Z</time>
      </trkpt>
      <trkpt lat="46.51555" lon="6.14309">
        <ele>1371.9</ele>
        <time>2022-07-12T12:42:40Z</time>
      </trkpt>
      <trkpt lat="46.51558" lon="6.14303">
        <ele>1369.4</ele>
        <time>2022-07-12T12:42:49Z</time>
      </trkpt>
      <trkpt lat="46.51561" lon="6.14297">
        <ele>1369.1</ele>
        <time>2022-07-12T12:42:56Z</time>
      </trkpt>
      <trkpt lat="46.51561" lon="6.1429">
        <ele>1368.9</ele>
        <time>2022-07-12T12:43:02Z</time>
      </trkpt>
      <trkpt lat="46.51564" lon="6.14284">
        <ele>1368.6</ele>
        <time>2022-07-12T12:43:07Z</time>
      </trkpt>
      <trkpt lat="46.5157" lon="6.14285">
        <ele>1368.1</ele>
        <time>2022-07-12T12:43:11Z</time>
      </trkpt>
      <trkpt lat="46.51575" lon="6.14284">
        <ele>1367</ele>
        <time>2022-07-12T12:43:17Z</time>
      </trkpt>
      <trkpt lat="46.51579" lon="6.14281">
        <ele>1366.1</ele>
        <time>2022-07-12T12:43:21Z</time>
      </trkpt>
      <trkpt lat="46.51585" lon="6.14279">
        <ele>1365.4</ele>
        <time>2022-07-12T12:43:25Z</time>
      </trkpt>
      <trkpt lat="46.5159" lon="6.14277">
        <ele>1364.5</ele>
        <time>2022-07-12T12:43:31Z</time>
      </trkpt>
      <trkpt lat="46.51593" lon="6.14272">
        <ele>1363.7</ele>
        <time>2022-07-12T12:43:37Z</time>
      </trkpt>
      <trkpt lat="46.51596" lon="6.14266">
        <ele>1363.2</ele>
        <time>2022-07-12T12:43:42Z</time>
      </trkpt>
      <trkpt lat="46.51601" lon="6.14263">
        <ele>1364.1</ele>
        <time>2022-07-12T12:43:53Z</time>
      </trkpt>
      <trkpt lat="46.51605" lon="6.14265">
        <ele>1364.4</ele>
        <time>2022-07-12T12:43:57Z</time>
      </trkpt>
      <trkpt lat="46.51609" lon="6.14267">
        <ele>1363.7</ele>
        <time>2022-07-12T12:44:03Z</time>
      </trkpt>
      <trkpt lat="46.51613" lon="6.14271">
        <ele>1362.6</ele>
        <time>2022-07-12T12:44:09Z</time>
      </trkpt>
      <trkpt lat="46.51618" lon="6.14274">
        <ele>1362.7</ele>
        <time>2022-07-12T12:44:15Z</time>
      </trkpt>
      <trkpt lat="46.51623" lon="6.14275">
        <ele>1362.2</ele>
        <time>2022-07-12T12:44:24Z</time>
      </trkpt>
      <trkpt lat="46.51626" lon="6.14268">
        <ele>1359.4</ele>
        <time>2022-07-12T12:44:34Z</time>
      </trkpt>
      <trkpt lat="46.5163" lon="6.14265">
        <ele>1357.8</ele>
        <time>2022-07-12T12:44:39Z</time>
      </trkpt>
      <trkpt lat="46.51634" lon="6.14261">
        <ele>1356.2</ele>
        <time>2022-07-12T12:44:45Z</time>
      </trkpt>
      <trkpt lat="46.51638" lon="6.14257">
        <ele>1355.4</ele>
        <time>2022-07-12T12:44:51Z</time>
      </trkpt>
      <trkpt lat="46.51641" lon="6.14251">
        <ele>1355.6</ele>
        <time>2022-07-12T12:44:56Z</time>
      </trkpt>
      <trkpt lat="46.51645" lon="6.14247">
        <ele>1356.2</ele>
        <time>2022-07-12T12:45:04Z</time>
      </trkpt>
      <trkpt lat="46.51649" lon="6.14246">
        <ele>1355.5</ele>
        <time>2022-07-12T12:45:10Z</time>
      </trkpt>
      <trkpt lat="46.51655" lon="6.14244">
        <ele>1354.1</ele>
        <time>2022-07-12T12:45:16Z</time>
      </trkpt>
      <trkpt lat="46.51659" lon="6.14246">
        <ele>1353.4</ele>
        <time>2022-07-12T12:45:21Z</time>
      </trkpt>
      <trkpt lat="46.51662" lon="6.14251">
        <ele>1350.7</ele>
        <time>2022-07-12T12:45:39Z</time>
      </trkpt>
      <trkpt lat="46.51668" lon="6.14249">
        <ele>1349.6</ele>
        <time>2022-07-12T12:45:43Z</time>
      </trkpt>
      <trkpt lat="46.51672" lon="6.14247">
        <ele>1349.1</ele>
        <time>2022-07-12T12:45:46Z</time>
      </trkpt>
      <trkpt lat="46.51676" lon="6.14245">
        <ele>1349.2</ele>
        <time>2022-07-12T12:45:50Z</time>
      </trkpt>
      <trkpt lat="46.51681" lon="6.14248">
        <ele>1349.9</ele>
        <time>2022-07-12T12:45:57Z</time>
      </trkpt>
      <trkpt lat="46.51685" lon="6.1425">
        <ele>1350.2</ele>
        <time>2022-07-12T12:46:01Z</time>
      </trkpt>
      <trkpt lat="46.51688" lon="6.14243">
        <ele>1350.3</ele>
        <time>2022-07-12T12:46:07Z</time>
      </trkpt>
      <trkpt lat="46.51692" lon="6.14238">
        <ele>1350</ele>
        <time>2022-07-12T12:46:11Z</time>
      </trkpt>
      <trkpt lat="46.51692" lon="6.14229">
        <ele>1349.6</ele>
        <time>2022-07-12T12:46:14Z</time>
      </trkpt>
      <trkpt lat="46.51693" lon="6.14217">
        <ele>1350.5</ele>
        <time>2022-07-12T12:46:17Z</time>
      </trkpt>
      <trkpt lat="46.51696" lon="6.14212">
        <ele>1351.5</ele>
        <time>2022-07-12T12:46:20Z</time>
      </trkpt>
      <trkpt lat="46.517" lon="6.14211">
        <ele>1347.8</ele>
        <time>2022-07-12T12:46:27Z</time>
      </trkpt>
      <trkpt lat="46.51704" lon="6.14206">
        <ele>1345.3</ele>
        <time>2022-07-12T12:46:36Z</time>
      </trkpt>
      <trkpt lat="46.51709" lon="6.14204">
        <ele>1345.8</ele>
        <time>2022-07-12T12:46:43Z</time>
      </trkpt>
      <trkpt lat="46.5171" lon="6.14196">
        <ele>1347.8</ele>
        <time>2022-07-12T12:46:51Z</time>
      </trkpt>
      <trkpt lat="46.51708" lon="6.14188">
        <ele>1348.5</ele>
        <time>2022-07-12T12:46:56Z</time>
      </trkpt>
      <trkpt lat="46.51708" lon="6.14182">
        <ele>1347.9</ele>
        <time>2022-07-12T12:47:02Z</time>
      </trkpt>
      <trkpt lat="46.51712" lon="6.14178">
        <ele>1346.1</ele>
        <time>2022-07-12T12:47:14Z</time>
      </trkpt>
      <trkpt lat="46.51713" lon="6.14171">
        <ele>1344.4</ele>
        <time>2022-07-12T12:47:23Z</time>
      </trkpt>
      <trkpt lat="46.51717" lon="6.14168">
        <ele>1342.6</ele>
        <time>2022-07-12T12:47:30Z</time>
      </trkpt>
      <trkpt lat="46.51722" lon="6.14166">
        <ele>1340.9</ele>
        <time>2022-07-12T12:47:36Z</time>
      </trkpt>
      <trkpt lat="46.51726" lon="6.14163">
        <ele>1340</ele>
        <time>2022-07-12T12:47:40Z</time>
      </trkpt>
      <trkpt lat="46.51731" lon="6.14162">
        <ele>1339.4</ele>
        <time>2022-07-12T12:47:44Z</time>
      </trkpt>
      <trkpt lat="46.51736" lon="6.14159">
        <ele>1339.2</ele>
        <time>2022-07-12T12:47:49Z</time>
      </trkpt>
      <trkpt lat="46.51739" lon="6.14154">
        <ele>1338.8</ele>
        <time>2022-07-12T12:47:54Z</time>
      </trkpt>
      <trkpt lat="46.51743" lon="6.14151">
        <ele>1338.6</ele>
        <time>2022-07-12T12:47:59Z</time>
      </trkpt>
      <trkpt lat="46.51748" lon="6.14151">
        <ele>1338.1</ele>
        <time>2022-07-12T12:48:03Z</time>
      </trkpt>
      <trkpt lat="46.51753" lon="6.14149">
        <ele>1337.3</ele>
        <time>2022-07-12T12:48:09Z</time>
      </trkpt>
      <trkpt lat="46.51756" lon="6.14145">
        <ele>1336.8</ele>
        <time>2022-07-12T12:48:14Z</time>
      </trkpt>
      <trkpt lat="46.51761" lon="6.14141">
        <ele>1335.4</ele>
        <time>2022-07-12T12:48:19Z</time>
      </trkpt>
      <trkpt lat="46.51766" lon="6.14138">
        <ele>1334</ele>
        <time>2022-07-12T12:48:24Z</time>
      </trkpt>
      <trkpt lat="46.5177" lon="6.14138">
        <ele>1332.9</ele>
        <time>2022-07-12T12:48:29Z</time>
      </trkpt>
      <trkpt lat="46.51774" lon="6.14133">
        <ele>1331.9</ele>
        <time>2022-07-12T12:48:35Z</time>
      </trkpt>
      <trkpt lat="46.51775" lon="6.14127">
        <ele>1332.1</ele>
        <time>2022-07-12T12:48:40Z</time>
      </trkpt>
      <trkpt lat="46.51778" lon="6.14122">
        <ele>1332.6</ele>
        <time>2022-07-12T12:48:49Z</time>
      </trkpt>
      <trkpt lat="46.51785" lon="6.14121">
        <ele>1332.6</ele>
        <time>2022-07-12T12:48:55Z</time>
      </trkpt>
      <trkpt lat="46.51792" lon="6.14122">
        <ele>1332.9</ele>
        <time>2022-07-12T12:48:58Z</time>
      </trkpt>
      <trkpt lat="46.51799" lon="6.14122">
        <ele>1333.2</ele>
        <time>2022-07-12T12:49:01Z</time>
      </trkpt>
      <trkpt lat="46.51804" lon="6.14122">
        <ele>1333.5</ele>
        <time>2022-07-12T12:49:04Z</time>
      </trkpt>
      <trkpt lat="46.51808" lon="6.14128">
        <ele>1333.4</ele>
        <time>2022-07-12T12:49:10Z</time>
      </trkpt>
      <trkpt lat="46.51811" lon="6.14133">
        <ele>1332.7</ele>
        <time>2022-07-12T12:49:15Z</time>
      </trkpt>
      <trkpt lat="46.51815" lon="6.14136">
        <ele>1330.9</ele>
        <time>2022-07-12T12:49:21Z</time>
      </trkpt>
      <trkpt lat="46.51819" lon="6.14141">
        <ele>1329.2</ele>
        <time>2022-07-12T12:49:26Z</time>
      </trkpt>
      <trkpt lat="46.51822" lon="6.14147">
        <ele>1324.1</ele>
        <time>2022-07-12T12:49:36Z</time>
      </trkpt>
      <trkpt lat="46.51824" lon="6.14154">
        <ele>1321.6</ele>
        <time>2022-07-12T12:49:42Z</time>
      </trkpt>
      <trkpt lat="46.51828" lon="6.14157">
        <ele>1320.3</ele>
        <time>2022-07-12T12:49:48Z</time>
      </trkpt>
      <trkpt lat="46.51833" lon="6.14162">
        <ele>1320.2</ele>
        <time>2022-07-12T12:49:55Z</time>
      </trkpt>
      <trkpt lat="46.51837" lon="6.14164">
        <ele>1320.4</ele>
        <time>2022-07-12T12:49:58Z</time>
      </trkpt>
      <trkpt lat="46.51842" lon="6.14167">
        <ele>1320.6</ele>
        <time>2022-07-12T12:50:01Z</time>
      </trkpt>
      <trkpt lat="46.51847" lon="6.14168">
        <ele>1320.7</ele>
        <time>2022-07-12T12:50:04Z</time>
      </trkpt>
      <trkpt lat="46.51852" lon="6.1417">
        <ele>1320.6</ele>
        <time>2022-07-12T12:50:10Z</time>
      </trkpt>
      <trkpt lat="46.51856" lon="6.14171">
        <ele>1320.5</ele>
        <time>2022-07-12T12:50:16Z</time>
      </trkpt>
      <trkpt lat="46.51862" lon="6.1417">
        <ele>1320.8</ele>
        <time>2022-07-12T12:50:20Z</time>
      </trkpt>
      <trkpt lat="46.51867" lon="6.14168">
        <ele>1321.1</ele>
        <time>2022-07-12T12:50:23Z</time>
      </trkpt>
      <trkpt lat="46.51871" lon="6.14168">
        <ele>1320.7</ele>
        <time>2022-07-12T12:50:31Z</time>
      </trkpt>
      <trkpt lat="46.51876" lon="6.14165">
        <ele>1320</ele>
        <time>2022-07-12T12:50:37Z</time>
      </trkpt>
      <trkpt lat="46.5188" lon="6.1416">
        <ele>1319.9</ele>
        <time>2022-07-12T12:50:43Z</time>
      </trkpt>
      <trkpt lat="46.51884" lon="6.14155">
        <ele>1319.1</ele>
        <time>2022-07-12T12:50:51Z</time>
      </trkpt>
      <trkpt lat="46.51889" lon="6.14156">
        <ele>1317.6</ele>
        <time>2022-07-12T12:50:58Z</time>
      </trkpt>
      <trkpt lat="46.51888" lon="6.14162">
        <ele>1316.8</ele>
        <time>2022-07-12T12:51:05Z</time>
      </trkpt>
      <trkpt lat="46.51893" lon="6.14157">
        <ele>1316.9</ele>
        <time>2022-07-12T12:51:14Z</time>
      </trkpt>
      <trkpt lat="46.51897" lon="6.14153">
        <ele>1316.3</ele>
        <time>2022-07-12T12:51:18Z</time>
      </trkpt>
      <trkpt lat="46.51902" lon="6.14152">
        <ele>1316.2</ele>
        <time>2022-07-12T12:51:22Z</time>
      </trkpt>
      <trkpt lat="46.51908" lon="6.1415">
        <ele>1315.9</ele>
        <time>2022-07-12T12:51:27Z</time>
      </trkpt>
      <trkpt lat="46.51912" lon="6.14149">
        <ele>1314.9</ele>
        <time>2022-07-12T12:51:31Z</time>
      </trkpt>
      <trkpt lat="46.51908" lon="6.1415">
        <ele>1306.7</ele>
        <time>2022-07-12T12:51:45Z</time>
      </trkpt>
      <trkpt lat="46.51912" lon="6.14149">
        <ele>1297.6</ele>
        <time>2022-07-12T12:52:15Z</time>
      </trkpt>
      <trkpt lat="46.51915" lon="6.14145">
        <ele>1298.3</ele>
        <time>2022-07-12T12:52:24Z</time>
      </trkpt>
      <trkpt lat="46.51919" lon="6.14141">
        <ele>1298.5</ele>
        <time>2022-07-12T12:52:29Z</time>
      </trkpt>
      <trkpt lat="46.51923" lon="6.14137">
        <ele>1298</ele>
        <time>2022-07-12T12:52:34Z</time>
      </trkpt>
      <trkpt lat="46.51927" lon="6.14132">
        <ele>1297.4</ele>
        <time>2022-07-12T12:52:41Z</time>
      </trkpt>
      <trkpt lat="46.51931" lon="6.14129">
        <ele>1297.9</ele>
        <time>2022-07-12T12:52:44Z</time>
      </trkpt>
      <trkpt lat="46.51935" lon="6.14125">
        <ele>1298.6</ele>
        <time>2022-07-12T12:52:47Z</time>
      </trkpt>
      <trkpt lat="46.51939" lon="6.14122">
        <ele>1299.7</ele>
        <time>2022-07-12T12:52:50Z</time>
      </trkpt>
      <trkpt lat="46.51944" lon="6.14119">
        <ele>1300.8</ele>
        <time>2022-07-12T12:52:53Z</time>
      </trkpt>
      <trkpt lat="46.51948" lon="6.14115">
        <ele>1302.2</ele>
        <time>2022-07-12T12:52:57Z</time>
      </trkpt>
      <trkpt lat="46.51952" lon="6.14111">
        <ele>1303.2</ele>
        <time>2022-07-12T12:53:02Z</time>
      </trkpt>
      <trkpt lat="46.51957" lon="6.14108">
        <ele>1303.2</ele>
        <time>2022-07-12T12:53:08Z</time>
      </trkpt>
      <trkpt lat="46.51961" lon="6.14105">
        <ele>1301.6</ele>
        <time>2022-07-12T12:53:18Z</time>
      </trkpt>
      <trkpt lat="46.51965" lon="6.14103">
        <ele>1300.7</ele>
        <time>2022-07-12T12:53:24Z</time>
      </trkpt>
      <trkpt lat="46.51971" lon="6.14102">
        <ele>1301.2</ele>
        <time>2022-07-12T12:53:29Z</time>
      </trkpt>
      <trkpt lat="46.51975" lon="6.14103">
        <ele>1302.5</ele>
        <time>2022-07-12T12:53:34Z</time>
      </trkpt>
      <trkpt lat="46.5198" lon="6.14102">
        <ele>1303.5</ele>
        <time>2022-07-12T12:53:38Z</time>
      </trkpt>
      <trkpt lat="46.51985" lon="6.14101">
        <ele>1304.2</ele>
        <time>2022-07-12T12:53:42Z</time>
      </trkpt>
      <trkpt lat="46.51988" lon="6.14095">
        <ele>1305.3</ele>
        <time>2022-07-12T12:53:51Z</time>
      </trkpt>
      <trkpt lat="46.51993" lon="6.14092">
        <ele>1305</ele>
        <time>2022-07-12T12:53:58Z</time>
      </trkpt>
      <trkpt lat="46.51997" lon="6.14093">
        <ele>1304.5</ele>
        <time>2022-07-12T12:54:02Z</time>
      </trkpt>
      <trkpt lat="46.52002" lon="6.14092">
        <ele>1302.9</ele>
        <time>2022-07-12T12:54:10Z</time>
      </trkpt>
      <trkpt lat="46.52006" lon="6.14089">
        <ele>1299.1</ele>
        <time>2022-07-12T12:54:24Z</time>
      </trkpt>
      <trkpt lat="46.52011" lon="6.14089">
        <ele>1298.2</ele>
        <time>2022-07-12T12:54:27Z</time>
      </trkpt>
      <trkpt lat="46.52016" lon="6.14089">
        <ele>1297.2</ele>
        <time>2022-07-12T12:54:31Z</time>
      </trkpt>
      <trkpt lat="46.52021" lon="6.14088">
        <ele>1296.4</ele>
        <time>2022-07-12T12:54:37Z</time>
      </trkpt>
      <trkpt lat="46.52025" lon="6.14086">
        <ele>1296</ele>
        <time>2022-07-12T12:54:44Z</time>
      </trkpt>
      <trkpt lat="46.5203" lon="6.14085">
        <ele>1294.6</ele>
        <time>2022-07-12T12:54:51Z</time>
      </trkpt>
      <trkpt lat="46.52036" lon="6.14086">
        <ele>1293.7</ele>
        <time>2022-07-12T12:54:56Z</time>
      </trkpt>
      <trkpt lat="46.5204" lon="6.14087">
        <ele>1293.2</ele>
        <time>2022-07-12T12:55:00Z</time>
      </trkpt>
      <trkpt lat="46.52046" lon="6.14088">
        <ele>1293</ele>
        <time>2022-07-12T12:55:03Z</time>
      </trkpt>
      <trkpt lat="46.52052" lon="6.14089">
        <ele>1292.9</ele>
        <time>2022-07-12T12:55:06Z</time>
      </trkpt>
      <trkpt lat="46.52056" lon="6.14088">
        <ele>1293.2</ele>
        <time>2022-07-12T12:55:09Z</time>
      </trkpt>
      <trkpt lat="46.52061" lon="6.14086">
        <ele>1294.2</ele>
        <time>2022-07-12T12:55:14Z</time>
      </trkpt>
      <trkpt lat="46.52066" lon="6.14086">
        <ele>1295.4</ele>
        <time>2022-07-12T12:55:19Z</time>
      </trkpt>
      <trkpt lat="46.52071" lon="6.14085">
        <ele>1296</ele>
        <time>2022-07-12T12:55:23Z</time>
      </trkpt>
      <trkpt lat="46.52077" lon="6.14085">
        <ele>1296.3</ele>
        <time>2022-07-12T12:55:28Z</time>
      </trkpt>
      <trkpt lat="46.52081" lon="6.14084">
        <ele>1295.8</ele>
        <time>2022-07-12T12:55:35Z</time>
      </trkpt>
      <trkpt lat="46.52086" lon="6.14081">
        <ele>1295.2</ele>
        <time>2022-07-12T12:55:41Z</time>
      </trkpt>
      <trkpt lat="46.52091" lon="6.14079">
        <ele>1295.4</ele>
        <time>2022-07-12T12:55:46Z</time>
      </trkpt>
      <trkpt lat="46.52094" lon="6.14074">
        <ele>1295.7</ele>
        <time>2022-07-12T12:55:51Z</time>
      </trkpt>
      <trkpt lat="46.52091" lon="6.14078">
        <ele>1292</ele>
        <time>2022-07-12T12:56:13Z</time>
      </trkpt>
      <trkpt lat="46.52095" lon="6.14081">
        <ele>1289.6</ele>
        <time>2022-07-12T12:56:24Z</time>
      </trkpt>
      <trkpt lat="46.521" lon="6.14082">
        <ele>1289.3</ele>
        <time>2022-07-12T12:56:28Z</time>
      </trkpt>
      <trkpt lat="46.52105" lon="6.14082">
        <ele>1289.9</ele>
        <time>2022-07-12T12:56:33Z</time>
      </trkpt>
      <trkpt lat="46.52108" lon="6.14076">
        <ele>1289.4</ele>
        <time>2022-07-12T12:56:40Z</time>
      </trkpt>
      <trkpt lat="46.52113" lon="6.14075">
        <ele>1288.5</ele>
        <time>2022-07-12T12:56:46Z</time>
      </trkpt>
      <trkpt lat="46.52118" lon="6.14072">
        <ele>1288.1</ele>
        <time>2022-07-12T12:56:51Z</time>
      </trkpt>
      <trkpt lat="46.52122" lon="6.14069">
        <ele>1288.2</ele>
        <time>2022-07-12T12:56:57Z</time>
      </trkpt>
      <trkpt lat="46.52128" lon="6.14066">
        <ele>1288.1</ele>
        <time>2022-07-12T12:57:02Z</time>
      </trkpt>
      <trkpt lat="46.52133" lon="6.14061">
        <ele>1287.9</ele>
        <time>2022-07-12T12:57:07Z</time>
      </trkpt>
      <trkpt lat="46.52137" lon="6.14059">
        <ele>1287.9</ele>
        <time>2022-07-12T12:57:10Z</time>
      </trkpt>
      <trkpt lat="46.52142" lon="6.14057">
        <ele>1288</ele>
        <time>2022-07-12T12:57:14Z</time>
      </trkpt>
      <trkpt lat="46.52147" lon="6.14059">
        <ele>1288</ele>
        <time>2022-07-12T12:57:21Z</time>
      </trkpt>
      <trkpt lat="46.52152" lon="6.1406">
        <ele>1288</ele>
        <time>2022-07-12T12:57:25Z</time>
      </trkpt>
      <trkpt lat="46.52157" lon="6.14061">
        <ele>1288.2</ele>
        <time>2022-07-12T12:57:28Z</time>
      </trkpt>
      <trkpt lat="46.52161" lon="6.14061">
        <ele>1288.3</ele>
        <time>2022-07-12T12:57:31Z</time>
      </trkpt>
      <trkpt lat="46.52166" lon="6.14061">
        <ele>1288.2</ele>
        <time>2022-07-12T12:57:36Z</time>
      </trkpt>
      <trkpt lat="46.52171" lon="6.14062">
        <ele>1287.5</ele>
        <time>2022-07-12T12:57:42Z</time>
      </trkpt>
      <trkpt lat="46.52173" lon="6.14056">
        <ele>1284.3</ele>
        <time>2022-07-12T12:58:00Z</time>
      </trkpt>
      <trkpt lat="46.52176" lon="6.1405">
        <ele>1283.5</ele>
        <time>2022-07-12T12:58:06Z</time>
      </trkpt>
      <trkpt lat="46.52177" lon="6.14044">
        <ele>1282.2</ele>
        <time>2022-07-12T12:58:13Z</time>
      </trkpt>
      <trkpt lat="46.52181" lon="6.14038">
        <ele>1281.4</ele>
        <time>2022-07-12T12:58:19Z</time>
      </trkpt>
      <trkpt lat="46.52186" lon="6.14036">
        <ele>1280.9</ele>
        <time>2022-07-12T12:58:22Z</time>
      </trkpt>
      <trkpt lat="46.52192" lon="6.14036">
        <ele>1280.6</ele>
        <time>2022-07-12T12:58:26Z</time>
      </trkpt>
      <trkpt lat="46.52197" lon="6.14037">
        <ele>1281.2</ele>
        <time>2022-07-12T12:58:30Z</time>
      </trkpt>
      <trkpt lat="46.52201" lon="6.14034">
        <ele>1284.3</ele>
        <time>2022-07-12T12:58:43Z</time>
      </trkpt>
      <trkpt lat="46.52205" lon="6.14026">
        <ele>1285.3</ele>
        <time>2022-07-12T12:58:46Z</time>
      </trkpt>
      <trkpt lat="46.52208" lon="6.1402">
        <ele>1286</ele>
        <time>2022-07-12T12:58:50Z</time>
      </trkpt>
      <trkpt lat="46.52212" lon="6.14017">
        <ele>1286.2</ele>
        <time>2022-07-12T12:58:54Z</time>
      </trkpt>
      <trkpt lat="46.52216" lon="6.14013">
        <ele>1286.1</ele>
        <time>2022-07-12T12:58:58Z</time>
      </trkpt>
      <trkpt lat="46.52214" lon="6.14006">
        <ele>1285.9</ele>
        <time>2022-07-12T12:59:07Z</time>
      </trkpt>
      <trkpt lat="46.52219" lon="6.14004">
        <ele>1284</ele>
        <time>2022-07-12T12:59:25Z</time>
      </trkpt>
      <trkpt lat="46.52217" lon="6.13997">
        <ele>1282.8</ele>
        <time>2022-07-12T12:59:33Z</time>
      </trkpt>
      <trkpt lat="46.52213" lon="6.13992">
        <ele>1282.7</ele>
        <time>2022-07-12T12:59:37Z</time>
      </trkpt>
      <trkpt lat="46.52209" lon="6.13987">
        <ele>1283.9</ele>
        <time>2022-07-12T12:59:44Z</time>
      </trkpt>
      <trkpt lat="46.52208" lon="6.13979">
        <ele>1284.7</ele>
        <time>2022-07-12T12:59:49Z</time>
      </trkpt>
      <trkpt lat="46.52207" lon="6.13973">
        <ele>1285.4</ele>
        <time>2022-07-12T12:59:52Z</time>
      </trkpt>
      <trkpt lat="46.52207" lon="6.13966">
        <ele>1286.1</ele>
        <time>2022-07-12T12:59:56Z</time>
      </trkpt>
      <trkpt lat="46.52205" lon="6.1396">
        <ele>1286.4</ele>
        <time>2022-07-12T13:00:00Z</time>
      </trkpt>
      <trkpt lat="46.52203" lon="6.13954">
        <ele>1286.5</ele>
        <time>2022-07-12T13:00:04Z</time>
      </trkpt>
      <trkpt lat="46.52199" lon="6.13949">
        <ele>1286.5</ele>
        <time>2022-07-12T13:00:08Z</time>
      </trkpt>
      <trkpt lat="46.52198" lon="6.13942">
        <ele>1286.4</ele>
        <time>2022-07-12T13:00:12Z</time>
      </trkpt>
      <trkpt lat="46.52197" lon="6.13935">
        <ele>1286.4</ele>
        <time>2022-07-12T13:00:16Z</time>
      </trkpt>
      <trkpt lat="46.52199" lon="6.13929">
        <ele>1287.5</ele>
        <time>2022-07-12T13:00:20Z</time>
      </trkpt>
      <trkpt lat="46.52199" lon="6.13921">
        <ele>1288</ele>
        <time>2022-07-12T13:00:25Z</time>
      </trkpt>
      <trkpt lat="46.52198" lon="6.13915">
        <ele>1287.4</ele>
        <time>2022-07-12T13:00:30Z</time>
      </trkpt>
      <trkpt lat="46.52196" lon="6.13907">
        <ele>1286.6</ele>
        <time>2022-07-12T13:00:35Z</time>
      </trkpt>
      <trkpt lat="46.52195" lon="6.13901">
        <ele>1285.7</ele>
        <time>2022-07-12T13:00:40Z</time>
      </trkpt>
      <trkpt lat="46.52193" lon="6.13894">
        <ele>1285.1</ele>
        <time>2022-07-12T13:00:46Z</time>
      </trkpt>
      <trkpt lat="46.5219" lon="6.13887">
        <ele>1284.9</ele>
        <time>2022-07-12T13:00:51Z</time>
      </trkpt>
      <trkpt lat="46.52187" lon="6.13881">
        <ele>1285.5</ele>
        <time>2022-07-12T13:00:55Z</time>
      </trkpt>
      <trkpt lat="46.52185" lon="6.13875">
        <ele>1286.4</ele>
        <time>2022-07-12T13:01:00Z</time>
      </trkpt>
      <trkpt lat="46.52184" lon="6.13868">
        <ele>1287</ele>
        <time>2022-07-12T13:01:05Z</time>
      </trkpt>
      <trkpt lat="46.52185" lon="6.13861">
        <ele>1287.3</ele>
        <time>2022-07-12T13:01:10Z</time>
      </trkpt>
      <trkpt lat="46.52186" lon="6.13855">
        <ele>1287.5</ele>
        <time>2022-07-12T13:01:19Z</time>
      </trkpt>
      <trkpt lat="46.52187" lon="6.13847">
        <ele>1286.7</ele>
        <time>2022-07-12T13:01:53Z</time>
      </trkpt>
      <trkpt lat="46.52189" lon="6.13841">
        <ele>1287.1</ele>
        <time>2022-07-12T13:01:57Z</time>
      </trkpt>
      <trkpt lat="46.52192" lon="6.13835">
        <ele>1287.4</ele>
        <time>2022-07-12T13:02:00Z</time>
      </trkpt>
      <trkpt lat="46.52195" lon="6.1383">
        <ele>1287.8</ele>
        <time>2022-07-12T13:02:04Z</time>
      </trkpt>
      <trkpt lat="46.52199" lon="6.13825">
        <ele>1287.8</ele>
        <time>2022-07-12T13:02:09Z</time>
      </trkpt>
      <trkpt lat="46.52198" lon="6.13819">
        <ele>1287.6</ele>
        <time>2022-07-12T13:02:15Z</time>
      </trkpt>
      <trkpt lat="46.52201" lon="6.13812">
        <ele>1287.6</ele>
        <time>2022-07-12T13:02:25Z</time>
      </trkpt>
      <trkpt lat="46.52205" lon="6.13807">
        <ele>1287.4</ele>
        <time>2022-07-12T13:02:29Z</time>
      </trkpt>
      <trkpt lat="46.52209" lon="6.13803">
        <ele>1286.8</ele>
        <time>2022-07-12T13:02:32Z</time>
      </trkpt>
      <trkpt lat="46.52213" lon="6.13798">
        <ele>1285.2</ele>
        <time>2022-07-12T13:02:37Z</time>
      </trkpt>
      <trkpt lat="46.52218" lon="6.13793">
        <ele>1283.6</ele>
        <time>2022-07-12T13:02:42Z</time>
      </trkpt>
      <trkpt lat="46.52223" lon="6.1379">
        <ele>1282.1</ele>
        <time>2022-07-12T13:02:47Z</time>
      </trkpt>
      <trkpt lat="46.52227" lon="6.13787">
        <ele>1281.1</ele>
        <time>2022-07-12T13:02:51Z</time>
      </trkpt>
      <trkpt lat="46.52231" lon="6.13784">
        <ele>1279.7</ele>
        <time>2022-07-12T13:02:56Z</time>
      </trkpt>
      <trkpt lat="46.52236" lon="6.13781">
        <ele>1278.6</ele>
        <time>2022-07-12T13:03:02Z</time>
      </trkpt>
      <trkpt lat="46.52241" lon="6.1378">
        <ele>1277.7</ele>
        <time>2022-07-12T13:03:06Z</time>
      </trkpt>
      <trkpt lat="46.52246" lon="6.13777">
        <ele>1277.2</ele>
        <time>2022-07-12T13:03:11Z</time>
      </trkpt>
      <trkpt lat="46.52248" lon="6.1377">
        <ele>1276</ele>
        <time>2022-07-12T13:03:18Z</time>
      </trkpt>
      <trkpt lat="46.5225" lon="6.13763">
        <ele>1275.5</ele>
        <time>2022-07-12T13:03:23Z</time>
      </trkpt>
      <trkpt lat="46.5225" lon="6.13755">
        <ele>1275.4</ele>
        <time>2022-07-12T13:03:27Z</time>
      </trkpt>
      <trkpt lat="46.52248" lon="6.13749">
        <ele>1275.8</ele>
        <time>2022-07-12T13:03:31Z</time>
      </trkpt>
      <trkpt lat="46.52244" lon="6.13744">
        <ele>1276.2</ele>
        <time>2022-07-12T13:03:36Z</time>
      </trkpt>
      <trkpt lat="46.52241" lon="6.13739">
        <ele>1276.2</ele>
        <time>2022-07-12T13:03:41Z</time>
      </trkpt>
      <trkpt lat="46.52239" lon="6.13733">
        <ele>1276.6</ele>
        <time>2022-07-12T13:03:46Z</time>
      </trkpt>
      <trkpt lat="46.52238" lon="6.13726">
        <ele>1276.7</ele>
        <time>2022-07-12T13:03:51Z</time>
      </trkpt>
      <trkpt lat="46.5224" lon="6.13719">
        <ele>1276.5</ele>
        <time>2022-07-12T13:03:55Z</time>
      </trkpt>
      <trkpt lat="46.52243" lon="6.13713">
        <ele>1276.2</ele>
        <time>2022-07-12T13:03:59Z</time>
      </trkpt>
      <trkpt lat="46.52246" lon="6.13707">
        <ele>1275.8</ele>
        <time>2022-07-12T13:04:03Z</time>
      </trkpt>
      <trkpt lat="46.52248" lon="6.13701">
        <ele>1275.1</ele>
        <time>2022-07-12T13:04:09Z</time>
      </trkpt>
      <trkpt lat="46.52252" lon="6.13697">
        <ele>1274.3</ele>
        <time>2022-07-12T13:04:13Z</time>
      </trkpt>
      <trkpt lat="46.52254" lon="6.13691">
        <ele>1273.5</ele>
        <time>2022-07-12T13:04:19Z</time>
      </trkpt>
      <trkpt lat="46.52257" lon="6.13685">
        <ele>1272</ele>
        <time>2022-07-12T13:04:28Z</time>
      </trkpt>
      <trkpt lat="46.52257" lon="6.13678">
        <ele>1269.4</ele>
        <time>2022-07-12T13:04:36Z</time>
      </trkpt>
      <trkpt lat="46.52257" lon="6.1367">
        <ele>1267.4</ele>
        <time>2022-07-12T13:04:42Z</time>
      </trkpt>
      <trkpt lat="46.52254" lon="6.13663">
        <ele>1266.5</ele>
        <time>2022-07-12T13:04:47Z</time>
      </trkpt>
      <trkpt lat="46.52252" lon="6.13656">
        <ele>1265.7</ele>
        <time>2022-07-12T13:04:53Z</time>
      </trkpt>
      <trkpt lat="46.52248" lon="6.13652">
        <ele>1264.6</ele>
        <time>2022-07-12T13:04:58Z</time>
      </trkpt>
      <trkpt lat="46.52246" lon="6.13646">
        <ele>1263.2</ele>
        <time>2022-07-12T13:05:04Z</time>
      </trkpt>
      <trkpt lat="46.52242" lon="6.13642">
        <ele>1262.7</ele>
        <time>2022-07-12T13:05:10Z</time>
      </trkpt>
      <trkpt lat="46.52245" lon="6.13636">
        <ele>1262.6</ele>
        <time>2022-07-12T13:05:19Z</time>
      </trkpt>
      <trkpt lat="46.52246" lon="6.13644">
        <ele>1255.4</ele>
        <time>2022-07-12T13:05:53Z</time>
      </trkpt>
      <trkpt lat="46.5225" lon="6.13641">
        <ele>1257.7</ele>
        <time>2022-07-12T13:06:11Z</time>
      </trkpt>
      <trkpt lat="46.52247" lon="6.13636">
        <ele>1259</ele>
        <time>2022-07-12T13:06:20Z</time>
      </trkpt>
      <trkpt lat="46.52242" lon="6.13633">
        <ele>1259.9</ele>
        <time>2022-07-12T13:06:23Z</time>
      </trkpt>
      <trkpt lat="46.52238" lon="6.13628">
        <ele>1260.6</ele>
        <time>2022-07-12T13:06:27Z</time>
      </trkpt>
      <trkpt lat="46.52235" lon="6.13624">
        <ele>1260.4</ele>
        <time>2022-07-12T13:06:30Z</time>
      </trkpt>
      <trkpt lat="46.52234" lon="6.13616">
        <ele>1259.5</ele>
        <time>2022-07-12T13:06:35Z</time>
      </trkpt>
      <trkpt lat="46.52232" lon="6.13609">
        <ele>1259.3</ele>
        <time>2022-07-12T13:06:40Z</time>
      </trkpt>
      <trkpt lat="46.52229" lon="6.13603">
        <ele>1258.8</ele>
        <time>2022-07-12T13:06:48Z</time>
      </trkpt>
      <trkpt lat="46.52228" lon="6.13597">
        <ele>1258.3</ele>
        <time>2022-07-12T13:06:55Z</time>
      </trkpt>
      <trkpt lat="46.52223" lon="6.13592">
        <ele>1256.9</ele>
        <time>2022-07-12T13:07:01Z</time>
      </trkpt>
      <trkpt lat="46.5222" lon="6.13587">
        <ele>1256.3</ele>
        <time>2022-07-12T13:07:06Z</time>
      </trkpt>
      <trkpt lat="46.52219" lon="6.1358">
        <ele>1257.6</ele>
        <time>2022-07-12T13:07:12Z</time>
      </trkpt>
      <trkpt lat="46.52219" lon="6.13573">
        <ele>1259</ele>
        <time>2022-07-12T13:07:15Z</time>
      </trkpt>
      <trkpt lat="46.52217" lon="6.13566">
        <ele>1260.9</ele>
        <time>2022-07-12T13:07:18Z</time>
      </trkpt>
      <trkpt lat="46.52214" lon="6.13561">
        <ele>1262.8</ele>
        <time>2022-07-12T13:07:21Z</time>
      </trkpt>
      <trkpt lat="46.52211" lon="6.13557">
        <ele>1264.8</ele>
        <time>2022-07-12T13:07:24Z</time>
      </trkpt>
      <trkpt lat="46.52207" lon="6.13552">
        <ele>1267.7</ele>
        <time>2022-07-12T13:07:29Z</time>
      </trkpt>
      <trkpt lat="46.52208" lon="6.13546">
        <ele>1270.4</ele>
        <time>2022-07-12T13:07:35Z</time>
      </trkpt>
      <trkpt lat="46.52209" lon="6.13539">
        <ele>1271.9</ele>
        <time>2022-07-12T13:07:41Z</time>
      </trkpt>
      <trkpt lat="46.52205" lon="6.13533">
        <ele>1271.9</ele>
        <time>2022-07-12T13:07:46Z</time>
      </trkpt>
      <trkpt lat="46.52202" lon="6.13527">
        <ele>1271.2</ele>
        <time>2022-07-12T13:07:50Z</time>
      </trkpt>
      <trkpt lat="46.52199" lon="6.13521">
        <ele>1270.9</ele>
        <time>2022-07-12T13:07:53Z</time>
      </trkpt>
      <trkpt lat="46.52196" lon="6.13516">
        <ele>1270.2</ele>
        <time>2022-07-12T13:07:59Z</time>
      </trkpt>
      <trkpt lat="46.52191" lon="6.13513">
        <ele>1269.3</ele>
        <time>2022-07-12T13:08:04Z</time>
      </trkpt>
      <trkpt lat="46.52187" lon="6.13509">
        <ele>1268.5</ele>
        <time>2022-07-12T13:08:08Z</time>
      </trkpt>
      <trkpt lat="46.52184" lon="6.13504">
        <ele>1267.8</ele>
        <time>2022-07-12T13:08:12Z</time>
      </trkpt>
      <trkpt lat="46.52179" lon="6.13501">
        <ele>1266.9</ele>
        <time>2022-07-12T13:08:16Z</time>
      </trkpt>
      <trkpt lat="46.52175" lon="6.13498">
        <ele>1265.5</ele>
        <time>2022-07-12T13:08:21Z</time>
      </trkpt>
      <trkpt lat="46.52172" lon="6.13494">
        <ele>1264.7</ele>
        <time>2022-07-12T13:08:28Z</time>
      </trkpt>
      <trkpt lat="46.52168" lon="6.13488">
        <ele>1264.5</ele>
        <time>2022-07-12T13:08:33Z</time>
      </trkpt>
      <trkpt lat="46.52165" lon="6.13482">
        <ele>1263.5</ele>
        <time>2022-07-12T13:08:37Z</time>
      </trkpt>
      <trkpt lat="46.5216" lon="6.13479">
        <ele>1261.4</ele>
        <time>2022-07-12T13:08:42Z</time>
      </trkpt>
      <trkpt lat="46.52155" lon="6.13476">
        <ele>1259.7</ele>
        <time>2022-07-12T13:08:47Z</time>
      </trkpt>
      <trkpt lat="46.52151" lon="6.13475">
        <ele>1258.1</ele>
        <time>2022-07-12T13:08:52Z</time>
      </trkpt>
      <trkpt lat="46.52146" lon="6.13476">
        <ele>1256.1</ele>
        <time>2022-07-12T13:08:57Z</time>
      </trkpt>
      <trkpt lat="46.52141" lon="6.13473">
        <ele>1254.1</ele>
        <time>2022-07-12T13:09:05Z</time>
      </trkpt>
      <trkpt lat="46.52136" lon="6.13471">
        <ele>1253.4</ele>
        <time>2022-07-12T13:09:11Z</time>
      </trkpt>
      <trkpt lat="46.52133" lon="6.13466">
        <ele>1253.6</ele>
        <time>2022-07-12T13:09:18Z</time>
      </trkpt>
      <trkpt lat="46.5213" lon="6.13461">
        <ele>1255</ele>
        <time>2022-07-12T13:09:23Z</time>
      </trkpt>
      <trkpt lat="46.52126" lon="6.13455">
        <ele>1256.6</ele>
        <time>2022-07-12T13:09:28Z</time>
      </trkpt>
      <trkpt lat="46.52124" lon="6.13448">
        <ele>1257.9</ele>
        <time>2022-07-12T13:09:33Z</time>
      </trkpt>
      <trkpt lat="46.52121" lon="6.13443">
        <ele>1258.5</ele>
        <time>2022-07-12T13:09:39Z</time>
      </trkpt>
      <trkpt lat="46.52118" lon="6.13437">
        <ele>1259.2</ele>
        <time>2022-07-12T13:09:44Z</time>
      </trkpt>
      <trkpt lat="46.52114" lon="6.13433">
        <ele>1259.9</ele>
        <time>2022-07-12T13:09:52Z</time>
      </trkpt>
      <trkpt lat="46.52112" lon="6.13428">
        <ele>1260.1</ele>
        <time>2022-07-12T13:09:57Z</time>
      </trkpt>
      <trkpt lat="46.52109" lon="6.13422">
        <ele>1261.1</ele>
        <time>2022-07-12T13:10:04Z</time>
      </trkpt>
      <trkpt lat="46.52104" lon="6.13419">
        <ele>1262</ele>
        <time>2022-07-12T13:10:09Z</time>
      </trkpt>
      <trkpt lat="46.521" lon="6.13415">
        <ele>1264.3</ele>
        <time>2022-07-12T13:10:18Z</time>
      </trkpt>
      <trkpt lat="46.52095" lon="6.13414">
        <ele>1271.8</ele>
        <time>2022-07-12T13:10:25Z</time>
      </trkpt>
      <trkpt lat="46.52091" lon="6.13411">
        <ele>1276.6</ele>
        <time>2022-07-12T13:10:33Z</time>
      </trkpt>
      <trkpt lat="46.52086" lon="6.13409">
        <ele>1276.7</ele>
        <time>2022-07-12T13:10:37Z</time>
      </trkpt>
      <trkpt lat="46.52081" lon="6.13406">
        <ele>1275.8</ele>
        <time>2022-07-12T13:10:41Z</time>
      </trkpt>
      <trkpt lat="46.52076" lon="6.13403">
        <ele>1275.2</ele>
        <time>2022-07-12T13:10:45Z</time>
      </trkpt>
      <trkpt lat="46.52071" lon="6.13402">
        <ele>1274.3</ele>
        <time>2022-07-12T13:10:49Z</time>
      </trkpt>
      <trkpt lat="46.52065" lon="6.13402">
        <ele>1273.2</ele>
        <time>2022-07-12T13:10:53Z</time>
      </trkpt>
      <trkpt lat="46.52061" lon="6.134">
        <ele>1272.1</ele>
        <time>2022-07-12T13:10:57Z</time>
      </trkpt>
      <trkpt lat="46.52058" lon="6.13395">
        <ele>1270.5</ele>
        <time>2022-07-12T13:11:03Z</time>
      </trkpt>
      <trkpt lat="46.52054" lon="6.1339">
        <ele>1269.4</ele>
        <time>2022-07-12T13:11:10Z</time>
      </trkpt>
      <trkpt lat="46.5205" lon="6.13386">
        <ele>1268.9</ele>
        <time>2022-07-12T13:11:15Z</time>
      </trkpt>
      <trkpt lat="46.52046" lon="6.13382">
        <ele>1268</ele>
        <time>2022-07-12T13:11:20Z</time>
      </trkpt>
      <trkpt lat="46.52044" lon="6.13376">
        <ele>1266.4</ele>
        <time>2022-07-12T13:11:27Z</time>
      </trkpt>
      <trkpt lat="46.52041" lon="6.13371">
        <ele>1263.5</ele>
        <time>2022-07-12T13:11:55Z</time>
      </trkpt>
      <trkpt lat="46.52038" lon="6.13364">
        <ele>1262.6</ele>
        <time>2022-07-12T13:12:04Z</time>
      </trkpt>
      <trkpt lat="46.52033" lon="6.13362">
        <ele>1262.1</ele>
        <time>2022-07-12T13:12:07Z</time>
      </trkpt>
      <trkpt lat="46.52028" lon="6.13357">
        <ele>1261.8</ele>
        <time>2022-07-12T13:12:10Z</time>
      </trkpt>
      <trkpt lat="46.52024" lon="6.13354">
        <ele>1261.7</ele>
        <time>2022-07-12T13:12:13Z</time>
      </trkpt>
      <trkpt lat="46.5202" lon="6.13352">
        <ele>1261.8</ele>
        <time>2022-07-12T13:12:17Z</time>
      </trkpt>
      <trkpt lat="46.52014" lon="6.13351">
        <ele>1261.7</ele>
        <time>2022-07-12T13:12:21Z</time>
      </trkpt>
      <trkpt lat="46.52009" lon="6.1335">
        <ele>1261.5</ele>
        <time>2022-07-12T13:12:26Z</time>
      </trkpt>
      <trkpt lat="46.52006" lon="6.13344">
        <ele>1260</ele>
        <time>2022-07-12T13:12:40Z</time>
      </trkpt>
      <trkpt lat="46.52001" lon="6.1334">
        <ele>1259</ele>
        <time>2022-07-12T13:12:45Z</time>
      </trkpt>
      <trkpt lat="46.51996" lon="6.13339">
        <ele>1258.3</ele>
        <time>2022-07-12T13:12:48Z</time>
      </trkpt>
      <trkpt lat="46.51991" lon="6.13337">
        <ele>1258.1</ele>
        <time>2022-07-12T13:12:51Z</time>
      </trkpt>
      <trkpt lat="46.51987" lon="6.13334">
        <ele>1257.9</ele>
        <time>2022-07-12T13:12:54Z</time>
      </trkpt>
      <trkpt lat="46.51984" lon="6.13329">
        <ele>1257.7</ele>
        <time>2022-07-12T13:12:58Z</time>
      </trkpt>
      <trkpt lat="46.5198" lon="6.13325">
        <ele>1257.6</ele>
        <time>2022-07-12T13:13:03Z</time>
      </trkpt>
      <trkpt lat="46.51976" lon="6.13322">
        <ele>1258</ele>
        <time>2022-07-12T13:13:08Z</time>
      </trkpt>
      <trkpt lat="46.51972" lon="6.13318">
        <ele>1258.3</ele>
        <time>2022-07-12T13:13:14Z</time>
      </trkpt>
      <trkpt lat="46.51967" lon="6.13314">
        <ele>1258.3</ele>
        <time>2022-07-12T13:13:19Z</time>
      </trkpt>
      <trkpt lat="46.51963" lon="6.13311">
        <ele>1258.5</ele>
        <time>2022-07-12T13:13:23Z</time>
      </trkpt>
      <trkpt lat="46.51958" lon="6.13311">
        <ele>1258.8</ele>
        <time>2022-07-12T13:13:27Z</time>
      </trkpt>
      <trkpt lat="46.51953" lon="6.13314">
        <ele>1259.3</ele>
        <time>2022-07-12T13:13:32Z</time>
      </trkpt>
      <trkpt lat="46.51948" lon="6.13314">
        <ele>1259.4</ele>
        <time>2022-07-12T13:13:36Z</time>
      </trkpt>
      <trkpt lat="46.51943" lon="6.13311">
        <ele>1259.3</ele>
        <time>2022-07-12T13:13:41Z</time>
      </trkpt>
      <trkpt lat="46.51942" lon="6.13304">
        <ele>1259.5</ele>
        <time>2022-07-12T13:13:45Z</time>
      </trkpt>
      <trkpt lat="46.51941" lon="6.13296">
        <ele>1259.9</ele>
        <time>2022-07-12T13:13:50Z</time>
      </trkpt>
      <trkpt lat="46.51938" lon="6.1329">
        <ele>1260.7</ele>
        <time>2022-07-12T13:13:54Z</time>
      </trkpt>
      <trkpt lat="46.51937" lon="6.13284">
        <ele>1261.5</ele>
        <time>2022-07-12T13:13:57Z</time>
      </trkpt>
      <trkpt lat="46.51936" lon="6.13276">
        <ele>1262.5</ele>
        <time>2022-07-12T13:14:01Z</time>
      </trkpt>
      <trkpt lat="46.51935" lon="6.13268">
        <ele>1264.3</ele>
        <time>2022-07-12T13:14:06Z</time>
      </trkpt>
      <trkpt lat="46.51934" lon="6.1326">
        <ele>1265.5</ele>
        <time>2022-07-12T13:14:11Z</time>
      </trkpt>
      <trkpt lat="46.51933" lon="6.13253">
        <ele>1266.2</ele>
        <time>2022-07-12T13:14:15Z</time>
      </trkpt>
      <trkpt lat="46.5193" lon="6.13247">
        <ele>1267</ele>
        <time>2022-07-12T13:14:21Z</time>
      </trkpt>
      <trkpt lat="46.51928" lon="6.13241">
        <ele>1267.8</ele>
        <time>2022-07-12T13:14:27Z</time>
      </trkpt>
      <trkpt lat="46.51927" lon="6.13234">
        <ele>1268.6</ele>
        <time>2022-07-12T13:14:35Z</time>
      </trkpt>
      <trkpt lat="46.51927" lon="6.13226">
        <ele>1269.3</ele>
        <time>2022-07-12T13:14:40Z</time>
      </trkpt>
      <trkpt lat="46.51928" lon="6.1322">
        <ele>1268.2</ele>
        <time>2022-07-12T13:14:46Z</time>
      </trkpt>
      <trkpt lat="46.51928" lon="6.13212">
        <ele>1265.3</ele>
        <time>2022-07-12T13:14:50Z</time>
      </trkpt>
      <trkpt lat="46.51926" lon="6.13206">
        <ele>1261.4</ele>
        <time>2022-07-12T13:14:56Z</time>
      </trkpt>
      <trkpt lat="46.51921" lon="6.13202">
        <ele>1258.3</ele>
        <time>2022-07-12T13:15:04Z</time>
      </trkpt>
      <trkpt lat="46.51917" lon="6.13197">
        <ele>1256.8</ele>
        <time>2022-07-12T13:15:09Z</time>
      </trkpt>
      <trkpt lat="46.51914" lon="6.13191">
        <ele>1256.3</ele>
        <time>2022-07-12T13:15:13Z</time>
      </trkpt>
      <trkpt lat="46.51913" lon="6.13183">
        <ele>1256.1</ele>
        <time>2022-07-12T13:15:17Z</time>
      </trkpt>
      <trkpt lat="46.51914" lon="6.13176">
        <ele>1255.4</ele>
        <time>2022-07-12T13:15:22Z</time>
      </trkpt>
      <trkpt lat="46.51912" lon="6.13171">
        <ele>1255.1</ele>
        <time>2022-07-12T13:15:28Z</time>
      </trkpt>
      <trkpt lat="46.51908" lon="6.13168">
        <ele>1255.1</ele>
        <time>2022-07-12T13:15:32Z</time>
      </trkpt>
      <trkpt lat="46.51904" lon="6.13163">
        <ele>1255.7</ele>
        <time>2022-07-12T13:15:38Z</time>
      </trkpt>
      <trkpt lat="46.51901" lon="6.13158">
        <ele>1256.7</ele>
        <time>2022-07-12T13:15:43Z</time>
      </trkpt>
      <trkpt lat="46.51897" lon="6.13153">
        <ele>1258.1</ele>
        <time>2022-07-12T13:15:49Z</time>
      </trkpt>
      <trkpt lat="46.51893" lon="6.13149">
        <ele>1259.4</ele>
        <time>2022-07-12T13:15:58Z</time>
      </trkpt>
      <trkpt lat="46.5189" lon="6.13144">
        <ele>1260.3</ele>
        <time>2022-07-12T13:16:02Z</time>
      </trkpt>
      <trkpt lat="46.51891" lon="6.13137">
        <ele>1261.5</ele>
        <time>2022-07-12T13:16:09Z</time>
      </trkpt>
      <trkpt lat="46.5189" lon="6.13131">
        <ele>1262.3</ele>
        <time>2022-07-12T13:16:14Z</time>
      </trkpt>
      <trkpt lat="46.51888" lon="6.13125">
        <ele>1262.2</ele>
        <time>2022-07-12T13:16:18Z</time>
      </trkpt>
      <trkpt lat="46.51885" lon="6.1312">
        <ele>1261.6</ele>
        <time>2022-07-12T13:16:22Z</time>
      </trkpt>
      <trkpt lat="46.51882" lon="6.13114">
        <ele>1261</ele>
        <time>2022-07-12T13:16:27Z</time>
      </trkpt>
      <trkpt lat="46.51881" lon="6.13107">
        <ele>1260.2</ele>
        <time>2022-07-12T13:16:34Z</time>
      </trkpt>
      <trkpt lat="46.51877" lon="6.13103">
        <ele>1259.2</ele>
        <time>2022-07-12T13:16:39Z</time>
      </trkpt>
      <trkpt lat="46.51873" lon="6.131">
        <ele>1258.2</ele>
        <time>2022-07-12T13:16:43Z</time>
      </trkpt>
      <trkpt lat="46.51868" lon="6.13099">
        <ele>1257.1</ele>
        <time>2022-07-12T13:16:47Z</time>
      </trkpt>
      <trkpt lat="46.51864" lon="6.13096">
        <ele>1256.1</ele>
        <time>2022-07-12T13:16:53Z</time>
      </trkpt>
      <trkpt lat="46.5186" lon="6.13091">
        <ele>1255.7</ele>
        <time>2022-07-12T13:16:57Z</time>
      </trkpt>
      <trkpt lat="46.51855" lon="6.13086">
        <ele>1256</ele>
        <time>2022-07-12T13:17:01Z</time>
      </trkpt>
      <trkpt lat="46.51852" lon="6.1308">
        <ele>1256.9</ele>
        <time>2022-07-12T13:17:05Z</time>
      </trkpt>
      <trkpt lat="46.51848" lon="6.13076">
        <ele>1258.4</ele>
        <time>2022-07-12T13:17:11Z</time>
      </trkpt>
      <trkpt lat="46.51844" lon="6.13071">
        <ele>1259.4</ele>
        <time>2022-07-12T13:17:16Z</time>
      </trkpt>
      <trkpt lat="46.5184" lon="6.13066">
        <ele>1259.9</ele>
        <time>2022-07-12T13:17:21Z</time>
      </trkpt>
      <trkpt lat="46.51836" lon="6.13063">
        <ele>1261</ele>
        <time>2022-07-12T13:17:25Z</time>
      </trkpt>
      <trkpt lat="46.51833" lon="6.13058">
        <ele>1262.3</ele>
        <time>2022-07-12T13:17:29Z</time>
      </trkpt>
      <trkpt lat="46.51829" lon="6.13052">
        <ele>1264.1</ele>
        <time>2022-07-12T13:17:34Z</time>
      </trkpt>
      <trkpt lat="46.51825" lon="6.13048">
        <ele>1265.1</ele>
        <time>2022-07-12T13:17:39Z</time>
      </trkpt>
      <trkpt lat="46.51821" lon="6.13042">
        <ele>1265.6</ele>
        <time>2022-07-12T13:17:45Z</time>
      </trkpt>
      <trkpt lat="46.51818" lon="6.13038">
        <ele>1265.7</ele>
        <time>2022-07-12T13:17:51Z</time>
      </trkpt>
      <trkpt lat="46.51813" lon="6.13035">
        <ele>1266.5</ele>
        <time>2022-07-12T13:18:00Z</time>
      </trkpt>
      <trkpt lat="46.51809" lon="6.1303">
        <ele>1266.3</ele>
        <time>2022-07-12T13:18:04Z</time>
      </trkpt>
      <trkpt lat="46.51805" lon="6.13025">
        <ele>1265.3</ele>
        <time>2022-07-12T13:18:08Z</time>
      </trkpt>
      <trkpt lat="46.51803" lon="6.13019">
        <ele>1263.8</ele>
        <time>2022-07-12T13:18:12Z</time>
      </trkpt>
      <trkpt lat="46.51801" lon="6.13012">
        <ele>1263.1</ele>
        <time>2022-07-12T13:18:18Z</time>
      </trkpt>
      <trkpt lat="46.51802" lon="6.13005">
        <ele>1262.8</ele>
        <time>2022-07-12T13:18:27Z</time>
      </trkpt>
      <trkpt lat="46.51803" lon="6.12999">
        <ele>1262.7</ele>
        <time>2022-07-12T13:18:33Z</time>
      </trkpt>
      <trkpt lat="46.51806" lon="6.12993">
        <ele>1261.1</ele>
        <time>2022-07-12T13:18:37Z</time>
      </trkpt>
      <trkpt lat="46.51805" lon="6.12986">
        <ele>1258</ele>
        <time>2022-07-12T13:18:45Z</time>
      </trkpt>
      <trkpt lat="46.51801" lon="6.12981">
        <ele>1257.9</ele>
        <time>2022-07-12T13:18:50Z</time>
      </trkpt>
      <trkpt lat="46.51798" lon="6.12974">
        <ele>1258.5</ele>
        <time>2022-07-12T13:18:54Z</time>
      </trkpt>
      <trkpt lat="46.51795" lon="6.12968">
        <ele>1259.2</ele>
        <time>2022-07-12T13:18:57Z</time>
      </trkpt>
      <trkpt lat="46.51795" lon="6.1296">
        <ele>1260</ele>
        <time>2022-07-12T13:19:00Z</time>
      </trkpt>
      <trkpt lat="46.51794" lon="6.12953">
        <ele>1260.2</ele>
        <time>2022-07-12T13:19:03Z</time>
      </trkpt>
      <trkpt lat="46.5179" lon="6.12948">
        <ele>1260.5</ele>
        <time>2022-07-12T13:19:06Z</time>
      </trkpt>
      <trkpt lat="46.5179" lon="6.12941">
        <ele>1260.3</ele>
        <time>2022-07-12T13:19:12Z</time>
      </trkpt>
      <trkpt lat="46.5179" lon="6.12934">
        <ele>1260</ele>
        <time>2022-07-12T13:19:17Z</time>
      </trkpt>
      <trkpt lat="46.51788" lon="6.12928">
        <ele>1259.3</ele>
        <time>2022-07-12T13:19:26Z</time>
      </trkpt>
      <trkpt lat="46.51783" lon="6.12924">
        <ele>1258.7</ele>
        <time>2022-07-12T13:19:31Z</time>
      </trkpt>
      <trkpt lat="46.51779" lon="6.1292">
        <ele>1258.1</ele>
        <time>2022-07-12T13:19:35Z</time>
      </trkpt>
      <trkpt lat="46.51776" lon="6.12914">
        <ele>1257.7</ele>
        <time>2022-07-12T13:19:39Z</time>
      </trkpt>
      <trkpt lat="46.51774" lon="6.12908">
        <ele>1258</ele>
        <time>2022-07-12T13:19:44Z</time>
      </trkpt>
      <trkpt lat="46.5177" lon="6.12904">
        <ele>1258.7</ele>
        <time>2022-07-12T13:19:49Z</time>
      </trkpt>
      <trkpt lat="46.51767" lon="6.12898">
        <ele>1259.8</ele>
        <time>2022-07-12T13:19:53Z</time>
      </trkpt>
      <trkpt lat="46.51763" lon="6.12894">
        <ele>1261.2</ele>
        <time>2022-07-12T13:20:00Z</time>
      </trkpt>
      <trkpt lat="46.51759" lon="6.12888">
        <ele>1261.9</ele>
        <time>2022-07-12T13:20:06Z</time>
      </trkpt>
      <trkpt lat="46.51755" lon="6.12883">
        <ele>1260.9</ele>
        <time>2022-07-12T13:20:11Z</time>
      </trkpt>
      <trkpt lat="46.51752" lon="6.12877">
        <ele>1259.6</ele>
        <time>2022-07-12T13:20:16Z</time>
      </trkpt>
      <trkpt lat="46.51748" lon="6.12872">
        <ele>1258.3</ele>
        <time>2022-07-12T13:20:21Z</time>
      </trkpt>
      <trkpt lat="46.51745" lon="6.12866">
        <ele>1257.7</ele>
        <time>2022-07-12T13:20:26Z</time>
      </trkpt>
      <trkpt lat="46.51742" lon="6.1286">
        <ele>1257.6</ele>
        <time>2022-07-12T13:20:30Z</time>
      </trkpt>
      <trkpt lat="46.51739" lon="6.12854">
        <ele>1257.6</ele>
        <time>2022-07-12T13:20:34Z</time>
      </trkpt>
      <trkpt lat="46.51737" lon="6.12848">
        <ele>1257.6</ele>
        <time>2022-07-12T13:20:39Z</time>
      </trkpt>
      <trkpt lat="46.51734" lon="6.12842">
        <ele>1257.4</ele>
        <time>2022-07-12T13:20:46Z</time>
      </trkpt>
      <trkpt lat="46.51732" lon="6.12836">
        <ele>1256.8</ele>
        <time>2022-07-12T13:20:50Z</time>
      </trkpt>
      <trkpt lat="46.5173" lon="6.1283">
        <ele>1256</ele>
        <time>2022-07-12T13:20:54Z</time>
      </trkpt>
      <trkpt lat="46.51726" lon="6.12826">
        <ele>1255.5</ele>
        <time>2022-07-12T13:21:00Z</time>
      </trkpt>
      <trkpt lat="46.51722" lon="6.1282">
        <ele>1255.3</ele>
        <time>2022-07-12T13:21:33Z</time>
      </trkpt>
      <trkpt lat="46.51719" lon="6.12815">
        <ele>1255.7</ele>
        <time>2022-07-12T13:21:40Z</time>
      </trkpt>
      <trkpt lat="46.51715" lon="6.12812">
        <ele>1253.1</ele>
        <time>2022-07-12T13:22:01Z</time>
      </trkpt>
      <trkpt lat="46.51711" lon="6.12808">
        <ele>1252.6</ele>
        <time>2022-07-12T13:22:07Z</time>
      </trkpt>
      <trkpt lat="46.51706" lon="6.12809">
        <ele>1253.2</ele>
        <time>2022-07-12T13:22:33Z</time>
      </trkpt>
      <trkpt lat="46.51702" lon="6.12806">
        <ele>1252.9</ele>
        <time>2022-07-12T13:22:39Z</time>
      </trkpt>
      <trkpt lat="46.51698" lon="6.12803">
        <ele>1252.5</ele>
        <time>2022-07-12T13:22:43Z</time>
      </trkpt>
      <trkpt lat="46.51693" lon="6.128">
        <ele>1251.6</ele>
        <time>2022-07-12T13:22:48Z</time>
      </trkpt>
      <trkpt lat="46.51688" lon="6.12797">
        <ele>1250.7</ele>
        <time>2022-07-12T13:22:53Z</time>
      </trkpt>
      <trkpt lat="46.51684" lon="6.12795">
        <ele>1250.5</ele>
        <time>2022-07-12T13:22:58Z</time>
      </trkpt>
      <trkpt lat="46.51679" lon="6.1279">
        <ele>1250.4</ele>
        <time>2022-07-12T13:23:04Z</time>
      </trkpt>
      <trkpt lat="46.51675" lon="6.12787">
        <ele>1250.3</ele>
        <time>2022-07-12T13:23:08Z</time>
      </trkpt>
      <trkpt lat="46.5167" lon="6.12783">
        <ele>1249.5</ele>
        <time>2022-07-12T13:23:12Z</time>
      </trkpt>
      <trkpt lat="46.51666" lon="6.12779">
        <ele>1248.8</ele>
        <time>2022-07-12T13:23:16Z</time>
      </trkpt>
      <trkpt lat="46.51662" lon="6.12775">
        <ele>1248.2</ele>
        <time>2022-07-12T13:23:21Z</time>
      </trkpt>
      <trkpt lat="46.51657" lon="6.12773">
        <ele>1248</ele>
        <time>2022-07-12T13:23:27Z</time>
      </trkpt>
      <trkpt lat="46.51652" lon="6.12769">
        <ele>1248.1</ele>
        <time>2022-07-12T13:23:32Z</time>
      </trkpt>
      <trkpt lat="46.51648" lon="6.12766">
        <ele>1248.3</ele>
        <time>2022-07-12T13:23:38Z</time>
      </trkpt>
      <trkpt lat="46.51643" lon="6.12761">
        <ele>1248.5</ele>
        <time>2022-07-12T13:23:43Z</time>
      </trkpt>
      <trkpt lat="46.51639" lon="6.12756">
        <ele>1248.9</ele>
        <time>2022-07-12T13:23:48Z</time>
      </trkpt>
      <trkpt lat="46.51637" lon="6.1275">
        <ele>1249.2</ele>
        <time>2022-07-12T13:23:52Z</time>
      </trkpt>
      <trkpt lat="46.51633" lon="6.12745">
        <ele>1249.3</ele>
        <time>2022-07-12T13:23:57Z</time>
      </trkpt>
      <trkpt lat="46.5163" lon="6.12741">
        <ele>1249.3</ele>
        <time>2022-07-12T13:24:03Z</time>
      </trkpt>
      <trkpt lat="46.51627" lon="6.12735">
        <ele>1249.1</ele>
        <time>2022-07-12T13:24:08Z</time>
      </trkpt>
      <trkpt lat="46.51624" lon="6.12729">
        <ele>1248.9</ele>
        <time>2022-07-12T13:24:13Z</time>
      </trkpt>
      <trkpt lat="46.51619" lon="6.12725">
        <ele>1248.8</ele>
        <time>2022-07-12T13:24:18Z</time>
      </trkpt>
      <trkpt lat="46.51614" lon="6.12721">
        <ele>1248.5</ele>
        <time>2022-07-12T13:24:23Z</time>
      </trkpt>
      <trkpt lat="46.51609" lon="6.12717">
        <ele>1247.3</ele>
        <time>2022-07-12T13:24:28Z</time>
      </trkpt>
      <trkpt lat="46.51605" lon="6.12714">
        <ele>1246.3</ele>
        <time>2022-07-12T13:24:33Z</time>
      </trkpt>
      <trkpt lat="46.51601" lon="6.12709">
        <ele>1246</ele>
        <time>2022-07-12T13:24:37Z</time>
      </trkpt>
      <trkpt lat="46.51597" lon="6.12704">
        <ele>1246.6</ele>
        <time>2022-07-12T13:24:41Z</time>
      </trkpt>
      <trkpt lat="46.51594" lon="6.12698">
        <ele>1248.4</ele>
        <time>2022-07-12T13:24:47Z</time>
      </trkpt>
      <trkpt lat="46.51592" lon="6.12691">
        <ele>1249.7</ele>
        <time>2022-07-12T13:24:53Z</time>
      </trkpt>
      <trkpt lat="46.51591" lon="6.12684">
        <ele>1250.3</ele>
        <time>2022-07-12T13:24:59Z</time>
      </trkpt>
      <trkpt lat="46.5159" lon="6.12677">
        <ele>1250.8</ele>
        <time>2022-07-12T13:25:06Z</time>
      </trkpt>
      <trkpt lat="46.51587" lon="6.1267">
        <ele>1251</ele>
        <time>2022-07-12T13:25:10Z</time>
      </trkpt>
      <trkpt lat="46.51584" lon="6.12665">
        <ele>1251</ele>
        <time>2022-07-12T13:25:14Z</time>
      </trkpt>
      <trkpt lat="46.51581" lon="6.12659">
        <ele>1251.1</ele>
        <time>2022-07-12T13:25:18Z</time>
      </trkpt>
      <trkpt lat="46.51581" lon="6.12653">
        <ele>1250.5</ele>
        <time>2022-07-12T13:25:35Z</time>
      </trkpt>
      <trkpt lat="46.51577" lon="6.12649">
        <ele>1249.9</ele>
        <time>2022-07-12T13:25:39Z</time>
      </trkpt>
      <trkpt lat="46.51573" lon="6.12645">
        <ele>1248.9</ele>
        <time>2022-07-12T13:25:44Z</time>
      </trkpt>
      <trkpt lat="46.51568" lon="6.1264">
        <ele>1248.3</ele>
        <time>2022-07-12T13:25:48Z</time>
      </trkpt>
      <trkpt lat="46.51564" lon="6.12635">
        <ele>1248</ele>
        <time>2022-07-12T13:25:52Z</time>
      </trkpt>
      <trkpt lat="46.5156" lon="6.1263">
        <ele>1247.6</ele>
        <time>2022-07-12T13:25:56Z</time>
      </trkpt>
      <trkpt lat="46.51556" lon="6.12625">
        <ele>1246.9</ele>
        <time>2022-07-12T13:26:02Z</time>
      </trkpt>
      <trkpt lat="46.51552" lon="6.12621">
        <ele>1246.7</ele>
        <time>2022-07-12T13:26:07Z</time>
      </trkpt>
      <trkpt lat="46.51547" lon="6.12617">
        <ele>1247</ele>
        <time>2022-07-12T13:26:12Z</time>
      </trkpt>
      <trkpt lat="46.51543" lon="6.12612">
        <ele>1247.3</ele>
        <time>2022-07-12T13:26:16Z</time>
      </trkpt>
      <trkpt lat="46.51539" lon="6.1261">
        <ele>1247.3</ele>
        <time>2022-07-12T13:26:20Z</time>
      </trkpt>
      <trkpt lat="46.51535" lon="6.12607">
        <ele>1247.2</ele>
        <time>2022-07-12T13:26:24Z</time>
      </trkpt>
      <trkpt lat="46.5153" lon="6.12603">
        <ele>1247.2</ele>
        <time>2022-07-12T13:26:28Z</time>
      </trkpt>
      <trkpt lat="46.51526" lon="6.12599">
        <ele>1247.8</ele>
        <time>2022-07-12T13:26:32Z</time>
      </trkpt>
      <trkpt lat="46.51522" lon="6.12595">
        <ele>1248.6</ele>
        <time>2022-07-12T13:26:37Z</time>
      </trkpt>
      <trkpt lat="46.51517" lon="6.12591">
        <ele>1248.8</ele>
        <time>2022-07-12T13:26:42Z</time>
      </trkpt>
      <trkpt lat="46.51513" lon="6.12589">
        <ele>1248.9</ele>
        <time>2022-07-12T13:26:46Z</time>
      </trkpt>
      <trkpt lat="46.51508" lon="6.12586">
        <ele>1249.3</ele>
        <time>2022-07-12T13:26:55Z</time>
      </trkpt>
      <trkpt lat="46.51504" lon="6.12582">
        <ele>1248.7</ele>
        <time>2022-07-12T13:27:00Z</time>
      </trkpt>
      <trkpt lat="46.51499" lon="6.1258">
        <ele>1248.4</ele>
        <time>2022-07-12T13:27:04Z</time>
      </trkpt>
      <trkpt lat="46.51493" lon="6.12578">
        <ele>1248.4</ele>
        <time>2022-07-12T13:27:08Z</time>
      </trkpt>
      <trkpt lat="46.51489" lon="6.12574">
        <ele>1247.9</ele>
        <time>2022-07-12T13:27:12Z</time>
      </trkpt>
      <trkpt lat="46.51485" lon="6.1257">
        <ele>1247.7</ele>
        <time>2022-07-12T13:27:16Z</time>
      </trkpt>
      <trkpt lat="46.5148" lon="6.12568">
        <ele>1247.8</ele>
        <time>2022-07-12T13:27:21Z</time>
      </trkpt>
      <trkpt lat="46.51475" lon="6.12564">
        <ele>1248.5</ele>
        <time>2022-07-12T13:27:26Z</time>
      </trkpt>
      <trkpt lat="46.51471" lon="6.12559">
        <ele>1250</ele>
        <time>2022-07-12T13:27:31Z</time>
      </trkpt>
      <trkpt lat="46.51468" lon="6.12553">
        <ele>1251.3</ele>
        <time>2022-07-12T13:27:37Z</time>
      </trkpt>
      <trkpt lat="46.51465" lon="6.12548">
        <ele>1251.1</ele>
        <time>2022-07-12T13:27:41Z</time>
      </trkpt>
      <trkpt lat="46.51461" lon="6.12543">
        <ele>1250.4</ele>
        <time>2022-07-12T13:27:46Z</time>
      </trkpt>
      <trkpt lat="46.51457" lon="6.12539">
        <ele>1250.1</ele>
        <time>2022-07-12T13:27:50Z</time>
      </trkpt>
      <trkpt lat="46.51453" lon="6.12536">
        <ele>1249.8</ele>
        <time>2022-07-12T13:27:55Z</time>
      </trkpt>
      <trkpt lat="46.5145" lon="6.12531">
        <ele>1249.1</ele>
        <time>2022-07-12T13:28:02Z</time>
      </trkpt>
      <trkpt lat="46.51447" lon="6.12526">
        <ele>1247.8</ele>
        <time>2022-07-12T13:28:09Z</time>
      </trkpt>
      <trkpt lat="46.51443" lon="6.12523">
        <ele>1246.4</ele>
        <time>2022-07-12T13:28:14Z</time>
      </trkpt>
      <trkpt lat="46.51438" lon="6.12521">
        <ele>1245.3</ele>
        <time>2022-07-12T13:28:18Z</time>
      </trkpt>
      <trkpt lat="46.51434" lon="6.12515">
        <ele>1244.5</ele>
        <time>2022-07-12T13:28:22Z</time>
      </trkpt>
      <trkpt lat="46.5143" lon="6.1251">
        <ele>1244.3</ele>
        <time>2022-07-12T13:28:26Z</time>
      </trkpt>
      <trkpt lat="46.51426" lon="6.12506">
        <ele>1244.1</ele>
        <time>2022-07-12T13:28:33Z</time>
      </trkpt>
      <trkpt lat="46.51421" lon="6.12503">
        <ele>1246.7</ele>
        <time>2022-07-12T13:28:55Z</time>
      </trkpt>
      <trkpt lat="46.51417" lon="6.12501">
        <ele>1246.1</ele>
        <time>2022-07-12T13:28:59Z</time>
      </trkpt>
      <trkpt lat="46.51412" lon="6.125">
        <ele>1245.3</ele>
        <time>2022-07-12T13:29:03Z</time>
      </trkpt>
      <trkpt lat="46.51408" lon="6.12496">
        <ele>1244.3</ele>
        <time>2022-07-12T13:29:08Z</time>
      </trkpt>
      <trkpt lat="46.51405" lon="6.12491">
        <ele>1243.6</ele>
        <time>2022-07-12T13:29:13Z</time>
      </trkpt>
      <trkpt lat="46.51401" lon="6.12487">
        <ele>1242.9</ele>
        <time>2022-07-12T13:29:18Z</time>
      </trkpt>
      <trkpt lat="46.51397" lon="6.12481">
        <ele>1241.9</ele>
        <time>2022-07-12T13:29:22Z</time>
      </trkpt>
      <trkpt lat="46.51393" lon="6.12474">
        <ele>1240.7</ele>
        <time>2022-07-12T13:29:26Z</time>
      </trkpt>
      <trkpt lat="46.51391" lon="6.12469">
        <ele>1240.4</ele>
        <time>2022-07-12T13:29:30Z</time>
      </trkpt>
      <trkpt lat="46.51389" lon="6.12462">
        <ele>1241.3</ele>
        <time>2022-07-12T13:29:35Z</time>
      </trkpt>
      <trkpt lat="46.51387" lon="6.12456">
        <ele>1242</ele>
        <time>2022-07-12T13:29:40Z</time>
      </trkpt>
      <trkpt lat="46.51385" lon="6.12449">
        <ele>1242.3</ele>
        <time>2022-07-12T13:29:45Z</time>
      </trkpt>
      <trkpt lat="46.51383" lon="6.12443">
        <ele>1242.9</ele>
        <time>2022-07-12T13:29:50Z</time>
      </trkpt>
      <trkpt lat="46.5138" lon="6.12437">
        <ele>1244.1</ele>
        <time>2022-07-12T13:29:55Z</time>
      </trkpt>
      <trkpt lat="46.51378" lon="6.12431">
        <ele>1245</ele>
        <time>2022-07-12T13:29:59Z</time>
      </trkpt>
      <trkpt lat="46.51374" lon="6.12426">
        <ele>1245.6</ele>
        <time>2022-07-12T13:30:04Z</time>
      </trkpt>
      <trkpt lat="46.5137" lon="6.12422">
        <ele>1245.7</ele>
        <time>2022-07-12T13:30:10Z</time>
      </trkpt>
      <trkpt lat="46.51363" lon="6.1242">
        <ele>1244.5</ele>
        <time>2022-07-12T13:30:31Z</time>
      </trkpt>
      <trkpt lat="46.51359" lon="6.12415">
        <ele>1244.8</ele>
        <time>2022-07-12T13:30:35Z</time>
      </trkpt>
      <trkpt lat="46.51354" lon="6.12413">
        <ele>1245.2</ele>
        <time>2022-07-12T13:30:40Z</time>
      </trkpt>
      <trkpt lat="46.51349" lon="6.12411">
        <ele>1245</ele>
        <time>2022-07-12T13:30:47Z</time>
      </trkpt>
      <trkpt lat="46.51345" lon="6.12407">
        <ele>1245.2</ele>
        <time>2022-07-12T13:30:52Z</time>
      </trkpt>
      <trkpt lat="46.51341" lon="6.12404">
        <ele>1245.4</ele>
        <time>2022-07-12T13:30:57Z</time>
      </trkpt>
      <trkpt lat="46.51336" lon="6.124">
        <ele>1245.9</ele>
        <time>2022-07-12T13:31:02Z</time>
      </trkpt>
      <trkpt lat="46.51332" lon="6.12394">
        <ele>1246.3</ele>
        <time>2022-07-12T13:31:07Z</time>
      </trkpt>
      <trkpt lat="46.51329" lon="6.12389">
        <ele>1246.8</ele>
        <time>2022-07-12T13:31:13Z</time>
      </trkpt>
      <trkpt lat="46.51325" lon="6.12385">
        <ele>1250</ele>
        <time>2022-07-12T13:31:26Z</time>
      </trkpt>
      <trkpt lat="46.51321" lon="6.1238">
        <ele>1250.3</ele>
        <time>2022-07-12T13:31:31Z</time>
      </trkpt>
      <trkpt lat="46.51317" lon="6.12376">
        <ele>1251.3</ele>
        <time>2022-07-12T13:31:37Z</time>
      </trkpt>
      <trkpt lat="46.51312" lon="6.12373">
        <ele>1252.4</ele>
        <time>2022-07-12T13:31:42Z</time>
      </trkpt>
      <trkpt lat="46.51308" lon="6.12369">
        <ele>1252.8</ele>
        <time>2022-07-12T13:31:48Z</time>
      </trkpt>
      <trkpt lat="46.51304" lon="6.12367">
        <ele>1252.4</ele>
        <time>2022-07-12T13:31:52Z</time>
      </trkpt>
      <trkpt lat="46.513" lon="6.12362">
        <ele>1251.6</ele>
        <time>2022-07-12T13:31:57Z</time>
      </trkpt>
      <trkpt lat="46.51296" lon="6.12357">
        <ele>1251.4</ele>
        <time>2022-07-12T13:32:02Z</time>
      </trkpt>
      <trkpt lat="46.51291" lon="6.12354">
        <ele>1250.6</ele>
        <time>2022-07-12T13:32:08Z</time>
      </trkpt>
      <trkpt lat="46.51287" lon="6.12351">
        <ele>1249.6</ele>
        <time>2022-07-12T13:32:13Z</time>
      </trkpt>
      <trkpt lat="46.51283" lon="6.12346">
        <ele>1249.2</ele>
        <time>2022-07-12T13:32:18Z</time>
      </trkpt>
      <trkpt lat="46.51279" lon="6.12343">
        <ele>1249.5</ele>
        <time>2022-07-12T13:32:22Z</time>
      </trkpt>
      <trkpt lat="46.51274" lon="6.12339">
        <ele>1250.1</ele>
        <time>2022-07-12T13:32:26Z</time>
      </trkpt>
      <trkpt lat="46.5127" lon="6.12335">
        <ele>1251.2</ele>
        <time>2022-07-12T13:32:31Z</time>
      </trkpt>
      <trkpt lat="46.51266" lon="6.12333">
        <ele>1251.2</ele>
        <time>2022-07-12T13:32:37Z</time>
      </trkpt>
      <trkpt lat="46.51261" lon="6.1233">
        <ele>1251.1</ele>
        <time>2022-07-12T13:32:41Z</time>
      </trkpt>
      <trkpt lat="46.51256" lon="6.12327">
        <ele>1250.7</ele>
        <time>2022-07-12T13:32:45Z</time>
      </trkpt>
      <trkpt lat="46.51252" lon="6.12324">
        <ele>1250.5</ele>
        <time>2022-07-12T13:32:49Z</time>
      </trkpt>
      <trkpt lat="46.51247" lon="6.12323">
        <ele>1250.3</ele>
        <time>2022-07-12T13:32:53Z</time>
      </trkpt>
      <trkpt lat="46.51242" lon="6.12322">
        <ele>1249.8</ele>
        <time>2022-07-12T13:32:59Z</time>
      </trkpt>
      <trkpt lat="46.51238" lon="6.12322">
        <ele>1249.6</ele>
        <time>2022-07-12T13:33:04Z</time>
      </trkpt>
      <trkpt lat="46.51233" lon="6.12319">
        <ele>1249.5</ele>
        <time>2022-07-12T13:33:08Z</time>
      </trkpt>
      <trkpt lat="46.51229" lon="6.12316">
        <ele>1249.8</ele>
        <time>2022-07-12T13:33:12Z</time>
      </trkpt>
      <trkpt lat="46.51225" lon="6.12313">
        <ele>1249.6</ele>
        <time>2022-07-12T13:33:17Z</time>
      </trkpt>
      <trkpt lat="46.5122" lon="6.1231">
        <ele>1249</ele>
        <time>2022-07-12T13:33:22Z</time>
      </trkpt>
      <trkpt lat="46.51216" lon="6.12308">
        <ele>1248.7</ele>
        <time>2022-07-12T13:33:26Z</time>
      </trkpt>
      <trkpt lat="46.51211" lon="6.12306">
        <ele>1247.8</ele>
        <time>2022-07-12T13:33:31Z</time>
      </trkpt>
      <trkpt lat="46.51207" lon="6.12304">
        <ele>1246.5</ele>
        <time>2022-07-12T13:33:36Z</time>
      </trkpt>
      <trkpt lat="46.51202" lon="6.12303">
        <ele>1245.3</ele>
        <time>2022-07-12T13:33:40Z</time>
      </trkpt>
      <trkpt lat="46.51198" lon="6.12301">
        <ele>1244.2</ele>
        <time>2022-07-12T13:33:44Z</time>
      </trkpt>
      <trkpt lat="46.51193" lon="6.12297">
        <ele>1243.2</ele>
        <time>2022-07-12T13:33:49Z</time>
      </trkpt>
      <trkpt lat="46.51187" lon="6.12296">
        <ele>1242.6</ele>
        <time>2022-07-12T13:33:53Z</time>
      </trkpt>
      <trkpt lat="46.51182" lon="6.12295">
        <ele>1242.3</ele>
        <time>2022-07-12T13:33:57Z</time>
      </trkpt>
      <trkpt lat="46.51177" lon="6.12293">
        <ele>1242.5</ele>
        <time>2022-07-12T13:34:02Z</time>
      </trkpt>
      <trkpt lat="46.51171" lon="6.12292">
        <ele>1242.9</ele>
        <time>2022-07-12T13:34:07Z</time>
      </trkpt>
      <trkpt lat="46.51166" lon="6.12293">
        <ele>1245</ele>
        <time>2022-07-12T13:34:26Z</time>
      </trkpt>
      <trkpt lat="46.51161" lon="6.1229">
        <ele>1245.6</ele>
        <time>2022-07-12T13:34:31Z</time>
      </trkpt>
      <trkpt lat="46.51156" lon="6.12287">
        <ele>1246.2</ele>
        <time>2022-07-12T13:34:37Z</time>
      </trkpt>
      <trkpt lat="46.51151" lon="6.12285">
        <ele>1246.3</ele>
        <time>2022-07-12T13:34:43Z</time>
      </trkpt>
      <trkpt lat="46.51146" lon="6.12283">
        <ele>1246.1</ele>
        <time>2022-07-12T13:34:48Z</time>
      </trkpt>
      <trkpt lat="46.51142" lon="6.12279">
        <ele>1245.3</ele>
        <time>2022-07-12T13:34:53Z</time>
      </trkpt>
      <trkpt lat="46.51137" lon="6.12278">
        <ele>1244.1</ele>
        <time>2022-07-12T13:35:30Z</time>
      </trkpt>
      <trkpt lat="46.51132" lon="6.12276">
        <ele>1244.8</ele>
        <time>2022-07-12T13:35:42Z</time>
      </trkpt>
      <trkpt lat="46.51127" lon="6.12276">
        <ele>1244.2</ele>
        <time>2022-07-12T13:35:47Z</time>
      </trkpt>
      <trkpt lat="46.51123" lon="6.12273">
        <ele>1243.7</ele>
        <time>2022-07-12T13:35:52Z</time>
      </trkpt>
      <trkpt lat="46.51118" lon="6.12268">
        <ele>1243.9</ele>
        <time>2022-07-12T13:35:56Z</time>
      </trkpt>
      <trkpt lat="46.51114" lon="6.12263">
        <ele>1243.6</ele>
        <time>2022-07-12T13:36:01Z</time>
      </trkpt>
      <trkpt lat="46.5111" lon="6.12259">
        <ele>1243.4</ele>
        <time>2022-07-12T13:36:06Z</time>
      </trkpt>
      <trkpt lat="46.51106" lon="6.12255">
        <ele>1243.3</ele>
        <time>2022-07-12T13:36:11Z</time>
      </trkpt>
      <trkpt lat="46.51103" lon="6.12249">
        <ele>1243.1</ele>
        <time>2022-07-12T13:36:17Z</time>
      </trkpt>
      <trkpt lat="46.51101" lon="6.12243">
        <ele>1242.6</ele>
        <time>2022-07-12T13:36:21Z</time>
      </trkpt>
      <trkpt lat="46.51097" lon="6.12237">
        <ele>1242.2</ele>
        <time>2022-07-12T13:36:26Z</time>
      </trkpt>
      <trkpt lat="46.51094" lon="6.12232">
        <ele>1242.3</ele>
        <time>2022-07-12T13:36:31Z</time>
      </trkpt>
      <trkpt lat="46.5109" lon="6.12227">
        <ele>1242.2</ele>
        <time>2022-07-12T13:36:36Z</time>
      </trkpt>
      <trkpt lat="46.51086" lon="6.12222">
        <ele>1242.4</ele>
        <time>2022-07-12T13:36:41Z</time>
      </trkpt>
      <trkpt lat="46.5108" lon="6.12221">
        <ele>1242.3</ele>
        <time>2022-07-12T13:36:45Z</time>
      </trkpt>
      <trkpt lat="46.51076" lon="6.12218">
        <ele>1241.9</ele>
        <time>2022-07-12T13:36:49Z</time>
      </trkpt>
      <trkpt lat="46.51072" lon="6.12216">
        <ele>1241.7</ele>
        <time>2022-07-12T13:36:53Z</time>
      </trkpt>
      <trkpt lat="46.51068" lon="6.12212">
        <ele>1241.8</ele>
        <time>2022-07-12T13:36:57Z</time>
      </trkpt>
      <trkpt lat="46.51064" lon="6.12208">
        <ele>1242</ele>
        <time>2022-07-12T13:37:02Z</time>
      </trkpt>
      <trkpt lat="46.51059" lon="6.12207">
        <ele>1242.3</ele>
        <time>2022-07-12T13:37:06Z</time>
      </trkpt>
      <trkpt lat="46.51055" lon="6.12204">
        <ele>1242.5</ele>
        <time>2022-07-12T13:37:10Z</time>
      </trkpt>
      <trkpt lat="46.51051" lon="6.12199">
        <ele>1242.4</ele>
        <time>2022-07-12T13:37:15Z</time>
      </trkpt>
      <trkpt lat="46.51047" lon="6.12195">
        <ele>1242.2</ele>
        <time>2022-07-12T13:37:20Z</time>
      </trkpt>
      <trkpt lat="46.51044" lon="6.12189">
        <ele>1241.9</ele>
        <time>2022-07-12T13:37:25Z</time>
      </trkpt>
      <trkpt lat="46.51039" lon="6.12186">
        <ele>1241.4</ele>
        <time>2022-07-12T13:37:32Z</time>
      </trkpt>
      <trkpt lat="46.51036" lon="6.12181">
        <ele>1241.3</ele>
        <time>2022-07-12T13:37:36Z</time>
      </trkpt>
      <trkpt lat="46.51032" lon="6.12176">
        <ele>1241.3</ele>
        <time>2022-07-12T13:37:40Z</time>
      </trkpt>
      <trkpt lat="46.51029" lon="6.12171">
        <ele>1239.6</ele>
        <time>2022-07-12T13:37:48Z</time>
      </trkpt>
      <trkpt lat="46.51024" lon="6.12166">
        <ele>1238.3</ele>
        <time>2022-07-12T13:37:53Z</time>
      </trkpt>
      <trkpt lat="46.5102" lon="6.12163">
        <ele>1237</ele>
        <time>2022-07-12T13:37:58Z</time>
      </trkpt>
      <trkpt lat="46.51016" lon="6.12158">
        <ele>1236.3</ele>
        <time>2022-07-12T13:38:03Z</time>
      </trkpt>
      <trkpt lat="46.51013" lon="6.12153">
        <ele>1235.7</ele>
        <time>2022-07-12T13:38:08Z</time>
      </trkpt>
      <trkpt lat="46.51008" lon="6.12148">
        <ele>1235</ele>
        <time>2022-07-12T13:38:12Z</time>
      </trkpt>
      <trkpt lat="46.51005" lon="6.12144">
        <ele>1234.5</ele>
        <time>2022-07-12T13:38:16Z</time>
      </trkpt>
      <trkpt lat="46.51001" lon="6.12137">
        <ele>1233.7</ele>
        <time>2022-07-12T13:38:21Z</time>
      </trkpt>
      <trkpt lat="46.50998" lon="6.12132">
        <ele>1232.7</ele>
        <time>2022-07-12T13:38:28Z</time>
      </trkpt>
      <trkpt lat="46.50995" lon="6.12126">
        <ele>1232.6</ele>
        <time>2022-07-12T13:38:33Z</time>
      </trkpt>
      <trkpt lat="46.50992" lon="6.12121">
        <ele>1233.1</ele>
        <time>2022-07-12T13:38:38Z</time>
      </trkpt>
      <trkpt lat="46.50987" lon="6.12116">
        <ele>1233.8</ele>
        <time>2022-07-12T13:38:42Z</time>
      </trkpt>
      <trkpt lat="46.50982" lon="6.12113">
        <ele>1234.4</ele>
        <time>2022-07-12T13:38:45Z</time>
      </trkpt>
      <trkpt lat="46.50977" lon="6.1211">
        <ele>1234.9</ele>
        <time>2022-07-12T13:38:48Z</time>
      </trkpt>
      <trkpt lat="46.50972" lon="6.12106">
        <ele>1235.4</ele>
        <time>2022-07-12T13:38:51Z</time>
      </trkpt>
      <trkpt lat="46.50968" lon="6.12103">
        <ele>1236.2</ele>
        <time>2022-07-12T13:38:54Z</time>
      </trkpt>
      <trkpt lat="46.50964" lon="6.12103">
        <ele>1237</ele>
        <time>2022-07-12T13:38:59Z</time>
      </trkpt>
      <trkpt lat="46.50959" lon="6.12101">
        <ele>1236.6</ele>
        <time>2022-07-12T13:39:04Z</time>
      </trkpt>
      <trkpt lat="46.50955" lon="6.12096">
        <ele>1236.3</ele>
        <time>2022-07-12T13:39:08Z</time>
      </trkpt>
      <trkpt lat="46.50952" lon="6.1209">
        <ele>1236.1</ele>
        <time>2022-07-12T13:39:11Z</time>
      </trkpt>
      <trkpt lat="46.50949" lon="6.12085">
        <ele>1236</ele>
        <time>2022-07-12T13:39:14Z</time>
      </trkpt>
      <trkpt lat="46.50946" lon="6.12078">
        <ele>1235.7</ele>
        <time>2022-07-12T13:39:19Z</time>
      </trkpt>
      <trkpt lat="46.50945" lon="6.12072">
        <ele>1235.6</ele>
        <time>2022-07-12T13:39:23Z</time>
      </trkpt>
      <trkpt lat="46.50943" lon="6.12065">
        <ele>1235.8</ele>
        <time>2022-07-12T13:39:28Z</time>
      </trkpt>
      <trkpt lat="46.50939" lon="6.12062">
        <ele>1234.9</ele>
        <time>2022-07-12T13:39:37Z</time>
      </trkpt>
      <trkpt lat="46.50936" lon="6.12056">
        <ele>1234.5</ele>
        <time>2022-07-12T13:39:42Z</time>
      </trkpt>
      <trkpt lat="46.50933" lon="6.12049">
        <ele>1234.6</ele>
        <time>2022-07-12T13:39:46Z</time>
      </trkpt>
      <trkpt lat="46.50931" lon="6.12042">
        <ele>1234.5</ele>
        <time>2022-07-12T13:39:50Z</time>
      </trkpt>
      <trkpt lat="46.50927" lon="6.12037">
        <ele>1234.5</ele>
        <time>2022-07-12T13:39:56Z</time>
      </trkpt>
      <trkpt lat="46.50926" lon="6.1203">
        <ele>1235.1</ele>
        <time>2022-07-12T13:40:01Z</time>
      </trkpt>
      <trkpt lat="46.50924" lon="6.12023">
        <ele>1235.6</ele>
        <time>2022-07-12T13:40:05Z</time>
      </trkpt>
      <trkpt lat="46.50923" lon="6.12016">
        <ele>1236.3</ele>
        <time>2022-07-12T13:40:09Z</time>
      </trkpt>
      <trkpt lat="46.5092" lon="6.12009">
        <ele>1237.1</ele>
        <time>2022-07-12T13:40:13Z</time>
      </trkpt>
      <trkpt lat="46.50917" lon="6.12004">
        <ele>1237.9</ele>
        <time>2022-07-12T13:40:17Z</time>
      </trkpt>
      <trkpt lat="46.50912" lon="6.12002">
        <ele>1239.2</ele>
        <time>2022-07-12T13:40:23Z</time>
      </trkpt>
      <trkpt lat="46.50908" lon="6.11999">
        <ele>1240.2</ele>
        <time>2022-07-12T13:40:28Z</time>
      </trkpt>
      <trkpt lat="46.50904" lon="6.11992">
        <ele>1241.5</ele>
        <time>2022-07-12T13:40:33Z</time>
      </trkpt>
      <trkpt lat="46.50903" lon="6.11985">
        <ele>1242.1</ele>
        <time>2022-07-12T13:40:38Z</time>
      </trkpt>
      <trkpt lat="46.50901" lon="6.11978">
        <ele>1242.3</ele>
        <time>2022-07-12T13:40:43Z</time>
      </trkpt>
      <trkpt lat="46.50899" lon="6.11971">
        <ele>1242.3</ele>
        <time>2022-07-12T13:40:47Z</time>
      </trkpt>
      <trkpt lat="46.50896" lon="6.11966">
        <ele>1242.1</ele>
        <time>2022-07-12T13:40:52Z</time>
      </trkpt>
      <trkpt lat="46.50893" lon="6.1196">
        <ele>1241.6</ele>
        <time>2022-07-12T13:40:58Z</time>
      </trkpt>
      <trkpt lat="46.50893" lon="6.11953">
        <ele>1241</ele>
        <time>2022-07-12T13:41:03Z</time>
      </trkpt>
      <trkpt lat="46.50892" lon="6.11945">
        <ele>1240.9</ele>
        <time>2022-07-12T13:41:07Z</time>
      </trkpt>
      <trkpt lat="46.50893" lon="6.11938">
        <ele>1241.1</ele>
        <time>2022-07-12T13:41:11Z</time>
      </trkpt>
      <trkpt lat="46.5089" lon="6.11932">
        <ele>1241.7</ele>
        <time>2022-07-12T13:41:21Z</time>
      </trkpt>
      <trkpt lat="46.50889" lon="6.11925">
        <ele>1242.1</ele>
        <time>2022-07-12T13:41:25Z</time>
      </trkpt>
      <trkpt lat="46.50892" lon="6.11919">
        <ele>1242.9</ele>
        <time>2022-07-12T13:41:30Z</time>
      </trkpt>
      <trkpt lat="46.50892" lon="6.11911">
        <ele>1243.1</ele>
        <time>2022-07-12T13:41:35Z</time>
      </trkpt>
      <trkpt lat="46.5089" lon="6.11904">
        <ele>1243.3</ele>
        <time>2022-07-12T13:41:38Z</time>
      </trkpt>
      <trkpt lat="46.50888" lon="6.11897">
        <ele>1244.1</ele>
        <time>2022-07-12T13:41:41Z</time>
      </trkpt>
      <trkpt lat="46.50887" lon="6.11889">
        <ele>1245.8</ele>
        <time>2022-07-12T13:41:45Z</time>
      </trkpt>
      <trkpt lat="46.50884" lon="6.11882">
        <ele>1247.5</ele>
        <time>2022-07-12T13:41:49Z</time>
      </trkpt>
      <trkpt lat="46.50881" lon="6.11875">
        <ele>1249</ele>
        <time>2022-07-12T13:41:53Z</time>
      </trkpt>
      <trkpt lat="46.50878" lon="6.11869">
        <ele>1249.6</ele>
        <time>2022-07-12T13:41:57Z</time>
      </trkpt>
      <trkpt lat="46.50875" lon="6.11864">
        <ele>1250.1</ele>
        <time>2022-07-12T13:42:01Z</time>
      </trkpt>
      <trkpt lat="46.50871" lon="6.11859">
        <ele>1250.5</ele>
        <time>2022-07-12T13:42:07Z</time>
      </trkpt>
      <trkpt lat="46.50867" lon="6.11855">
        <ele>1249.1</ele>
        <time>2022-07-12T13:42:14Z</time>
      </trkpt>
      <trkpt lat="46.50863" lon="6.11851">
        <ele>1247.8</ele>
        <time>2022-07-12T13:42:20Z</time>
      </trkpt>
      <trkpt lat="46.50858" lon="6.11847">
        <ele>1247.2</ele>
        <time>2022-07-12T13:42:25Z</time>
      </trkpt>
      <trkpt lat="46.50855" lon="6.11842">
        <ele>1246.9</ele>
        <time>2022-07-12T13:42:29Z</time>
      </trkpt>
      <trkpt lat="46.50852" lon="6.11837">
        <ele>1246.5</ele>
        <time>2022-07-12T13:42:35Z</time>
      </trkpt>
      <trkpt lat="46.50847" lon="6.11834">
        <ele>1245.9</ele>
        <time>2022-07-12T13:42:42Z</time>
      </trkpt>
      <trkpt lat="46.50842" lon="6.11832">
        <ele>1244.8</ele>
        <time>2022-07-12T13:42:47Z</time>
      </trkpt>
      <trkpt lat="46.50837" lon="6.11829">
        <ele>1243.7</ele>
        <time>2022-07-12T13:42:52Z</time>
      </trkpt>
      <trkpt lat="46.50832" lon="6.11827">
        <ele>1242.2</ele>
        <time>2022-07-12T13:42:58Z</time>
      </trkpt>
      <trkpt lat="46.50831" lon="6.1182">
        <ele>1240.8</ele>
        <time>2022-07-12T13:43:04Z</time>
      </trkpt>
      <trkpt lat="46.5083" lon="6.11814">
        <ele>1240</ele>
        <time>2022-07-12T13:43:08Z</time>
      </trkpt>
      <trkpt lat="46.50826" lon="6.11809">
        <ele>1239.8</ele>
        <time>2022-07-12T13:43:11Z</time>
      </trkpt>
      <trkpt lat="46.50821" lon="6.11805">
        <ele>1239.6</ele>
        <time>2022-07-12T13:43:16Z</time>
      </trkpt>
      <trkpt lat="46.50817" lon="6.11802">
        <ele>1238.8</ele>
        <time>2022-07-12T13:43:21Z</time>
      </trkpt>
      <trkpt lat="46.50812" lon="6.11798">
        <ele>1237.2</ele>
        <time>2022-07-12T13:43:27Z</time>
      </trkpt>
      <trkpt lat="46.5081" lon="6.11791">
        <ele>1236.2</ele>
        <time>2022-07-12T13:43:31Z</time>
      </trkpt>
      <trkpt lat="46.50809" lon="6.11784">
        <ele>1235.5</ele>
        <time>2022-07-12T13:43:34Z</time>
      </trkpt>
      <trkpt lat="46.50808" lon="6.11777">
        <ele>1234.8</ele>
        <time>2022-07-12T13:43:38Z</time>
      </trkpt>
      <trkpt lat="46.50808" lon="6.1177">
        <ele>1233.9</ele>
        <time>2022-07-12T13:43:43Z</time>
      </trkpt>
      <trkpt lat="46.50809" lon="6.11762">
        <ele>1232.8</ele>
        <time>2022-07-12T13:43:47Z</time>
      </trkpt>
      <trkpt lat="46.5081" lon="6.11755">
        <ele>1231.8</ele>
        <time>2022-07-12T13:43:50Z</time>
      </trkpt>
      <trkpt lat="46.5081" lon="6.11747">
        <ele>1230.7</ele>
        <time>2022-07-12T13:43:54Z</time>
      </trkpt>
      <trkpt lat="46.50808" lon="6.1174">
        <ele>1229.3</ele>
        <time>2022-07-12T13:44:02Z</time>
      </trkpt>
      <trkpt lat="46.50807" lon="6.11733">
        <ele>1229.1</ele>
        <time>2022-07-12T13:44:08Z</time>
      </trkpt>
      <trkpt lat="46.50807" lon="6.11726">
        <ele>1229.3</ele>
        <time>2022-07-12T13:44:13Z</time>
      </trkpt>
      <trkpt lat="46.50806" lon="6.11719">
        <ele>1229.4</ele>
        <time>2022-07-12T13:44:17Z</time>
      </trkpt>
      <trkpt lat="46.50804" lon="6.11713">
        <ele>1229.4</ele>
        <time>2022-07-12T13:44:22Z</time>
      </trkpt>
      <trkpt lat="46.50799" lon="6.1171">
        <ele>1228.9</ele>
        <time>2022-07-12T13:44:27Z</time>
      </trkpt>
      <trkpt lat="46.50795" lon="6.11706">
        <ele>1228.3</ele>
        <time>2022-07-12T13:44:32Z</time>
      </trkpt>
      <trkpt lat="46.5079" lon="6.11704">
        <ele>1228.3</ele>
        <time>2022-07-12T13:44:36Z</time>
      </trkpt>
      <trkpt lat="46.50785" lon="6.11703">
        <ele>1228.6</ele>
        <time>2022-07-12T13:44:39Z</time>
      </trkpt>
      <trkpt lat="46.50781" lon="6.11704">
        <ele>1229.5</ele>
        <time>2022-07-12T13:44:43Z</time>
      </trkpt>
      <trkpt lat="46.50775" lon="6.11705">
        <ele>1230</ele>
        <time>2022-07-12T13:44:48Z</time>
      </trkpt>
      <trkpt lat="46.50771" lon="6.11703">
        <ele>1230.6</ele>
        <time>2022-07-12T13:44:54Z</time>
      </trkpt>
      <trkpt lat="46.50765" lon="6.11702">
        <ele>1231.1</ele>
        <time>2022-07-12T13:44:59Z</time>
      </trkpt>
      <trkpt lat="46.5076" lon="6.11702">
        <ele>1231.5</ele>
        <time>2022-07-12T13:45:03Z</time>
      </trkpt>
      <trkpt lat="46.50755" lon="6.117">
        <ele>1231.6</ele>
        <time>2022-07-12T13:45:07Z</time>
      </trkpt>
      <trkpt lat="46.5075" lon="6.11699">
        <ele>1231.2</ele>
        <time>2022-07-12T13:45:12Z</time>
      </trkpt>
      <trkpt lat="46.50745" lon="6.11697">
        <ele>1230.8</ele>
        <time>2022-07-12T13:45:16Z</time>
      </trkpt>
      <trkpt lat="46.5074" lon="6.11695">
        <ele>1230.6</ele>
        <time>2022-07-12T13:45:20Z</time>
      </trkpt>
      <trkpt lat="46.50736" lon="6.11692">
        <ele>1230.6</ele>
        <time>2022-07-12T13:45:24Z</time>
      </trkpt>
      <trkpt lat="46.50733" lon="6.11687">
        <ele>1231.1</ele>
        <time>2022-07-12T13:45:29Z</time>
      </trkpt>
      <trkpt lat="46.5073" lon="6.11682">
        <ele>1231.2</ele>
        <time>2022-07-12T13:45:34Z</time>
      </trkpt>
      <trkpt lat="46.50725" lon="6.11677">
        <ele>1231.2</ele>
        <time>2022-07-12T13:45:38Z</time>
      </trkpt>
      <trkpt lat="46.50721" lon="6.11672">
        <ele>1231.4</ele>
        <time>2022-07-12T13:45:41Z</time>
      </trkpt>
      <trkpt lat="46.50717" lon="6.11668">
        <ele>1231.9</ele>
        <time>2022-07-12T13:45:44Z</time>
      </trkpt>
      <trkpt lat="46.50714" lon="6.11662">
        <ele>1233.2</ele>
        <time>2022-07-12T13:45:48Z</time>
      </trkpt>
      <trkpt lat="46.50711" lon="6.11656">
        <ele>1234.5</ele>
        <time>2022-07-12T13:45:52Z</time>
      </trkpt>
      <trkpt lat="46.5071" lon="6.11649">
        <ele>1234.4</ele>
        <time>2022-07-12T13:46:04Z</time>
      </trkpt>
      <trkpt lat="46.50705" lon="6.11648">
        <ele>1231.2</ele>
        <time>2022-07-12T13:46:19Z</time>
      </trkpt>
      <trkpt lat="46.507" lon="6.11646">
        <ele>1229.6</ele>
        <time>2022-07-12T13:46:24Z</time>
      </trkpt>
      <trkpt lat="46.50696" lon="6.11643">
        <ele>1228.4</ele>
        <time>2022-07-12T13:46:29Z</time>
      </trkpt>
      <trkpt lat="46.50692" lon="6.11638">
        <ele>1227.8</ele>
        <time>2022-07-12T13:46:35Z</time>
      </trkpt>
      <trkpt lat="46.5069" lon="6.11632">
        <ele>1227.3</ele>
        <time>2022-07-12T13:46:41Z</time>
      </trkpt>
      <trkpt lat="46.50686" lon="6.11625">
        <ele>1227.2</ele>
        <time>2022-07-12T13:46:45Z</time>
      </trkpt>
      <trkpt lat="46.50682" lon="6.11623">
        <ele>1227.5</ele>
        <time>2022-07-12T13:46:48Z</time>
      </trkpt>
      <trkpt lat="46.50677" lon="6.1162">
        <ele>1227.7</ele>
        <time>2022-07-12T13:46:52Z</time>
      </trkpt>
      <trkpt lat="46.50673" lon="6.11616">
        <ele>1227</ele>
        <time>2022-07-12T13:46:57Z</time>
      </trkpt>
      <trkpt lat="46.50669" lon="6.11612">
        <ele>1225.9</ele>
        <time>2022-07-12T13:47:02Z</time>
      </trkpt>
      <trkpt lat="46.50665" lon="6.11608">
        <ele>1225</ele>
        <time>2022-07-12T13:47:07Z</time>
      </trkpt>
      <trkpt lat="46.50661" lon="6.11603">
        <ele>1224.3</ele>
        <time>2022-07-12T13:47:11Z</time>
      </trkpt>
      <trkpt lat="46.50658" lon="6.11598">
        <ele>1223.9</ele>
        <time>2022-07-12T13:47:16Z</time>
      </trkpt>
      <trkpt lat="46.50654" lon="6.11594">
        <ele>1223.9</ele>
        <time>2022-07-12T13:47:20Z</time>
      </trkpt>
      <trkpt lat="46.5065" lon="6.1159">
        <ele>1224</ele>
        <time>2022-07-12T13:47:24Z</time>
      </trkpt>
      <trkpt lat="46.50646" lon="6.11586">
        <ele>1224.1</ele>
        <time>2022-07-12T13:47:28Z</time>
      </trkpt>
      <trkpt lat="46.50641" lon="6.11583">
        <ele>1224.2</ele>
        <time>2022-07-12T13:47:33Z</time>
      </trkpt>
      <trkpt lat="46.50636" lon="6.1158">
        <ele>1224.5</ele>
        <time>2022-07-12T13:47:37Z</time>
      </trkpt>
      <trkpt lat="46.50632" lon="6.11576">
        <ele>1225</ele>
        <time>2022-07-12T13:47:41Z</time>
      </trkpt>
      <trkpt lat="46.50628" lon="6.11574">
        <ele>1225.2</ele>
        <time>2022-07-12T13:47:47Z</time>
      </trkpt>
      <trkpt lat="46.50623" lon="6.11573">
        <ele>1224.5</ele>
        <time>2022-07-12T13:47:52Z</time>
      </trkpt>
      <trkpt lat="46.5062" lon="6.11566">
        <ele>1223.5</ele>
        <time>2022-07-12T13:47:57Z</time>
      </trkpt>
      <trkpt lat="46.50619" lon="6.11558">
        <ele>1222.9</ele>
        <time>2022-07-12T13:48:01Z</time>
      </trkpt>
      <trkpt lat="46.50618" lon="6.11551">
        <ele>1222.3</ele>
        <time>2022-07-12T13:48:06Z</time>
      </trkpt>
      <trkpt lat="46.50615" lon="6.11546">
        <ele>1221.1</ele>
        <time>2022-07-12T13:48:12Z</time>
      </trkpt>
      <trkpt lat="46.50612" lon="6.11541">
        <ele>1219.3</ele>
        <time>2022-07-12T13:48:18Z</time>
      </trkpt>
      <trkpt lat="46.50609" lon="6.11533">
        <ele>1217.9</ele>
        <time>2022-07-12T13:48:23Z</time>
      </trkpt>
      <trkpt lat="46.50608" lon="6.11527">
        <ele>1218.1</ele>
        <time>2022-07-12T13:48:30Z</time>
      </trkpt>
      <trkpt lat="46.50609" lon="6.11519">
        <ele>1218.9</ele>
        <time>2022-07-12T13:48:34Z</time>
      </trkpt>
      <trkpt lat="46.50607" lon="6.11512">
        <ele>1220.3</ele>
        <time>2022-07-12T13:48:39Z</time>
      </trkpt>
      <trkpt lat="46.5061" lon="6.11506">
        <ele>1220.8</ele>
        <time>2022-07-12T13:48:46Z</time>
      </trkpt>
      <trkpt lat="46.50613" lon="6.11499">
        <ele>1220.8</ele>
        <time>2022-07-12T13:48:50Z</time>
      </trkpt>
      <trkpt lat="46.50617" lon="6.11494">
        <ele>1220.6</ele>
        <time>2022-07-12T13:48:54Z</time>
      </trkpt>
      <trkpt lat="46.5062" lon="6.11488">
        <ele>1220.5</ele>
        <time>2022-07-12T13:48:59Z</time>
      </trkpt>
      <trkpt lat="46.50624" lon="6.11483">
        <ele>1220.7</ele>
        <time>2022-07-12T13:49:04Z</time>
      </trkpt>
      <trkpt lat="46.50626" lon="6.11477">
        <ele>1221.3</ele>
        <time>2022-07-12T13:49:09Z</time>
      </trkpt>
      <trkpt lat="46.50624" lon="6.11469">
        <ele>1221.8</ele>
        <time>2022-07-12T13:49:15Z</time>
      </trkpt>
      <trkpt lat="46.5062" lon="6.11464">
        <ele>1221.2</ele>
        <time>2022-07-12T13:49:19Z</time>
      </trkpt>
      <trkpt lat="46.50616" lon="6.1146">
        <ele>1220.6</ele>
        <time>2022-07-12T13:49:22Z</time>
      </trkpt>
      <trkpt lat="46.50612" lon="6.11454">
        <ele>1220.1</ele>
        <time>2022-07-12T13:49:26Z</time>
      </trkpt>
      <trkpt lat="46.5061" lon="6.11448">
        <ele>1219.8</ele>
        <time>2022-07-12T13:49:30Z</time>
      </trkpt>
      <trkpt lat="46.50607" lon="6.11442">
        <ele>1219.7</ele>
        <time>2022-07-12T13:49:36Z</time>
      </trkpt>
      <trkpt lat="46.50604" lon="6.11435">
        <ele>1218.7</ele>
        <time>2022-07-12T13:49:42Z</time>
      </trkpt>
      <trkpt lat="46.50603" lon="6.11429">
        <ele>1217.7</ele>
        <time>2022-07-12T13:49:46Z</time>
      </trkpt>
      <trkpt lat="46.50602" lon="6.11421">
        <ele>1217.3</ele>
        <time>2022-07-12T13:49:50Z</time>
      </trkpt>
      <trkpt lat="46.50602" lon="6.11414">
        <ele>1217.2</ele>
        <time>2022-07-12T13:49:54Z</time>
      </trkpt>
      <trkpt lat="46.50604" lon="6.11406">
        <ele>1217</ele>
        <time>2022-07-12T13:49:59Z</time>
      </trkpt>
      <trkpt lat="46.50605" lon="6.114">
        <ele>1216.9</ele>
        <time>2022-07-12T13:50:03Z</time>
      </trkpt>
      <trkpt lat="46.50608" lon="6.11394">
        <ele>1215.7</ele>
        <time>2022-07-12T13:50:10Z</time>
      </trkpt>
      <trkpt lat="46.50605" lon="6.11389">
        <ele>1214.4</ele>
        <time>2022-07-12T13:50:14Z</time>
      </trkpt>
      <trkpt lat="46.506" lon="6.11386">
        <ele>1212</ele>
        <time>2022-07-12T13:50:19Z</time>
      </trkpt>
      <trkpt lat="46.50596" lon="6.11383">
        <ele>1210.4</ele>
        <time>2022-07-12T13:50:24Z</time>
      </trkpt>
      <trkpt lat="46.50592" lon="6.1138">
        <ele>1209.7</ele>
        <time>2022-07-12T13:50:30Z</time>
      </trkpt>
      <trkpt lat="46.50588" lon="6.11383">
        <ele>1207.2</ele>
        <time>2022-07-12T13:50:38Z</time>
      </trkpt>
      <trkpt lat="46.50583" lon="6.11384">
        <ele>1204.8</ele>
        <time>2022-07-12T13:50:47Z</time>
      </trkpt>
      <trkpt lat="46.50578" lon="6.11383">
        <ele>1203.1</ele>
        <time>2022-07-12T13:50:55Z</time>
      </trkpt>
      <trkpt lat="46.50573" lon="6.11383">
        <ele>1202.9</ele>
        <time>2022-07-12T13:51:01Z</time>
      </trkpt>
      <trkpt lat="46.50568" lon="6.11381">
        <ele>1203.2</ele>
        <time>2022-07-12T13:51:06Z</time>
      </trkpt>
      <trkpt lat="46.50564" lon="6.11376">
        <ele>1203.4</ele>
        <time>2022-07-12T13:51:10Z</time>
      </trkpt>
      <trkpt lat="46.50563" lon="6.11369">
        <ele>1203.6</ele>
        <time>2022-07-12T13:51:15Z</time>
      </trkpt>
      <trkpt lat="46.50564" lon="6.11362">
        <ele>1204.1</ele>
        <time>2022-07-12T13:51:19Z</time>
      </trkpt>
      <trkpt lat="46.50562" lon="6.11355">
        <ele>1203.2</ele>
        <time>2022-07-12T13:51:36Z</time>
      </trkpt>
      <trkpt lat="46.5056" lon="6.11349">
        <ele>1202.7</ele>
        <time>2022-07-12T13:51:41Z</time>
      </trkpt>
      <trkpt lat="46.50556" lon="6.11344">
        <ele>1202.2</ele>
        <time>2022-07-12T13:51:45Z</time>
      </trkpt>
      <trkpt lat="46.50552" lon="6.11342">
        <ele>1201.5</ele>
        <time>2022-07-12T13:51:50Z</time>
      </trkpt>
      <trkpt lat="46.50547" lon="6.1134">
        <ele>1200.3</ele>
        <time>2022-07-12T13:51:56Z</time>
      </trkpt>
      <trkpt lat="46.50542" lon="6.11339">
        <ele>1198.9</ele>
        <time>2022-07-12T13:52:03Z</time>
      </trkpt>
      <trkpt lat="46.50538" lon="6.11336">
        <ele>1197.6</ele>
        <time>2022-07-12T13:52:08Z</time>
      </trkpt>
      <trkpt lat="46.50534" lon="6.11331">
        <ele>1196.6</ele>
        <time>2022-07-12T13:52:13Z</time>
      </trkpt>
      <trkpt lat="46.50529" lon="6.11328">
        <ele>1195.6</ele>
        <time>2022-07-12T13:52:18Z</time>
      </trkpt>
      <trkpt lat="46.50524" lon="6.11326">
        <ele>1194.1</ele>
        <time>2022-07-12T13:52:23Z</time>
      </trkpt>
      <trkpt lat="46.5052" lon="6.11323">
        <ele>1192.9</ele>
        <time>2022-07-12T13:52:28Z</time>
      </trkpt>
      <trkpt lat="46.50515" lon="6.11321">
        <ele>1192</ele>
        <time>2022-07-12T13:52:33Z</time>
      </trkpt>
      <trkpt lat="46.50511" lon="6.11316">
        <ele>1191.7</ele>
        <time>2022-07-12T13:52:37Z</time>
      </trkpt>
      <trkpt lat="46.50507" lon="6.11312">
        <ele>1191.5</ele>
        <time>2022-07-12T13:52:42Z</time>
      </trkpt>
      <trkpt lat="46.50503" lon="6.11308">
        <ele>1191.3</ele>
        <time>2022-07-12T13:52:47Z</time>
      </trkpt>
      <trkpt lat="46.50499" lon="6.11305">
        <ele>1191</ele>
        <time>2022-07-12T13:52:54Z</time>
      </trkpt>
      <trkpt lat="46.50496" lon="6.11299">
        <ele>1190.3</ele>
        <time>2022-07-12T13:53:00Z</time>
      </trkpt>
      <trkpt lat="46.50494" lon="6.11293">
        <ele>1189.5</ele>
        <time>2022-07-12T13:53:05Z</time>
      </trkpt>
      <trkpt lat="46.50491" lon="6.11288">
        <ele>1188.9</ele>
        <time>2022-07-12T13:53:09Z</time>
      </trkpt>
      <trkpt lat="46.50487" lon="6.11284">
        <ele>1188.2</ele>
        <time>2022-07-12T13:53:13Z</time>
      </trkpt>
      <trkpt lat="46.50484" lon="6.11276">
        <ele>1187.6</ele>
        <time>2022-07-12T13:53:18Z</time>
      </trkpt>
      <trkpt lat="46.50483" lon="6.11268">
        <ele>1187</ele>
        <time>2022-07-12T13:53:22Z</time>
      </trkpt>
      <trkpt lat="46.5048" lon="6.11264">
        <ele>1185.9</ele>
        <time>2022-07-12T13:53:27Z</time>
      </trkpt>
      <trkpt lat="46.50476" lon="6.11261">
        <ele>1184.4</ele>
        <time>2022-07-12T13:53:36Z</time>
      </trkpt>
      <trkpt lat="46.50471" lon="6.11263">
        <ele>1183.5</ele>
        <time>2022-07-12T13:53:44Z</time>
      </trkpt>
      <trkpt lat="46.50467" lon="6.1126">
        <ele>1183.7</ele>
        <time>2022-07-12T13:53:49Z</time>
      </trkpt>
      <trkpt lat="46.50462" lon="6.1126">
        <ele>1183.3</ele>
        <time>2022-07-12T13:54:01Z</time>
      </trkpt>
      <trkpt lat="46.50458" lon="6.11265">
        <ele>1183</ele>
        <time>2022-07-12T13:54:29Z</time>
      </trkpt>
      <trkpt lat="46.50454" lon="6.11262">
        <ele>1187.7</ele>
        <time>2022-07-12T13:54:44Z</time>
      </trkpt>
      <trkpt lat="46.50453" lon="6.11255">
        <ele>1192.7</ele>
        <time>2022-07-12T13:54:55Z</time>
      </trkpt>
      <trkpt lat="46.50449" lon="6.11251">
        <ele>1192.7</ele>
        <time>2022-07-12T13:55:07Z</time>
      </trkpt>
      <trkpt lat="46.50445" lon="6.11247">
        <ele>1192.3</ele>
        <time>2022-07-12T13:55:15Z</time>
      </trkpt>
      <trkpt lat="46.50441" lon="6.11244">
        <ele>1191.2</ele>
        <time>2022-07-12T13:55:21Z</time>
      </trkpt>
      <trkpt lat="46.50439" lon="6.11238">
        <ele>1189.7</ele>
        <time>2022-07-12T13:55:27Z</time>
      </trkpt>
      <trkpt lat="46.50436" lon="6.11232">
        <ele>1188.5</ele>
        <time>2022-07-12T13:55:37Z</time>
      </trkpt>
      <trkpt lat="46.50434" lon="6.11225">
        <ele>1187.9</ele>
        <time>2022-07-12T13:55:44Z</time>
      </trkpt>
      <trkpt lat="46.50434" lon="6.11217">
        <ele>1187</ele>
        <time>2022-07-12T13:55:49Z</time>
      </trkpt>
      <trkpt lat="46.50431" lon="6.11211">
        <ele>1186</ele>
        <time>2022-07-12T13:55:55Z</time>
      </trkpt>
      <trkpt lat="46.50429" lon="6.11204">
        <ele>1185.1</ele>
        <time>2022-07-12T13:56:01Z</time>
      </trkpt>
      <trkpt lat="46.50427" lon="6.11198">
        <ele>1183</ele>
        <time>2022-07-12T13:56:07Z</time>
      </trkpt>
      <trkpt lat="46.50424" lon="6.11192">
        <ele>1180</ele>
        <time>2022-07-12T13:56:15Z</time>
      </trkpt>
      <trkpt lat="46.50422" lon="6.11185">
        <ele>1178.3</ele>
        <time>2022-07-12T13:56:20Z</time>
      </trkpt>
      <trkpt lat="46.50421" lon="6.11178">
        <ele>1175.6</ele>
        <time>2022-07-12T13:56:29Z</time>
      </trkpt>
      <trkpt lat="46.50419" lon="6.1117">
        <ele>1174.4</ele>
        <time>2022-07-12T13:56:36Z</time>
      </trkpt>
      <trkpt lat="46.50417" lon="6.11164">
        <ele>1173.1</ele>
        <time>2022-07-12T13:56:42Z</time>
      </trkpt>
      <trkpt lat="46.50413" lon="6.11159">
        <ele>1172</ele>
        <time>2022-07-12T13:56:49Z</time>
      </trkpt>
      <trkpt lat="46.50412" lon="6.11153">
        <ele>1171.1</ele>
        <time>2022-07-12T13:56:58Z</time>
      </trkpt>
      <trkpt lat="46.5041" lon="6.11144">
        <ele>1171</ele>
        <time>2022-07-12T13:57:01Z</time>
      </trkpt>
      <trkpt lat="46.50408" lon="6.11137">
        <ele>1170.8</ele>
        <time>2022-07-12T13:57:04Z</time>
      </trkpt>
      <trkpt lat="46.50404" lon="6.11133">
        <ele>1170.4</ele>
        <time>2022-07-12T13:57:07Z</time>
      </trkpt>
      <trkpt lat="46.50401" lon="6.11127">
        <ele>1169.8</ele>
        <time>2022-07-12T13:57:11Z</time>
      </trkpt>
      <trkpt lat="46.50399" lon="6.11121">
        <ele>1169.3</ele>
        <time>2022-07-12T13:57:16Z</time>
      </trkpt>
      <trkpt lat="46.50398" lon="6.11112">
        <ele>1168.7</ele>
        <time>2022-07-12T13:57:21Z</time>
      </trkpt>
      <trkpt lat="46.50399" lon="6.11105">
        <ele>1168.3</ele>
        <time>2022-07-12T13:57:25Z</time>
      </trkpt>
      <trkpt lat="46.50397" lon="6.11097">
        <ele>1167.8</ele>
        <time>2022-07-12T13:57:29Z</time>
      </trkpt>
      <trkpt lat="46.50395" lon="6.11091">
        <ele>1167.9</ele>
        <time>2022-07-12T13:57:35Z</time>
      </trkpt>
      <trkpt lat="46.50393" lon="6.11085">
        <ele>1167.6</ele>
        <time>2022-07-12T13:57:45Z</time>
      </trkpt>
      <trkpt lat="46.50389" lon="6.11081">
        <ele>1166.4</ele>
        <time>2022-07-12T13:57:54Z</time>
      </trkpt>
      <trkpt lat="46.50385" lon="6.11078">
        <ele>1165.7</ele>
        <time>2022-07-12T13:57:59Z</time>
      </trkpt>
      <trkpt lat="46.50381" lon="6.11075">
        <ele>1164.9</ele>
        <time>2022-07-12T13:58:09Z</time>
      </trkpt>
      <trkpt lat="46.50376" lon="6.11074">
        <ele>1164.8</ele>
        <time>2022-07-12T13:58:13Z</time>
      </trkpt>
      <trkpt lat="46.50372" lon="6.1107">
        <ele>1164.8</ele>
        <time>2022-07-12T13:58:18Z</time>
      </trkpt>
      <trkpt lat="46.5037" lon="6.11064">
        <ele>1164.6</ele>
        <time>2022-07-12T13:58:22Z</time>
      </trkpt>
      <trkpt lat="46.50366" lon="6.11061">
        <ele>1163</ele>
        <time>2022-07-12T13:58:29Z</time>
      </trkpt>
      <trkpt lat="46.50363" lon="6.11055">
        <ele>1160.3</ele>
        <time>2022-07-12T13:58:36Z</time>
      </trkpt>
      <trkpt lat="46.50363" lon="6.11048">
        <ele>1157.4</ele>
        <time>2022-07-12T13:58:43Z</time>
      </trkpt>
      <trkpt lat="46.50362" lon="6.11041">
        <ele>1153.6</ele>
        <time>2022-07-12T13:58:51Z</time>
      </trkpt>
      <trkpt lat="46.50362" lon="6.11034">
        <ele>1151.9</ele>
        <time>2022-07-12T13:58:58Z</time>
      </trkpt>
      <trkpt lat="46.50363" lon="6.11025">
        <ele>1151.4</ele>
        <time>2022-07-12T13:59:03Z</time>
      </trkpt>
      <trkpt lat="46.50363" lon="6.11017">
        <ele>1150.9</ele>
        <time>2022-07-12T13:59:08Z</time>
      </trkpt>
      <trkpt lat="46.50364" lon="6.1101">
        <ele>1149.9</ele>
        <time>2022-07-12T13:59:14Z</time>
      </trkpt>
      <trkpt lat="46.50362" lon="6.11005">
        <ele>1149.3</ele>
        <time>2022-07-12T13:59:21Z</time>
      </trkpt>
      <trkpt lat="46.50357" lon="6.10999">
        <ele>1147.7</ele>
        <time>2022-07-12T13:59:47Z</time>
      </trkpt>
      <trkpt lat="46.50353" lon="6.10995">
        <ele>1147.5</ele>
        <time>2022-07-12T13:59:50Z</time>
      </trkpt>
      <trkpt lat="46.50352" lon="6.10989">
        <ele>1147.9</ele>
        <time>2022-07-12T13:59:55Z</time>
      </trkpt>
      <trkpt lat="46.50351" lon="6.10982">
        <ele>1147.9</ele>
        <time>2022-07-12T14:00:03Z</time>
      </trkpt>
      <trkpt lat="46.50349" lon="6.10975">
        <ele>1147.6</ele>
        <time>2022-07-12T14:00:11Z</time>
      </trkpt>
      <trkpt lat="46.50345" lon="6.1097">
        <ele>1146.9</ele>
        <time>2022-07-12T14:00:17Z</time>
      </trkpt>
      <trkpt lat="46.50342" lon="6.10965">
        <ele>1145.4</ele>
        <time>2022-07-12T14:00:25Z</time>
      </trkpt>
      <trkpt lat="46.50341" lon="6.10958">
        <ele>1144.4</ele>
        <time>2022-07-12T14:00:32Z</time>
      </trkpt>
      <trkpt lat="46.5034" lon="6.10951">
        <ele>1143.7</ele>
        <time>2022-07-12T14:00:36Z</time>
      </trkpt>
      <trkpt lat="46.5034" lon="6.10945">
        <ele>1142.8</ele>
        <time>2022-07-12T14:00:40Z</time>
      </trkpt>
      <trkpt lat="46.5034" lon="6.10938">
        <ele>1138.5</ele>
        <time>2022-07-12T14:00:53Z</time>
      </trkpt>
      <trkpt lat="46.50338" lon="6.10931">
        <ele>1137.4</ele>
        <time>2022-07-12T14:01:00Z</time>
      </trkpt>
      <trkpt lat="46.50337" lon="6.10924">
        <ele>1137.1</ele>
        <time>2022-07-12T14:01:07Z</time>
      </trkpt>
      <trkpt lat="46.50338" lon="6.10917">
        <ele>1135.6</ele>
        <time>2022-07-12T14:01:15Z</time>
      </trkpt>
      <trkpt lat="46.50337" lon="6.10911">
        <ele>1132.8</ele>
        <time>2022-07-12T14:01:25Z</time>
      </trkpt>
      <trkpt lat="46.50341" lon="6.10907">
        <ele>1130.2</ele>
        <time>2022-07-12T14:01:41Z</time>
      </trkpt>
      <trkpt lat="46.50342" lon="6.10913">
        <ele>1128.4</ele>
        <time>2022-07-12T14:02:11Z</time>
      </trkpt>
    </trkseg>
  </trk>
</gpx>